<?xml version='1.0' encoding='UTF-8'?><gpx version="1.1" creator="JPX - https://github.com/jenetics/jpx" xmlns="http://www.topografix.com/GPX/1/1"><trk><trkseg><trkpt lat="44.9496067" lon="9.5894317"><ele>134.0</ele><time>2026-04-18T12:39:55.657Z</time></trkpt><trkpt lat="44.9495467" lon="9.58949"><ele>134.0</ele><time>2026-04-18T12:39:58.657Z</time></trkpt><trkpt lat="44.9495483" lon="9.5895817"><ele>134.0</ele><time>2026-04-18T12:40:00.657Z</time></trkpt><trkpt lat="44.9495633" lon="9.58967"><ele>134.0</ele><time>2026-04-18T12:40:02.657Z</time></trkpt><trkpt lat="44.949545" lon="9.5897917"><ele>134.0</ele><time>2026-04-18T12:40:05.658Z</time></trkpt><trkpt lat="44.94949" lon="9.5898583"><ele>134.0</ele><time>2026-04-18T12:40:07.657Z</time></trkpt><trkpt lat="44.9494067" lon="9.58991"><ele>134.0</ele><time>2026-04-18T12:40:09.657Z</time></trkpt><trkpt lat="44.9493167" lon="9.5899567"><ele>134.0</ele><time>2026-04-18T12:40:11.657Z</time></trkpt><trkpt lat="44.949235" lon="9.589995"><ele>134.0</ele><time>2026-04-18T12:40:13.657Z</time></trkpt><trkpt lat="44.94916" lon="9.5900317"><ele>134.0</ele><time>2026-04-18T12:40:15.658Z</time></trkpt><trkpt lat="44.949075" lon="9.59005"><ele>134.0</ele><time>2026-04-18T12:40:17.657Z</time></trkpt><trkpt lat="44.94899" lon="9.5900583"><ele>134.0</ele><time>2026-04-18T12:40:19.657Z</time></trkpt><trkpt lat="44.9489067" lon="9.5900633"><ele>133.83333333333331</ele><time>2026-04-18T12:40:21.657Z</time></trkpt><trkpt lat="44.9488217" lon="9.5900667"><ele>133.66666666666666</ele><time>2026-04-18T12:40:23.658Z</time></trkpt><trkpt lat="44.9487367" lon="9.5900633"><ele>133.5</ele><time>2026-04-18T12:40:25.657Z</time></trkpt><trkpt lat="44.9486567" lon="9.5900483"><ele>133.33333333333334</ele><time>2026-04-18T12:40:27.657Z</time></trkpt><trkpt lat="44.9485767" lon="9.5900133"><ele>133.16666666666669</ele><time>2026-04-18T12:40:29.657Z</time></trkpt><trkpt lat="44.948495" lon="9.589975"><ele>133.0</ele><time>2026-04-18T12:40:31.657Z</time></trkpt><trkpt lat="44.94842" lon="9.589935"><ele>132.33333333333334</ele><time>2026-04-18T12:40:33.657Z</time></trkpt><trkpt lat="44.9483417" lon="9.5899"><ele>131.66666666666669</ele><time>2026-04-18T12:40:35.657Z</time></trkpt><trkpt lat="44.9482667" lon="9.589865"><ele>131.0</ele><time>2026-04-18T12:40:37.657Z</time></trkpt><trkpt lat="44.9481917" lon="9.589825"><ele>130.33333333333334</ele><time>2026-04-18T12:40:39.657Z</time></trkpt><trkpt lat="44.948115" lon="9.589785"><ele>129.66666666666666</ele><time>2026-04-18T12:40:41.657Z</time></trkpt><trkpt lat="44.94804" lon="9.5897467"><ele>129.0</ele><time>2026-04-18T12:40:43.657Z</time></trkpt><trkpt lat="44.94796" lon="9.5897117"><ele>129.0</ele><time>2026-04-18T12:40:45.657Z</time></trkpt><trkpt lat="44.9478917" lon="9.5896733"><ele>129.0</ele><time>2026-04-18T12:40:47.658Z</time></trkpt><trkpt lat="44.9478183" lon="9.589635"><ele>129.0</ele><time>2026-04-18T12:40:49.657Z</time></trkpt><trkpt lat="44.94774" lon="9.5896"><ele>129.0</ele><time>2026-04-18T12:40:51.657Z</time></trkpt><trkpt lat="44.9476667" lon="9.5895633"><ele>129.0</ele><time>2026-04-18T12:40:53.657Z</time></trkpt><trkpt lat="44.947585" lon="9.5895283"><ele>129.0</ele><time>2026-04-18T12:40:55.658Z</time></trkpt><trkpt lat="44.9475183" lon="9.5894967"><ele>129.5</ele><time>2026-04-18T12:40:57.657Z</time></trkpt><trkpt lat="44.947435" lon="9.5894633"><ele>130.0</ele><time>2026-04-18T12:40:59.658Z</time></trkpt><trkpt lat="44.947355" lon="9.5894233"><ele>130.5</ele><time>2026-04-18T12:41:01.657Z</time></trkpt><trkpt lat="44.9472783" lon="9.5893883"><ele>131.0</ele><time>2026-04-18T12:41:03.657Z</time></trkpt><trkpt lat="44.9472167" lon="9.5893567"><ele>131.5</ele><time>2026-04-18T12:41:05.657Z</time></trkpt><trkpt lat="44.9471283" lon="9.5893217"><ele>132.0</ele><time>2026-04-18T12:41:07.657Z</time></trkpt><trkpt lat="44.9470583" lon="9.5892833"><ele>132.0</ele><time>2026-04-18T12:41:09.657Z</time></trkpt><trkpt lat="44.946985" lon="9.5892483"><ele>132.0</ele><time>2026-04-18T12:41:11.657Z</time></trkpt><trkpt lat="44.9469083" lon="9.5892133"><ele>132.0</ele><time>2026-04-18T12:41:13.657Z</time></trkpt><trkpt lat="44.9468217" lon="9.5891783"><ele>132.0</ele><time>2026-04-18T12:41:15.657Z</time></trkpt><trkpt lat="44.94675" lon="9.589145"><ele>132.0</ele><time>2026-04-18T12:41:17.657Z</time></trkpt><trkpt lat="44.9466733" lon="9.589115"><ele>132.0</ele><time>2026-04-18T12:41:19.657Z</time></trkpt><trkpt lat="44.9465767" lon="9.5890967"><ele>132.4</ele><time>2026-04-18T12:41:21.657Z</time></trkpt><trkpt lat="44.9464833" lon="9.5890833"><ele>132.79999999999998</ele><time>2026-04-18T12:41:23.657Z</time></trkpt><trkpt lat="44.9463833" lon="9.5890783"><ele>133.2</ele><time>2026-04-18T12:41:25.657Z</time></trkpt><trkpt lat="44.946285" lon="9.58907"><ele>133.6</ele><time>2026-04-18T12:41:27.657Z</time></trkpt><trkpt lat="44.946185" lon="9.5890667"><ele>134.0</ele><time>2026-04-18T12:41:29.657Z</time></trkpt><trkpt lat="44.946085" lon="9.5890667"><ele>134.0</ele><time>2026-04-18T12:41:31.657Z</time></trkpt><trkpt lat="44.94598" lon="9.5890717"><ele>134.0</ele><time>2026-04-18T12:41:33.657Z</time></trkpt><trkpt lat="44.9458783" lon="9.589075"><ele>134.0</ele><time>2026-04-18T12:41:35.657Z</time></trkpt><trkpt lat="44.9457783" lon="9.5890817"><ele>134.0</ele><time>2026-04-18T12:41:37.658Z</time></trkpt><trkpt lat="44.94568" lon="9.5890883"><ele>134.0</ele><time>2026-04-18T12:41:39.657Z</time></trkpt><trkpt lat="44.9455817" lon="9.5890983"><ele>134.2</ele><time>2026-04-18T12:41:41.658Z</time></trkpt><trkpt lat="44.945485" lon="9.5891033"><ele>134.4</ele><time>2026-04-18T12:41:43.657Z</time></trkpt><trkpt lat="44.9453867" lon="9.5891083"><ele>134.6</ele><time>2026-04-18T12:41:45.657Z</time></trkpt><trkpt lat="44.945285" lon="9.589115"><ele>134.8</ele><time>2026-04-18T12:41:47.657Z</time></trkpt><trkpt lat="44.94518" lon="9.589125"><ele>135.0</ele><time>2026-04-18T12:41:49.657Z</time></trkpt><trkpt lat="44.9450733" lon="9.5891333"><ele>135.0</ele><time>2026-04-18T12:41:51.657Z</time></trkpt><trkpt lat="44.9449683" lon="9.589145"><ele>135.0</ele><time>2026-04-18T12:41:53.657Z</time></trkpt><trkpt lat="44.9448617" lon="9.5891567"><ele>135.0</ele><time>2026-04-18T12:41:55.658Z</time></trkpt><trkpt lat="44.9447583" lon="9.5891617"><ele>135.0</ele><time>2026-04-18T12:41:57.657Z</time></trkpt><trkpt lat="44.9446517" lon="9.5891733"><ele>135.0</ele><time>2026-04-18T12:41:59.657Z</time></trkpt><trkpt lat="44.944545" lon="9.5891783"><ele>135.0</ele><time>2026-04-18T12:42:01.657Z</time></trkpt><trkpt lat="44.9444367" lon="9.58918"><ele>135.0</ele><time>2026-04-18T12:42:03.657Z</time></trkpt><trkpt lat="44.9443283" lon="9.589185"><ele>135.0</ele><time>2026-04-18T12:42:05.657Z</time></trkpt><trkpt lat="44.9442167" lon="9.5891917"><ele>135.0</ele><time>2026-04-18T12:42:07.657Z</time></trkpt><trkpt lat="44.9441" lon="9.5891983"><ele>135.0</ele><time>2026-04-18T12:42:09.657Z</time></trkpt><trkpt lat="44.9439833" lon="9.5892033"><ele>135.4</ele><time>2026-04-18T12:42:11.657Z</time></trkpt><trkpt lat="44.9438617" lon="9.5892133"><ele>135.8</ele><time>2026-04-18T12:42:13.657Z</time></trkpt><trkpt lat="44.9437317" lon="9.5892317"><ele>136.2</ele><time>2026-04-18T12:42:15.657Z</time></trkpt><trkpt lat="44.9436617" lon="9.5892417"><ele>136.6</ele><time>2026-04-18T12:42:16.657Z</time></trkpt><trkpt lat="44.943595" lon="9.5892483"><ele>137.0</ele><time>2026-04-18T12:42:17.657Z</time></trkpt><trkpt lat="44.943475" lon="9.5892817"><ele>137.0</ele><time>2026-04-18T12:42:19.657Z</time></trkpt><trkpt lat="44.9433833" lon="9.5892717"><ele>137.0</ele><time>2026-04-18T12:42:21.657Z</time></trkpt><trkpt lat="44.943345" lon="9.5891767"><ele>137.0</ele><time>2026-04-18T12:42:23.657Z</time></trkpt><trkpt lat="44.9433433" lon="9.5890583"><ele>137.0</ele><time>2026-04-18T12:42:25.657Z</time></trkpt><trkpt lat="44.9433517" lon="9.588965"><ele>137.0</ele><time>2026-04-18T12:42:27.657Z</time></trkpt><trkpt lat="44.9433667" lon="9.5888633"><ele>137.0</ele><time>2026-04-18T12:42:29.657Z</time></trkpt><trkpt lat="44.9433833" lon="9.5887633"><ele>137.66666666666666</ele><time>2026-04-18T12:42:31.657Z</time></trkpt><trkpt lat="44.9433967" lon="9.5886617"><ele>138.33333333333331</ele><time>2026-04-18T12:42:33.657Z</time></trkpt><trkpt lat="44.943405" lon="9.588555"><ele>139.0</ele><time>2026-04-18T12:42:35.657Z</time></trkpt><trkpt lat="44.9434" lon="9.5884367"><ele>139.66666666666666</ele><time>2026-04-18T12:42:37.657Z</time></trkpt><trkpt lat="44.94338" lon="9.5883183"><ele>140.33333333333334</ele><time>2026-04-18T12:42:39.658Z</time></trkpt><trkpt lat="44.9433133" lon="9.5882283"><ele>141.0</ele><time>2026-04-18T12:42:41.657Z</time></trkpt><trkpt lat="44.9432283" lon="9.588165"><ele>141.2</ele><time>2026-04-18T12:42:43.657Z</time></trkpt><trkpt lat="44.9431367" lon="9.5881383"><ele>141.39999999999998</ele><time>2026-04-18T12:42:45.657Z</time></trkpt><trkpt lat="44.9430433" lon="9.5881233"><ele>141.6</ele><time>2026-04-18T12:42:47.657Z</time></trkpt><trkpt lat="44.94295" lon="9.588105"><ele>141.79999999999998</ele><time>2026-04-18T12:42:49.657Z</time></trkpt><trkpt lat="44.9428633" lon="9.5880867"><ele>142.0</ele><time>2026-04-18T12:42:51.657Z</time></trkpt><trkpt lat="44.94278" lon="9.5880683"><ele>142.0</ele><time>2026-04-18T12:42:53.657Z</time></trkpt><trkpt lat="44.94269" lon="9.588055"><ele>142.0</ele><time>2026-04-18T12:42:55.657Z</time></trkpt><trkpt lat="44.9426" lon="9.5880567"><ele>142.0</ele><time>2026-04-18T12:42:57.657Z</time></trkpt><trkpt lat="44.9425117" lon="9.5880367"><ele>142.0</ele><time>2026-04-18T12:42:59.657Z</time></trkpt><trkpt lat="44.9424267" lon="9.58802"><ele>142.0</ele><time>2026-04-18T12:43:01.657Z</time></trkpt><trkpt lat="44.94234" lon="9.58801"><ele>142.0</ele><time>2026-04-18T12:43:03.657Z</time></trkpt><trkpt lat="44.9422567" lon="9.588005"><ele>142.33333333333334</ele><time>2026-04-18T12:43:05.657Z</time></trkpt><trkpt lat="44.9421717" lon="9.5879933"><ele>142.66666666666669</ele><time>2026-04-18T12:43:07.657Z</time></trkpt><trkpt lat="44.94208" lon="9.5879733"><ele>143.0</ele><time>2026-04-18T12:43:09.657Z</time></trkpt><trkpt lat="44.94199" lon="9.5879617"><ele>143.33333333333334</ele><time>2026-04-18T12:43:11.657Z</time></trkpt><trkpt lat="44.9419017" lon="9.58795"><ele>143.66666666666666</ele><time>2026-04-18T12:43:13.657Z</time></trkpt><trkpt lat="44.9418167" lon="9.5879317"><ele>144.0</ele><time>2026-04-18T12:43:15.657Z</time></trkpt><trkpt lat="44.941725" lon="9.5879233"><ele>144.4</ele><time>2026-04-18T12:43:17.657Z</time></trkpt><trkpt lat="44.9416367" lon="9.5879167"><ele>144.8</ele><time>2026-04-18T12:43:19.657Z</time></trkpt><trkpt lat="44.9415533" lon="9.587905"><ele>145.2</ele><time>2026-04-18T12:43:21.657Z</time></trkpt><trkpt lat="44.9414533" lon="9.5878867"><ele>145.6</ele><time>2026-04-18T12:43:23.657Z</time></trkpt><trkpt lat="44.9413567" lon="9.5878717"><ele>146.0</ele><time>2026-04-18T12:43:25.657Z</time></trkpt><trkpt lat="44.941265" lon="9.5878617"><ele>146.0</ele><time>2026-04-18T12:43:27.658Z</time></trkpt><trkpt lat="44.941175" lon="9.5878483"><ele>146.0</ele><time>2026-04-18T12:43:29.657Z</time></trkpt><trkpt lat="44.9410833" lon="9.587845"><ele>146.0</ele><time>2026-04-18T12:43:31.657Z</time></trkpt><trkpt lat="44.94099" lon="9.5878267"><ele>146.0</ele><time>2026-04-18T12:43:33.657Z</time></trkpt><trkpt lat="44.9409" lon="9.5878183"><ele>146.0</ele><time>2026-04-18T12:43:35.657Z</time></trkpt><trkpt lat="44.9408133" lon="9.58781"><ele>146.33333333333331</ele><time>2026-04-18T12:43:37.657Z</time></trkpt><trkpt lat="44.94072" lon="9.587785"><ele>146.66666666666666</ele><time>2026-04-18T12:43:39.657Z</time></trkpt><trkpt lat="44.9406333" lon="9.5877633"><ele>147.0</ele><time>2026-04-18T12:43:41.657Z</time></trkpt><trkpt lat="44.9405467" lon="9.5877517"><ele>147.33333333333334</ele><time>2026-04-18T12:43:43.657Z</time></trkpt><trkpt lat="44.9404683" lon="9.58773"><ele>147.66666666666669</ele><time>2026-04-18T12:43:45.657Z</time></trkpt><trkpt lat="44.940385" lon="9.5877217"><ele>148.0</ele><time>2026-04-18T12:43:47.658Z</time></trkpt><trkpt lat="44.940295" lon="9.587705"><ele>148.0</ele><time>2026-04-18T12:43:49.657Z</time></trkpt><trkpt lat="44.94021" lon="9.587695"><ele>148.0</ele><time>2026-04-18T12:43:51.657Z</time></trkpt><trkpt lat="44.9401183" lon="9.5876783"><ele>148.0</ele><time>2026-04-18T12:43:53.657Z</time></trkpt><trkpt lat="44.9400333" lon="9.5876717"><ele>148.0</ele><time>2026-04-18T12:43:55.657Z</time></trkpt><trkpt lat="44.9399483" lon="9.58765"><ele>148.0</ele><time>2026-04-18T12:43:57.657Z</time></trkpt><trkpt lat="44.9398617" lon="9.58763"><ele>148.0</ele><time>2026-04-18T12:43:59.657Z</time></trkpt><trkpt lat="44.9397683" lon="9.5876183"><ele>148.16666666666669</ele><time>2026-04-18T12:44:01.657Z</time></trkpt><trkpt lat="44.93968" lon="9.587605"><ele>148.33333333333334</ele><time>2026-04-18T12:44:03.657Z</time></trkpt><trkpt lat="44.93959" lon="9.5875983"><ele>148.5</ele><time>2026-04-18T12:44:05.657Z</time></trkpt><trkpt lat="44.9395033" lon="9.587585"><ele>148.66666666666666</ele><time>2026-04-18T12:44:07.657Z</time></trkpt><trkpt lat="44.9394133" lon="9.5875767"><ele>148.83333333333331</ele><time>2026-04-18T12:44:09.657Z</time></trkpt><trkpt lat="44.9393233" lon="9.5875567"><ele>149.0</ele><time>2026-04-18T12:44:11.657Z</time></trkpt><trkpt lat="44.939245" lon="9.5875517"><ele>149.16666666666666</ele><time>2026-04-18T12:44:13.657Z</time></trkpt><trkpt lat="44.9391617" lon="9.587535"><ele>149.33333333333331</ele><time>2026-04-18T12:44:15.657Z</time></trkpt><trkpt lat="44.93907" lon="9.587515"><ele>149.5</ele><time>2026-04-18T12:44:17.657Z</time></trkpt><trkpt lat="44.9389833" lon="9.587495"><ele>149.66666666666666</ele><time>2026-04-18T12:44:19.657Z</time></trkpt><trkpt lat="44.9388917" lon="9.58748"><ele>149.83333333333334</ele><time>2026-04-18T12:44:21.657Z</time></trkpt><trkpt lat="44.9388017" lon="9.5874683"><ele>150.0</ele><time>2026-04-18T12:44:23.657Z</time></trkpt><trkpt lat="44.93871" lon="9.5874583"><ele>150.0</ele><time>2026-04-18T12:44:25.657Z</time></trkpt><trkpt lat="44.9386183" lon="9.5874433"><ele>150.0</ele><time>2026-04-18T12:44:27.657Z</time></trkpt><trkpt lat="44.93853" lon="9.5874367"><ele>150.0</ele><time>2026-04-18T12:44:29.657Z</time></trkpt><trkpt lat="44.9384417" lon="9.5874217"><ele>150.0</ele><time>2026-04-18T12:44:31.657Z</time></trkpt><trkpt lat="44.93835" lon="9.58741"><ele>150.0</ele><time>2026-04-18T12:44:33.657Z</time></trkpt><trkpt lat="44.9382617" lon="9.5873933"><ele>150.16666666666666</ele><time>2026-04-18T12:44:35.657Z</time></trkpt><trkpt lat="44.938175" lon="9.58739"><ele>150.33333333333334</ele><time>2026-04-18T12:44:37.657Z</time></trkpt><trkpt lat="44.9380933" lon="9.58738"><ele>150.5</ele><time>2026-04-18T12:44:39.657Z</time></trkpt><trkpt lat="44.93801" lon="9.5873633"><ele>150.66666666666669</ele><time>2026-04-18T12:44:41.657Z</time></trkpt><trkpt lat="44.937925" lon="9.5873467"><ele>150.83333333333334</ele><time>2026-04-18T12:44:43.657Z</time></trkpt><trkpt lat="44.9378467" lon="9.58733"><ele>151.0</ele><time>2026-04-18T12:44:45.657Z</time></trkpt><trkpt lat="44.93776" lon="9.587315"><ele>151.0</ele><time>2026-04-18T12:44:47.657Z</time></trkpt><trkpt lat="44.9376717" lon="9.5873033"><ele>151.0</ele><time>2026-04-18T12:44:49.657Z</time></trkpt><trkpt lat="44.9375833" lon="9.5872917"><ele>151.0</ele><time>2026-04-18T12:44:51.657Z</time></trkpt><trkpt lat="44.9374983" lon="9.5872783"><ele>151.0</ele><time>2026-04-18T12:44:53.657Z</time></trkpt><trkpt lat="44.9374117" lon="9.587265"><ele>151.0</ele><time>2026-04-18T12:44:55.657Z</time></trkpt><trkpt lat="44.93733" lon="9.5872517"><ele>151.0</ele><time>2026-04-18T12:44:57.657Z</time></trkpt><trkpt lat="44.9372483" lon="9.58725"><ele>151.33333333333334</ele><time>2026-04-18T12:44:59.657Z</time></trkpt><trkpt lat="44.9371717" lon="9.58724"><ele>151.66666666666669</ele><time>2026-04-18T12:45:01.657Z</time></trkpt><trkpt lat="44.9371" lon="9.5872133"><ele>152.0</ele><time>2026-04-18T12:45:03.657Z</time></trkpt><trkpt lat="44.9370267" lon="9.5871767"><ele>152.33333333333334</ele><time>2026-04-18T12:45:05.657Z</time></trkpt><trkpt lat="44.9369583" lon="9.58714"><ele>152.66666666666666</ele><time>2026-04-18T12:45:07.657Z</time></trkpt><trkpt lat="44.9368867" lon="9.5870883"><ele>153.0</ele><time>2026-04-18T12:45:09.657Z</time></trkpt><trkpt lat="44.9368133" lon="9.5870317"><ele>153.5</ele><time>2026-04-18T12:45:11.657Z</time></trkpt><trkpt lat="44.936755" lon="9.58697"><ele>154.0</ele><time>2026-04-18T12:45:13.657Z</time></trkpt><trkpt lat="44.936695" lon="9.5868917"><ele>154.5</ele><time>2026-04-18T12:45:15.657Z</time></trkpt><trkpt lat="44.9366533" lon="9.586805"><ele>155.0</ele><time>2026-04-18T12:45:17.657Z</time></trkpt><trkpt lat="44.9366017" lon="9.586705"><ele>155.5</ele><time>2026-04-18T12:45:19.657Z</time></trkpt><trkpt lat="44.9365667" lon="9.5865933"><ele>156.0</ele><time>2026-04-18T12:45:21.657Z</time></trkpt><trkpt lat="44.9365483" lon="9.5864783"><ele>156.5</ele><time>2026-04-18T12:45:23.657Z</time></trkpt><trkpt lat="44.936545" lon="9.5863583"><ele>157.0</ele><time>2026-04-18T12:45:25.657Z</time></trkpt><trkpt lat="44.9365333" lon="9.5862283"><ele>157.5</ele><time>2026-04-18T12:45:27.657Z</time></trkpt><trkpt lat="44.93653" lon="9.5861083"><ele>158.0</ele><time>2026-04-18T12:45:29.657Z</time></trkpt><trkpt lat="44.9365417" lon="9.5859983"><ele>158.5</ele><time>2026-04-18T12:45:31.657Z</time></trkpt><trkpt lat="44.9365533" lon="9.58588"><ele>159.0</ele><time>2026-04-18T12:45:33.657Z</time></trkpt><trkpt lat="44.936555" lon="9.58576"><ele>159.33333333333334</ele><time>2026-04-18T12:45:35.657Z</time></trkpt><trkpt lat="44.9365533" lon="9.5856467"><ele>159.66666666666666</ele><time>2026-04-18T12:45:37.657Z</time></trkpt><trkpt lat="44.9365433" lon="9.58553"><ele>160.0</ele><time>2026-04-18T12:45:39.657Z</time></trkpt><trkpt lat="44.9365367" lon="9.5854067"><ele>160.33333333333331</ele><time>2026-04-18T12:45:41.657Z</time></trkpt><trkpt lat="44.9365383" lon="9.58528"><ele>160.66666666666666</ele><time>2026-04-18T12:45:43.657Z</time></trkpt><trkpt lat="44.9365217" lon="9.5851717"><ele>161.0</ele><time>2026-04-18T12:45:45.657Z</time></trkpt><trkpt lat="44.93651" lon="9.5850633"><ele>162.16666666666666</ele><time>2026-04-18T12:45:47.657Z</time></trkpt><trkpt lat="44.936465" lon="9.5849717"><ele>163.33333333333331</ele><time>2026-04-18T12:45:50.658Z</time></trkpt><trkpt lat="44.9364017" lon="9.5849583"><ele>164.5</ele><time>2026-04-18T12:45:57.656Z</time></trkpt><trkpt lat="44.9363117" lon="9.584955"><ele>165.66666666666666</ele><time>2026-04-18T12:46:00.656Z</time></trkpt><trkpt lat="44.9362433" lon="9.584945"><ele>166.83333333333334</ele><time>2026-04-18T12:46:02.656Z</time></trkpt><trkpt lat="44.9361617" lon="9.5849267"><ele>168.0</ele><time>2026-04-18T12:46:05.656Z</time></trkpt><trkpt lat="44.9360783" lon="9.5848817"><ele>168.0</ele><time>2026-04-18T12:46:08.656Z</time></trkpt><trkpt lat="44.9360167" lon="9.5847883"><ele>168.0</ele><time>2026-04-18T12:46:11.656Z</time></trkpt><trkpt lat="44.93595" lon="9.5847067"><ele>168.0</ele><time>2026-04-18T12:46:14.656Z</time></trkpt><trkpt lat="44.9358817" lon="9.584645"><ele>168.0</ele><time>2026-04-18T12:46:17.656Z</time></trkpt><trkpt lat="44.9358" lon="9.5846117"><ele>168.0</ele><time>2026-04-18T12:46:20.656Z</time></trkpt><trkpt lat="44.9357483" lon="9.584535"><ele>168.0</ele><time>2026-04-18T12:46:23.656Z</time></trkpt><trkpt lat="44.93572" lon="9.5844317"><ele>169.83333333333334</ele><time>2026-04-18T12:46:26.656Z</time></trkpt><trkpt lat="44.9356417" lon="9.584345"><ele>171.66666666666666</ele><time>2026-04-18T12:46:29.656Z</time></trkpt><trkpt lat="44.9355783" lon="9.5843133"><ele>173.5</ele><time>2026-04-18T12:46:31.656Z</time></trkpt><trkpt lat="44.9355017" lon="9.58427"><ele>175.33333333333331</ele><time>2026-04-18T12:46:34.656Z</time></trkpt><trkpt lat="44.9354583" lon="9.5841967"><ele>177.16666666666666</ele><time>2026-04-18T12:46:37.656Z</time></trkpt><trkpt lat="44.9354633" lon="9.5841"><ele>179.0</ele><time>2026-04-18T12:46:40.656Z</time></trkpt><trkpt lat="44.9354733" lon="9.5839917"><ele>179.00000000000003</ele><time>2026-04-18T12:46:43.656Z</time></trkpt><trkpt lat="44.9354917" lon="9.583895"><ele>179.0</ele><time>2026-04-18T12:46:46.656Z</time></trkpt><trkpt lat="44.9355017" lon="9.583785"><ele>179.0</ele><time>2026-04-18T12:46:49.656Z</time></trkpt><trkpt lat="44.935525" lon="9.5837"><ele>179.0</ele><time>2026-04-18T12:46:52.656Z</time></trkpt><trkpt lat="44.93554" lon="9.5836017"><ele>179.0</ele><time>2026-04-18T12:46:55.656Z</time></trkpt><trkpt lat="44.93553" lon="9.5834983"><ele>179.00000000000003</ele><time>2026-04-18T12:46:58.656Z</time></trkpt><trkpt lat="44.935515" lon="9.5833917"><ele>179.0</ele><time>2026-04-18T12:47:01.656Z</time></trkpt><trkpt lat="44.9354983" lon="9.5832817"><ele>180.2857142857143</ele><time>2026-04-18T12:47:04.657Z</time></trkpt><trkpt lat="44.9354817" lon="9.5831867"><ele>181.57142857142858</ele><time>2026-04-18T12:47:07.656Z</time></trkpt><trkpt lat="44.9354817" lon="9.583075"><ele>182.85714285714286</ele><time>2026-04-18T12:47:10.656Z</time></trkpt><trkpt lat="44.9354683" lon="9.5829767"><ele>184.14285714285717</ele><time>2026-04-18T12:47:13.656Z</time></trkpt><trkpt lat="44.93545" lon="9.58288"><ele>185.42857142857142</ele><time>2026-04-18T12:47:16.656Z</time></trkpt><trkpt lat="44.935415" lon="9.5827833"><ele>186.71428571428572</ele><time>2026-04-18T12:47:19.656Z</time></trkpt><trkpt lat="44.9353567" lon="9.582705"><ele>188.0</ele><time>2026-04-18T12:47:22.656Z</time></trkpt><trkpt lat="44.935295" lon="9.5826417"><ele>189.0</ele><time>2026-04-18T12:47:25.657Z</time></trkpt><trkpt lat="44.9352133" lon="9.5826267"><ele>190.0</ele><time>2026-04-18T12:47:28.656Z</time></trkpt><trkpt lat="44.93515" lon="9.5826317"><ele>191.0</ele><time>2026-04-18T12:47:30.656Z</time></trkpt><trkpt lat="44.9350667" lon="9.5826417"><ele>192.0</ele><time>2026-04-18T12:47:33.656Z</time></trkpt><trkpt lat="44.93499" lon="9.5826467"><ele>193.00000000000003</ele><time>2026-04-18T12:47:36.656Z</time></trkpt><trkpt lat="44.934915" lon="9.5826483"><ele>194.0</ele><time>2026-04-18T12:47:39.656Z</time></trkpt><trkpt lat="44.934855" lon="9.5825917"><ele>194.16666666666669</ele><time>2026-04-18T12:47:42.656Z</time></trkpt><trkpt lat="44.9347817" lon="9.5825233"><ele>194.33333333333334</ele><time>2026-04-18T12:47:45.656Z</time></trkpt><trkpt lat="44.9347167" lon="9.5824767"><ele>194.5</ele><time>2026-04-18T12:47:48.656Z</time></trkpt><trkpt lat="44.9346533" lon="9.5824633"><ele>194.66666666666669</ele><time>2026-04-18T12:47:50.656Z</time></trkpt><trkpt lat="44.9345617" lon="9.582445"><ele>194.83333333333334</ele><time>2026-04-18T12:47:53.656Z</time></trkpt><trkpt lat="44.934495" lon="9.5824267"><ele>195.0</ele><time>2026-04-18T12:47:55.656Z</time></trkpt><trkpt lat="44.9344167" lon="9.5823633"><ele>195.0</ele><time>2026-04-18T12:47:58.656Z</time></trkpt><trkpt lat="44.9343483" lon="9.5823517"><ele>195.0</ele><time>2026-04-18T12:48:00.656Z</time></trkpt><trkpt lat="44.9342583" lon="9.5823667"><ele>195.0</ele><time>2026-04-18T12:48:03.656Z</time></trkpt><trkpt lat="44.9341767" lon="9.582395"><ele>195.0</ele><time>2026-04-18T12:48:06.657Z</time></trkpt><trkpt lat="44.934095" lon="9.5823767"><ele>195.0</ele><time>2026-04-18T12:48:09.656Z</time></trkpt><trkpt lat="44.93403" lon="9.5823317"><ele>195.0</ele><time>2026-04-18T12:48:12.656Z</time></trkpt><trkpt lat="44.9339533" lon="9.582305"><ele>195.33333333333334</ele><time>2026-04-18T12:48:15.656Z</time></trkpt><trkpt lat="44.9338667" lon="9.5823317"><ele>195.66666666666669</ele><time>2026-04-18T12:48:18.656Z</time></trkpt><trkpt lat="44.9338033" lon="9.5823317"><ele>196.0</ele><time>2026-04-18T12:48:20.656Z</time></trkpt><trkpt lat="44.9337267" lon="9.5823233"><ele>196.33333333333334</ele><time>2026-04-18T12:48:22.656Z</time></trkpt><trkpt lat="44.9336417" lon="9.5823117"><ele>196.66666666666669</ele><time>2026-04-18T12:48:25.656Z</time></trkpt><trkpt lat="44.9335917" lon="9.5822317"><ele>197.0</ele><time>2026-04-18T12:48:28.656Z</time></trkpt><trkpt lat="44.9335017" lon="9.5820917"><ele>196.83333333333334</ele><time>2026-04-18T12:48:36.656Z</time></trkpt><trkpt lat="44.9334617" lon="9.582005"><ele>196.66666666666669</ele><time>2026-04-18T12:48:38.656Z</time></trkpt><trkpt lat="44.9333917" lon="9.5819183"><ele>196.5</ele><time>2026-04-18T12:48:41.656Z</time></trkpt><trkpt lat="44.9333233" lon="9.5819017"><ele>196.33333333333331</ele><time>2026-04-18T12:48:43.656Z</time></trkpt><trkpt lat="44.93326" lon="9.5818883"><ele>196.16666666666666</ele><time>2026-04-18T12:48:45.656Z</time></trkpt><trkpt lat="44.933175" lon="9.5818533"><ele>196.0</ele><time>2026-04-18T12:48:48.656Z</time></trkpt><trkpt lat="44.9331233" lon="9.5817933"><ele>196.66666666666666</ele><time>2026-04-18T12:48:51.656Z</time></trkpt><trkpt lat="44.933105" lon="9.581705"><ele>197.33333333333331</ele><time>2026-04-18T12:48:55.656Z</time></trkpt><trkpt lat="44.93307" lon="9.5815933"><ele>198.0</ele><time>2026-04-18T12:48:58.656Z</time></trkpt><trkpt lat="44.93301" lon="9.58153"><ele>198.66666666666669</ele><time>2026-04-18T12:49:01.656Z</time></trkpt><trkpt lat="44.9329283" lon="9.5814817"><ele>199.33333333333334</ele><time>2026-04-18T12:49:04.656Z</time></trkpt><trkpt lat="44.93286" lon="9.58146"><ele>200.0</ele><time>2026-04-18T12:49:06.656Z</time></trkpt><trkpt lat="44.9327967" lon="9.5814417"><ele>200.00000000000003</ele><time>2026-04-18T12:49:08.656Z</time></trkpt><trkpt lat="44.932735" lon="9.5814167"><ele>200.0</ele><time>2026-04-18T12:49:10.656Z</time></trkpt><trkpt lat="44.932655" lon="9.5813667"><ele>200.0</ele><time>2026-04-18T12:49:13.656Z</time></trkpt><trkpt lat="44.9325683" lon="9.5813383"><ele>200.0</ele><time>2026-04-18T12:49:16.656Z</time></trkpt><trkpt lat="44.9324783" lon="9.5813117"><ele>200.00000000000003</ele><time>2026-04-18T12:49:18.656Z</time></trkpt><trkpt lat="44.9323983" lon="9.58128"><ele>200.0</ele><time>2026-04-18T12:49:21.656Z</time></trkpt><trkpt lat="44.93231" lon="9.581265"><ele>200.83333333333334</ele><time>2026-04-18T12:49:24.656Z</time></trkpt><trkpt lat="44.932245" lon="9.5812483"><ele>201.66666666666669</ele><time>2026-04-18T12:49:26.656Z</time></trkpt><trkpt lat="44.93216" lon="9.58122"><ele>202.5</ele><time>2026-04-18T12:49:29.656Z</time></trkpt><trkpt lat="44.9320767" lon="9.581175"><ele>203.33333333333331</ele><time>2026-04-18T12:49:32.656Z</time></trkpt><trkpt lat="44.9320133" lon="9.581145"><ele>204.16666666666666</ele><time>2026-04-18T12:49:34.656Z</time></trkpt><trkpt lat="44.9319233" lon="9.5811083"><ele>205.0</ele><time>2026-04-18T12:49:37.656Z</time></trkpt><trkpt lat="44.93184" lon="9.5810767"><ele>205.16666666666666</ele><time>2026-04-18T12:49:40.656Z</time></trkpt><trkpt lat="44.93177" lon="9.58105"><ele>205.33333333333331</ele><time>2026-04-18T12:49:42.656Z</time></trkpt><trkpt lat="44.931705" lon="9.5810217"><ele>205.5</ele><time>2026-04-18T12:49:44.656Z</time></trkpt><trkpt lat="44.9316333" lon="9.5809867"><ele>205.66666666666669</ele><time>2026-04-18T12:49:47.656Z</time></trkpt><trkpt lat="44.93157" lon="9.5809417"><ele>205.83333333333334</ele><time>2026-04-18T12:49:49.656Z</time></trkpt><trkpt lat="44.931505" lon="9.5808667"><ele>206.0</ele><time>2026-04-18T12:49:52.656Z</time></trkpt><trkpt lat="44.9314367" lon="9.5807833"><ele>206.33333333333334</ele><time>2026-04-18T12:49:55.656Z</time></trkpt><trkpt lat="44.9313783" lon="9.5807283"><ele>206.66666666666669</ele><time>2026-04-18T12:49:57.656Z</time></trkpt><trkpt lat="44.93131" lon="9.5806783"><ele>207.0</ele><time>2026-04-18T12:49:59.656Z</time></trkpt><trkpt lat="44.931225" lon="9.580645"><ele>207.33333333333331</ele><time>2026-04-18T12:50:01.656Z</time></trkpt><trkpt lat="44.9311517" lon="9.5806283"><ele>207.66666666666666</ele><time>2026-04-18T12:50:03.656Z</time></trkpt><trkpt lat="44.931075" lon="9.5806133"><ele>208.0</ele><time>2026-04-18T12:50:05.656Z</time></trkpt><trkpt lat="44.9310133" lon="9.5805883"><ele>207.99999999999997</ele><time>2026-04-18T12:50:07.656Z</time></trkpt><trkpt lat="44.930945" lon="9.5805483"><ele>208.0</ele><time>2026-04-18T12:50:09.656Z</time></trkpt><trkpt lat="44.9308533" lon="9.58057"><ele>208.0</ele><time>2026-04-18T12:50:12.656Z</time></trkpt><trkpt lat="44.9307783" lon="9.580625"><ele>208.0</ele><time>2026-04-18T12:50:15.656Z</time></trkpt><trkpt lat="44.9307067" lon="9.5806783"><ele>207.99999999999997</ele><time>2026-04-18T12:50:19.657Z</time></trkpt><trkpt lat="44.930645" lon="9.5806417"><ele>208.0</ele><time>2026-04-18T12:50:23.656Z</time></trkpt><trkpt lat="44.93057" lon="9.5805883"><ele>207.66666666666666</ele><time>2026-04-18T12:50:26.656Z</time></trkpt><trkpt lat="44.930485" lon="9.5805383"><ele>207.33333333333331</ele><time>2026-04-18T12:50:29.656Z</time></trkpt><trkpt lat="44.930405" lon="9.5804683"><ele>207.0</ele><time>2026-04-18T12:50:32.656Z</time></trkpt><trkpt lat="44.9303267" lon="9.5804083"><ele>206.66666666666669</ele><time>2026-04-18T12:50:35.656Z</time></trkpt><trkpt lat="44.9302567" lon="9.580365"><ele>206.33333333333334</ele><time>2026-04-18T12:50:37.656Z</time></trkpt><trkpt lat="44.9301817" lon="9.5803383"><ele>206.0</ele><time>2026-04-18T12:50:39.656Z</time></trkpt><trkpt lat="44.9301" lon="9.58031"><ele>205.99999999999997</ele><time>2026-04-18T12:50:41.656Z</time></trkpt><trkpt lat="44.930025" lon="9.5802717"><ele>206.0</ele><time>2026-04-18T12:50:43.657Z</time></trkpt><trkpt lat="44.9299567" lon="9.5802233"><ele>206.0</ele><time>2026-04-18T12:50:45.656Z</time></trkpt><trkpt lat="44.929895" lon="9.58018"><ele>206.0</ele><time>2026-04-18T12:50:47.656Z</time></trkpt><trkpt lat="44.929825" lon="9.5801367"><ele>206.0</ele><time>2026-04-18T12:50:49.656Z</time></trkpt><trkpt lat="44.929765" lon="9.580085"><ele>205.99999999999997</ele><time>2026-04-18T12:50:51.656Z</time></trkpt><trkpt lat="44.9297083" lon="9.58004"><ele>206.0</ele><time>2026-04-18T12:50:53.656Z</time></trkpt><trkpt lat="44.92965" lon="9.5799983"><ele>206.00000000000003</ele><time>2026-04-18T12:50:55.656Z</time></trkpt><trkpt lat="44.92959" lon="9.5799633"><ele>206.0</ele><time>2026-04-18T12:50:57.656Z</time></trkpt><trkpt lat="44.92952" lon="9.5798917"><ele>206.0</ele><time>2026-04-18T12:51:00.656Z</time></trkpt><trkpt lat="44.92946" lon="9.5797983"><ele>206.0</ele><time>2026-04-18T12:51:03.656Z</time></trkpt><trkpt lat="44.9294017" lon="9.5797467"><ele>206.00000000000003</ele><time>2026-04-18T12:51:05.656Z</time></trkpt><trkpt lat="44.92934" lon="9.57969"><ele>206.0</ele><time>2026-04-18T12:51:07.656Z</time></trkpt><trkpt lat="44.9292867" lon="9.5796283"><ele>206.00000000000003</ele><time>2026-04-18T12:51:09.656Z</time></trkpt><trkpt lat="44.92923" lon="9.5795833"><ele>206.0</ele><time>2026-04-18T12:51:11.656Z</time></trkpt><trkpt lat="44.92918" lon="9.5795017"><ele>206.0</ele><time>2026-04-18T12:51:14.656Z</time></trkpt><trkpt lat="44.92911" lon="9.5794317"><ele>206.0</ele><time>2026-04-18T12:51:17.656Z</time></trkpt><trkpt lat="44.9290383" lon="9.579365"><ele>206.00000000000003</ele><time>2026-04-18T12:51:20.657Z</time></trkpt><trkpt lat="44.9289733" lon="9.5792783"><ele>206.0</ele><time>2026-04-18T12:51:23.656Z</time></trkpt><trkpt lat="44.9289017" lon="9.5791983"><ele>207.20000000000002</ele><time>2026-04-18T12:51:26.657Z</time></trkpt><trkpt lat="44.9288283" lon="9.579125"><ele>208.4</ele><time>2026-04-18T12:51:29.656Z</time></trkpt><trkpt lat="44.928755" lon="9.5790333"><ele>209.6</ele><time>2026-04-18T12:51:32.657Z</time></trkpt><trkpt lat="44.9286783" lon="9.5789683"><ele>210.8</ele><time>2026-04-18T12:51:35.657Z</time></trkpt><trkpt lat="44.928575" lon="9.5788967"><ele>212.0</ele><time>2026-04-18T12:51:53.657Z</time></trkpt><trkpt lat="44.9285083" lon="9.5788467"><ele>212.00000000000003</ele><time>2026-04-18T12:51:56.657Z</time></trkpt><trkpt lat="44.928445" lon="9.5787883"><ele>212.0</ele><time>2026-04-18T12:51:59.657Z</time></trkpt><trkpt lat="44.9283833" lon="9.578725"><ele>212.0</ele><time>2026-04-18T12:52:02.657Z</time></trkpt><trkpt lat="44.9283133" lon="9.57867"><ele>212.0</ele><time>2026-04-18T12:52:05.657Z</time></trkpt><trkpt lat="44.9282517" lon="9.5786283"><ele>212.00000000000003</ele><time>2026-04-18T12:52:07.657Z</time></trkpt><trkpt lat="44.9281917" lon="9.5785867"><ele>212.0</ele><time>2026-04-18T12:52:09.657Z</time></trkpt><trkpt lat="44.9281283" lon="9.57851"><ele>212.83333333333334</ele><time>2026-04-18T12:52:12.657Z</time></trkpt><trkpt lat="44.9280617" lon="9.5784317"><ele>213.66666666666669</ele><time>2026-04-18T12:52:15.657Z</time></trkpt><trkpt lat="44.9280233" lon="9.57834"><ele>214.5</ele><time>2026-04-18T12:52:18.657Z</time></trkpt><trkpt lat="44.92797" lon="9.57826"><ele>215.33333333333331</ele><time>2026-04-18T12:52:21.657Z</time></trkpt><trkpt lat="44.9279133" lon="9.578215"><ele>216.16666666666666</ele><time>2026-04-18T12:52:23.657Z</time></trkpt><trkpt lat="44.9278583" lon="9.57817"><ele>217.0</ele><time>2026-04-18T12:52:25.657Z</time></trkpt><trkpt lat="44.9277817" lon="9.5781217"><ele>216.99999999999997</ele><time>2026-04-18T12:52:28.657Z</time></trkpt><trkpt lat="44.92771" lon="9.5780533"><ele>217.0</ele><time>2026-04-18T12:52:31.657Z</time></trkpt><trkpt lat="44.9276467" lon="9.5780117"><ele>217.0</ele><time>2026-04-18T12:52:33.658Z</time></trkpt><trkpt lat="44.9275867" lon="9.57798"><ele>217.0</ele><time>2026-04-18T12:52:35.657Z</time></trkpt><trkpt lat="44.9275283" lon="9.5779467"><ele>216.99999999999997</ele><time>2026-04-18T12:52:37.657Z</time></trkpt><trkpt lat="44.9274583" lon="9.5778983"><ele>217.0</ele><time>2026-04-18T12:52:40.657Z</time></trkpt><trkpt lat="44.9273733" lon="9.5778467"><ele>217.66666666666666</ele><time>2026-04-18T12:52:43.657Z</time></trkpt><trkpt lat="44.9272917" lon="9.5778017"><ele>218.33333333333331</ele><time>2026-04-18T12:52:46.657Z</time></trkpt><trkpt lat="44.9272067" lon="9.5777533"><ele>219.0</ele><time>2026-04-18T12:52:49.657Z</time></trkpt><trkpt lat="44.92713" lon="9.5777033"><ele>219.66666666666669</ele><time>2026-04-18T12:52:52.658Z</time></trkpt><trkpt lat="44.9270433" lon="9.5776517"><ele>220.33333333333334</ele><time>2026-04-18T12:52:55.657Z</time></trkpt><trkpt lat="44.9269583" lon="9.5776083"><ele>221.0</ele><time>2026-04-18T12:52:58.657Z</time></trkpt><trkpt lat="44.9268717" lon="9.5775867"><ele>221.00000000000003</ele><time>2026-04-18T12:53:01.657Z</time></trkpt><trkpt lat="44.9267833" lon="9.5775783"><ele>221.0</ele><time>2026-04-18T12:53:04.657Z</time></trkpt><trkpt lat="44.9267167" lon="9.5775733"><ele>221.0</ele><time>2026-04-18T12:53:06.657Z</time></trkpt><trkpt lat="44.9266517" lon="9.5775717"><ele>221.0</ele><time>2026-04-18T12:53:08.657Z</time></trkpt><trkpt lat="44.9265767" lon="9.5775617"><ele>221.00000000000003</ele><time>2026-04-18T12:53:11.657Z</time></trkpt><trkpt lat="44.9264867" lon="9.5775467"><ele>221.0</ele><time>2026-04-18T12:53:14.657Z</time></trkpt><trkpt lat="44.9264183" lon="9.5775467"><ele>221.33333333333334</ele><time>2026-04-18T12:53:16.657Z</time></trkpt><trkpt lat="44.9263433" lon="9.577545"><ele>221.66666666666669</ele><time>2026-04-18T12:53:19.657Z</time></trkpt><trkpt lat="44.9262483" lon="9.5775333"><ele>222.0</ele><time>2026-04-18T12:53:22.657Z</time></trkpt><trkpt lat="44.9261633" lon="9.5775383"><ele>222.33333333333331</ele><time>2026-04-18T12:53:25.657Z</time></trkpt><trkpt lat="44.9260983" lon="9.577565"><ele>222.66666666666666</ele><time>2026-04-18T12:53:27.657Z</time></trkpt><trkpt lat="44.926025" lon="9.5775867"><ele>223.0</ele><time>2026-04-18T12:53:30.658Z</time></trkpt><trkpt lat="44.92596" lon="9.577635"><ele>223.14285714285714</ele><time>2026-04-18T12:53:33.657Z</time></trkpt><trkpt lat="44.9258783" lon="9.577595"><ele>223.28571428571428</ele><time>2026-04-18T12:53:36.657Z</time></trkpt><trkpt lat="44.92582" lon="9.57755"><ele>223.42857142857144</ele><time>2026-04-18T12:53:38.657Z</time></trkpt><trkpt lat="44.9257617" lon="9.5775033"><ele>223.57142857142856</ele><time>2026-04-18T12:53:40.657Z</time></trkpt><trkpt lat="44.925675" lon="9.57748"><ele>223.71428571428572</ele><time>2026-04-18T12:53:43.657Z</time></trkpt><trkpt lat="44.9256067" lon="9.5774867"><ele>223.85714285714286</ele><time>2026-04-18T12:53:45.657Z</time></trkpt><trkpt lat="44.9255417" lon="9.577485"><ele>224.0</ele><time>2026-04-18T12:53:47.657Z</time></trkpt><trkpt lat="44.92545" lon="9.577485"><ele>224.0</ele><time>2026-04-18T12:53:50.657Z</time></trkpt><trkpt lat="44.925385" lon="9.5774817"><ele>224.0</ele><time>2026-04-18T12:53:52.657Z</time></trkpt><trkpt lat="44.9253083" lon="9.57747"><ele>224.0</ele><time>2026-04-18T12:53:54.657Z</time></trkpt><trkpt lat="44.9252317" lon="9.577455"><ele>224.0</ele><time>2026-04-18T12:53:56.657Z</time></trkpt><trkpt lat="44.9251667" lon="9.5774383"><ele>224.0</ele><time>2026-04-18T12:53:58.657Z</time></trkpt><trkpt lat="44.9250883" lon="9.5774083"><ele>224.0</ele><time>2026-04-18T12:54:01.657Z</time></trkpt><trkpt lat="44.9250333" lon="9.5773633"><ele>224.0</ele><time>2026-04-18T12:54:04.657Z</time></trkpt><trkpt lat="44.9250183" lon="9.57727"><ele>224.00000000000003</ele><time>2026-04-18T12:54:08.657Z</time></trkpt><trkpt lat="44.92505" lon="9.5771633"><ele>224.0</ele><time>2026-04-18T12:54:11.657Z</time></trkpt><trkpt lat="44.925085" lon="9.57705"><ele>224.0</ele><time>2026-04-18T12:54:14.657Z</time></trkpt><trkpt lat="44.9251083" lon="9.5769433"><ele>224.0</ele><time>2026-04-18T12:54:16.657Z</time></trkpt><trkpt lat="44.92514" lon="9.5768467"><ele>224.00000000000003</ele><time>2026-04-18T12:54:18.657Z</time></trkpt><trkpt lat="44.9251833" lon="9.57674"><ele>224.0</ele><time>2026-04-18T12:54:21.657Z</time></trkpt><trkpt lat="44.9252233" lon="9.5766183"><ele>224.00000000000003</ele><time>2026-04-18T12:54:24.657Z</time></trkpt><trkpt lat="44.9252667" lon="9.5765267"><ele>224.0</ele><time>2026-04-18T12:54:26.657Z</time></trkpt><trkpt lat="44.925315" lon="9.5764067"><ele>224.0</ele><time>2026-04-18T12:54:28.657Z</time></trkpt><trkpt lat="44.92536" lon="9.57627"><ele>224.0</ele><time>2026-04-18T12:54:30.657Z</time></trkpt><trkpt lat="44.925385" lon="9.5761633"><ele>224.00000000000003</ele><time>2026-04-18T12:54:32.657Z</time></trkpt><trkpt lat="44.9254083" lon="9.5760683"><ele>224.0</ele><time>2026-04-18T12:54:34.657Z</time></trkpt><trkpt lat="44.925435" lon="9.5759433"><ele>223.83333333333334</ele><time>2026-04-18T12:54:36.657Z</time></trkpt><trkpt lat="44.925475" lon="9.5758267"><ele>223.66666666666669</ele><time>2026-04-18T12:54:38.657Z</time></trkpt><trkpt lat="44.9255117" lon="9.5757383"><ele>223.5</ele><time>2026-04-18T12:54:41.657Z</time></trkpt><trkpt lat="44.9255783" lon="9.5756017"><ele>223.33333333333331</ele><time>2026-04-18T12:54:58.657Z</time></trkpt><trkpt lat="44.9255933" lon="9.5755"><ele>223.16666666666666</ele><time>2026-04-18T12:55:02.657Z</time></trkpt><trkpt lat="44.9256117" lon="9.575385"><ele>223.0</ele><time>2026-04-18T12:55:05.657Z</time></trkpt><trkpt lat="44.9256383" lon="9.57529"><ele>222.66666666666666</ele><time>2026-04-18T12:55:08.658Z</time></trkpt><trkpt lat="44.9256633" lon="9.5751833"><ele>222.33333333333331</ele><time>2026-04-18T12:55:11.657Z</time></trkpt><trkpt lat="44.9256917" lon="9.5750933"><ele>222.0</ele><time>2026-04-18T12:55:14.657Z</time></trkpt><trkpt lat="44.92569" lon="9.5749167"><ele>221.66666666666669</ele><time>2026-04-18T12:55:42.657Z</time></trkpt><trkpt lat="44.925635" lon="9.574835"><ele>221.33333333333334</ele><time>2026-04-18T12:55:45.657Z</time></trkpt><trkpt lat="44.9255817" lon="9.574745"><ele>221.0</ele><time>2026-04-18T12:55:48.657Z</time></trkpt><trkpt lat="44.9255683" lon="9.5746367"><ele>221.16666666666669</ele><time>2026-04-18T12:55:51.657Z</time></trkpt><trkpt lat="44.9255633" lon="9.5745183"><ele>221.33333333333334</ele><time>2026-04-18T12:55:54.657Z</time></trkpt><trkpt lat="44.9255533" lon="9.5744033"><ele>221.5</ele><time>2026-04-18T12:55:57.657Z</time></trkpt><trkpt lat="44.9255117" lon="9.574295"><ele>221.66666666666669</ele><time>2026-04-18T12:56:00.657Z</time></trkpt><trkpt lat="44.9254533" lon="9.574215"><ele>221.83333333333334</ele><time>2026-04-18T12:56:03.657Z</time></trkpt><trkpt lat="44.9253817" lon="9.57414"><ele>222.0</ele><time>2026-04-18T12:56:06.657Z</time></trkpt><trkpt lat="44.9253167" lon="9.5740667"><ele>222.0</ele><time>2026-04-18T12:56:09.657Z</time></trkpt><trkpt lat="44.92525" lon="9.5739983"><ele>222.0</ele><time>2026-04-18T12:56:12.657Z</time></trkpt><trkpt lat="44.925175" lon="9.5739333"><ele>222.0</ele><time>2026-04-18T12:56:15.657Z</time></trkpt><trkpt lat="44.9250983" lon="9.5738667"><ele>222.0</ele><time>2026-04-18T12:56:18.657Z</time></trkpt><trkpt lat="44.92503" lon="9.5738083"><ele>222.0</ele><time>2026-04-18T12:56:21.657Z</time></trkpt><trkpt lat="44.924945" lon="9.5737617"><ele>222.0</ele><time>2026-04-18T12:56:24.657Z</time></trkpt><trkpt lat="44.924865" lon="9.573715"><ele>223.0</ele><time>2026-04-18T12:56:27.657Z</time></trkpt><trkpt lat="44.924805" lon="9.573675"><ele>224.0</ele><time>2026-04-18T12:56:29.657Z</time></trkpt><trkpt lat="44.9247233" lon="9.5736183"><ele>225.0</ele><time>2026-04-18T12:56:32.657Z</time></trkpt><trkpt lat="44.92464" lon="9.5735467"><ele>226.0</ele><time>2026-04-18T12:56:35.657Z</time></trkpt><trkpt lat="44.9245617" lon="9.5734717"><ele>227.0</ele><time>2026-04-18T12:56:38.657Z</time></trkpt><trkpt lat="44.924515" lon="9.5734117"><ele>228.0</ele><time>2026-04-18T12:56:40.657Z</time></trkpt><trkpt lat="44.9244633" lon="9.57335"><ele>228.0</ele><time>2026-04-18T12:56:42.657Z</time></trkpt><trkpt lat="44.9243933" lon="9.5732717"><ele>228.0</ele><time>2026-04-18T12:56:45.657Z</time></trkpt><trkpt lat="44.9243433" lon="9.5732167"><ele>228.0</ele><time>2026-04-18T12:56:47.657Z</time></trkpt><trkpt lat="44.9242667" lon="9.57317"><ele>228.0</ele><time>2026-04-18T12:56:50.657Z</time></trkpt><trkpt lat="44.9241967" lon="9.573155"><ele>228.0</ele><time>2026-04-18T12:56:53.657Z</time></trkpt><trkpt lat="44.9241183" lon="9.5731283"><ele>228.0</ele><time>2026-04-18T12:56:56.657Z</time></trkpt><trkpt lat="44.9240333" lon="9.5730933"><ele>228.33333333333334</ele><time>2026-04-18T12:56:59.657Z</time></trkpt><trkpt lat="44.9239683" lon="9.57306"><ele>228.66666666666669</ele><time>2026-04-18T12:57:01.657Z</time></trkpt><trkpt lat="44.9238833" lon="9.5730267"><ele>229.0</ele><time>2026-04-18T12:57:04.657Z</time></trkpt><trkpt lat="44.923825" lon="9.5729917"><ele>229.33333333333334</ele><time>2026-04-18T12:57:06.657Z</time></trkpt><trkpt lat="44.9237533" lon="9.57296"><ele>229.66666666666669</ele><time>2026-04-18T12:57:09.657Z</time></trkpt><trkpt lat="44.9236883" lon="9.57288"><ele>230.0</ele><time>2026-04-18T12:57:12.657Z</time></trkpt><trkpt lat="44.923625" lon="9.57281"><ele>230.00000000000003</ele><time>2026-04-18T12:57:15.658Z</time></trkpt><trkpt lat="44.9235567" lon="9.572765"><ele>230.0</ele><time>2026-04-18T12:57:18.657Z</time></trkpt><trkpt lat="44.9234883" lon="9.57271"><ele>230.0</ele><time>2026-04-18T12:57:21.657Z</time></trkpt><trkpt lat="44.9234283" lon="9.57267"><ele>230.0</ele><time>2026-04-18T12:57:24.657Z</time></trkpt><trkpt lat="44.923345" lon="9.5726083"><ele>230.00000000000003</ele><time>2026-04-18T12:57:27.657Z</time></trkpt><trkpt lat="44.9232683" lon="9.572565"><ele>230.0</ele><time>2026-04-18T12:57:30.657Z</time></trkpt><trkpt lat="44.923205" lon="9.5725"><ele>229.83333333333334</ele><time>2026-04-18T12:57:33.657Z</time></trkpt><trkpt lat="44.92321" lon="9.57239"><ele>229.66666666666669</ele><time>2026-04-18T12:57:37.657Z</time></trkpt><trkpt lat="44.9232317" lon="9.5722483"><ele>229.5</ele><time>2026-04-18T12:57:59.657Z</time></trkpt><trkpt lat="44.923285" lon="9.5721467"><ele>229.33333333333331</ele><time>2026-04-18T12:58:02.657Z</time></trkpt><trkpt lat="44.9233283" lon="9.57203"><ele>229.16666666666666</ele><time>2026-04-18T12:58:05.657Z</time></trkpt><trkpt lat="44.9233683" lon="9.571925"><ele>229.0</ele><time>2026-04-18T12:58:08.657Z</time></trkpt><trkpt lat="44.92341" lon="9.5718283"><ele>228.99999999999997</ele><time>2026-04-18T12:58:11.657Z</time></trkpt><trkpt lat="44.92346" lon="9.5717267"><ele>229.0</ele><time>2026-04-18T12:58:14.657Z</time></trkpt><trkpt lat="44.9235083" lon="9.57162"><ele>229.0</ele><time>2026-04-18T12:58:17.657Z</time></trkpt><trkpt lat="44.92357" lon="9.5715233"><ele>229.0</ele><time>2026-04-18T12:58:20.657Z</time></trkpt><trkpt lat="44.9236083" lon="9.5714083"><ele>228.99999999999997</ele><time>2026-04-18T12:58:23.657Z</time></trkpt><trkpt lat="44.9236567" lon="9.5713033"><ele>229.0</ele><time>2026-04-18T12:58:26.657Z</time></trkpt><trkpt lat="44.9236917" lon="9.5712133"><ele>229.16666666666666</ele><time>2026-04-18T12:58:29.657Z</time></trkpt><trkpt lat="44.9237317" lon="9.5711183"><ele>229.33333333333331</ele><time>2026-04-18T12:58:32.657Z</time></trkpt><trkpt lat="44.923685" lon="9.571025"><ele>229.5</ele><time>2026-04-18T12:58:43.657Z</time></trkpt><trkpt lat="44.9236067" lon="9.5709917"><ele>229.66666666666669</ele><time>2026-04-18T12:58:46.657Z</time></trkpt><trkpt lat="44.92354" lon="9.5709583"><ele>229.83333333333334</ele><time>2026-04-18T12:58:49.657Z</time></trkpt><trkpt lat="44.923475" lon="9.570915"><ele>230.0</ele><time>2026-04-18T12:58:52.657Z</time></trkpt><trkpt lat="44.9234133" lon="9.5708733"><ele>230.57142857142856</ele><time>2026-04-18T12:58:55.657Z</time></trkpt><trkpt lat="44.923355" lon="9.5708133"><ele>231.14285714285714</ele><time>2026-04-18T12:58:58.657Z</time></trkpt><trkpt lat="44.923335" lon="9.5707167"><ele>231.71428571428572</ele><time>2026-04-18T12:59:01.657Z</time></trkpt><trkpt lat="44.9233267" lon="9.5706083"><ele>232.28571428571428</ele><time>2026-04-18T12:59:04.657Z</time></trkpt><trkpt lat="44.9233333" lon="9.570515"><ele>232.8571428571429</ele><time>2026-04-18T12:59:07.657Z</time></trkpt><trkpt lat="44.923345" lon="9.570425"><ele>233.42857142857144</ele><time>2026-04-18T12:59:10.657Z</time></trkpt><trkpt lat="44.9233683" lon="9.5703333"><ele>234.0</ele><time>2026-04-18T12:59:13.657Z</time></trkpt><trkpt lat="44.923395" lon="9.5702283"><ele>234.0</ele><time>2026-04-18T12:59:17.658Z</time></trkpt><trkpt lat="44.9234233" lon="9.5701317"><ele>234.00000000000003</ele><time>2026-04-18T12:59:21.657Z</time></trkpt><trkpt lat="44.9234483" lon="9.5700417"><ele>234.0</ele><time>2026-04-18T12:59:25.657Z</time></trkpt><trkpt lat="44.923385" lon="9.57001"><ele>234.0</ele><time>2026-04-18T12:59:35.657Z</time></trkpt><trkpt lat="44.923315" lon="9.569995"><ele>234.00000000000003</ele><time>2026-04-18T12:59:38.657Z</time></trkpt><trkpt lat="44.923245" lon="9.5699717"><ele>234.0</ele><time>2026-04-18T12:59:41.657Z</time></trkpt><trkpt lat="44.92317" lon="9.5699583"><ele>234.0</ele><time>2026-04-18T12:59:44.657Z</time></trkpt><trkpt lat="44.9231033" lon="9.5699383"><ele>234.33333333333334</ele><time>2026-04-18T12:59:47.657Z</time></trkpt><trkpt lat="44.9230233" lon="9.5699067"><ele>234.66666666666669</ele><time>2026-04-18T12:59:51.657Z</time></trkpt><trkpt lat="44.9229467" lon="9.5698667"><ele>235.0</ele><time>2026-04-18T12:59:55.657Z</time></trkpt><trkpt lat="44.92288" lon="9.5698317"><ele>235.33333333333334</ele><time>2026-04-18T12:59:59.657Z</time></trkpt><trkpt lat="44.922865" lon="9.5697333"><ele>235.66666666666669</ele><time>2026-04-18T13:00:21.658Z</time></trkpt><trkpt lat="44.92284" lon="9.5696167"><ele>236.0</ele><time>2026-04-18T13:00:24.657Z</time></trkpt><trkpt lat="44.9228167" lon="9.5695333"><ele>236.14285714285714</ele><time>2026-04-18T13:00:26.657Z</time></trkpt><trkpt lat="44.9228167" lon="9.5694283"><ele>236.28571428571428</ele><time>2026-04-18T13:00:29.657Z</time></trkpt><trkpt lat="44.9228917" lon="9.5693467"><ele>236.42857142857142</ele><time>2026-04-18T13:00:32.658Z</time></trkpt><trkpt lat="44.9229567" lon="9.5692967"><ele>236.57142857142856</ele><time>2026-04-18T13:00:35.657Z</time></trkpt><trkpt lat="44.9230233" lon="9.5692717"><ele>236.71428571428572</ele><time>2026-04-18T13:00:38.657Z</time></trkpt><trkpt lat="44.9230867" lon="9.5692417"><ele>236.85714285714283</ele><time>2026-04-18T13:00:41.657Z</time></trkpt><trkpt lat="44.9231" lon="9.5691517"><ele>236.99999999999997</ele><time>2026-04-18T13:00:45.657Z</time></trkpt><trkpt lat="44.92306" lon="9.5690483"><ele>237.0</ele><time>2026-04-18T13:00:49.657Z</time></trkpt><trkpt lat="44.9230367" lon="9.5689617"><ele>237.0</ele><time>2026-04-18T13:00:52.657Z</time></trkpt><trkpt lat="44.9229683" lon="9.5689033"><ele>237.0</ele><time>2026-04-18T13:00:57.657Z</time></trkpt><trkpt lat="44.92288" lon="9.5688967"><ele>237.0</ele><time>2026-04-18T13:01:00.657Z</time></trkpt><trkpt lat="44.922805" lon="9.568885"><ele>237.0</ele><time>2026-04-18T13:01:03.657Z</time></trkpt><trkpt lat="44.9227283" lon="9.5688833"><ele>237.0</ele><time>2026-04-18T13:01:06.657Z</time></trkpt><trkpt lat="44.9226633" lon="9.5688617"><ele>237.0</ele><time>2026-04-18T13:01:09.657Z</time></trkpt><trkpt lat="44.9225767" lon="9.5689017"><ele>237.0</ele><time>2026-04-18T13:01:29.657Z</time></trkpt><trkpt lat="44.9225267" lon="9.5689667"><ele>237.0</ele><time>2026-04-18T13:01:31.657Z</time></trkpt><trkpt lat="44.922465" lon="9.5690417"><ele>237.0</ele><time>2026-04-18T13:01:33.657Z</time></trkpt><trkpt lat="44.9223867" lon="9.5691167"><ele>237.0</ele><time>2026-04-18T13:01:35.657Z</time></trkpt><trkpt lat="44.9222917" lon="9.569185"><ele>237.0</ele><time>2026-04-18T13:01:37.658Z</time></trkpt><trkpt lat="44.922195" lon="9.56924"><ele>237.8</ele><time>2026-04-18T13:01:39.657Z</time></trkpt><trkpt lat="44.9220933" lon="9.5692833"><ele>238.6</ele><time>2026-04-18T13:01:41.657Z</time></trkpt><trkpt lat="44.92199" lon="9.5693267"><ele>239.40000000000003</ele><time>2026-04-18T13:01:43.657Z</time></trkpt><trkpt lat="44.9218733" lon="9.56935"><ele>240.20000000000002</ele><time>2026-04-18T13:01:45.657Z</time></trkpt><trkpt lat="44.92181" lon="9.5693633"><ele>241.0</ele><time>2026-04-18T13:01:46.657Z</time></trkpt><trkpt lat="44.92169" lon="9.5694017"><ele>241.20000000000002</ele><time>2026-04-18T13:01:48.657Z</time></trkpt><trkpt lat="44.9216283" lon="9.5694233"><ele>241.40000000000003</ele><time>2026-04-18T13:01:49.657Z</time></trkpt><trkpt lat="44.9215067" lon="9.569455"><ele>241.6</ele><time>2026-04-18T13:01:51.658Z</time></trkpt><trkpt lat="44.92139" lon="9.5694933"><ele>241.8</ele><time>2026-04-18T13:01:53.657Z</time></trkpt><trkpt lat="44.921275" lon="9.5695333"><ele>242.0</ele><time>2026-04-18T13:01:55.657Z</time></trkpt><trkpt lat="44.9211617" lon="9.5695783"><ele>242.0</ele><time>2026-04-18T13:01:57.657Z</time></trkpt><trkpt lat="44.9210533" lon="9.5696483"><ele>242.0</ele><time>2026-04-18T13:01:59.657Z</time></trkpt><trkpt lat="44.9209533" lon="9.5697317"><ele>242.0</ele><time>2026-04-18T13:02:01.657Z</time></trkpt><trkpt lat="44.92086" lon="9.5698167"><ele>242.0</ele><time>2026-04-18T13:02:03.657Z</time></trkpt><trkpt lat="44.920785" lon="9.5699"><ele>242.0</ele><time>2026-04-18T13:02:05.657Z</time></trkpt><trkpt lat="44.9206983" lon="9.5699867"><ele>242.0</ele><time>2026-04-18T13:02:07.657Z</time></trkpt><trkpt lat="44.9206417" lon="9.570035"><ele>242.0</ele><time>2026-04-18T13:02:08.657Z</time></trkpt><trkpt lat="44.9205583" lon="9.57014"><ele>242.0</ele><time>2026-04-18T13:02:10.657Z</time></trkpt><trkpt lat="44.9204733" lon="9.5702617"><ele>242.0</ele><time>2026-04-18T13:02:12.657Z</time></trkpt><trkpt lat="44.9203717" lon="9.570385"><ele>242.0</ele><time>2026-04-18T13:02:14.657Z</time></trkpt><trkpt lat="44.920315" lon="9.5704483"><ele>242.14285714285714</ele><time>2026-04-18T13:02:15.657Z</time></trkpt><trkpt lat="44.9202583" lon="9.57051"><ele>242.28571428571428</ele><time>2026-04-18T13:02:16.657Z</time></trkpt><trkpt lat="44.9202083" lon="9.5705767"><ele>242.42857142857142</ele><time>2026-04-18T13:02:17.657Z</time></trkpt><trkpt lat="44.9201533" lon="9.5706483"><ele>242.57142857142856</ele><time>2026-04-18T13:02:18.657Z</time></trkpt><trkpt lat="44.920095" lon="9.5707083"><ele>242.71428571428572</ele><time>2026-04-18T13:02:19.657Z</time></trkpt><trkpt lat="44.9200333" lon="9.570765"><ele>242.85714285714283</ele><time>2026-04-18T13:02:20.657Z</time></trkpt><trkpt lat="44.9199767" lon="9.5708283"><ele>243.0</ele><time>2026-04-18T13:02:21.657Z</time></trkpt><trkpt lat="44.91992" lon="9.5708867"><ele>243.0</ele><time>2026-04-18T13:02:22.657Z</time></trkpt><trkpt lat="44.9198417" lon="9.5710067"><ele>243.0</ele><time>2026-04-18T13:02:24.657Z</time></trkpt><trkpt lat="44.9197683" lon="9.5711083"><ele>243.0</ele><time>2026-04-18T13:02:26.658Z</time></trkpt><trkpt lat="44.9196967" lon="9.5711983"><ele>243.0</ele><time>2026-04-18T13:02:28.657Z</time></trkpt><trkpt lat="44.9196283" lon="9.5712867"><ele>243.0</ele><time>2026-04-18T13:02:30.657Z</time></trkpt><trkpt lat="44.91955" lon="9.5713683"><ele>243.60000000000002</ele><time>2026-04-18T13:02:32.657Z</time></trkpt><trkpt lat="44.9194783" lon="9.571435"><ele>244.20000000000002</ele><time>2026-04-18T13:02:34.657Z</time></trkpt><trkpt lat="44.9193867" lon="9.5715367"><ele>244.8</ele><time>2026-04-18T13:02:36.658Z</time></trkpt><trkpt lat="44.9192917" lon="9.57164"><ele>245.4</ele><time>2026-04-18T13:02:38.657Z</time></trkpt><trkpt lat="44.9191967" lon="9.57174"><ele>246.0</ele><time>2026-04-18T13:02:40.657Z</time></trkpt><trkpt lat="44.9191133" lon="9.5718383"><ele>246.0</ele><time>2026-04-18T13:02:42.657Z</time></trkpt><trkpt lat="44.9190367" lon="9.5719317"><ele>246.00000000000003</ele><time>2026-04-18T13:02:44.657Z</time></trkpt><trkpt lat="44.91896" lon="9.57203"><ele>246.00000000000003</ele><time>2026-04-18T13:02:46.657Z</time></trkpt><trkpt lat="44.9188867" lon="9.5721317"><ele>246.0</ele><time>2026-04-18T13:02:48.657Z</time></trkpt><trkpt lat="44.9188233" lon="9.57223"><ele>246.0</ele><time>2026-04-18T13:02:50.657Z</time></trkpt><trkpt lat="44.9187617" lon="9.57233"><ele>246.0</ele><time>2026-04-18T13:02:52.657Z</time></trkpt><trkpt lat="44.918705" lon="9.5724267"><ele>246.00000000000003</ele><time>2026-04-18T13:02:54.657Z</time></trkpt><trkpt lat="44.9186433" lon="9.5725367"><ele>246.00000000000003</ele><time>2026-04-18T13:02:56.657Z</time></trkpt><trkpt lat="44.9185833" lon="9.5726467"><ele>246.0</ele><time>2026-04-18T13:02:58.657Z</time></trkpt><trkpt lat="44.9185167" lon="9.572745"><ele>246.0</ele><time>2026-04-18T13:03:00.657Z</time></trkpt><trkpt lat="44.9184417" lon="9.5728383"><ele>245.8</ele><time>2026-04-18T13:03:02.657Z</time></trkpt><trkpt lat="44.9183683" lon="9.5729317"><ele>245.60000000000002</ele><time>2026-04-18T13:03:04.657Z</time></trkpt><trkpt lat="44.9182883" lon="9.5730217"><ele>245.4</ele><time>2026-04-18T13:03:06.657Z</time></trkpt><trkpt lat="44.9182017" lon="9.573105"><ele>245.2</ele><time>2026-04-18T13:03:08.657Z</time></trkpt><trkpt lat="44.9181217" lon="9.5732"><ele>245.0</ele><time>2026-04-18T13:03:10.657Z</time></trkpt><trkpt lat="44.9180417" lon="9.5732733"><ele>245.0</ele><time>2026-04-18T13:03:12.657Z</time></trkpt><trkpt lat="44.9179683" lon="9.5733567"><ele>245.0</ele><time>2026-04-18T13:03:14.657Z</time></trkpt><trkpt lat="44.9178967" lon="9.5734417"><ele>245.0</ele><time>2026-04-18T13:03:16.657Z</time></trkpt><trkpt lat="44.9178183" lon="9.5735217"><ele>245.0</ele><time>2026-04-18T13:03:18.657Z</time></trkpt><trkpt lat="44.9177467" lon="9.573605"><ele>245.0</ele><time>2026-04-18T13:03:20.657Z</time></trkpt><trkpt lat="44.9176767" lon="9.5736917"><ele>244.8</ele><time>2026-04-18T13:03:22.657Z</time></trkpt><trkpt lat="44.917595" lon="9.57377"><ele>244.6</ele><time>2026-04-18T13:03:24.657Z</time></trkpt><trkpt lat="44.9175133" lon="9.5738517"><ele>244.39999999999998</ele><time>2026-04-18T13:03:26.657Z</time></trkpt><trkpt lat="44.917435" lon="9.5739367"><ele>244.2</ele><time>2026-04-18T13:03:28.657Z</time></trkpt><trkpt lat="44.9173433" lon="9.5740233"><ele>244.0</ele><time>2026-04-18T13:03:30.657Z</time></trkpt><trkpt lat="44.9172583" lon="9.5740983"><ele>243.66666666666666</ele><time>2026-04-18T13:03:32.657Z</time></trkpt><trkpt lat="44.91716" lon="9.574175"><ele>243.33333333333331</ele><time>2026-04-18T13:03:34.657Z</time></trkpt><trkpt lat="44.91706" lon="9.57426"><ele>243.0</ele><time>2026-04-18T13:03:36.657Z</time></trkpt><trkpt lat="44.917005" lon="9.5743067"><ele>242.66666666666669</ele><time>2026-04-18T13:03:37.657Z</time></trkpt><trkpt lat="44.9169483" lon="9.5743617"><ele>242.33333333333334</ele><time>2026-04-18T13:03:38.658Z</time></trkpt><trkpt lat="44.916895" lon="9.57441"><ele>242.0</ele><time>2026-04-18T13:03:39.657Z</time></trkpt><trkpt lat="44.9168367" lon="9.574455"><ele>242.00000000000003</ele><time>2026-04-18T13:03:40.657Z</time></trkpt><trkpt lat="44.9167783" lon="9.574505"><ele>242.0</ele><time>2026-04-18T13:03:41.657Z</time></trkpt><trkpt lat="44.9167183" lon="9.5745583"><ele>242.0</ele><time>2026-04-18T13:03:42.657Z</time></trkpt><trkpt lat="44.9166567" lon="9.5746067"><ele>242.0</ele><time>2026-04-18T13:03:43.657Z</time></trkpt><trkpt lat="44.9165983" lon="9.5746483"><ele>242.00000000000003</ele><time>2026-04-18T13:03:44.657Z</time></trkpt><trkpt lat="44.9165383" lon="9.574685"><ele>242.0</ele><time>2026-04-18T13:03:45.657Z</time></trkpt><trkpt lat="44.9164317" lon="9.5747433"><ele>239.0</ele><time>2026-04-18T13:03:47.657Z</time></trkpt><trkpt lat="44.9163183" lon="9.5748183"><ele>236.0</ele><time>2026-04-18T13:03:49.657Z</time></trkpt><trkpt lat="44.9162617" lon="9.5748583"><ele>233.0</ele><time>2026-04-18T13:03:50.658Z</time></trkpt><trkpt lat="44.9161983" lon="9.5748983"><ele>230.0</ele><time>2026-04-18T13:03:51.657Z</time></trkpt><trkpt lat="44.9160867" lon="9.5749717"><ele>227.0</ele><time>2026-04-18T13:03:53.657Z</time></trkpt><trkpt lat="44.9159767" lon="9.575035"><ele>227.0</ele><time>2026-04-18T13:03:55.657Z</time></trkpt><trkpt lat="44.9159167" lon="9.5750633"><ele>227.0</ele><time>2026-04-18T13:03:56.657Z</time></trkpt><trkpt lat="44.9158083" lon="9.5751333"><ele>227.0</ele><time>2026-04-18T13:03:58.657Z</time></trkpt><trkpt lat="44.9157333" lon="9.5752567"><ele>227.0</ele><time>2026-04-18T13:04:00.657Z</time></trkpt><trkpt lat="44.9157217" lon="9.5754217"><ele>227.0</ele><time>2026-04-18T13:04:02.657Z</time></trkpt><trkpt lat="44.9157567" lon="9.57558"><ele>226.50000000000003</ele><time>2026-04-18T13:04:04.657Z</time></trkpt><trkpt lat="44.91578" lon="9.57574"><ele>226.0</ele><time>2026-04-18T13:04:06.658Z</time></trkpt><trkpt lat="44.9157733" lon="9.57588"><ele>225.5</ele><time>2026-04-18T13:04:08.657Z</time></trkpt><trkpt lat="44.9157617" lon="9.5760083"><ele>225.0</ele><time>2026-04-18T13:04:10.657Z</time></trkpt><trkpt lat="44.9157833" lon="9.5761"><ele>224.50000000000003</ele><time>2026-04-18T13:04:12.657Z</time></trkpt><trkpt lat="44.9158133" lon="9.5761833"><ele>224.0</ele><time>2026-04-18T13:04:14.657Z</time></trkpt><trkpt lat="44.915855" lon="9.57627"><ele>221.0</ele><time>2026-04-18T13:04:16.657Z</time></trkpt><trkpt lat="44.915915" lon="9.5763783"><ele>217.99999999999997</ele><time>2026-04-18T13:04:18.657Z</time></trkpt><trkpt lat="44.9159467" lon="9.57651"><ele>215.0</ele><time>2026-04-18T13:04:20.657Z</time></trkpt><trkpt lat="44.91597" lon="9.5766517"><ele>212.0</ele><time>2026-04-18T13:04:22.657Z</time></trkpt><trkpt lat="44.9159917" lon="9.576775"><ele>209.0</ele><time>2026-04-18T13:04:24.657Z</time></trkpt><trkpt lat="44.9160133" lon="9.5768917"><ele>209.0</ele><time>2026-04-18T13:04:26.657Z</time></trkpt><trkpt lat="44.9160017" lon="9.5770017"><ele>209.0</ele><time>2026-04-18T13:04:28.657Z</time></trkpt><trkpt lat="44.9159433" lon="9.5771167"><ele>209.0</ele><time>2026-04-18T13:04:30.657Z</time></trkpt><trkpt lat="44.9158383" lon="9.57717"><ele>209.0</ele><time>2026-04-18T13:04:32.657Z</time></trkpt><trkpt lat="44.9157117" lon="9.5771883"><ele>209.0</ele><time>2026-04-18T13:04:34.657Z</time></trkpt><trkpt lat="44.9156483" lon="9.577185"><ele>209.14285714285714</ele><time>2026-04-18T13:04:35.657Z</time></trkpt><trkpt lat="44.915585" lon="9.5771733"><ele>209.28571428571428</ele><time>2026-04-18T13:04:36.657Z</time></trkpt><trkpt lat="44.9155217" lon="9.5771583"><ele>209.42857142857144</ele><time>2026-04-18T13:04:37.657Z</time></trkpt><trkpt lat="44.9154567" lon="9.57714"><ele>209.57142857142856</ele><time>2026-04-18T13:04:38.657Z</time></trkpt><trkpt lat="44.9153917" lon="9.577125"><ele>209.71428571428572</ele><time>2026-04-18T13:04:39.657Z</time></trkpt><trkpt lat="44.9153117" lon="9.57713"><ele>209.85714285714286</ele><time>2026-04-18T13:04:40.657Z</time></trkpt><trkpt lat="44.9152383" lon="9.5771567"><ele>210.0</ele><time>2026-04-18T13:04:41.657Z</time></trkpt><trkpt lat="44.91516" lon="9.5772067"><ele>210.0</ele><time>2026-04-18T13:04:42.657Z</time></trkpt><trkpt lat="44.91509" lon="9.5772717"><ele>210.0</ele><time>2026-04-18T13:04:43.657Z</time></trkpt><trkpt lat="44.9150267" lon="9.5773533"><ele>210.0</ele><time>2026-04-18T13:04:44.657Z</time></trkpt><trkpt lat="44.9149767" lon="9.5774383"><ele>210.0</ele><time>2026-04-18T13:04:45.657Z</time></trkpt><trkpt lat="44.9149367" lon="9.5775333"><ele>210.0</ele><time>2026-04-18T13:04:46.657Z</time></trkpt><trkpt lat="44.9148967" lon="9.5776317"><ele>210.0</ele><time>2026-04-18T13:04:47.657Z</time></trkpt><trkpt lat="44.9148583" lon="9.5777183"><ele>209.28571428571428</ele><time>2026-04-18T13:04:48.657Z</time></trkpt><trkpt lat="44.91482" lon="9.5778"><ele>208.57142857142856</ele><time>2026-04-18T13:04:49.657Z</time></trkpt><trkpt lat="44.9147783" lon="9.57787"><ele>207.85714285714286</ele><time>2026-04-18T13:04:50.657Z</time></trkpt><trkpt lat="44.9147333" lon="9.5779467"><ele>207.14285714285714</ele><time>2026-04-18T13:04:51.657Z</time></trkpt><trkpt lat="44.9146917" lon="9.5780333"><ele>206.42857142857142</ele><time>2026-04-18T13:04:52.657Z</time></trkpt><trkpt lat="44.9146417" lon="9.5781267"><ele>205.71428571428572</ele><time>2026-04-18T13:04:53.657Z</time></trkpt><trkpt lat="44.914595" lon="9.5782267"><ele>205.0</ele><time>2026-04-18T13:04:54.657Z</time></trkpt><trkpt lat="44.914555" lon="9.57832"><ele>203.2</ele><time>2026-04-18T13:04:55.657Z</time></trkpt><trkpt lat="44.9145167" lon="9.5784"><ele>201.4</ele><time>2026-04-18T13:04:56.657Z</time></trkpt><trkpt lat="44.914425" lon="9.5785"><ele>199.60000000000002</ele><time>2026-04-18T13:04:58.657Z</time></trkpt><trkpt lat="44.9143183" lon="9.5784967"><ele>197.8</ele><time>2026-04-18T13:05:00.657Z</time></trkpt><trkpt lat="44.9142083" lon="9.57845"><ele>196.0</ele><time>2026-04-18T13:05:02.657Z</time></trkpt><trkpt lat="44.914115" lon="9.5784033"><ele>195.4</ele><time>2026-04-18T13:05:04.657Z</time></trkpt><trkpt lat="44.91403" lon="9.578365"><ele>194.8</ele><time>2026-04-18T13:05:06.657Z</time></trkpt><trkpt lat="44.9139383" lon="9.5783217"><ele>194.20000000000002</ele><time>2026-04-18T13:05:08.657Z</time></trkpt><trkpt lat="44.913845" lon="9.5782717"><ele>193.60000000000002</ele><time>2026-04-18T13:05:10.658Z</time></trkpt><trkpt lat="44.9137483" lon="9.578225"><ele>193.0</ele><time>2026-04-18T13:05:12.657Z</time></trkpt><trkpt lat="44.9136583" lon="9.5781833"><ele>193.0</ele><time>2026-04-18T13:05:14.657Z</time></trkpt><trkpt lat="44.9135767" lon="9.5781683"><ele>193.0</ele><time>2026-04-18T13:05:16.657Z</time></trkpt><trkpt lat="44.9134967" lon="9.5782367"><ele>193.0</ele><time>2026-04-18T13:05:18.657Z</time></trkpt><trkpt lat="44.913465" lon="9.5783783"><ele>193.0</ele><time>2026-04-18T13:05:20.657Z</time></trkpt><trkpt lat="44.91344" lon="9.5785433"><ele>193.0</ele><time>2026-04-18T13:05:22.658Z</time></trkpt><trkpt lat="44.9134233" lon="9.57863"><ele>192.83333333333331</ele><time>2026-04-18T13:05:23.657Z</time></trkpt><trkpt lat="44.9133883" lon="9.5787967"><ele>192.66666666666666</ele><time>2026-04-18T13:05:25.657Z</time></trkpt><trkpt lat="44.91337" lon="9.5788867"><ele>192.5</ele><time>2026-04-18T13:05:26.657Z</time></trkpt><trkpt lat="44.9133483" lon="9.57898"><ele>192.33333333333331</ele><time>2026-04-18T13:05:27.657Z</time></trkpt><trkpt lat="44.9133283" lon="9.5790733"><ele>192.16666666666666</ele><time>2026-04-18T13:05:28.658Z</time></trkpt><trkpt lat="44.913305" lon="9.5791717"><ele>192.0</ele><time>2026-04-18T13:05:29.657Z</time></trkpt><trkpt lat="44.9132867" lon="9.5792733"><ele>192.0</ele><time>2026-04-18T13:05:30.657Z</time></trkpt><trkpt lat="44.9132617" lon="9.579375"><ele>192.0</ele><time>2026-04-18T13:05:31.657Z</time></trkpt><trkpt lat="44.9132433" lon="9.579475"><ele>192.0</ele><time>2026-04-18T13:05:32.657Z</time></trkpt><trkpt lat="44.9132233" lon="9.5795767"><ele>192.0</ele><time>2026-04-18T13:05:33.657Z</time></trkpt><trkpt lat="44.9132033" lon="9.579685"><ele>192.0</ele><time>2026-04-18T13:05:34.657Z</time></trkpt><trkpt lat="44.91318" lon="9.5797933"><ele>192.0</ele><time>2026-04-18T13:05:35.657Z</time></trkpt><trkpt lat="44.91316" lon="9.5799017"><ele>191.5</ele><time>2026-04-18T13:05:36.657Z</time></trkpt><trkpt lat="44.913145" lon="9.580005"><ele>191.0</ele><time>2026-04-18T13:05:37.657Z</time></trkpt><trkpt lat="44.9131233" lon="9.5801117"><ele>190.5</ele><time>2026-04-18T13:05:38.657Z</time></trkpt><trkpt lat="44.913105" lon="9.58022"><ele>190.0</ele><time>2026-04-18T13:05:39.657Z</time></trkpt><trkpt lat="44.9130867" lon="9.5803217"><ele>189.5</ele><time>2026-04-18T13:05:40.657Z</time></trkpt><trkpt lat="44.913065" lon="9.5804217"><ele>189.0</ele><time>2026-04-18T13:05:41.657Z</time></trkpt><trkpt lat="44.9130467" lon="9.5805183"><ele>188.71428571428572</ele><time>2026-04-18T13:05:42.657Z</time></trkpt><trkpt lat="44.9130267" lon="9.5806117"><ele>188.42857142857144</ele><time>2026-04-18T13:05:43.657Z</time></trkpt><trkpt lat="44.913005" lon="9.5807117"><ele>188.14285714285714</ele><time>2026-04-18T13:05:44.657Z</time></trkpt><trkpt lat="44.912985" lon="9.5808083"><ele>187.85714285714286</ele><time>2026-04-18T13:05:45.657Z</time></trkpt><trkpt lat="44.9129617" lon="9.580905"><ele>187.57142857142858</ele><time>2026-04-18T13:05:46.657Z</time></trkpt><trkpt lat="44.9129433" lon="9.581"><ele>187.28571428571428</ele><time>2026-04-18T13:05:47.657Z</time></trkpt><trkpt lat="44.9129217" lon="9.581095"><ele>187.0</ele><time>2026-04-18T13:05:48.657Z</time></trkpt><trkpt lat="44.9129067" lon="9.5811917"><ele>186.14285714285714</ele><time>2026-04-18T13:05:49.657Z</time></trkpt><trkpt lat="44.9128883" lon="9.5812917"><ele>185.2857142857143</ele><time>2026-04-18T13:05:50.657Z</time></trkpt><trkpt lat="44.9128667" lon="9.58139"><ele>184.42857142857144</ele><time>2026-04-18T13:05:51.657Z</time></trkpt><trkpt lat="44.9128483" lon="9.5814867"><ele>183.57142857142856</ele><time>2026-04-18T13:05:52.657Z</time></trkpt><trkpt lat="44.912825" lon="9.58158"><ele>182.71428571428572</ele><time>2026-04-18T13:05:53.657Z</time></trkpt><trkpt lat="44.9127967" lon="9.58168"><ele>181.85714285714286</ele><time>2026-04-18T13:05:54.657Z</time></trkpt><trkpt lat="44.9127733" lon="9.5817783"><ele>181.0</ele><time>2026-04-18T13:05:55.657Z</time></trkpt><trkpt lat="44.9127433" lon="9.5818783"><ele>181.0</ele><time>2026-04-18T13:05:56.657Z</time></trkpt><trkpt lat="44.9127183" lon="9.581985"><ele>181.0</ele><time>2026-04-18T13:05:57.657Z</time></trkpt><trkpt lat="44.9126983" lon="9.5820933"><ele>181.0</ele><time>2026-04-18T13:05:58.657Z</time></trkpt><trkpt lat="44.91268" lon="9.5821967"><ele>181.0</ele><time>2026-04-18T13:05:59.657Z</time></trkpt><trkpt lat="44.9126633" lon="9.5823017"><ele>181.0</ele><time>2026-04-18T13:06:00.657Z</time></trkpt><trkpt lat="44.9126567" lon="9.582405"><ele>181.0</ele><time>2026-04-18T13:06:01.657Z</time></trkpt><trkpt lat="44.91264" lon="9.582505"><ele>180.14285714285714</ele><time>2026-04-18T13:06:02.657Z</time></trkpt><trkpt lat="44.9126183" lon="9.5825933"><ele>179.28571428571428</ele><time>2026-04-18T13:06:03.657Z</time></trkpt><trkpt lat="44.912595" lon="9.5826767"><ele>178.42857142857144</ele><time>2026-04-18T13:06:04.657Z</time></trkpt><trkpt lat="44.9125583" lon="9.582755"><ele>177.57142857142856</ele><time>2026-04-18T13:06:05.657Z</time></trkpt><trkpt lat="44.912515" lon="9.58282"><ele>176.71428571428572</ele><time>2026-04-18T13:06:06.657Z</time></trkpt><trkpt lat="44.91247" lon="9.5828833"><ele>175.85714285714286</ele><time>2026-04-18T13:06:07.657Z</time></trkpt><trkpt lat="44.9124233" lon="9.5829483"><ele>175.0</ele><time>2026-04-18T13:06:08.657Z</time></trkpt><trkpt lat="44.912375" lon="9.5830117"><ele>173.85714285714286</ele><time>2026-04-18T13:06:09.657Z</time></trkpt><trkpt lat="44.9123233" lon="9.5830817"><ele>172.71428571428572</ele><time>2026-04-18T13:06:10.657Z</time></trkpt><trkpt lat="44.912275" lon="9.5831533"><ele>171.57142857142856</ele><time>2026-04-18T13:06:11.657Z</time></trkpt><trkpt lat="44.91223" lon="9.5832233"><ele>170.42857142857144</ele><time>2026-04-18T13:06:12.657Z</time></trkpt><trkpt lat="44.9121817" lon="9.5832933"><ele>169.28571428571428</ele><time>2026-04-18T13:06:13.657Z</time></trkpt><trkpt lat="44.912135" lon="9.5833683"><ele>168.14285714285714</ele><time>2026-04-18T13:06:14.657Z</time></trkpt><trkpt lat="44.912085" lon="9.58345"><ele>167.0</ele><time>2026-04-18T13:06:15.657Z</time></trkpt><trkpt lat="44.9120317" lon="9.5835233"><ele>167.0</ele><time>2026-04-18T13:06:16.657Z</time></trkpt><trkpt lat="44.9119783" lon="9.5835983"><ele>167.0</ele><time>2026-04-18T13:06:17.657Z</time></trkpt><trkpt lat="44.9119267" lon="9.5836767"><ele>167.0</ele><time>2026-04-18T13:06:18.657Z</time></trkpt><trkpt lat="44.9118733" lon="9.5837533"><ele>167.0</ele><time>2026-04-18T13:06:19.657Z</time></trkpt><trkpt lat="44.9118217" lon="9.5838167"><ele>167.0</ele><time>2026-04-18T13:06:20.657Z</time></trkpt><trkpt lat="44.9117133" lon="9.5838717"><ele>167.0</ele><time>2026-04-18T13:06:22.657Z</time></trkpt><trkpt lat="44.9116067" lon="9.5838067"><ele>166.8</ele><time>2026-04-18T13:06:24.657Z</time></trkpt><trkpt lat="44.911515" lon="9.5837217"><ele>166.6</ele><time>2026-04-18T13:06:26.657Z</time></trkpt><trkpt lat="44.91142" lon="9.583665"><ele>166.4</ele><time>2026-04-18T13:06:28.657Z</time></trkpt><trkpt lat="44.9113267" lon="9.5836233"><ele>166.20000000000002</ele><time>2026-04-18T13:06:30.657Z</time></trkpt><trkpt lat="44.9112267" lon="9.5835983"><ele>166.0</ele><time>2026-04-18T13:06:32.657Z</time></trkpt><trkpt lat="44.9111233" lon="9.583585"><ele>166.0</ele><time>2026-04-18T13:06:34.657Z</time></trkpt><trkpt lat="44.9110233" lon="9.58358"><ele>166.0</ele><time>2026-04-18T13:06:36.657Z</time></trkpt><trkpt lat="44.9109233" lon="9.5835717"><ele>166.0</ele><time>2026-04-18T13:06:38.657Z</time></trkpt><trkpt lat="44.9108317" lon="9.5835683"><ele>166.0</ele><time>2026-04-18T13:06:40.657Z</time></trkpt><trkpt lat="44.9107383" lon="9.583555"><ele>166.0</ele><time>2026-04-18T13:06:42.657Z</time></trkpt><trkpt lat="44.9106383" lon="9.58355"><ele>166.60000000000002</ele><time>2026-04-18T13:06:44.657Z</time></trkpt><trkpt lat="44.9105433" lon="9.5835383"><ele>167.2</ele><time>2026-04-18T13:06:46.657Z</time></trkpt><trkpt lat="44.9104467" lon="9.5835267"><ele>167.8</ele><time>2026-04-18T13:06:48.657Z</time></trkpt><trkpt lat="44.910355" lon="9.5835067"><ele>168.39999999999998</ele><time>2026-04-18T13:06:50.657Z</time></trkpt><trkpt lat="44.91026" lon="9.5835083"><ele>169.0</ele><time>2026-04-18T13:06:52.657Z</time></trkpt><trkpt lat="44.9101633" lon="9.583505"><ele>170.0</ele><time>2026-04-18T13:06:54.657Z</time></trkpt><trkpt lat="44.9100667" lon="9.5834917"><ele>171.0</ele><time>2026-04-18T13:06:56.657Z</time></trkpt><trkpt lat="44.9099733" lon="9.5834817"><ele>172.0</ele><time>2026-04-18T13:06:58.657Z</time></trkpt><trkpt lat="44.90988" lon="9.5834783"><ele>173.0</ele><time>2026-04-18T13:07:00.657Z</time></trkpt><trkpt lat="44.9097817" lon="9.58347"><ele>174.0</ele><time>2026-04-18T13:07:02.657Z</time></trkpt><trkpt lat="44.90969" lon="9.5834567"><ele>174.0</ele><time>2026-04-18T13:07:04.657Z</time></trkpt><trkpt lat="44.909595" lon="9.5834367"><ele>174.0</ele><time>2026-04-18T13:07:06.657Z</time></trkpt><trkpt lat="44.9095" lon="9.583405"><ele>174.0</ele><time>2026-04-18T13:07:08.657Z</time></trkpt><trkpt lat="44.90941" lon="9.5833717"><ele>174.0</ele><time>2026-04-18T13:07:10.657Z</time></trkpt><trkpt lat="44.90932" lon="9.5833433"><ele>174.0</ele><time>2026-04-18T13:07:12.657Z</time></trkpt><trkpt lat="44.909225" lon="9.5833083"><ele>174.79999999999998</ele><time>2026-04-18T13:07:14.657Z</time></trkpt><trkpt lat="44.9091333" lon="9.5832683"><ele>175.6</ele><time>2026-04-18T13:07:16.657Z</time></trkpt><trkpt lat="44.9090483" lon="9.5832267"><ele>176.4</ele><time>2026-04-18T13:07:18.657Z</time></trkpt><trkpt lat="44.9089683" lon="9.583155"><ele>177.2</ele><time>2026-04-18T13:07:20.657Z</time></trkpt><trkpt lat="44.908905" lon="9.58305"><ele>178.0</ele><time>2026-04-18T13:07:22.657Z</time></trkpt><trkpt lat="44.9088667" lon="9.5829333"><ele>179.0</ele><time>2026-04-18T13:07:24.657Z</time></trkpt><trkpt lat="44.9088333" lon="9.582815"><ele>180.0</ele><time>2026-04-18T13:07:26.657Z</time></trkpt><trkpt lat="44.908805" lon="9.5827"><ele>181.0</ele><time>2026-04-18T13:07:28.657Z</time></trkpt><trkpt lat="44.908765" lon="9.58259"><ele>182.0</ele><time>2026-04-18T13:07:30.657Z</time></trkpt><trkpt lat="44.908725" lon="9.582475"><ele>183.0</ele><time>2026-04-18T13:07:32.657Z</time></trkpt><trkpt lat="44.9086867" lon="9.5823683"><ele>184.0</ele><time>2026-04-18T13:07:34.657Z</time></trkpt><trkpt lat="44.9086433" lon="9.5822683"><ele>184.0</ele><time>2026-04-18T13:07:36.658Z</time></trkpt><trkpt lat="44.9086033" lon="9.582165"><ele>184.0</ele><time>2026-04-18T13:07:38.657Z</time></trkpt><trkpt lat="44.90856" lon="9.582045"><ele>184.0</ele><time>2026-04-18T13:07:40.657Z</time></trkpt><trkpt lat="44.9085233" lon="9.5819317"><ele>184.0</ele><time>2026-04-18T13:07:42.657Z</time></trkpt><trkpt lat="44.9084917" lon="9.5818283"><ele>184.0</ele><time>2026-04-18T13:07:44.657Z</time></trkpt><trkpt lat="44.90846" lon="9.5817017"><ele>184.0</ele><time>2026-04-18T13:07:46.657Z</time></trkpt><trkpt lat="44.9084233" lon="9.5815683"><ele>184.0</ele><time>2026-04-18T13:07:48.657Z</time></trkpt><trkpt lat="44.9083633" lon="9.5814367"><ele>184.0</ele><time>2026-04-18T13:07:50.657Z</time></trkpt><trkpt lat="44.90829" lon="9.5813183"><ele>184.0</ele><time>2026-04-18T13:07:52.657Z</time></trkpt><trkpt lat="44.908205" lon="9.5812067"><ele>184.0</ele><time>2026-04-18T13:07:54.658Z</time></trkpt><trkpt lat="44.9081117" lon="9.5811067"><ele>184.5</ele><time>2026-04-18T13:07:56.657Z</time></trkpt><trkpt lat="44.9080167" lon="9.5810017"><ele>185.0</ele><time>2026-04-18T13:07:58.657Z</time></trkpt><trkpt lat="44.9079233" lon="9.5808933"><ele>185.5</ele><time>2026-04-18T13:08:00.657Z</time></trkpt><trkpt lat="44.9078333" lon="9.5808"><ele>186.0</ele><time>2026-04-18T13:08:02.657Z</time></trkpt><trkpt lat="44.9077317" lon="9.5807033"><ele>186.0</ele><time>2026-04-18T13:08:04.657Z</time></trkpt><trkpt lat="44.9076233" lon="9.5806417"><ele>186.0</ele><time>2026-04-18T13:08:06.657Z</time></trkpt><trkpt lat="44.9075017" lon="9.5806217"><ele>186.0</ele><time>2026-04-18T13:08:08.657Z</time></trkpt><trkpt lat="44.9073717" lon="9.5806217"><ele>186.0</ele><time>2026-04-18T13:08:10.657Z</time></trkpt><trkpt lat="44.9073017" lon="9.5806233"><ele>186.0</ele><time>2026-04-18T13:08:11.657Z</time></trkpt><trkpt lat="44.9072333" lon="9.5806133"><ele>185.14285714285717</ele><time>2026-04-18T13:08:12.657Z</time></trkpt><trkpt lat="44.9071667" lon="9.5805883"><ele>184.28571428571428</ele><time>2026-04-18T13:08:13.657Z</time></trkpt><trkpt lat="44.9071" lon="9.5805517"><ele>183.42857142857144</ele><time>2026-04-18T13:08:14.657Z</time></trkpt><trkpt lat="44.9070333" lon="9.5805117"><ele>182.57142857142858</ele><time>2026-04-18T13:08:15.657Z</time></trkpt><trkpt lat="44.9069617" lon="9.5804683"><ele>181.71428571428572</ele><time>2026-04-18T13:08:16.657Z</time></trkpt><trkpt lat="44.9068933" lon="9.580425"><ele>180.85714285714286</ele><time>2026-04-18T13:08:17.657Z</time></trkpt><trkpt lat="44.9068233" lon="9.58039"><ele>180.0</ele><time>2026-04-18T13:08:18.657Z</time></trkpt><trkpt lat="44.90675" lon="9.5803517"><ele>180.16666666666666</ele><time>2026-04-18T13:08:19.657Z</time></trkpt><trkpt lat="44.90668" lon="9.5803183"><ele>180.33333333333334</ele><time>2026-04-18T13:08:20.658Z</time></trkpt><trkpt lat="44.9066067" lon="9.5802883"><ele>180.5</ele><time>2026-04-18T13:08:21.657Z</time></trkpt><trkpt lat="44.906535" lon="9.5802617"><ele>180.66666666666669</ele><time>2026-04-18T13:08:22.657Z</time></trkpt><trkpt lat="44.9064583" lon="9.5802383"><ele>180.83333333333334</ele><time>2026-04-18T13:08:23.657Z</time></trkpt><trkpt lat="44.906385" lon="9.580205"><ele>181.0</ele><time>2026-04-18T13:08:24.657Z</time></trkpt><trkpt lat="44.9063133" lon="9.5801783"><ele>181.0</ele><time>2026-04-18T13:08:25.657Z</time></trkpt><trkpt lat="44.90624" lon="9.58015"><ele>181.0</ele><time>2026-04-18T13:08:26.657Z</time></trkpt><trkpt lat="44.9061717" lon="9.580125"><ele>181.0</ele><time>2026-04-18T13:08:27.657Z</time></trkpt><trkpt lat="44.906105" lon="9.5801"><ele>181.0</ele><time>2026-04-18T13:08:28.657Z</time></trkpt><trkpt lat="44.90604" lon="9.5800767"><ele>181.0</ele><time>2026-04-18T13:08:29.657Z</time></trkpt><trkpt lat="44.905975" lon="9.58005"><ele>181.0</ele><time>2026-04-18T13:08:30.657Z</time></trkpt><trkpt lat="44.90585" lon="9.5800067"><ele>179.8</ele><time>2026-04-18T13:08:32.657Z</time></trkpt><trkpt lat="44.9057317" lon="9.579965"><ele>178.60000000000002</ele><time>2026-04-18T13:08:34.657Z</time></trkpt><trkpt lat="44.90561" lon="9.5799267"><ele>177.4</ele><time>2026-04-18T13:08:36.657Z</time></trkpt><trkpt lat="44.9055483" lon="9.5799067"><ele>176.2</ele><time>2026-04-18T13:08:37.657Z</time></trkpt><trkpt lat="44.905445" lon="9.5798683"><ele>175.0</ele><time>2026-04-18T13:08:39.657Z</time></trkpt><trkpt lat="44.9053317" lon="9.5798367"><ele>175.0</ele><time>2026-04-18T13:08:41.657Z</time></trkpt><trkpt lat="44.9052233" lon="9.579805"><ele>175.0</ele><time>2026-04-18T13:08:43.657Z</time></trkpt><trkpt lat="44.9051117" lon="9.5797733"><ele>175.0</ele><time>2026-04-18T13:08:45.657Z</time></trkpt><trkpt lat="44.9049983" lon="9.5797483"><ele>175.0</ele><time>2026-04-18T13:08:47.657Z</time></trkpt><trkpt lat="44.904885" lon="9.579725"><ele>174.2</ele><time>2026-04-18T13:08:49.657Z</time></trkpt><trkpt lat="44.9048233" lon="9.5797067"><ele>173.4</ele><time>2026-04-18T13:08:50.657Z</time></trkpt><trkpt lat="44.904705" lon="9.5796667"><ele>172.60000000000002</ele><time>2026-04-18T13:08:52.657Z</time></trkpt><trkpt lat="44.9045867" lon="9.5796217"><ele>171.8</ele><time>2026-04-18T13:08:54.657Z</time></trkpt><trkpt lat="44.9044733" lon="9.5795533"><ele>171.0</ele><time>2026-04-18T13:08:56.657Z</time></trkpt><trkpt lat="44.904365" lon="9.579465"><ele>171.5</ele><time>2026-04-18T13:08:58.658Z</time></trkpt><trkpt lat="44.9043083" lon="9.57942"><ele>172.0</ele><time>2026-04-18T13:08:59.657Z</time></trkpt><trkpt lat="44.90425" lon="9.5793767"><ele>172.5</ele><time>2026-04-18T13:09:00.657Z</time></trkpt><trkpt lat="44.9041433" lon="9.5792867"><ele>173.0</ele><time>2026-04-18T13:09:02.657Z</time></trkpt><trkpt lat="44.904085" lon="9.5792417"><ele>173.5</ele><time>2026-04-18T13:09:03.657Z</time></trkpt><trkpt lat="44.904025" lon="9.5791917"><ele>174.0</ele><time>2026-04-18T13:09:04.657Z</time></trkpt><trkpt lat="44.903965" lon="9.5791467"><ele>174.0</ele><time>2026-04-18T13:09:05.657Z</time></trkpt><trkpt lat="44.9039083" lon="9.5791"><ele>174.0</ele><time>2026-04-18T13:09:06.657Z</time></trkpt><trkpt lat="44.9038" lon="9.5790217"><ele>174.0</ele><time>2026-04-18T13:09:08.657Z</time></trkpt><trkpt lat="44.9037" lon="9.5789467"><ele>174.0</ele><time>2026-04-18T13:09:10.657Z</time></trkpt><trkpt lat="44.9036017" lon="9.57888"><ele>174.0</ele><time>2026-04-18T13:09:12.657Z</time></trkpt><trkpt lat="44.9035033" lon="9.5788217"><ele>173.79999999999998</ele><time>2026-04-18T13:09:14.658Z</time></trkpt><trkpt lat="44.9033967" lon="9.5787733"><ele>173.6</ele><time>2026-04-18T13:09:16.657Z</time></trkpt><trkpt lat="44.9033033" lon="9.5787167"><ele>173.4</ele><time>2026-04-18T13:09:18.657Z</time></trkpt><trkpt lat="44.9031933" lon="9.5786567"><ele>173.2</ele><time>2026-04-18T13:09:20.657Z</time></trkpt><trkpt lat="44.9030883" lon="9.5786017"><ele>173.0</ele><time>2026-04-18T13:09:22.657Z</time></trkpt><trkpt lat="44.9029783" lon="9.5785483"><ele>173.0</ele><time>2026-04-18T13:09:24.657Z</time></trkpt><trkpt lat="44.90287" lon="9.5784933"><ele>173.0</ele><time>2026-04-18T13:09:26.657Z</time></trkpt><trkpt lat="44.9027583" lon="9.5784317"><ele>173.0</ele><time>2026-04-18T13:09:28.657Z</time></trkpt><trkpt lat="44.902645" lon="9.5783733"><ele>173.0</ele><time>2026-04-18T13:09:30.657Z</time></trkpt><trkpt lat="44.9025333" lon="9.5783167"><ele>172.75</ele><time>2026-04-18T13:09:32.657Z</time></trkpt><trkpt lat="44.9024183" lon="9.5782867"><ele>172.5</ele><time>2026-04-18T13:09:34.657Z</time></trkpt><trkpt lat="44.9023" lon="9.5782633"><ele>172.25</ele><time>2026-04-18T13:09:36.657Z</time></trkpt><trkpt lat="44.9021817" lon="9.578235"><ele>172.0</ele><time>2026-04-18T13:09:38.657Z</time></trkpt><trkpt lat="44.902075" lon="9.57821"><ele>172.0</ele><time>2026-04-18T13:09:40.657Z</time></trkpt><trkpt lat="44.901975" lon="9.5782017"><ele>172.0</ele><time>2026-04-18T13:09:42.657Z</time></trkpt><trkpt lat="44.90187" lon="9.5782083"><ele>172.0</ele><time>2026-04-18T13:09:44.657Z</time></trkpt><trkpt lat="44.9017633" lon="9.578225"><ele>172.0</ele><time>2026-04-18T13:09:46.657Z</time></trkpt><trkpt lat="44.9016617" lon="9.57826"><ele>172.0</ele><time>2026-04-18T13:09:48.657Z</time></trkpt><trkpt lat="44.90156" lon="9.5783133"><ele>172.25</ele><time>2026-04-18T13:09:50.657Z</time></trkpt><trkpt lat="44.90146" lon="9.57836"><ele>172.5</ele><time>2026-04-18T13:09:52.657Z</time></trkpt><trkpt lat="44.90136" lon="9.5784317"><ele>172.75</ele><time>2026-04-18T13:09:54.657Z</time></trkpt><trkpt lat="44.90126" lon="9.5785117"><ele>173.0</ele><time>2026-04-18T13:09:56.657Z</time></trkpt><trkpt lat="44.90116" lon="9.5786183"><ele>171.8</ele><time>2026-04-18T13:09:58.657Z</time></trkpt><trkpt lat="44.90107" lon="9.578725"><ele>170.60000000000002</ele><time>2026-04-18T13:10:00.657Z</time></trkpt><trkpt lat="44.90099" lon="9.57882"><ele>169.39999999999998</ele><time>2026-04-18T13:10:02.657Z</time></trkpt><trkpt lat="44.9009117" lon="9.578915"><ele>168.2</ele><time>2026-04-18T13:10:04.657Z</time></trkpt><trkpt lat="44.9008183" lon="9.5789817"><ele>167.0</ele><time>2026-04-18T13:10:06.657Z</time></trkpt><trkpt lat="44.90072" lon="9.579025"><ele>167.0</ele><time>2026-04-18T13:10:08.657Z</time></trkpt><trkpt lat="44.900615" lon="9.5790317"><ele>167.0</ele><time>2026-04-18T13:10:10.657Z</time></trkpt><trkpt lat="44.9005017" lon="9.57897"><ele>167.0</ele><time>2026-04-18T13:10:12.657Z</time></trkpt><trkpt lat="44.9003933" lon="9.5789033"><ele>167.0</ele><time>2026-04-18T13:10:14.657Z</time></trkpt><trkpt lat="44.9002833" lon="9.5788283"><ele>167.0</ele><time>2026-04-18T13:10:16.657Z</time></trkpt><trkpt lat="44.9001717" lon="9.578765"><ele>167.0</ele><time>2026-04-18T13:10:18.657Z</time></trkpt><trkpt lat="44.900055" lon="9.578725"><ele>167.0</ele><time>2026-04-18T13:10:20.657Z</time></trkpt><trkpt lat="44.89993" lon="9.578715"><ele>167.0</ele><time>2026-04-18T13:10:22.657Z</time></trkpt><trkpt lat="44.8998667" lon="9.5787183"><ele>167.0</ele><time>2026-04-18T13:10:23.657Z</time></trkpt><trkpt lat="44.8998" lon="9.5787233"><ele>166.83333333333331</ele><time>2026-04-18T13:10:24.657Z</time></trkpt><trkpt lat="44.8997333" lon="9.5787283"><ele>166.66666666666666</ele><time>2026-04-18T13:10:25.657Z</time></trkpt><trkpt lat="44.8996083" lon="9.57871"><ele>166.5</ele><time>2026-04-18T13:10:27.657Z</time></trkpt><trkpt lat="44.8995433" lon="9.578685"><ele>166.33333333333334</ele><time>2026-04-18T13:10:28.657Z</time></trkpt><trkpt lat="44.8994817" lon="9.5786533"><ele>166.16666666666669</ele><time>2026-04-18T13:10:29.657Z</time></trkpt><trkpt lat="44.8994217" lon="9.5786217"><ele>166.0</ele><time>2026-04-18T13:10:30.657Z</time></trkpt><trkpt lat="44.8993133" lon="9.578565"><ele>166.5</ele><time>2026-04-18T13:10:32.657Z</time></trkpt><trkpt lat="44.8992517" lon="9.5785433"><ele>167.0</ele><time>2026-04-18T13:10:33.657Z</time></trkpt><trkpt lat="44.8991933" lon="9.57851"><ele>167.5</ele><time>2026-04-18T13:10:34.657Z</time></trkpt><trkpt lat="44.8991333" lon="9.5784783"><ele>168.0</ele><time>2026-04-18T13:10:35.657Z</time></trkpt><trkpt lat="44.8990217" lon="9.5784217"><ele>168.5</ele><time>2026-04-18T13:10:37.657Z</time></trkpt><trkpt lat="44.8989167" lon="9.5783833"><ele>169.0</ele><time>2026-04-18T13:10:39.657Z</time></trkpt><trkpt lat="44.8988117" lon="9.5783333"><ele>169.0</ele><time>2026-04-18T13:10:41.658Z</time></trkpt><trkpt lat="44.8986983" lon="9.5782667"><ele>169.0</ele><time>2026-04-18T13:10:43.657Z</time></trkpt><trkpt lat="44.898585" lon="9.5781783"><ele>169.0</ele><time>2026-04-18T13:10:45.658Z</time></trkpt><trkpt lat="44.8984767" lon="9.578075"><ele>169.0</ele><time>2026-04-18T13:10:47.657Z</time></trkpt><trkpt lat="44.8984233" lon="9.5780167"><ele>170.0</ele><time>2026-04-18T13:10:48.657Z</time></trkpt><trkpt lat="44.898335" lon="9.577905"><ele>171.0</ele><time>2026-04-18T13:10:50.657Z</time></trkpt><trkpt lat="44.89824" lon="9.5778"><ele>172.0</ele><time>2026-04-18T13:10:52.657Z</time></trkpt><trkpt lat="44.8981517" lon="9.5777"><ele>173.0</ele><time>2026-04-18T13:10:54.657Z</time></trkpt><trkpt lat="44.89806" lon="9.577615"><ele>173.0</ele><time>2026-04-18T13:10:56.657Z</time></trkpt><trkpt lat="44.8979667" lon="9.577545"><ele>173.0</ele><time>2026-04-18T13:10:58.658Z</time></trkpt><trkpt lat="44.8978683" lon="9.57748"><ele>173.0</ele><time>2026-04-18T13:11:00.658Z</time></trkpt><trkpt lat="44.8977567" lon="9.57742"><ele>173.0</ele><time>2026-04-18T13:11:02.658Z</time></trkpt><trkpt lat="44.8976933" lon="9.577395"><ele>173.0</ele><time>2026-04-18T13:11:03.658Z</time></trkpt><trkpt lat="44.8976317" lon="9.5773717"><ele>171.83333333333331</ele><time>2026-04-18T13:11:04.658Z</time></trkpt><trkpt lat="44.89757" lon="9.5773433"><ele>170.66666666666666</ele><time>2026-04-18T13:11:05.658Z</time></trkpt><trkpt lat="44.8974533" lon="9.5772917"><ele>169.5</ele><time>2026-04-18T13:11:07.658Z</time></trkpt><trkpt lat="44.8973883" lon="9.5772767"><ele>168.33333333333334</ele><time>2026-04-18T13:11:08.658Z</time></trkpt><trkpt lat="44.8973233" lon="9.577265"><ele>167.16666666666669</ele><time>2026-04-18T13:11:09.658Z</time></trkpt><trkpt lat="44.8971983" lon="9.5772317"><ele>166.0</ele><time>2026-04-18T13:11:11.658Z</time></trkpt><trkpt lat="44.8970733" lon="9.5771983"><ele>166.0</ele><time>2026-04-18T13:11:13.659Z</time></trkpt><trkpt lat="44.89701" lon="9.5771867"><ele>166.0</ele><time>2026-04-18T13:11:14.658Z</time></trkpt><trkpt lat="44.8968933" lon="9.57715"><ele>166.0</ele><time>2026-04-18T13:11:16.658Z</time></trkpt><trkpt lat="44.8967883" lon="9.5770983"><ele>166.0</ele><time>2026-04-18T13:11:18.658Z</time></trkpt><trkpt lat="44.8966883" lon="9.5770183"><ele>166.0</ele><time>2026-04-18T13:11:20.659Z</time></trkpt><trkpt lat="44.896635" lon="9.57697"><ele>166.33333333333334</ele><time>2026-04-18T13:11:21.658Z</time></trkpt><trkpt lat="44.8965317" lon="9.5768767"><ele>166.66666666666669</ele><time>2026-04-18T13:11:23.658Z</time></trkpt><trkpt lat="44.8964767" lon="9.5768267"><ele>167.0</ele><time>2026-04-18T13:11:24.658Z</time></trkpt><trkpt lat="44.8964217" lon="9.5767767"><ele>167.33333333333334</ele><time>2026-04-18T13:11:25.658Z</time></trkpt><trkpt lat="44.8963667" lon="9.5767317"><ele>167.66666666666666</ele><time>2026-04-18T13:11:26.658Z</time></trkpt><trkpt lat="44.8962683" lon="9.576635"><ele>168.0</ele><time>2026-04-18T13:11:28.658Z</time></trkpt><trkpt lat="44.8961717" lon="9.576545"><ele>168.0</ele><time>2026-04-18T13:11:30.658Z</time></trkpt><trkpt lat="44.8960783" lon="9.5764617"><ele>168.0</ele><time>2026-04-18T13:11:32.658Z</time></trkpt><trkpt lat="44.8959833" lon="9.576375"><ele>168.0</ele><time>2026-04-18T13:11:34.658Z</time></trkpt><trkpt lat="44.8958833" lon="9.5762867"><ele>168.0</ele><time>2026-04-18T13:11:36.658Z</time></trkpt><trkpt lat="44.8957883" lon="9.5761983"><ele>167.5</ele><time>2026-04-18T13:11:38.658Z</time></trkpt><trkpt lat="44.8956933" lon="9.5761033"><ele>167.0</ele><time>2026-04-18T13:11:40.658Z</time></trkpt><trkpt lat="44.8955967" lon="9.576015"><ele>166.5</ele><time>2026-04-18T13:11:42.658Z</time></trkpt><trkpt lat="44.8955" lon="9.5759267"><ele>166.0</ele><time>2026-04-18T13:11:44.658Z</time></trkpt><trkpt lat="44.8954" lon="9.5758417"><ele>166.0</ele><time>2026-04-18T13:11:46.658Z</time></trkpt><trkpt lat="44.8953133" lon="9.5757567"><ele>166.0</ele><time>2026-04-18T13:11:48.658Z</time></trkpt><trkpt lat="44.8952233" lon="9.575675"><ele>166.0</ele><time>2026-04-18T13:11:50.658Z</time></trkpt><trkpt lat="44.895135" lon="9.5755867"><ele>166.0</ele><time>2026-04-18T13:11:52.658Z</time></trkpt><trkpt lat="44.8950467" lon="9.575505"><ele>166.0</ele><time>2026-04-18T13:11:54.658Z</time></trkpt><trkpt lat="44.894955" lon="9.5754217"><ele>167.20000000000002</ele><time>2026-04-18T13:11:56.658Z</time></trkpt><trkpt lat="44.894865" lon="9.575335"><ele>168.4</ele><time>2026-04-18T13:11:58.658Z</time></trkpt><trkpt lat="44.8947783" lon="9.5752617"><ele>169.6</ele><time>2026-04-18T13:12:00.658Z</time></trkpt><trkpt lat="44.8946917" lon="9.5751817"><ele>170.8</ele><time>2026-04-18T13:12:02.658Z</time></trkpt><trkpt lat="44.894605" lon="9.5751033"><ele>172.0</ele><time>2026-04-18T13:12:04.658Z</time></trkpt><trkpt lat="44.8945167" lon="9.57503"><ele>172.0</ele><time>2026-04-18T13:12:06.658Z</time></trkpt><trkpt lat="44.8944367" lon="9.57495"><ele>172.0</ele><time>2026-04-18T13:12:08.658Z</time></trkpt><trkpt lat="44.89435" lon="9.5748767"><ele>172.0</ele><time>2026-04-18T13:12:10.658Z</time></trkpt><trkpt lat="44.8942633" lon="9.5748217"><ele>172.0</ele><time>2026-04-18T13:12:12.658Z</time></trkpt><trkpt lat="44.8941733" lon="9.5747517"><ele>172.0</ele><time>2026-04-18T13:12:14.658Z</time></trkpt><trkpt lat="44.8940783" lon="9.5746967"><ele>171.8</ele><time>2026-04-18T13:12:16.658Z</time></trkpt><trkpt lat="44.8939867" lon="9.5746467"><ele>171.6</ele><time>2026-04-18T13:12:18.658Z</time></trkpt><trkpt lat="44.8938833" lon="9.57459"><ele>171.4</ele><time>2026-04-18T13:12:20.658Z</time></trkpt><trkpt lat="44.893785" lon="9.574535"><ele>171.20000000000002</ele><time>2026-04-18T13:12:22.658Z</time></trkpt><trkpt lat="44.8936917" lon="9.5744767"><ele>171.0</ele><time>2026-04-18T13:12:24.658Z</time></trkpt><trkpt lat="44.8935917" lon="9.57443"><ele>171.4</ele><time>2026-04-18T13:12:26.658Z</time></trkpt><trkpt lat="44.893495" lon="9.5743833"><ele>171.8</ele><time>2026-04-18T13:12:28.658Z</time></trkpt><trkpt lat="44.8934" lon="9.5743417"><ele>172.20000000000002</ele><time>2026-04-18T13:12:30.658Z</time></trkpt><trkpt lat="44.8933133" lon="9.574295"><ele>172.60000000000002</ele><time>2026-04-18T13:12:32.658Z</time></trkpt><trkpt lat="44.8932233" lon="9.5742433"><ele>173.0</ele><time>2026-04-18T13:12:34.658Z</time></trkpt><trkpt lat="44.8931233" lon="9.5741867"><ele>173.0</ele><time>2026-04-18T13:12:36.658Z</time></trkpt><trkpt lat="44.893035" lon="9.5741133"><ele>173.0</ele><time>2026-04-18T13:12:38.658Z</time></trkpt><trkpt lat="44.8929483" lon="9.574035"><ele>173.0</ele><time>2026-04-18T13:12:40.658Z</time></trkpt><trkpt lat="44.8928717" lon="9.5739467"><ele>173.0</ele><time>2026-04-18T13:12:42.658Z</time></trkpt><trkpt lat="44.892805" lon="9.5738517"><ele>173.0</ele><time>2026-04-18T13:12:44.658Z</time></trkpt><trkpt lat="44.8927333" lon="9.5737517"><ele>173.8</ele><time>2026-04-18T13:12:46.658Z</time></trkpt><trkpt lat="44.8926567" lon="9.5736533"><ele>174.60000000000002</ele><time>2026-04-18T13:12:48.658Z</time></trkpt><trkpt lat="44.8925833" lon="9.5735583"><ele>175.39999999999998</ele><time>2026-04-18T13:12:50.658Z</time></trkpt><trkpt lat="44.8925083" lon="9.5734617"><ele>176.2</ele><time>2026-04-18T13:12:52.658Z</time></trkpt><trkpt lat="44.8924317" lon="9.5733717"><ele>177.0</ele><time>2026-04-18T13:12:54.659Z</time></trkpt><trkpt lat="44.8923567" lon="9.573285"><ele>177.2</ele><time>2026-04-18T13:12:56.658Z</time></trkpt><trkpt lat="44.8922767" lon="9.5732"><ele>177.39999999999998</ele><time>2026-04-18T13:12:58.658Z</time></trkpt><trkpt lat="44.892205" lon="9.5731167"><ele>177.60000000000002</ele><time>2026-04-18T13:13:00.658Z</time></trkpt><trkpt lat="44.8921367" lon="9.573025"><ele>177.8</ele><time>2026-04-18T13:13:02.658Z</time></trkpt><trkpt lat="44.8920667" lon="9.5729283"><ele>178.0</ele><time>2026-04-18T13:13:04.658Z</time></trkpt><trkpt lat="44.891995" lon="9.572825"><ele>179.0</ele><time>2026-04-18T13:13:06.658Z</time></trkpt><trkpt lat="44.8919333" lon="9.572715"><ele>180.0</ele><time>2026-04-18T13:13:08.658Z</time></trkpt><trkpt lat="44.8918733" lon="9.5726133"><ele>181.0</ele><time>2026-04-18T13:13:10.658Z</time></trkpt><trkpt lat="44.891805" lon="9.5725083"><ele>182.0</ele><time>2026-04-18T13:13:12.658Z</time></trkpt><trkpt lat="44.8917317" lon="9.572415"><ele>183.0</ele><time>2026-04-18T13:13:14.658Z</time></trkpt><trkpt lat="44.891655" lon="9.5723267"><ele>183.0</ele><time>2026-04-18T13:13:16.658Z</time></trkpt><trkpt lat="44.8915667" lon="9.5722567"><ele>183.0</ele><time>2026-04-18T13:13:18.659Z</time></trkpt><trkpt lat="44.8914783" lon="9.5721833"><ele>183.0</ele><time>2026-04-18T13:13:20.658Z</time></trkpt><trkpt lat="44.8914" lon="9.5721083"><ele>183.0</ele><time>2026-04-18T13:13:22.658Z</time></trkpt><trkpt lat="44.89132" lon="9.5720367"><ele>183.0</ele><time>2026-04-18T13:13:24.658Z</time></trkpt><trkpt lat="44.8912483" lon="9.57194"><ele>182.2</ele><time>2026-04-18T13:13:26.658Z</time></trkpt><trkpt lat="44.8911767" lon="9.5718483"><ele>181.4</ele><time>2026-04-18T13:13:28.658Z</time></trkpt><trkpt lat="44.8911" lon="9.5717567"><ele>180.6</ele><time>2026-04-18T13:13:30.658Z</time></trkpt><trkpt lat="44.8910283" lon="9.5716667"><ele>179.79999999999998</ele><time>2026-04-18T13:13:32.658Z</time></trkpt><trkpt lat="44.8909567" lon="9.5715767"><ele>179.0</ele><time>2026-04-18T13:13:34.658Z</time></trkpt><trkpt lat="44.8908867" lon="9.57148"><ele>179.0</ele><time>2026-04-18T13:13:36.658Z</time></trkpt><trkpt lat="44.8908133" lon="9.5713867"><ele>179.0</ele><time>2026-04-18T13:13:38.658Z</time></trkpt><trkpt lat="44.89075" lon="9.571285"><ele>179.0</ele><time>2026-04-18T13:13:40.658Z</time></trkpt><trkpt lat="44.8906817" lon="9.5711783"><ele>179.0</ele><time>2026-04-18T13:13:42.658Z</time></trkpt><trkpt lat="44.8906117" lon="9.57108"><ele>179.0</ele><time>2026-04-18T13:13:44.658Z</time></trkpt><trkpt lat="44.89054" lon="9.570995"><ele>178.79999999999998</ele><time>2026-04-18T13:13:46.658Z</time></trkpt><trkpt lat="44.89045" lon="9.5709283"><ele>178.6</ele><time>2026-04-18T13:13:48.658Z</time></trkpt><trkpt lat="44.8903583" lon="9.5708783"><ele>178.4</ele><time>2026-04-18T13:13:50.658Z</time></trkpt><trkpt lat="44.890255" lon="9.5708383"><ele>178.2</ele><time>2026-04-18T13:13:52.658Z</time></trkpt><trkpt lat="44.8901517" lon="9.5707967"><ele>178.0</ele><time>2026-04-18T13:13:54.658Z</time></trkpt><trkpt lat="44.890055" lon="9.570735"><ele>178.0</ele><time>2026-04-18T13:13:56.658Z</time></trkpt><trkpt lat="44.8899767" lon="9.570645"><ele>178.0</ele><time>2026-04-18T13:13:58.658Z</time></trkpt><trkpt lat="44.889895" lon="9.5705633"><ele>178.0</ele><time>2026-04-18T13:14:00.658Z</time></trkpt><trkpt lat="44.88982" lon="9.570485"><ele>178.0</ele><time>2026-04-18T13:14:02.658Z</time></trkpt><trkpt lat="44.8897517" lon="9.5703917"><ele>178.0</ele><time>2026-04-18T13:14:04.658Z</time></trkpt><trkpt lat="44.889685" lon="9.5702767"><ele>180.60000000000002</ele><time>2026-04-18T13:14:06.658Z</time></trkpt><trkpt lat="44.8896333" lon="9.5701483"><ele>183.20000000000002</ele><time>2026-04-18T13:14:08.658Z</time></trkpt><trkpt lat="44.8896117" lon="9.57001"><ele>185.8</ele><time>2026-04-18T13:14:10.658Z</time></trkpt><trkpt lat="44.88961" lon="9.56988"><ele>188.4</ele><time>2026-04-18T13:14:12.658Z</time></trkpt><trkpt lat="44.8896417" lon="9.569745"><ele>191.0</ele><time>2026-04-18T13:14:14.658Z</time></trkpt><trkpt lat="44.8896783" lon="9.5696117"><ele>191.0</ele><time>2026-04-18T13:14:16.658Z</time></trkpt><trkpt lat="44.88974" lon="9.5695167"><ele>191.0</ele><time>2026-04-18T13:14:18.658Z</time></trkpt><trkpt lat="44.88981" lon="9.56942"><ele>191.0</ele><time>2026-04-18T13:14:20.658Z</time></trkpt><trkpt lat="44.8898817" lon="9.569315"><ele>191.0</ele><time>2026-04-18T13:14:22.658Z</time></trkpt><trkpt lat="44.8899517" lon="9.569215"><ele>191.0</ele><time>2026-04-18T13:14:24.658Z</time></trkpt><trkpt lat="44.889995" lon="9.5691067"><ele>191.0</ele><time>2026-04-18T13:14:26.658Z</time></trkpt><trkpt lat="44.8900233" lon="9.5689817"><ele>191.0</ele><time>2026-04-18T13:14:28.658Z</time></trkpt><trkpt lat="44.8900433" lon="9.5688483"><ele>191.0</ele><time>2026-04-18T13:14:30.658Z</time></trkpt><trkpt lat="44.8900483" lon="9.5687017"><ele>191.0</ele><time>2026-04-18T13:14:32.658Z</time></trkpt><trkpt lat="44.8900483" lon="9.56857"><ele>191.0</ele><time>2026-04-18T13:14:34.658Z</time></trkpt><trkpt lat="44.8900483" lon="9.5684283"><ele>191.0</ele><time>2026-04-18T13:14:36.658Z</time></trkpt><trkpt lat="44.8900667" lon="9.5682833"><ele>191.0</ele><time>2026-04-18T13:14:38.658Z</time></trkpt><trkpt lat="44.8900767" lon="9.5681433"><ele>191.0</ele><time>2026-04-18T13:14:40.658Z</time></trkpt><trkpt lat="44.8900817" lon="9.5680067"><ele>191.0</ele><time>2026-04-18T13:14:42.659Z</time></trkpt><trkpt lat="44.8900733" lon="9.567865"><ele>191.0</ele><time>2026-04-18T13:14:44.658Z</time></trkpt><trkpt lat="44.89006" lon="9.5677333"><ele>192.4</ele><time>2026-04-18T13:14:46.658Z</time></trkpt><trkpt lat="44.8900483" lon="9.5676033"><ele>193.8</ele><time>2026-04-18T13:14:48.658Z</time></trkpt><trkpt lat="44.8900233" lon="9.56747"><ele>195.20000000000002</ele><time>2026-04-18T13:14:50.658Z</time></trkpt><trkpt lat="44.8900067" lon="9.567335"><ele>196.60000000000002</ele><time>2026-04-18T13:14:52.658Z</time></trkpt><trkpt lat="44.8899933" lon="9.5672083"><ele>198.0</ele><time>2026-04-18T13:14:54.659Z</time></trkpt><trkpt lat="44.8899967" lon="9.5670783"><ele>198.60000000000002</ele><time>2026-04-18T13:14:56.658Z</time></trkpt><trkpt lat="44.8900067" lon="9.56695"><ele>199.20000000000002</ele><time>2026-04-18T13:14:58.658Z</time></trkpt><trkpt lat="44.8900183" lon="9.566815"><ele>199.8</ele><time>2026-04-18T13:15:00.658Z</time></trkpt><trkpt lat="44.8900133" lon="9.566675"><ele>200.4</ele><time>2026-04-18T13:15:02.658Z</time></trkpt><trkpt lat="44.8900083" lon="9.5665383"><ele>201.0</ele><time>2026-04-18T13:15:04.658Z</time></trkpt><trkpt lat="44.889995" lon="9.5664217"><ele>201.0</ele><time>2026-04-18T13:15:06.658Z</time></trkpt><trkpt lat="44.8899717" lon="9.5663117"><ele>201.0</ele><time>2026-04-18T13:15:08.658Z</time></trkpt><trkpt lat="44.8899133" lon="9.566205"><ele>201.0</ele><time>2026-04-18T13:15:10.658Z</time></trkpt><trkpt lat="44.8898417" lon="9.5661133"><ele>201.0</ele><time>2026-04-18T13:15:12.658Z</time></trkpt><trkpt lat="44.8897567" lon="9.5660583"><ele>201.0</ele><time>2026-04-18T13:15:14.658Z</time></trkpt><trkpt lat="44.8896667" lon="9.56602"><ele>201.20000000000002</ele><time>2026-04-18T13:15:16.658Z</time></trkpt><trkpt lat="44.8895733" lon="9.5659817"><ele>201.4</ele><time>2026-04-18T13:15:18.658Z</time></trkpt><trkpt lat="44.8894817" lon="9.5659333"><ele>201.6</ele><time>2026-04-18T13:15:20.658Z</time></trkpt><trkpt lat="44.889385" lon="9.5659"><ele>201.8</ele><time>2026-04-18T13:15:22.659Z</time></trkpt><trkpt lat="44.8892867" lon="9.56586"><ele>202.0</ele><time>2026-04-18T13:15:24.659Z</time></trkpt><trkpt lat="44.889195" lon="9.565825"><ele>200.6</ele><time>2026-04-18T13:15:26.658Z</time></trkpt><trkpt lat="44.8890983" lon="9.5657983"><ele>199.2</ele><time>2026-04-18T13:15:28.658Z</time></trkpt><trkpt lat="44.889005" lon="9.5657583"><ele>197.8</ele><time>2026-04-18T13:15:30.658Z</time></trkpt><trkpt lat="44.8889117" lon="9.5657133"><ele>196.4</ele><time>2026-04-18T13:15:32.658Z</time></trkpt><trkpt lat="44.8888233" lon="9.56567"><ele>195.0</ele><time>2026-04-18T13:15:34.658Z</time></trkpt><trkpt lat="44.8887333" lon="9.565615"><ele>195.0</ele><time>2026-04-18T13:15:36.658Z</time></trkpt><trkpt lat="44.8886417" lon="9.565555"><ele>195.0</ele><time>2026-04-18T13:15:38.658Z</time></trkpt><trkpt lat="44.8885567" lon="9.5655117"><ele>195.0</ele><time>2026-04-18T13:15:40.658Z</time></trkpt><trkpt lat="44.8884667" lon="9.5654567"><ele>195.0</ele><time>2026-04-18T13:15:42.658Z</time></trkpt><trkpt lat="44.8883833" lon="9.5654083"><ele>195.0</ele><time>2026-04-18T13:15:44.658Z</time></trkpt><trkpt lat="44.8882983" lon="9.5653567"><ele>195.33333333333334</ele><time>2026-04-18T13:15:46.658Z</time></trkpt><trkpt lat="44.8882133" lon="9.5653067"><ele>195.66666666666669</ele><time>2026-04-18T13:15:48.658Z</time></trkpt><trkpt lat="44.8881383" lon="9.5652533"><ele>196.0</ele><time>2026-04-18T13:15:50.658Z</time></trkpt><trkpt lat="44.8880517" lon="9.5652033"><ele>196.33333333333334</ele><time>2026-04-18T13:15:52.658Z</time></trkpt><trkpt lat="44.8879733" lon="9.5651517"><ele>196.66666666666669</ele><time>2026-04-18T13:15:54.658Z</time></trkpt><trkpt lat="44.8878917" lon="9.5651067"><ele>197.0</ele><time>2026-04-18T13:15:56.658Z</time></trkpt><trkpt lat="44.8878117" lon="9.56506"><ele>197.00000000000003</ele><time>2026-04-18T13:15:58.658Z</time></trkpt><trkpt lat="44.887735" lon="9.5650133"><ele>197.0</ele><time>2026-04-18T13:16:00.658Z</time></trkpt><trkpt lat="44.88766" lon="9.5649717"><ele>197.0</ele><time>2026-04-18T13:16:02.658Z</time></trkpt><trkpt lat="44.88759" lon="9.5649183"><ele>197.0</ele><time>2026-04-18T13:16:04.658Z</time></trkpt><trkpt lat="44.8875067" lon="9.564865"><ele>197.00000000000003</ele><time>2026-04-18T13:16:06.658Z</time></trkpt><trkpt lat="44.8874317" lon="9.56482"><ele>197.0</ele><time>2026-04-18T13:16:08.658Z</time></trkpt><trkpt lat="44.8873567" lon="9.5647783"><ele>198.00000000000003</ele><time>2026-04-18T13:16:10.658Z</time></trkpt><trkpt lat="44.8872783" lon="9.5647383"><ele>199.0</ele><time>2026-04-18T13:16:12.658Z</time></trkpt><trkpt lat="44.8872017" lon="9.5646933"><ele>200.0</ele><time>2026-04-18T13:16:14.658Z</time></trkpt><trkpt lat="44.88712" lon="9.564645"><ele>201.0</ele><time>2026-04-18T13:16:16.658Z</time></trkpt><trkpt lat="44.8870367" lon="9.5645933"><ele>202.00000000000003</ele><time>2026-04-18T13:16:18.658Z</time></trkpt><trkpt lat="44.8869617" lon="9.5645417"><ele>203.0</ele><time>2026-04-18T13:16:20.658Z</time></trkpt><trkpt lat="44.886885" lon="9.5644883"><ele>203.16666666666669</ele><time>2026-04-18T13:16:22.658Z</time></trkpt><trkpt lat="44.8868033" lon="9.56445"><ele>203.33333333333334</ele><time>2026-04-18T13:16:24.658Z</time></trkpt><trkpt lat="44.8867217" lon="9.5643917"><ele>203.5</ele><time>2026-04-18T13:16:26.658Z</time></trkpt><trkpt lat="44.886655" lon="9.5643183"><ele>203.66666666666669</ele><time>2026-04-18T13:16:28.658Z</time></trkpt><trkpt lat="44.8866033" lon="9.5642267"><ele>203.83333333333334</ele><time>2026-04-18T13:16:30.658Z</time></trkpt><trkpt lat="44.8865517" lon="9.5641217"><ele>204.0</ele><time>2026-04-18T13:16:32.658Z</time></trkpt><trkpt lat="44.886505" lon="9.56401"><ele>204.0</ele><time>2026-04-18T13:16:34.658Z</time></trkpt><trkpt lat="44.8864717" lon="9.5638967"><ele>204.0</ele><time>2026-04-18T13:16:36.658Z</time></trkpt><trkpt lat="44.8864417" lon="9.56378"><ele>204.0</ele><time>2026-04-18T13:16:38.658Z</time></trkpt><trkpt lat="44.8864067" lon="9.5636683"><ele>204.0</ele><time>2026-04-18T13:16:40.658Z</time></trkpt><trkpt lat="44.8863583" lon="9.563555"><ele>204.0</ele><time>2026-04-18T13:16:42.658Z</time></trkpt><trkpt lat="44.886305" lon="9.5634583"><ele>204.0</ele><time>2026-04-18T13:16:44.658Z</time></trkpt><trkpt lat="44.8862517" lon="9.5633567"><ele>205.16666666666666</ele><time>2026-04-18T13:16:46.658Z</time></trkpt><trkpt lat="44.8862017" lon="9.5632633"><ele>206.33333333333331</ele><time>2026-04-18T13:16:48.658Z</time></trkpt><trkpt lat="44.8861567" lon="9.5631633"><ele>207.5</ele><time>2026-04-18T13:16:50.658Z</time></trkpt><trkpt lat="44.886105" lon="9.56308"><ele>208.66666666666666</ele><time>2026-04-18T13:16:52.659Z</time></trkpt><trkpt lat="44.8860433" lon="9.562995"><ele>209.83333333333331</ele><time>2026-04-18T13:16:54.658Z</time></trkpt><trkpt lat="44.885985" lon="9.5629"><ele>211.0</ele><time>2026-04-18T13:16:56.658Z</time></trkpt><trkpt lat="44.8859267" lon="9.5628033"><ele>213.20000000000002</ele><time>2026-04-18T13:16:58.658Z</time></trkpt><trkpt lat="44.88587" lon="9.56271"><ele>215.4</ele><time>2026-04-18T13:17:00.658Z</time></trkpt><trkpt lat="44.885805" lon="9.56263"><ele>217.6</ele><time>2026-04-18T13:17:02.658Z</time></trkpt><trkpt lat="44.885745" lon="9.5625433"><ele>219.8</ele><time>2026-04-18T13:17:04.658Z</time></trkpt><trkpt lat="44.8856667" lon="9.5624517"><ele>222.0</ele><time>2026-04-18T13:17:06.658Z</time></trkpt><trkpt lat="44.8855867" lon="9.562345"><ele>222.0</ele><time>2026-04-18T13:17:08.658Z</time></trkpt><trkpt lat="44.8855" lon="9.562235"><ele>222.0</ele><time>2026-04-18T13:17:10.658Z</time></trkpt><trkpt lat="44.8854183" lon="9.5621233"><ele>222.0</ele><time>2026-04-18T13:17:12.658Z</time></trkpt><trkpt lat="44.88536" lon="9.5619833"><ele>222.0</ele><time>2026-04-18T13:17:14.658Z</time></trkpt><trkpt lat="44.8853317" lon="9.56183"><ele>220.0</ele><time>2026-04-18T13:17:16.658Z</time></trkpt><trkpt lat="44.8852933" lon="9.5616833"><ele>218.0</ele><time>2026-04-18T13:17:18.658Z</time></trkpt><trkpt lat="44.8852133" lon="9.5615467"><ele>216.0</ele><time>2026-04-18T13:17:20.658Z</time></trkpt><trkpt lat="44.8851583" lon="9.5615"><ele>214.0</ele><time>2026-04-18T13:17:21.658Z</time></trkpt><trkpt lat="44.8850967" lon="9.561445"><ele>212.0</ele><time>2026-04-18T13:17:22.658Z</time></trkpt><trkpt lat="44.8850367" lon="9.5614"><ele>210.0</ele><time>2026-04-18T13:17:23.658Z</time></trkpt><trkpt lat="44.8849767" lon="9.561355"><ele>210.0</ele><time>2026-04-18T13:17:24.658Z</time></trkpt><trkpt lat="44.88491" lon="9.561305"><ele>210.0</ele><time>2026-04-18T13:17:25.658Z</time></trkpt><trkpt lat="44.8848433" lon="9.56125"><ele>210.0</ele><time>2026-04-18T13:17:26.658Z</time></trkpt><trkpt lat="44.884775" lon="9.56119"><ele>210.0</ele><time>2026-04-18T13:17:27.658Z</time></trkpt><trkpt lat="44.8847083" lon="9.5611367"><ele>210.0</ele><time>2026-04-18T13:17:28.658Z</time></trkpt><trkpt lat="44.8846417" lon="9.56108"><ele>210.0</ele><time>2026-04-18T13:17:29.658Z</time></trkpt><trkpt lat="44.8845767" lon="9.5610183"><ele>209.33333333333334</ele><time>2026-04-18T13:17:30.658Z</time></trkpt><trkpt lat="44.8845117" lon="9.5609583"><ele>208.66666666666669</ele><time>2026-04-18T13:17:31.658Z</time></trkpt><trkpt lat="44.8844433" lon="9.5608967"><ele>208.0</ele><time>2026-04-18T13:17:32.658Z</time></trkpt><trkpt lat="44.8843783" lon="9.5608317"><ele>207.33333333333334</ele><time>2026-04-18T13:17:33.658Z</time></trkpt><trkpt lat="44.8843067" lon="9.5607683"><ele>206.66666666666669</ele><time>2026-04-18T13:17:34.658Z</time></trkpt><trkpt lat="44.8842333" lon="9.5607033"><ele>206.0</ele><time>2026-04-18T13:17:35.658Z</time></trkpt><trkpt lat="44.88416" lon="9.5606367"><ele>206.00000000000003</ele><time>2026-04-18T13:17:36.658Z</time></trkpt><trkpt lat="44.884085" lon="9.5605717"><ele>206.0</ele><time>2026-04-18T13:17:37.658Z</time></trkpt><trkpt lat="44.8840117" lon="9.5605083"><ele>206.0</ele><time>2026-04-18T13:17:38.658Z</time></trkpt><trkpt lat="44.8839383" lon="9.5604433"><ele>206.0</ele><time>2026-04-18T13:17:39.658Z</time></trkpt><trkpt lat="44.88387" lon="9.5603733"><ele>206.00000000000003</ele><time>2026-04-18T13:17:40.658Z</time></trkpt><trkpt lat="44.8837983" lon="9.5602883"><ele>206.0</ele><time>2026-04-18T13:17:41.658Z</time></trkpt><trkpt lat="44.8837383" lon="9.560195"><ele>206.00000000000003</ele><time>2026-04-18T13:17:42.658Z</time></trkpt><trkpt lat="44.8836783" lon="9.5600933"><ele>206.0</ele><time>2026-04-18T13:17:43.658Z</time></trkpt><trkpt lat="44.88363" lon="9.559995"><ele>206.0</ele><time>2026-04-18T13:17:44.658Z</time></trkpt><trkpt lat="44.883575" lon="9.5599017"><ele>206.0</ele><time>2026-04-18T13:17:45.658Z</time></trkpt><trkpt lat="44.883505" lon="9.5598267"><ele>206.00000000000003</ele><time>2026-04-18T13:17:46.658Z</time></trkpt><trkpt lat="44.88343" lon="9.559795"><ele>206.0</ele><time>2026-04-18T13:17:47.658Z</time></trkpt><trkpt lat="44.883345" lon="9.5598133"><ele>206.00000000000003</ele><time>2026-04-18T13:17:48.658Z</time></trkpt><trkpt lat="44.8832617" lon="9.5598667"><ele>206.0</ele><time>2026-04-18T13:17:49.658Z</time></trkpt><trkpt lat="44.8831733" lon="9.5599067"><ele>206.0</ele><time>2026-04-18T13:17:50.658Z</time></trkpt><trkpt lat="44.8830883" lon="9.559895"><ele>206.0</ele><time>2026-04-18T13:17:51.658Z</time></trkpt><trkpt lat="44.8830033" lon="9.5598417"><ele>206.00000000000003</ele><time>2026-04-18T13:17:52.658Z</time></trkpt><trkpt lat="44.882935" lon="9.55977"><ele>206.0</ele><time>2026-04-18T13:17:53.658Z</time></trkpt><trkpt lat="44.88287" lon="9.55971"><ele>206.00000000000003</ele><time>2026-04-18T13:17:54.658Z</time></trkpt><trkpt lat="44.882795" lon="9.55966"><ele>206.0</ele><time>2026-04-18T13:17:55.658Z</time></trkpt><trkpt lat="44.8827117" lon="9.55962"><ele>206.0</ele><time>2026-04-18T13:17:56.658Z</time></trkpt><trkpt lat="44.8826317" lon="9.5595933"><ele>206.0</ele><time>2026-04-18T13:17:57.658Z</time></trkpt><trkpt lat="44.8825517" lon="9.55957"><ele>206.00000000000003</ele><time>2026-04-18T13:17:58.658Z</time></trkpt><trkpt lat="44.8824617" lon="9.5595567"><ele>206.0</ele><time>2026-04-18T13:17:59.658Z</time></trkpt><trkpt lat="44.8823783" lon="9.55954"><ele>208.8</ele><time>2026-04-18T13:18:00.658Z</time></trkpt><trkpt lat="44.8822933" lon="9.55952"><ele>211.60000000000002</ele><time>2026-04-18T13:18:01.658Z</time></trkpt><trkpt lat="44.882205" lon="9.5594983"><ele>214.4</ele><time>2026-04-18T13:18:02.658Z</time></trkpt><trkpt lat="44.88211" lon="9.55947"><ele>217.2</ele><time>2026-04-18T13:18:03.658Z</time></trkpt><trkpt lat="44.8820183" lon="9.5594317"><ele>220.0</ele><time>2026-04-18T13:18:04.658Z</time></trkpt><trkpt lat="44.88193" lon="9.5593883"><ele>219.99999999999997</ele><time>2026-04-18T13:18:05.658Z</time></trkpt><trkpt lat="44.881845" lon="9.5593417"><ele>220.0</ele><time>2026-04-18T13:18:06.658Z</time></trkpt><trkpt lat="44.881765" lon="9.5592933"><ele>220.0</ele><time>2026-04-18T13:18:07.658Z</time></trkpt><trkpt lat="44.8816833" lon="9.5592433"><ele>220.0</ele><time>2026-04-18T13:18:08.658Z</time></trkpt><trkpt lat="44.88161" lon="9.5591917"><ele>219.99999999999997</ele><time>2026-04-18T13:18:09.658Z</time></trkpt><trkpt lat="44.8815367" lon="9.5591267"><ele>220.0</ele><time>2026-04-18T13:18:10.658Z</time></trkpt><trkpt lat="44.8814617" lon="9.5590483"><ele>218.99999999999997</ele><time>2026-04-18T13:18:11.658Z</time></trkpt><trkpt lat="44.8814067" lon="9.558955"><ele>218.0</ele><time>2026-04-18T13:18:12.658Z</time></trkpt><trkpt lat="44.8813633" lon="9.558855"><ele>217.0</ele><time>2026-04-18T13:18:13.658Z</time></trkpt><trkpt lat="44.8813283" lon="9.5587533"><ele>216.0</ele><time>2026-04-18T13:18:14.658Z</time></trkpt><trkpt lat="44.8813067" lon="9.5586417"><ele>214.99999999999997</ele><time>2026-04-18T13:18:15.658Z</time></trkpt><trkpt lat="44.88128" lon="9.5585367"><ele>214.0</ele><time>2026-04-18T13:18:16.658Z</time></trkpt><trkpt lat="44.8812583" lon="9.5584367"><ele>214.00000000000003</ele><time>2026-04-18T13:18:17.659Z</time></trkpt><trkpt lat="44.8812383" lon="9.558335"><ele>214.0</ele><time>2026-04-18T13:18:18.658Z</time></trkpt><trkpt lat="44.881215" lon="9.5582417"><ele>214.0</ele><time>2026-04-18T13:18:19.658Z</time></trkpt><trkpt lat="44.88119" lon="9.5581433"><ele>214.0</ele><time>2026-04-18T13:18:20.658Z</time></trkpt><trkpt lat="44.8811533" lon="9.5580517"><ele>214.0</ele><time>2026-04-18T13:18:21.658Z</time></trkpt><trkpt lat="44.8811167" lon="9.55797"><ele>214.00000000000003</ele><time>2026-04-18T13:18:22.658Z</time></trkpt><trkpt lat="44.8810833" lon="9.5578933"><ele>214.0</ele><time>2026-04-18T13:18:23.658Z</time></trkpt><trkpt lat="44.8810083" lon="9.5577483"><ele>211.49999999999997</ele><time>2026-04-18T13:18:25.659Z</time></trkpt><trkpt lat="44.880965" lon="9.557675"><ele>209.0</ele><time>2026-04-18T13:18:26.659Z</time></trkpt><trkpt lat="44.8809133" lon="9.5576083"><ele>206.5</ele><time>2026-04-18T13:18:27.658Z</time></trkpt><trkpt lat="44.88083" lon="9.5574783"><ele>204.0</ele><time>2026-04-18T13:18:29.659Z</time></trkpt><trkpt lat="44.8807833" lon="9.5574067"><ele>201.49999999999997</ele><time>2026-04-18T13:18:30.658Z</time></trkpt><trkpt lat="44.8807383" lon="9.55733"><ele>199.0</ele><time>2026-04-18T13:18:31.658Z</time></trkpt><trkpt lat="44.8806933" lon="9.5572567"><ele>198.99999999999997</ele><time>2026-04-18T13:18:32.658Z</time></trkpt><trkpt lat="44.880645" lon="9.55719"><ele>199.0</ele><time>2026-04-18T13:18:33.658Z</time></trkpt><trkpt lat="44.8805983" lon="9.5571167"><ele>199.0</ele><time>2026-04-18T13:18:34.658Z</time></trkpt><trkpt lat="44.880555" lon="9.5570433"><ele>199.0</ele><time>2026-04-18T13:18:35.658Z</time></trkpt><trkpt lat="44.8805167" lon="9.5569633"><ele>198.99999999999997</ele><time>2026-04-18T13:18:36.658Z</time></trkpt><trkpt lat="44.880445" lon="9.556815"><ele>199.0</ele><time>2026-04-18T13:18:38.658Z</time></trkpt><trkpt lat="44.880405" lon="9.5567333"><ele>201.14285714285714</ele><time>2026-04-18T13:18:39.658Z</time></trkpt><trkpt lat="44.880365" lon="9.5566533"><ele>203.28571428571428</ele><time>2026-04-18T13:18:40.658Z</time></trkpt><trkpt lat="44.8803267" lon="9.5565717"><ele>205.42857142857144</ele><time>2026-04-18T13:18:41.659Z</time></trkpt><trkpt lat="44.8802933" lon="9.5564917"><ele>207.57142857142856</ele><time>2026-04-18T13:18:42.659Z</time></trkpt><trkpt lat="44.880265" lon="9.5564117"><ele>209.71428571428572</ele><time>2026-04-18T13:18:43.659Z</time></trkpt><trkpt lat="44.880235" lon="9.5563233"><ele>211.85714285714286</ele><time>2026-04-18T13:18:44.659Z</time></trkpt><trkpt lat="44.8801967" lon="9.556235"><ele>214.0</ele><time>2026-04-18T13:18:45.659Z</time></trkpt><trkpt lat="44.8801583" lon="9.5561567"><ele>210.39999999999998</ele><time>2026-04-18T13:18:46.659Z</time></trkpt><trkpt lat="44.8800783" lon="9.55601"><ele>206.79999999999998</ele><time>2026-04-18T13:18:48.659Z</time></trkpt><trkpt lat="44.880005" lon="9.55587"><ele>203.2</ele><time>2026-04-18T13:18:50.659Z</time></trkpt><trkpt lat="44.87997" lon="9.555795"><ele>199.60000000000002</ele><time>2026-04-18T13:18:51.659Z</time></trkpt><trkpt lat="44.8799333" lon="9.555715"><ele>196.0</ele><time>2026-04-18T13:18:52.659Z</time></trkpt><trkpt lat="44.8798917" lon="9.555645"><ele>195.99999999999997</ele><time>2026-04-18T13:18:53.659Z</time></trkpt><trkpt lat="44.87981" lon="9.5555067"><ele>196.0</ele><time>2026-04-18T13:18:55.659Z</time></trkpt><trkpt lat="44.8797617" lon="9.5554417"><ele>196.0</ele><time>2026-04-18T13:18:56.659Z</time></trkpt><trkpt lat="44.8797133" lon="9.5553717"><ele>196.0</ele><time>2026-04-18T13:18:57.659Z</time></trkpt><trkpt lat="44.8796633" lon="9.5553033"><ele>195.99999999999997</ele><time>2026-04-18T13:18:58.659Z</time></trkpt><trkpt lat="44.879615" lon="9.5552383"><ele>196.0</ele><time>2026-04-18T13:18:59.659Z</time></trkpt><trkpt lat="44.8795667" lon="9.5551717"><ele>198.99999999999997</ele><time>2026-04-18T13:19:00.66Z</time></trkpt><trkpt lat="44.8795233" lon="9.5550883"><ele>202.0</ele><time>2026-04-18T13:19:01.659Z</time></trkpt><trkpt lat="44.8794917" lon="9.5550067"><ele>205.0</ele><time>2026-04-18T13:19:02.66Z</time></trkpt><trkpt lat="44.8794717" lon="9.5549083"><ele>208.0</ele><time>2026-04-18T13:19:03.659Z</time></trkpt><trkpt lat="44.8794633" lon="9.5548133"><ele>210.99999999999997</ele><time>2026-04-18T13:19:04.659Z</time></trkpt><trkpt lat="44.8794533" lon="9.5546467"><ele>214.0</ele><time>2026-04-18T13:19:06.659Z</time></trkpt><trkpt lat="44.8793983" lon="9.5545117"><ele>215.83333333333331</ele><time>2026-04-18T13:19:08.659Z</time></trkpt><trkpt lat="44.8793233" lon="9.5544017"><ele>217.66666666666666</ele><time>2026-04-18T13:19:10.659Z</time></trkpt><trkpt lat="44.8792117" lon="9.5543583"><ele>219.5</ele><time>2026-04-18T13:19:12.659Z</time></trkpt><trkpt lat="44.8791483" lon="9.5543483"><ele>221.33333333333331</ele><time>2026-04-18T13:19:13.659Z</time></trkpt><trkpt lat="44.8790817" lon="9.5543433"><ele>223.16666666666666</ele><time>2026-04-18T13:19:14.659Z</time></trkpt><trkpt lat="44.87901" lon="9.55434"><ele>225.0</ele><time>2026-04-18T13:19:15.659Z</time></trkpt><trkpt lat="44.8789367" lon="9.5543233"><ele>220.8571428571429</ele><time>2026-04-18T13:19:16.659Z</time></trkpt><trkpt lat="44.8788667" lon="9.55428"><ele>216.71428571428572</ele><time>2026-04-18T13:19:17.659Z</time></trkpt><trkpt lat="44.87881" lon="9.5542233"><ele>212.57142857142858</ele><time>2026-04-18T13:19:18.659Z</time></trkpt><trkpt lat="44.8787667" lon="9.5541567"><ele>208.42857142857144</ele><time>2026-04-18T13:19:19.659Z</time></trkpt><trkpt lat="44.8787233" lon="9.5540767"><ele>204.28571428571428</ele><time>2026-04-18T13:19:20.659Z</time></trkpt><trkpt lat="44.8786933" lon="9.5539867"><ele>200.14285714285714</ele><time>2026-04-18T13:19:21.659Z</time></trkpt><trkpt lat="44.8786617" lon="9.5538917"><ele>196.0</ele><time>2026-04-18T13:19:22.66Z</time></trkpt><trkpt lat="44.8786217" lon="9.5538"><ele>195.99999999999997</ele><time>2026-04-18T13:19:23.659Z</time></trkpt><trkpt lat="44.8785717" lon="9.5537083"><ele>196.0</ele><time>2026-04-18T13:19:24.659Z</time></trkpt><trkpt lat="44.87852" lon="9.5536333"><ele>196.0</ele><time>2026-04-18T13:19:25.659Z</time></trkpt><trkpt lat="44.8784733" lon="9.5535517"><ele>196.0</ele><time>2026-04-18T13:19:26.659Z</time></trkpt><trkpt lat="44.8784217" lon="9.553455"><ele>195.99999999999997</ele><time>2026-04-18T13:19:27.66Z</time></trkpt><trkpt lat="44.8783833" lon="9.553355"><ele>196.0</ele><time>2026-04-18T13:19:28.659Z</time></trkpt><trkpt lat="44.8783583" lon="9.5532567"><ele>195.14285714285714</ele><time>2026-04-18T13:19:29.659Z</time></trkpt><trkpt lat="44.8783333" lon="9.55315"><ele>194.28571428571428</ele><time>2026-04-18T13:19:30.659Z</time></trkpt><trkpt lat="44.8783083" lon="9.5530517"><ele>193.42857142857144</ele><time>2026-04-18T13:19:31.66Z</time></trkpt><trkpt lat="44.8782883" lon="9.552955"><ele>192.57142857142856</ele><time>2026-04-18T13:19:32.659Z</time></trkpt><trkpt lat="44.8782667" lon="9.5528583"><ele>191.71428571428572</ele><time>2026-04-18T13:19:33.659Z</time></trkpt><trkpt lat="44.8782467" lon="9.5527567"><ele>190.85714285714286</ele><time>2026-04-18T13:19:34.659Z</time></trkpt><trkpt lat="44.878225" lon="9.5526617"><ele>190.0</ele><time>2026-04-18T13:19:35.659Z</time></trkpt><trkpt lat="44.8782033" lon="9.5525617"><ele>190.0</ele><time>2026-04-18T13:19:36.659Z</time></trkpt><trkpt lat="44.8781817" lon="9.5524683"><ele>190.0</ele><time>2026-04-18T13:19:37.659Z</time></trkpt><trkpt lat="44.8781583" lon="9.5523833"><ele>190.0</ele><time>2026-04-18T13:19:38.659Z</time></trkpt><trkpt lat="44.878125" lon="9.5522967"><ele>190.0</ele><time>2026-04-18T13:19:39.659Z</time></trkpt><trkpt lat="44.8780933" lon="9.55221"><ele>190.0</ele><time>2026-04-18T13:19:40.659Z</time></trkpt><trkpt lat="44.8780717" lon="9.55212"><ele>190.0</ele><time>2026-04-18T13:19:41.659Z</time></trkpt><trkpt lat="44.8780517" lon="9.5520333"><ele>190.0</ele><time>2026-04-18T13:19:42.659Z</time></trkpt><trkpt lat="44.8780267" lon="9.55195"><ele>190.8</ele><time>2026-04-18T13:19:43.659Z</time></trkpt><trkpt lat="44.8779667" lon="9.5518017"><ele>191.6</ele><time>2026-04-18T13:19:45.659Z</time></trkpt><trkpt lat="44.8778983" lon="9.55166"><ele>192.39999999999998</ele><time>2026-04-18T13:19:47.659Z</time></trkpt><trkpt lat="44.877825" lon="9.5515217"><ele>193.2</ele><time>2026-04-18T13:19:49.659Z</time></trkpt><trkpt lat="44.8777717" lon="9.55146"><ele>194.0</ele><time>2026-04-18T13:19:50.659Z</time></trkpt><trkpt lat="44.877715" lon="9.5514167"><ele>194.0</ele><time>2026-04-18T13:19:51.659Z</time></trkpt><trkpt lat="44.8776483" lon="9.5513917"><ele>194.0</ele><time>2026-04-18T13:19:52.659Z</time></trkpt><trkpt lat="44.8775817" lon="9.551385"><ele>194.0</ele><time>2026-04-18T13:19:53.659Z</time></trkpt><trkpt lat="44.8775133" lon="9.5513933"><ele>194.0</ele><time>2026-04-18T13:19:54.659Z</time></trkpt><trkpt lat="44.877445" lon="9.5514133"><ele>194.0</ele><time>2026-04-18T13:19:55.659Z</time></trkpt><trkpt lat="44.8773783" lon="9.55143"><ele>194.0</ele><time>2026-04-18T13:19:56.659Z</time></trkpt><trkpt lat="44.877305" lon="9.5514567"><ele>194.0</ele><time>2026-04-18T13:19:57.659Z</time></trkpt><trkpt lat="44.8772367" lon="9.5514767"><ele>191.83333333333334</ele><time>2026-04-18T13:19:58.659Z</time></trkpt><trkpt lat="44.8771683" lon="9.5514983"><ele>189.66666666666669</ele><time>2026-04-18T13:19:59.659Z</time></trkpt><trkpt lat="44.8770967" lon="9.55152"><ele>187.5</ele><time>2026-04-18T13:20:00.659Z</time></trkpt><trkpt lat="44.8770183" lon="9.551545"><ele>185.33333333333334</ele><time>2026-04-18T13:20:01.659Z</time></trkpt><trkpt lat="44.8769417" lon="9.551565"><ele>183.16666666666669</ele><time>2026-04-18T13:20:02.659Z</time></trkpt><trkpt lat="44.8768617" lon="9.551585"><ele>181.0</ele><time>2026-04-18T13:20:03.659Z</time></trkpt><trkpt lat="44.8767917" lon="9.5516"><ele>179.66666666666669</ele><time>2026-04-18T13:20:04.659Z</time></trkpt><trkpt lat="44.876715" lon="9.5516133"><ele>178.33333333333334</ele><time>2026-04-18T13:20:05.659Z</time></trkpt><trkpt lat="44.8766367" lon="9.551615"><ele>177.0</ele><time>2026-04-18T13:20:06.659Z</time></trkpt><trkpt lat="44.876555" lon="9.5515933"><ele>175.66666666666666</ele><time>2026-04-18T13:20:07.659Z</time></trkpt><trkpt lat="44.8764733" lon="9.551555"><ele>174.33333333333331</ele><time>2026-04-18T13:20:08.659Z</time></trkpt><trkpt lat="44.876395" lon="9.551495"><ele>173.0</ele><time>2026-04-18T13:20:09.659Z</time></trkpt><trkpt lat="44.87633" lon="9.5514217"><ele>173.0</ele><time>2026-04-18T13:20:10.659Z</time></trkpt><trkpt lat="44.876265" lon="9.551335"><ele>173.0</ele><time>2026-04-18T13:20:11.659Z</time></trkpt><trkpt lat="44.8762067" lon="9.5512567"><ele>173.0</ele><time>2026-04-18T13:20:12.659Z</time></trkpt><trkpt lat="44.8761617" lon="9.5511467"><ele>173.0</ele><time>2026-04-18T13:20:13.659Z</time></trkpt><trkpt lat="44.8761283" lon="9.55103"><ele>173.0</ele><time>2026-04-18T13:20:14.659Z</time></trkpt><trkpt lat="44.8761017" lon="9.550925"><ele>173.0</ele><time>2026-04-18T13:20:15.659Z</time></trkpt><trkpt lat="44.8761433" lon="9.5508"><ele>175.83333333333331</ele><time>2026-04-18T13:20:16.66Z</time></trkpt><trkpt lat="44.8761817" lon="9.5506933"><ele>178.66666666666666</ele><time>2026-04-18T13:20:17.659Z</time></trkpt><trkpt lat="44.8762167" lon="9.550585"><ele>181.5</ele><time>2026-04-18T13:20:18.659Z</time></trkpt><trkpt lat="44.876245" lon="9.5504817"><ele>184.33333333333334</ele><time>2026-04-18T13:20:19.659Z</time></trkpt><trkpt lat="44.8762667" lon="9.5503783"><ele>187.16666666666669</ele><time>2026-04-18T13:20:20.659Z</time></trkpt><trkpt lat="44.8762783" lon="9.5502717"><ele>190.0</ele><time>2026-04-18T13:20:21.659Z</time></trkpt><trkpt lat="44.876275" lon="9.550155"><ele>190.42857142857144</ele><time>2026-04-18T13:20:22.66Z</time></trkpt><trkpt lat="44.876255" lon="9.5500367"><ele>190.85714285714286</ele><time>2026-04-18T13:20:23.659Z</time></trkpt><trkpt lat="44.8762483" lon="9.5499367"><ele>191.28571428571428</ele><time>2026-04-18T13:20:24.659Z</time></trkpt><trkpt lat="44.87623" lon="9.5498367"><ele>191.71428571428572</ele><time>2026-04-18T13:20:25.659Z</time></trkpt><trkpt lat="44.876205" lon="9.5497367"><ele>192.14285714285714</ele><time>2026-04-18T13:20:26.659Z</time></trkpt><trkpt lat="44.8761717" lon="9.5496533"><ele>192.57142857142858</ele><time>2026-04-18T13:20:27.659Z</time></trkpt><trkpt lat="44.87614" lon="9.54957"><ele>193.0</ele><time>2026-04-18T13:20:28.659Z</time></trkpt><trkpt lat="44.8760917" lon="9.5495083"><ele>192.99999999999997</ele><time>2026-04-18T13:20:29.659Z</time></trkpt><trkpt lat="44.876025" lon="9.5494883"><ele>193.0</ele><time>2026-04-18T13:20:30.659Z</time></trkpt><trkpt lat="44.8759517" lon="9.5494667"><ele>193.0</ele><time>2026-04-18T13:20:31.659Z</time></trkpt><trkpt lat="44.87588" lon="9.549445"><ele>193.0</ele><time>2026-04-18T13:20:32.66Z</time></trkpt><trkpt lat="44.87581" lon="9.549425"><ele>192.99999999999997</ele><time>2026-04-18T13:20:33.659Z</time></trkpt><trkpt lat="44.8756883" lon="9.549365"><ele>193.0</ele><time>2026-04-18T13:20:35.659Z</time></trkpt><trkpt lat="44.8756233" lon="9.5493383"><ele>187.75</ele><time>2026-04-18T13:20:36.659Z</time></trkpt><trkpt lat="44.875515" lon="9.54929"><ele>182.5</ele><time>2026-04-18T13:20:38.659Z</time></trkpt><trkpt lat="44.8754117" lon="9.54927"><ele>177.25</ele><time>2026-04-18T13:20:40.659Z</time></trkpt><trkpt lat="44.8753083" lon="9.5493483"><ele>172.0</ele><time>2026-04-18T13:20:42.659Z</time></trkpt><trkpt lat="44.8752583" lon="9.5495067"><ele>171.83333333333334</ele><time>2026-04-18T13:20:44.658Z</time></trkpt><trkpt lat="44.87525" lon="9.5495983"><ele>171.66666666666669</ele><time>2026-04-18T13:20:45.659Z</time></trkpt><trkpt lat="44.87523" lon="9.549685"><ele>171.5</ele><time>2026-04-18T13:20:46.66Z</time></trkpt><trkpt lat="44.875205" lon="9.54977"><ele>171.33333333333334</ele><time>2026-04-18T13:20:47.659Z</time></trkpt><trkpt lat="44.87511" lon="9.5498883"><ele>171.16666666666666</ele><time>2026-04-18T13:20:49.659Z</time></trkpt><trkpt lat="44.8749933" lon="9.5499317"><ele>171.0</ele><time>2026-04-18T13:20:51.659Z</time></trkpt><trkpt lat="44.8749317" lon="9.5499117"><ele>170.5</ele><time>2026-04-18T13:20:52.659Z</time></trkpt><trkpt lat="44.8748683" lon="9.54989"><ele>170.0</ele><time>2026-04-18T13:20:53.659Z</time></trkpt><trkpt lat="44.87475" lon="9.5498367"><ele>169.5</ele><time>2026-04-18T13:20:55.659Z</time></trkpt><trkpt lat="44.8746317" lon="9.5497933"><ele>169.0</ele><time>2026-04-18T13:20:57.659Z</time></trkpt><trkpt lat="44.87457" lon="9.5497667"><ele>168.5</ele><time>2026-04-18T13:20:58.659Z</time></trkpt><trkpt lat="44.8745017" lon="9.54974"><ele>168.0</ele><time>2026-04-18T13:20:59.66Z</time></trkpt><trkpt lat="44.87443" lon="9.5497217"><ele>168.0</ele><time>2026-04-18T13:21:00.659Z</time></trkpt><trkpt lat="44.8743633" lon="9.54969"><ele>168.0</ele><time>2026-04-18T13:21:01.659Z</time></trkpt><trkpt lat="44.874295" lon="9.54966"><ele>168.0</ele><time>2026-04-18T13:21:02.659Z</time></trkpt><trkpt lat="44.8742233" lon="9.5496317"><ele>168.0</ele><time>2026-04-18T13:21:03.659Z</time></trkpt><trkpt lat="44.874155" lon="9.5495883"><ele>168.0</ele><time>2026-04-18T13:21:04.659Z</time></trkpt><trkpt lat="44.8740867" lon="9.5495367"><ele>168.0</ele><time>2026-04-18T13:21:05.659Z</time></trkpt><trkpt lat="44.8740183" lon="9.5494833"><ele>168.0</ele><time>2026-04-18T13:21:06.659Z</time></trkpt><trkpt lat="44.8739517" lon="9.5494317"><ele>169.33333333333334</ele><time>2026-04-18T13:21:07.659Z</time></trkpt><trkpt lat="44.87389" lon="9.5493633"><ele>170.66666666666666</ele><time>2026-04-18T13:21:08.659Z</time></trkpt><trkpt lat="44.873845" lon="9.5492933"><ele>172.0</ele><time>2026-04-18T13:21:09.659Z</time></trkpt><trkpt lat="44.8738067" lon="9.5492033"><ele>173.33333333333331</ele><time>2026-04-18T13:21:10.659Z</time></trkpt><trkpt lat="44.87376" lon="9.5491067"><ele>174.66666666666666</ele><time>2026-04-18T13:21:11.659Z</time></trkpt><trkpt lat="44.873725" lon="9.549015"><ele>176.0</ele><time>2026-04-18T13:21:12.659Z</time></trkpt><trkpt lat="44.8736983" lon="9.548915"><ele>176.0</ele><time>2026-04-18T13:21:13.659Z</time></trkpt><trkpt lat="44.8736767" lon="9.548815"><ele>176.0</ele><time>2026-04-18T13:21:14.659Z</time></trkpt><trkpt lat="44.87366" lon="9.54871"><ele>176.0</ele><time>2026-04-18T13:21:15.659Z</time></trkpt><trkpt lat="44.8736533" lon="9.5486117"><ele>176.0</ele><time>2026-04-18T13:21:16.659Z</time></trkpt><trkpt lat="44.87365" lon="9.5485117"><ele>176.0</ele><time>2026-04-18T13:21:17.659Z</time></trkpt><trkpt lat="44.8736533" lon="9.5484183"><ele>176.0</ele><time>2026-04-18T13:21:18.659Z</time></trkpt><trkpt lat="44.87365" lon="9.5483267"><ele>176.0</ele><time>2026-04-18T13:21:19.659Z</time></trkpt><trkpt lat="44.8736367" lon="9.5481517"><ele>174.83333333333331</ele><time>2026-04-18T13:21:21.659Z</time></trkpt><trkpt lat="44.873595" lon="9.5480083"><ele>173.66666666666666</ele><time>2026-04-18T13:21:23.659Z</time></trkpt><trkpt lat="44.8735167" lon="9.5479267"><ele>172.5</ele><time>2026-04-18T13:21:25.659Z</time></trkpt><trkpt lat="44.8734067" lon="9.5479083"><ele>171.33333333333334</ele><time>2026-04-18T13:21:27.659Z</time></trkpt><trkpt lat="44.8733433" lon="9.5479083"><ele>170.16666666666669</ele><time>2026-04-18T13:21:28.659Z</time></trkpt><trkpt lat="44.87328" lon="9.5479067"><ele>169.0</ele><time>2026-04-18T13:21:29.659Z</time></trkpt><trkpt lat="44.8731667" lon="9.5479333"><ele>169.0</ele><time>2026-04-18T13:21:31.659Z</time></trkpt><trkpt lat="44.8730833" lon="9.5480283"><ele>169.0</ele><time>2026-04-18T13:21:33.659Z</time></trkpt><trkpt lat="44.87301" lon="9.5481467"><ele>169.0</ele><time>2026-04-18T13:21:35.659Z</time></trkpt><trkpt lat="44.8729417" lon="9.54825"><ele>169.0</ele><time>2026-04-18T13:21:37.659Z</time></trkpt><trkpt lat="44.8728667" lon="9.5483483"><ele>169.0</ele><time>2026-04-18T13:21:39.659Z</time></trkpt><trkpt lat="44.8727767" lon="9.548435"><ele>169.0</ele><time>2026-04-18T13:21:41.659Z</time></trkpt><trkpt lat="44.8726783" lon="9.54852"><ele>169.0</ele><time>2026-04-18T13:21:43.659Z</time></trkpt><trkpt lat="44.872585" lon="9.5485817"><ele>169.0</ele><time>2026-04-18T13:21:45.659Z</time></trkpt><trkpt lat="44.872485" lon="9.5486283"><ele>169.0</ele><time>2026-04-18T13:21:47.659Z</time></trkpt><trkpt lat="44.8723817" lon="9.5486683"><ele>169.0</ele><time>2026-04-18T13:21:49.659Z</time></trkpt><trkpt lat="44.8722767" lon="9.5486783"><ele>169.2</ele><time>2026-04-18T13:21:51.659Z</time></trkpt><trkpt lat="44.872165" lon="9.5487017"><ele>169.39999999999998</ele><time>2026-04-18T13:21:53.659Z</time></trkpt><trkpt lat="44.87206" lon="9.548705"><ele>169.6</ele><time>2026-04-18T13:21:55.659Z</time></trkpt><trkpt lat="44.87195" lon="9.5487283"><ele>169.8</ele><time>2026-04-18T13:21:57.659Z</time></trkpt><trkpt lat="44.8718467" lon="9.548745"><ele>170.0</ele><time>2026-04-18T13:21:59.659Z</time></trkpt><trkpt lat="44.87173" lon="9.5487633"><ele>170.0</ele><time>2026-04-18T13:22:01.659Z</time></trkpt><trkpt lat="44.8716133" lon="9.5487733"><ele>170.0</ele><time>2026-04-18T13:22:03.659Z</time></trkpt><trkpt lat="44.8714983" lon="9.5487733"><ele>170.0</ele><time>2026-04-18T13:22:05.66Z</time></trkpt><trkpt lat="44.8713817" lon="9.5487533"><ele>170.0</ele><time>2026-04-18T13:22:07.659Z</time></trkpt><trkpt lat="44.8712617" lon="9.5487217"><ele>170.0</ele><time>2026-04-18T13:22:09.659Z</time></trkpt><trkpt lat="44.8711433" lon="9.5486883"><ele>170.0</ele><time>2026-04-18T13:22:11.659Z</time></trkpt><trkpt lat="44.8710267" lon="9.5486583"><ele>170.0</ele><time>2026-04-18T13:22:13.659Z</time></trkpt><trkpt lat="44.870905" lon="9.5486267"><ele>170.0</ele><time>2026-04-18T13:22:15.659Z</time></trkpt><trkpt lat="44.8707883" lon="9.5485967"><ele>170.0</ele><time>2026-04-18T13:22:17.659Z</time></trkpt><trkpt lat="44.8706683" lon="9.5485567"><ele>170.0</ele><time>2026-04-18T13:22:19.659Z</time></trkpt><trkpt lat="44.8706067" lon="9.5485367"><ele>170.0</ele><time>2026-04-18T13:22:20.659Z</time></trkpt><trkpt lat="44.8705433" lon="9.5485183"><ele>170.0</ele><time>2026-04-18T13:22:21.659Z</time></trkpt><trkpt lat="44.870425" lon="9.5484767"><ele>170.0</ele><time>2026-04-18T13:22:23.659Z</time></trkpt><trkpt lat="44.87031" lon="9.5484367"><ele>170.0</ele><time>2026-04-18T13:22:25.659Z</time></trkpt><trkpt lat="44.8702" lon="9.5483983"><ele>170.0</ele><time>2026-04-18T13:22:27.659Z</time></trkpt><trkpt lat="44.87009" lon="9.548355"><ele>170.0</ele><time>2026-04-18T13:22:29.659Z</time></trkpt><trkpt lat="44.869975" lon="9.5483117"><ele>170.0</ele><time>2026-04-18T13:22:31.659Z</time></trkpt><trkpt lat="44.86986" lon="9.5482683"><ele>170.25</ele><time>2026-04-18T13:22:33.659Z</time></trkpt><trkpt lat="44.8697517" lon="9.5482183"><ele>170.5</ele><time>2026-04-18T13:22:35.659Z</time></trkpt><trkpt lat="44.86965" lon="9.54817"><ele>170.75</ele><time>2026-04-18T13:22:37.659Z</time></trkpt><trkpt lat="44.8695467" lon="9.5481233"><ele>171.0</ele><time>2026-04-18T13:22:39.659Z</time></trkpt><trkpt lat="44.86943" lon="9.54808"><ele>171.0</ele><time>2026-04-18T13:22:41.659Z</time></trkpt><trkpt lat="44.8693283" lon="9.5480283"><ele>171.0</ele><time>2026-04-18T13:22:43.659Z</time></trkpt><trkpt lat="44.8692317" lon="9.54797"><ele>171.0</ele><time>2026-04-18T13:22:45.659Z</time></trkpt><trkpt lat="44.8691267" lon="9.5479233"><ele>171.0</ele><time>2026-04-18T13:22:47.659Z</time></trkpt><trkpt lat="44.8690317" lon="9.5478683"><ele>171.0</ele><time>2026-04-18T13:22:49.659Z</time></trkpt><trkpt lat="44.868925" lon="9.5478233"><ele>171.4</ele><time>2026-04-18T13:22:51.659Z</time></trkpt><trkpt lat="44.8688133" lon="9.54777"><ele>171.8</ele><time>2026-04-18T13:22:53.659Z</time></trkpt><trkpt lat="44.8686983" lon="9.5477233"><ele>172.20000000000002</ele><time>2026-04-18T13:22:55.659Z</time></trkpt><trkpt lat="44.868635" lon="9.5477033"><ele>172.60000000000002</ele><time>2026-04-18T13:22:56.659Z</time></trkpt><trkpt lat="44.86852" lon="9.5476583"><ele>173.0</ele><time>2026-04-18T13:22:58.659Z</time></trkpt><trkpt lat="44.8684583" lon="9.5476333"><ele>172.4</ele><time>2026-04-18T13:22:59.659Z</time></trkpt><trkpt lat="44.868395" lon="9.5476167"><ele>171.8</ele><time>2026-04-18T13:23:00.66Z</time></trkpt><trkpt lat="44.86828" lon="9.5475833"><ele>171.2</ele><time>2026-04-18T13:23:02.659Z</time></trkpt><trkpt lat="44.8681617" lon="9.54753"><ele>170.6</ele><time>2026-04-18T13:23:04.66Z</time></trkpt><trkpt lat="44.868055" lon="9.5474733"><ele>170.0</ele><time>2026-04-18T13:23:06.659Z</time></trkpt><trkpt lat="44.8679433" lon="9.5474217"><ele>170.0</ele><time>2026-04-18T13:23:08.659Z</time></trkpt><trkpt lat="44.86783" lon="9.547365"><ele>170.0</ele><time>2026-04-18T13:23:10.659Z</time></trkpt><trkpt lat="44.8677317" lon="9.5472983"><ele>170.0</ele><time>2026-04-18T13:23:12.659Z</time></trkpt><trkpt lat="44.86764" lon="9.547225"><ele>170.0</ele><time>2026-04-18T13:23:14.659Z</time></trkpt><trkpt lat="44.8675417" lon="9.547155"><ele>170.0</ele><time>2026-04-18T13:23:16.659Z</time></trkpt><trkpt lat="44.8674467" lon="9.5470817"><ele>170.75</ele><time>2026-04-18T13:23:18.659Z</time></trkpt><trkpt lat="44.8673517" lon="9.547005"><ele>171.5</ele><time>2026-04-18T13:23:20.659Z</time></trkpt><trkpt lat="44.867245" lon="9.54693"><ele>172.25</ele><time>2026-04-18T13:23:22.659Z</time></trkpt><trkpt lat="44.867135" lon="9.5468717"><ele>173.0</ele><time>2026-04-18T13:23:24.659Z</time></trkpt><trkpt lat="44.867025" lon="9.5468167"><ele>173.0</ele><time>2026-04-18T13:23:26.659Z</time></trkpt><trkpt lat="44.86691" lon="9.5467783"><ele>173.0</ele><time>2026-04-18T13:23:28.659Z</time></trkpt><trkpt lat="44.8668083" lon="9.54673"><ele>173.0</ele><time>2026-04-18T13:23:30.659Z</time></trkpt><trkpt lat="44.866715" lon="9.54669"><ele>173.0</ele><time>2026-04-18T13:23:32.659Z</time></trkpt><trkpt lat="44.8666133" lon="9.546655"><ele>173.0</ele><time>2026-04-18T13:23:34.659Z</time></trkpt><trkpt lat="44.8665133" lon="9.5466117"><ele>173.0</ele><time>2026-04-18T13:23:36.659Z</time></trkpt><trkpt lat="44.86641" lon="9.5465617"><ele>173.0</ele><time>2026-04-18T13:23:38.659Z</time></trkpt><trkpt lat="44.8663117" lon="9.546515"><ele>173.0</ele><time>2026-04-18T13:23:40.659Z</time></trkpt><trkpt lat="44.8662083" lon="9.5464833"><ele>173.0</ele><time>2026-04-18T13:23:42.659Z</time></trkpt><trkpt lat="44.8660983" lon="9.54645"><ele>173.0</ele><time>2026-04-18T13:23:44.659Z</time></trkpt><trkpt lat="44.8659933" lon="9.546415"><ele>173.0</ele><time>2026-04-18T13:23:46.659Z</time></trkpt><trkpt lat="44.8658817" lon="9.5463867"><ele>173.0</ele><time>2026-04-18T13:23:48.659Z</time></trkpt><trkpt lat="44.8657767" lon="9.5463567"><ele>173.0</ele><time>2026-04-18T13:23:50.659Z</time></trkpt><trkpt lat="44.8656633" lon="9.546335"><ele>173.0</ele><time>2026-04-18T13:23:52.659Z</time></trkpt><trkpt lat="44.8655433" lon="9.5463117"><ele>173.0</ele><time>2026-04-18T13:23:54.659Z</time></trkpt><trkpt lat="44.8654783" lon="9.5463"><ele>173.0</ele><time>2026-04-18T13:23:55.659Z</time></trkpt><trkpt lat="44.8654083" lon="9.54628"><ele>173.0</ele><time>2026-04-18T13:23:56.659Z</time></trkpt><trkpt lat="44.8653383" lon="9.546275"><ele>173.0</ele><time>2026-04-18T13:23:57.659Z</time></trkpt><trkpt lat="44.865275" lon="9.546265"><ele>173.0</ele><time>2026-04-18T13:23:58.659Z</time></trkpt><trkpt lat="44.8652083" lon="9.546255"><ele>173.0</ele><time>2026-04-18T13:23:59.659Z</time></trkpt><trkpt lat="44.8651417" lon="9.5462367"><ele>173.0</ele><time>2026-04-18T13:24:00.659Z</time></trkpt><trkpt lat="44.86507" lon="9.5462167"><ele>173.28571428571428</ele><time>2026-04-18T13:24:01.659Z</time></trkpt><trkpt lat="44.865005" lon="9.5461983"><ele>173.57142857142858</ele><time>2026-04-18T13:24:02.659Z</time></trkpt><trkpt lat="44.8649333" lon="9.5461767"><ele>173.85714285714286</ele><time>2026-04-18T13:24:03.659Z</time></trkpt><trkpt lat="44.8648683" lon="9.5461583"><ele>174.14285714285714</ele><time>2026-04-18T13:24:04.659Z</time></trkpt><trkpt lat="44.8647983" lon="9.5461367"><ele>174.42857142857144</ele><time>2026-04-18T13:24:05.659Z</time></trkpt><trkpt lat="44.8647233" lon="9.5461167"><ele>174.71428571428572</ele><time>2026-04-18T13:24:06.659Z</time></trkpt><trkpt lat="44.86465" lon="9.5460983"><ele>175.0</ele><time>2026-04-18T13:24:07.659Z</time></trkpt><trkpt lat="44.8645817" lon="9.5460817"><ele>175.0</ele><time>2026-04-18T13:24:08.659Z</time></trkpt><trkpt lat="44.8645083" lon="9.54607"><ele>175.0</ele><time>2026-04-18T13:24:09.659Z</time></trkpt><trkpt lat="44.8644367" lon="9.5460567"><ele>175.0</ele><time>2026-04-18T13:24:10.659Z</time></trkpt><trkpt lat="44.8643133" lon="9.5460317"><ele>175.0</ele><time>2026-04-18T13:24:12.659Z</time></trkpt><trkpt lat="44.8642033" lon="9.5459983"><ele>175.0</ele><time>2026-04-18T13:24:14.659Z</time></trkpt><trkpt lat="44.8640967" lon="9.54597"><ele>175.0</ele><time>2026-04-18T13:24:16.66Z</time></trkpt><trkpt lat="44.8639883" lon="9.5459417"><ele>175.0</ele><time>2026-04-18T13:24:18.659Z</time></trkpt><trkpt lat="44.863885" lon="9.5459067"><ele>175.0</ele><time>2026-04-18T13:24:20.659Z</time></trkpt><trkpt lat="44.863785" lon="9.5458633"><ele>175.0</ele><time>2026-04-18T13:24:22.659Z</time></trkpt><trkpt lat="44.863685" lon="9.5458267"><ele>175.0</ele><time>2026-04-18T13:24:24.659Z</time></trkpt><trkpt lat="44.8635883" lon="9.54578"><ele>175.0</ele><time>2026-04-18T13:24:26.659Z</time></trkpt><trkpt lat="44.8634883" lon="9.5457183"><ele>175.0</ele><time>2026-04-18T13:24:28.659Z</time></trkpt><trkpt lat="44.86338" lon="9.545655"><ele>175.0</ele><time>2026-04-18T13:24:30.659Z</time></trkpt><trkpt lat="44.8632767" lon="9.5455883"><ele>175.0</ele><time>2026-04-18T13:24:32.659Z</time></trkpt><trkpt lat="44.8631717" lon="9.54552"><ele>174.8</ele><time>2026-04-18T13:24:34.659Z</time></trkpt><trkpt lat="44.863075" lon="9.5454567"><ele>174.6</ele><time>2026-04-18T13:24:36.659Z</time></trkpt><trkpt lat="44.8629683" lon="9.5454033"><ele>174.39999999999998</ele><time>2026-04-18T13:24:38.659Z</time></trkpt><trkpt lat="44.8629033" lon="9.545315"><ele>174.2</ele><time>2026-04-18T13:24:40.659Z</time></trkpt><trkpt lat="44.8629167" lon="9.5452"><ele>174.0</ele><time>2026-04-18T13:24:42.659Z</time></trkpt><trkpt lat="44.862975" lon="9.545085"><ele>174.6</ele><time>2026-04-18T13:24:44.659Z</time></trkpt><trkpt lat="44.8630283" lon="9.5449733"><ele>175.2</ele><time>2026-04-18T13:24:46.659Z</time></trkpt><trkpt lat="44.8630717" lon="9.5448633"><ele>175.79999999999998</ele><time>2026-04-18T13:24:48.659Z</time></trkpt><trkpt lat="44.86313" lon="9.54477"><ele>176.39999999999998</ele><time>2026-04-18T13:24:50.659Z</time></trkpt><trkpt lat="44.8631683" lon="9.5446633"><ele>177.0</ele><time>2026-04-18T13:24:52.659Z</time></trkpt><trkpt lat="44.863215" lon="9.5445483"><ele>177.0</ele><time>2026-04-18T13:24:54.659Z</time></trkpt><trkpt lat="44.8632467" lon="9.5444283"><ele>177.0</ele><time>2026-04-18T13:24:56.659Z</time></trkpt><trkpt lat="44.8632867" lon="9.5443133"><ele>177.0</ele><time>2026-04-18T13:24:58.659Z</time></trkpt><trkpt lat="44.8633333" lon="9.5442183"><ele>177.0</ele><time>2026-04-18T13:25:00.659Z</time></trkpt><trkpt lat="44.8633767" lon="9.5441317"><ele>177.0</ele><time>2026-04-18T13:25:02.659Z</time></trkpt><trkpt lat="44.8634167" lon="9.5440317"><ele>177.0</ele><time>2026-04-18T13:25:04.659Z</time></trkpt><trkpt lat="44.8634467" lon="9.5439317"><ele>177.0</ele><time>2026-04-18T13:25:06.659Z</time></trkpt><trkpt lat="44.86342" lon="9.54384"><ele>177.0</ele><time>2026-04-18T13:25:08.659Z</time></trkpt><trkpt lat="44.86336" lon="9.54378"><ele>177.0</ele><time>2026-04-18T13:25:10.659Z</time></trkpt><trkpt lat="44.8632867" lon="9.5437283"><ele>177.0</ele><time>2026-04-18T13:25:12.659Z</time></trkpt><trkpt lat="44.8632083" lon="9.5436667"><ele>177.0</ele><time>2026-04-18T13:25:14.659Z</time></trkpt><trkpt lat="44.86313" lon="9.54361"><ele>177.0</ele><time>2026-04-18T13:25:16.659Z</time></trkpt><trkpt lat="44.8630517" lon="9.5435517"><ele>177.5</ele><time>2026-04-18T13:25:18.659Z</time></trkpt><trkpt lat="44.8629767" lon="9.5434983"><ele>178.0</ele><time>2026-04-18T13:25:20.659Z</time></trkpt><trkpt lat="44.8629067" lon="9.5434517"><ele>178.5</ele><time>2026-04-18T13:25:22.659Z</time></trkpt><trkpt lat="44.8628467" lon="9.5434"><ele>179.0</ele><time>2026-04-18T13:25:24.659Z</time></trkpt><trkpt lat="44.862775" lon="9.5433417"><ele>179.5</ele><time>2026-04-18T13:25:26.659Z</time></trkpt><trkpt lat="44.8627" lon="9.5432717"><ele>180.0</ele><time>2026-04-18T13:25:28.659Z</time></trkpt><trkpt lat="44.8626267" lon="9.5432067"><ele>179.5</ele><time>2026-04-18T13:25:30.659Z</time></trkpt><trkpt lat="44.8625467" lon="9.54316"><ele>179.0</ele><time>2026-04-18T13:25:32.659Z</time></trkpt><trkpt lat="44.8624667" lon="9.54311"><ele>178.5</ele><time>2026-04-18T13:25:34.659Z</time></trkpt><trkpt lat="44.86239" lon="9.5430617"><ele>178.0</ele><time>2026-04-18T13:25:36.659Z</time></trkpt><trkpt lat="44.8623283" lon="9.5430017"><ele>177.5</ele><time>2026-04-18T13:25:38.659Z</time></trkpt><trkpt lat="44.8622617" lon="9.542965"><ele>177.0</ele><time>2026-04-18T13:25:40.659Z</time></trkpt><trkpt lat="44.8622033" lon="9.54293"><ele>177.0</ele><time>2026-04-18T13:25:42.659Z</time></trkpt><trkpt lat="44.86214" lon="9.5428817"><ele>177.0</ele><time>2026-04-18T13:25:44.659Z</time></trkpt><trkpt lat="44.8620817" lon="9.542835"><ele>177.0</ele><time>2026-04-18T13:25:46.659Z</time></trkpt><trkpt lat="44.8619667" lon="9.542775"><ele>177.0</ele><time>2026-04-18T13:26:43.659Z</time></trkpt><trkpt lat="44.86189" lon="9.5427283"><ele>177.0</ele><time>2026-04-18T13:26:47.659Z</time></trkpt><trkpt lat="44.86184" lon="9.542595"><ele>178.0</ele><time>2026-04-18T13:26:49.66Z</time></trkpt><trkpt lat="44.861795" lon="9.542505"><ele>179.0</ele><time>2026-04-18T13:26:51.66Z</time></trkpt><trkpt lat="44.8617533" lon="9.5423967"><ele>180.0</ele><time>2026-04-18T13:26:53.66Z</time></trkpt><trkpt lat="44.8617367" lon="9.542275"><ele>181.0</ele><time>2026-04-18T13:26:55.66Z</time></trkpt><trkpt lat="44.8617217" lon="9.54216"><ele>182.0</ele><time>2026-04-18T13:26:57.66Z</time></trkpt><trkpt lat="44.8617017" lon="9.542055"><ele>183.0</ele><time>2026-04-18T13:26:59.66Z</time></trkpt><trkpt lat="44.8616517" lon="9.5419533"><ele>183.66666666666666</ele><time>2026-04-18T13:27:01.66Z</time></trkpt><trkpt lat="44.861585" lon="9.5418733"><ele>184.33333333333334</ele><time>2026-04-18T13:27:03.66Z</time></trkpt><trkpt lat="44.8615183" lon="9.54179"><ele>185.0</ele><time>2026-04-18T13:27:05.66Z</time></trkpt><trkpt lat="44.8614617" lon="9.5417067"><ele>185.66666666666669</ele><time>2026-04-18T13:27:07.66Z</time></trkpt><trkpt lat="44.8613933" lon="9.541615"><ele>186.33333333333334</ele><time>2026-04-18T13:27:09.66Z</time></trkpt><trkpt lat="44.8613383" lon="9.5415217"><ele>187.0</ele><time>2026-04-18T13:27:11.66Z</time></trkpt><trkpt lat="44.8612867" lon="9.5414433"><ele>187.0</ele><time>2026-04-18T13:27:13.66Z</time></trkpt><trkpt lat="44.86124" lon="9.541345"><ele>187.0</ele><time>2026-04-18T13:27:15.66Z</time></trkpt><trkpt lat="44.8611817" lon="9.5412517"><ele>187.0</ele><time>2026-04-18T13:27:17.66Z</time></trkpt><trkpt lat="44.86111" lon="9.5411617"><ele>187.0</ele><time>2026-04-18T13:27:19.66Z</time></trkpt><trkpt lat="44.8610433" lon="9.5410767"><ele>187.0</ele><time>2026-04-18T13:27:21.66Z</time></trkpt><trkpt lat="44.860995" lon="9.5409833"><ele>187.0</ele><time>2026-04-18T13:27:23.66Z</time></trkpt><trkpt lat="44.8609467" lon="9.540885"><ele>187.83333333333334</ele><time>2026-04-18T13:27:25.66Z</time></trkpt><trkpt lat="44.8609" lon="9.540785"><ele>188.66666666666669</ele><time>2026-04-18T13:27:27.66Z</time></trkpt><trkpt lat="44.8608417" lon="9.54068"><ele>189.5</ele><time>2026-04-18T13:27:29.66Z</time></trkpt><trkpt lat="44.860785" lon="9.54059"><ele>190.33333333333334</ele><time>2026-04-18T13:27:31.66Z</time></trkpt><trkpt lat="44.8607383" lon="9.54049"><ele>191.16666666666666</ele><time>2026-04-18T13:27:33.66Z</time></trkpt><trkpt lat="44.86069" lon="9.540385"><ele>192.0</ele><time>2026-04-18T13:27:35.66Z</time></trkpt><trkpt lat="44.8606467" lon="9.54028"><ele>193.0</ele><time>2026-04-18T13:27:37.66Z</time></trkpt><trkpt lat="44.8606167" lon="9.5401667"><ele>194.0</ele><time>2026-04-18T13:27:39.66Z</time></trkpt><trkpt lat="44.860605" lon="9.5400517"><ele>195.0</ele><time>2026-04-18T13:27:41.66Z</time></trkpt><trkpt lat="44.860605" lon="9.53994"><ele>196.0</ele><time>2026-04-18T13:27:43.66Z</time></trkpt><trkpt lat="44.8606217" lon="9.5398283"><ele>197.0</ele><time>2026-04-18T13:27:45.66Z</time></trkpt><trkpt lat="44.8606567" lon="9.5397167"><ele>198.0</ele><time>2026-04-18T13:27:47.66Z</time></trkpt><trkpt lat="44.8606933" lon="9.5396083"><ele>198.4</ele><time>2026-04-18T13:27:49.66Z</time></trkpt><trkpt lat="44.86071" lon="9.539485"><ele>198.8</ele><time>2026-04-18T13:27:51.66Z</time></trkpt><trkpt lat="44.860725" lon="9.539365"><ele>199.2</ele><time>2026-04-18T13:27:53.66Z</time></trkpt><trkpt lat="44.8607117" lon="9.5392283"><ele>199.6</ele><time>2026-04-18T13:27:55.66Z</time></trkpt><trkpt lat="44.86066" lon="9.539095"><ele>200.0</ele><time>2026-04-18T13:27:57.66Z</time></trkpt><trkpt lat="44.8605917" lon="9.5389683"><ele>200.0</ele><time>2026-04-18T13:27:59.66Z</time></trkpt><trkpt lat="44.86054" lon="9.53884"><ele>200.0</ele><time>2026-04-18T13:28:01.66Z</time></trkpt><trkpt lat="44.8605033" lon="9.538695"><ele>200.0</ele><time>2026-04-18T13:28:03.66Z</time></trkpt><trkpt lat="44.8604733" lon="9.5385433"><ele>200.0</ele><time>2026-04-18T13:28:05.66Z</time></trkpt><trkpt lat="44.8604467" lon="9.5383717"><ele>200.50000000000003</ele><time>2026-04-18T13:28:07.66Z</time></trkpt><trkpt lat="44.860415" lon="9.538205"><ele>201.0</ele><time>2026-04-18T13:28:09.66Z</time></trkpt><trkpt lat="44.8603867" lon="9.5380417"><ele>201.5</ele><time>2026-04-18T13:28:11.66Z</time></trkpt><trkpt lat="44.8603683" lon="9.5379517"><ele>202.0</ele><time>2026-04-18T13:28:12.66Z</time></trkpt><trkpt lat="44.8603417" lon="9.5378633"><ele>202.50000000000003</ele><time>2026-04-18T13:28:13.66Z</time></trkpt><trkpt lat="44.8603183" lon="9.53777"><ele>203.0</ele><time>2026-04-18T13:28:14.66Z</time></trkpt><trkpt lat="44.8603" lon="9.5376783"><ele>203.16666666666669</ele><time>2026-04-18T13:28:15.661Z</time></trkpt><trkpt lat="44.8602833" lon="9.5375817"><ele>203.33333333333334</ele><time>2026-04-18T13:28:16.66Z</time></trkpt><trkpt lat="44.8602667" lon="9.5374817"><ele>203.5</ele><time>2026-04-18T13:28:17.66Z</time></trkpt><trkpt lat="44.8602483" lon="9.537375"><ele>203.66666666666669</ele><time>2026-04-18T13:28:18.66Z</time></trkpt><trkpt lat="44.8602333" lon="9.537265"><ele>203.83333333333334</ele><time>2026-04-18T13:28:19.66Z</time></trkpt><trkpt lat="44.860225" lon="9.5371517"><ele>204.0</ele><time>2026-04-18T13:28:20.661Z</time></trkpt><trkpt lat="44.8602183" lon="9.5370317"><ele>204.0</ele><time>2026-04-18T13:28:21.66Z</time></trkpt><trkpt lat="44.8602167" lon="9.5369117"><ele>204.0</ele><time>2026-04-18T13:28:22.66Z</time></trkpt><trkpt lat="44.8602267" lon="9.536795"><ele>204.0</ele><time>2026-04-18T13:28:23.66Z</time></trkpt><trkpt lat="44.860245" lon="9.5366917"><ele>204.0</ele><time>2026-04-18T13:28:24.66Z</time></trkpt><trkpt lat="44.8602633" lon="9.5365967"><ele>204.0</ele><time>2026-04-18T13:28:25.66Z</time></trkpt><trkpt lat="44.8602817" lon="9.5365"><ele>204.0</ele><time>2026-04-18T13:28:26.66Z</time></trkpt><trkpt lat="44.8603" lon="9.5364083"><ele>204.0</ele><time>2026-04-18T13:28:27.66Z</time></trkpt><trkpt lat="44.8603217" lon="9.53624"><ele>204.0</ele><time>2026-04-18T13:28:29.66Z</time></trkpt><trkpt lat="44.8603483" lon="9.536085"><ele>204.0</ele><time>2026-04-18T13:28:31.66Z</time></trkpt><trkpt lat="44.8603733" lon="9.5359317"><ele>204.0</ele><time>2026-04-18T13:28:33.66Z</time></trkpt><trkpt lat="44.8603933" lon="9.535775"><ele>204.79999999999998</ele><time>2026-04-18T13:28:35.66Z</time></trkpt><trkpt lat="44.8604217" lon="9.535615"><ele>205.6</ele><time>2026-04-18T13:28:37.66Z</time></trkpt><trkpt lat="44.8604367" lon="9.5354633"><ele>206.4</ele><time>2026-04-18T13:28:39.66Z</time></trkpt><trkpt lat="44.8604383" lon="9.5353083"><ele>207.2</ele><time>2026-04-18T13:28:41.66Z</time></trkpt><trkpt lat="44.860395" lon="9.5351633"><ele>208.0</ele><time>2026-04-18T13:28:43.66Z</time></trkpt><trkpt lat="44.8603483" lon="9.5351033"><ele>207.8</ele><time>2026-04-18T13:28:44.66Z</time></trkpt><trkpt lat="44.8602917" lon="9.535055"><ele>207.60000000000002</ele><time>2026-04-18T13:28:45.66Z</time></trkpt><trkpt lat="44.8601717" lon="9.5350083"><ele>207.39999999999998</ele><time>2026-04-18T13:28:47.661Z</time></trkpt><trkpt lat="44.860105" lon="9.5350083"><ele>207.2</ele><time>2026-04-18T13:28:48.66Z</time></trkpt><trkpt lat="44.8599883" lon="9.5350467"><ele>207.0</ele><time>2026-04-18T13:28:50.66Z</time></trkpt><trkpt lat="44.8598833" lon="9.535145"><ele>207.0</ele><time>2026-04-18T13:28:52.66Z</time></trkpt><trkpt lat="44.859825" lon="9.5351933"><ele>207.0</ele><time>2026-04-18T13:28:53.661Z</time></trkpt><trkpt lat="44.8597033" lon="9.5352333"><ele>207.0</ele><time>2026-04-18T13:28:55.661Z</time></trkpt><trkpt lat="44.8595817" lon="9.5352333"><ele>207.0</ele><time>2026-04-18T13:28:57.661Z</time></trkpt><trkpt lat="44.8594683" lon="9.53521"><ele>207.0</ele><time>2026-04-18T13:28:59.66Z</time></trkpt><trkpt lat="44.8593633" lon="9.535185"><ele>206.0</ele><time>2026-04-18T13:29:01.66Z</time></trkpt><trkpt lat="44.8592717" lon="9.5351183"><ele>205.0</ele><time>2026-04-18T13:29:03.66Z</time></trkpt><trkpt lat="44.8591817" lon="9.5350167"><ele>204.0</ele><time>2026-04-18T13:29:05.66Z</time></trkpt><trkpt lat="44.8590917" lon="9.5349067"><ele>203.0</ele><time>2026-04-18T13:29:07.66Z</time></trkpt><trkpt lat="44.8590167" lon="9.5347883"><ele>203.0</ele><time>2026-04-18T13:29:09.66Z</time></trkpt><trkpt lat="44.8589417" lon="9.5346667"><ele>203.0</ele><time>2026-04-18T13:29:11.66Z</time></trkpt><trkpt lat="44.858885" lon="9.53453"><ele>203.0</ele><time>2026-04-18T13:29:13.661Z</time></trkpt><trkpt lat="44.858865" lon="9.5343867"><ele>203.0</ele><time>2026-04-18T13:29:15.66Z</time></trkpt><trkpt lat="44.8588267" lon="9.5342433"><ele>203.0</ele><time>2026-04-18T13:29:17.66Z</time></trkpt><trkpt lat="44.8587633" lon="9.534135"><ele>204.2</ele><time>2026-04-18T13:29:19.66Z</time></trkpt><trkpt lat="44.85868" lon="9.5340517"><ele>205.4</ele><time>2026-04-18T13:29:21.66Z</time></trkpt><trkpt lat="44.8585933" lon="9.534005"><ele>206.6</ele><time>2026-04-18T13:29:23.66Z</time></trkpt><trkpt lat="44.8584983" lon="9.5339683"><ele>207.79999999999998</ele><time>2026-04-18T13:29:25.66Z</time></trkpt><trkpt lat="44.858405" lon="9.5339467"><ele>209.0</ele><time>2026-04-18T13:29:27.66Z</time></trkpt><trkpt lat="44.8583183" lon="9.5339233"><ele>209.00000000000003</ele><time>2026-04-18T13:29:29.66Z</time></trkpt><trkpt lat="44.8582333" lon="9.5338867"><ele>209.0</ele><time>2026-04-18T13:29:31.66Z</time></trkpt><trkpt lat="44.858155" lon="9.5338317"><ele>209.0</ele><time>2026-04-18T13:29:33.66Z</time></trkpt><trkpt lat="44.8580933" lon="9.5337583"><ele>209.0</ele><time>2026-04-18T13:29:35.66Z</time></trkpt><trkpt lat="44.8580333" lon="9.533665"><ele>209.00000000000003</ele><time>2026-04-18T13:29:37.66Z</time></trkpt><trkpt lat="44.8579833" lon="9.5335783"><ele>209.0</ele><time>2026-04-18T13:29:39.661Z</time></trkpt><trkpt lat="44.8579233" lon="9.5334867"><ele>210.0</ele><time>2026-04-18T13:29:41.66Z</time></trkpt><trkpt lat="44.857865" lon="9.533395"><ele>211.0</ele><time>2026-04-18T13:29:43.66Z</time></trkpt><trkpt lat="44.8577967" lon="9.5333183"><ele>211.99999999999997</ele><time>2026-04-18T13:29:45.66Z</time></trkpt><trkpt lat="44.857715" lon="9.5332817"><ele>213.0</ele><time>2026-04-18T13:29:47.66Z</time></trkpt><trkpt lat="44.857625" lon="9.5332533"><ele>214.0</ele><time>2026-04-18T13:29:49.66Z</time></trkpt><trkpt lat="44.85753" lon="9.5332183"><ele>213.99999999999997</ele><time>2026-04-18T13:29:51.66Z</time></trkpt><trkpt lat="44.8574483" lon="9.5331817"><ele>214.0</ele><time>2026-04-18T13:29:53.66Z</time></trkpt><trkpt lat="44.8573767" lon="9.53314"><ele>214.0</ele><time>2026-04-18T13:29:55.66Z</time></trkpt><trkpt lat="44.85731" lon="9.5330783"><ele>214.0</ele><time>2026-04-18T13:29:57.66Z</time></trkpt><trkpt lat="44.85724" lon="9.53302"><ele>213.99999999999997</ele><time>2026-04-18T13:29:59.66Z</time></trkpt><trkpt lat="44.8571783" lon="9.532955"><ele>214.0</ele><time>2026-04-18T13:30:01.66Z</time></trkpt><trkpt lat="44.8571233" lon="9.532895"><ele>214.99999999999997</ele><time>2026-04-18T13:30:03.66Z</time></trkpt><trkpt lat="44.857065" lon="9.53283"><ele>216.0</ele><time>2026-04-18T13:30:05.66Z</time></trkpt><trkpt lat="44.8570033" lon="9.532765"><ele>217.0</ele><time>2026-04-18T13:30:07.66Z</time></trkpt><trkpt lat="44.856935" lon="9.532685"><ele>218.0</ele><time>2026-04-18T13:30:09.66Z</time></trkpt><trkpt lat="44.8568667" lon="9.53261"><ele>218.99999999999997</ele><time>2026-04-18T13:30:11.66Z</time></trkpt><trkpt lat="44.8568133" lon="9.5325483"><ele>220.0</ele><time>2026-04-18T13:30:13.66Z</time></trkpt><trkpt lat="44.8567533" lon="9.5324783"><ele>219.99999999999997</ele><time>2026-04-18T13:30:15.66Z</time></trkpt><trkpt lat="44.8567083" lon="9.53239"><ele>220.0</ele><time>2026-04-18T13:30:17.66Z</time></trkpt><trkpt lat="44.8566767" lon="9.5322817"><ele>220.0</ele><time>2026-04-18T13:30:19.661Z</time></trkpt><trkpt lat="44.8566583" lon="9.5321883"><ele>220.0</ele><time>2026-04-18T13:30:21.66Z</time></trkpt><trkpt lat="44.8566517" lon="9.532085"><ele>219.99999999999997</ele><time>2026-04-18T13:30:23.66Z</time></trkpt><trkpt lat="44.8566567" lon="9.531975"><ele>220.0</ele><time>2026-04-18T13:30:25.66Z</time></trkpt><trkpt lat="44.8566517" lon="9.5318617"><ele>221.16666666666666</ele><time>2026-04-18T13:30:27.66Z</time></trkpt><trkpt lat="44.8566417" lon="9.5317517"><ele>222.33333333333331</ele><time>2026-04-18T13:30:29.66Z</time></trkpt><trkpt lat="44.8566217" lon="9.5316467"><ele>223.5</ele><time>2026-04-18T13:30:31.66Z</time></trkpt><trkpt lat="44.8565983" lon="9.531535"><ele>224.66666666666669</ele><time>2026-04-18T13:30:33.66Z</time></trkpt><trkpt lat="44.8565833" lon="9.531435"><ele>225.83333333333334</ele><time>2026-04-18T13:30:35.66Z</time></trkpt><trkpt lat="44.8565833" lon="9.5313283"><ele>227.0</ele><time>2026-04-18T13:30:37.66Z</time></trkpt><trkpt lat="44.8565983" lon="9.5312133"><ele>227.00000000000003</ele><time>2026-04-18T13:30:39.66Z</time></trkpt><trkpt lat="44.856645" lon="9.5311283"><ele>227.0</ele><time>2026-04-18T13:30:41.66Z</time></trkpt><trkpt lat="44.8567033" lon="9.53105"><ele>227.0</ele><time>2026-04-18T13:30:43.66Z</time></trkpt><trkpt lat="44.8567733" lon="9.5309833"><ele>227.0</ele><time>2026-04-18T13:30:45.66Z</time></trkpt><trkpt lat="44.85685" lon="9.5309383"><ele>227.00000000000003</ele><time>2026-04-18T13:30:47.66Z</time></trkpt><trkpt lat="44.8569217" lon="9.5309033"><ele>227.0</ele><time>2026-04-18T13:30:49.66Z</time></trkpt><trkpt lat="44.856995" lon="9.5308617"><ele>229.42857142857144</ele><time>2026-04-18T13:30:51.66Z</time></trkpt><trkpt lat="44.8570617" lon="9.530815"><ele>231.8571428571429</ele><time>2026-04-18T13:30:53.66Z</time></trkpt><trkpt lat="44.8571183" lon="9.5307583"><ele>234.28571428571428</ele><time>2026-04-18T13:30:55.66Z</time></trkpt><trkpt lat="44.8571733" lon="9.5306917"><ele>236.71428571428572</ele><time>2026-04-18T13:30:57.66Z</time></trkpt><trkpt lat="44.8572217" lon="9.53062"><ele>239.14285714285714</ele><time>2026-04-18T13:30:59.661Z</time></trkpt><trkpt lat="44.8572833" lon="9.5305667"><ele>241.57142857142856</ele><time>2026-04-18T13:31:01.66Z</time></trkpt><trkpt lat="44.8573533" lon="9.53054"><ele>243.99999999999997</ele><time>2026-04-18T13:31:03.661Z</time></trkpt><trkpt lat="44.8574317" lon="9.5305267"><ele>243.99999999999997</ele><time>2026-04-18T13:31:05.66Z</time></trkpt><trkpt lat="44.8575033" lon="9.5305133"><ele>244.0</ele><time>2026-04-18T13:31:07.66Z</time></trkpt><trkpt lat="44.857575" lon="9.5304767"><ele>244.0</ele><time>2026-04-18T13:31:09.66Z</time></trkpt><trkpt lat="44.8576417" lon="9.530425"><ele>244.0</ele><time>2026-04-18T13:31:11.66Z</time></trkpt><trkpt lat="44.8577033" lon="9.53036"><ele>243.99999999999997</ele><time>2026-04-18T13:31:13.66Z</time></trkpt><trkpt lat="44.8577633" lon="9.5302867"><ele>244.0</ele><time>2026-04-18T13:31:15.66Z</time></trkpt><trkpt lat="44.8578167" lon="9.5301983"><ele>245.49999999999997</ele><time>2026-04-18T13:31:17.66Z</time></trkpt><trkpt lat="44.8578617" lon="9.5301067"><ele>247.0</ele><time>2026-04-18T13:31:19.66Z</time></trkpt><trkpt lat="44.857905" lon="9.5300233"><ele>248.5</ele><time>2026-04-18T13:31:21.66Z</time></trkpt><trkpt lat="44.8579467" lon="9.529935"><ele>250.0</ele><time>2026-04-18T13:31:23.66Z</time></trkpt><trkpt lat="44.8579917" lon="9.52985"><ele>251.49999999999997</ele><time>2026-04-18T13:31:25.66Z</time></trkpt><trkpt lat="44.8580233" lon="9.5297583"><ele>253.0</ele><time>2026-04-18T13:31:27.66Z</time></trkpt><trkpt lat="44.8580483" lon="9.5296533"><ele>254.49999999999997</ele><time>2026-04-18T13:31:29.66Z</time></trkpt><trkpt lat="44.858045" lon="9.5295483"><ele>256.0</ele><time>2026-04-18T13:31:31.66Z</time></trkpt><trkpt lat="44.8580233" lon="9.5294567"><ele>257.5</ele><time>2026-04-18T13:31:33.66Z</time></trkpt><trkpt lat="44.8579783" lon="9.5293683"><ele>259.0</ele><time>2026-04-18T13:31:35.66Z</time></trkpt><trkpt lat="44.8579233" lon="9.529285"><ele>260.5</ele><time>2026-04-18T13:31:37.66Z</time></trkpt><trkpt lat="44.8578733" lon="9.5292033"><ele>262.0</ele><time>2026-04-18T13:31:39.66Z</time></trkpt><trkpt lat="44.8578117" lon="9.529125"><ele>262.0</ele><time>2026-04-18T13:31:41.66Z</time></trkpt><trkpt lat="44.85775" lon="9.5290517"><ele>262.0</ele><time>2026-04-18T13:31:43.66Z</time></trkpt><trkpt lat="44.8576817" lon="9.52899"><ele>262.0</ele><time>2026-04-18T13:31:45.66Z</time></trkpt><trkpt lat="44.85761" lon="9.52893"><ele>262.0</ele><time>2026-04-18T13:31:47.66Z</time></trkpt><trkpt lat="44.8575383" lon="9.5288883"><ele>262.0</ele><time>2026-04-18T13:31:49.66Z</time></trkpt><trkpt lat="44.857465" lon="9.5288517"><ele>262.0</ele><time>2026-04-18T13:31:51.66Z</time></trkpt><trkpt lat="44.8573933" lon="9.52883"><ele>261.66666666666663</ele><time>2026-04-18T13:31:53.661Z</time></trkpt><trkpt lat="44.8573133" lon="9.5288017"><ele>261.3333333333333</ele><time>2026-04-18T13:31:55.66Z</time></trkpt><trkpt lat="44.8572267" lon="9.5287517"><ele>261.0</ele><time>2026-04-18T13:31:57.66Z</time></trkpt><trkpt lat="44.8571433" lon="9.5287033"><ele>260.6666666666667</ele><time>2026-04-18T13:31:59.66Z</time></trkpt><trkpt lat="44.85707" lon="9.528665"><ele>260.33333333333337</ele><time>2026-04-18T13:32:01.661Z</time></trkpt><trkpt lat="44.8569967" lon="9.5286183"><ele>260.0</ele><time>2026-04-18T13:32:03.66Z</time></trkpt><trkpt lat="44.856925" lon="9.5285717"><ele>260.0</ele><time>2026-04-18T13:32:05.66Z</time></trkpt><trkpt lat="44.856845" lon="9.5285217"><ele>260.0</ele><time>2026-04-18T13:32:07.66Z</time></trkpt><trkpt lat="44.8567683" lon="9.5284683"><ele>260.0</ele><time>2026-04-18T13:32:09.66Z</time></trkpt><trkpt lat="44.8566917" lon="9.5284167"><ele>260.0</ele><time>2026-04-18T13:32:11.66Z</time></trkpt><trkpt lat="44.8566183" lon="9.5283533"><ele>260.0</ele><time>2026-04-18T13:32:13.66Z</time></trkpt><trkpt lat="44.856555" lon="9.5282833"><ele>260.0</ele><time>2026-04-18T13:32:15.66Z</time></trkpt><trkpt lat="44.8565017" lon="9.5281983"><ele>259.83333333333337</ele><time>2026-04-18T13:32:17.66Z</time></trkpt><trkpt lat="44.856455" lon="9.528105"><ele>259.6666666666667</ele><time>2026-04-18T13:32:19.66Z</time></trkpt><trkpt lat="44.856425" lon="9.527995"><ele>259.5</ele><time>2026-04-18T13:32:21.66Z</time></trkpt><trkpt lat="44.856405" lon="9.5278933"><ele>259.3333333333333</ele><time>2026-04-18T13:32:23.66Z</time></trkpt><trkpt lat="44.8564017" lon="9.527795"><ele>259.16666666666663</ele><time>2026-04-18T13:32:25.66Z</time></trkpt><trkpt lat="44.8564167" lon="9.52769"><ele>259.0</ele><time>2026-04-18T13:32:27.66Z</time></trkpt><trkpt lat="44.85642" lon="9.527585"><ele>259.0</ele><time>2026-04-18T13:32:29.66Z</time></trkpt><trkpt lat="44.8564217" lon="9.52748"><ele>259.0</ele><time>2026-04-18T13:32:31.66Z</time></trkpt><trkpt lat="44.856435" lon="9.5273817"><ele>259.0</ele><time>2026-04-18T13:32:33.66Z</time></trkpt><trkpt lat="44.856445" lon="9.52728"><ele>259.0</ele><time>2026-04-18T13:32:35.66Z</time></trkpt><trkpt lat="44.8564483" lon="9.5271767"><ele>259.0</ele><time>2026-04-18T13:32:37.66Z</time></trkpt><trkpt lat="44.8564467" lon="9.5270733"><ele>259.0</ele><time>2026-04-18T13:32:39.66Z</time></trkpt><trkpt lat="44.8564483" lon="9.5269717"><ele>259.0</ele><time>2026-04-18T13:32:41.66Z</time></trkpt><trkpt lat="44.8564433" lon="9.5268783"><ele>260.3333333333333</ele><time>2026-04-18T13:32:43.661Z</time></trkpt><trkpt lat="44.856435" lon="9.526775"><ele>261.66666666666663</ele><time>2026-04-18T13:32:45.66Z</time></trkpt><trkpt lat="44.8564317" lon="9.5266717"><ele>263.0</ele><time>2026-04-18T13:32:47.66Z</time></trkpt><trkpt lat="44.8564167" lon="9.5265717"><ele>264.3333333333333</ele><time>2026-04-18T13:32:49.66Z</time></trkpt><trkpt lat="44.8564183" lon="9.5264733"><ele>265.6666666666667</ele><time>2026-04-18T13:32:51.66Z</time></trkpt><trkpt lat="44.8564183" lon="9.526335"><ele>267.0</ele><time>2026-04-18T13:32:54.66Z</time></trkpt><trkpt lat="44.8564133" lon="9.5262383"><ele>267.7142857142857</ele><time>2026-04-18T13:32:56.66Z</time></trkpt><trkpt lat="44.8564" lon="9.5261367"><ele>268.42857142857144</ele><time>2026-04-18T13:32:58.66Z</time></trkpt><trkpt lat="44.856395" lon="9.5260333"><ele>269.1428571428571</ele><time>2026-04-18T13:33:00.66Z</time></trkpt><trkpt lat="44.8563867" lon="9.525935"><ele>269.8571428571429</ele><time>2026-04-18T13:33:02.66Z</time></trkpt><trkpt lat="44.8563717" lon="9.5258383"><ele>270.57142857142856</ele><time>2026-04-18T13:33:04.66Z</time></trkpt><trkpt lat="44.8563567" lon="9.525745"><ele>271.2857142857143</ele><time>2026-04-18T13:33:06.66Z</time></trkpt><trkpt lat="44.8563317" lon="9.5256483"><ele>272.0</ele><time>2026-04-18T13:33:08.66Z</time></trkpt><trkpt lat="44.8563017" lon="9.5255583"><ele>272.0</ele><time>2026-04-18T13:33:10.66Z</time></trkpt><trkpt lat="44.8562683" lon="9.5254733"><ele>272.0</ele><time>2026-04-18T13:33:12.661Z</time></trkpt><trkpt lat="44.856235" lon="9.5253867"><ele>272.0</ele><time>2026-04-18T13:33:14.66Z</time></trkpt><trkpt lat="44.85619" lon="9.5252783"><ele>272.0</ele><time>2026-04-18T13:33:17.66Z</time></trkpt><trkpt lat="44.8561283" lon="9.5251817"><ele>272.0</ele><time>2026-04-18T13:33:20.66Z</time></trkpt><trkpt lat="44.8560783" lon="9.5251217"><ele>272.0</ele><time>2026-04-18T13:33:22.66Z</time></trkpt><trkpt lat="44.8560217" lon="9.5250567"><ele>271.71428571428567</ele><time>2026-04-18T13:33:24.66Z</time></trkpt><trkpt lat="44.8559617" lon="9.5250083"><ele>271.42857142857144</ele><time>2026-04-18T13:33:26.66Z</time></trkpt><trkpt lat="44.8559" lon="9.5249767"><ele>271.1428571428571</ele><time>2026-04-18T13:33:28.66Z</time></trkpt><trkpt lat="44.855835" lon="9.5249483"><ele>270.85714285714283</ele><time>2026-04-18T13:33:30.661Z</time></trkpt><trkpt lat="44.8557717" lon="9.5249283"><ele>270.57142857142856</ele><time>2026-04-18T13:33:32.66Z</time></trkpt><trkpt lat="44.855705" lon="9.5249183"><ele>270.2857142857143</ele><time>2026-04-18T13:33:34.66Z</time></trkpt><trkpt lat="44.8556333" lon="9.5249167"><ele>270.0</ele><time>2026-04-18T13:33:36.66Z</time></trkpt><trkpt lat="44.855565" lon="9.5249267"><ele>270.0</ele><time>2026-04-18T13:33:38.66Z</time></trkpt><trkpt lat="44.855495" lon="9.5249383"><ele>270.0</ele><time>2026-04-18T13:33:40.66Z</time></trkpt><trkpt lat="44.8554233" lon="9.5249483"><ele>270.0</ele><time>2026-04-18T13:33:42.661Z</time></trkpt><trkpt lat="44.8553533" lon="9.52494"><ele>270.0</ele><time>2026-04-18T13:33:44.66Z</time></trkpt><trkpt lat="44.855295" lon="9.5248983"><ele>270.0</ele><time>2026-04-18T13:33:46.66Z</time></trkpt><trkpt lat="44.8552467" lon="9.5248267"><ele>270.0</ele><time>2026-04-18T13:33:48.66Z</time></trkpt><trkpt lat="44.855235" lon="9.52473"><ele>270.0</ele><time>2026-04-18T13:33:50.66Z</time></trkpt><trkpt lat="44.8552633" lon="9.5246383"><ele>271.2857142857143</ele><time>2026-04-18T13:33:52.66Z</time></trkpt><trkpt lat="44.8553" lon="9.5245517"><ele>272.57142857142856</ele><time>2026-04-18T13:33:54.66Z</time></trkpt><trkpt lat="44.85534" lon="9.52447"><ele>273.85714285714283</ele><time>2026-04-18T13:33:56.66Z</time></trkpt><trkpt lat="44.8553783" lon="9.5243883"><ele>275.1428571428571</ele><time>2026-04-18T13:33:58.66Z</time></trkpt><trkpt lat="44.85542" lon="9.5243183"><ele>276.42857142857144</ele><time>2026-04-18T13:34:00.66Z</time></trkpt><trkpt lat="44.8554583" lon="9.5242367"><ele>277.71428571428567</ele><time>2026-04-18T13:34:02.66Z</time></trkpt><trkpt lat="44.8554967" lon="9.524155"><ele>279.0</ele><time>2026-04-18T13:34:04.66Z</time></trkpt><trkpt lat="44.8555267" lon="9.5240717"><ele>278.99999999999994</ele><time>2026-04-18T13:34:06.66Z</time></trkpt><trkpt lat="44.855545" lon="9.5239783"><ele>279.0</ele><time>2026-04-18T13:34:08.66Z</time></trkpt><trkpt lat="44.8555683" lon="9.5238867"><ele>279.0</ele><time>2026-04-18T13:34:10.66Z</time></trkpt><trkpt lat="44.8555833" lon="9.523785"><ele>279.0</ele><time>2026-04-18T13:34:12.66Z</time></trkpt><trkpt lat="44.8555917" lon="9.5236917"><ele>279.0</ele><time>2026-04-18T13:34:14.66Z</time></trkpt><trkpt lat="44.8556167" lon="9.52356"><ele>278.99999999999994</ele><time>2026-04-18T13:34:17.66Z</time></trkpt><trkpt lat="44.8556467" lon="9.5234733"><ele>279.0</ele><time>2026-04-18T13:34:19.66Z</time></trkpt><trkpt lat="44.85568" lon="9.5233867"><ele>278.6666666666667</ele><time>2026-04-18T13:34:21.66Z</time></trkpt><trkpt lat="44.8557183" lon="9.5232933"><ele>278.3333333333333</ele><time>2026-04-18T13:34:23.66Z</time></trkpt><trkpt lat="44.8557567" lon="9.5231883"><ele>278.0</ele><time>2026-04-18T13:34:25.66Z</time></trkpt><trkpt lat="44.8558017" lon="9.5230883"><ele>277.66666666666663</ele><time>2026-04-18T13:34:27.66Z</time></trkpt><trkpt lat="44.85584" lon="9.5229867"><ele>277.3333333333333</ele><time>2026-04-18T13:34:29.66Z</time></trkpt><trkpt lat="44.8558733" lon="9.5228867"><ele>277.0</ele><time>2026-04-18T13:34:31.66Z</time></trkpt><trkpt lat="44.8559133" lon="9.5227917"><ele>279.3333333333333</ele><time>2026-04-18T13:34:33.66Z</time></trkpt><trkpt lat="44.8559667" lon="9.522685"><ele>281.66666666666663</ele><time>2026-04-18T13:34:35.66Z</time></trkpt><trkpt lat="44.856005" lon="9.5225833"><ele>284.0</ele><time>2026-04-18T13:34:37.66Z</time></trkpt><trkpt lat="44.856045" lon="9.5224817"><ele>286.3333333333333</ele><time>2026-04-18T13:34:39.66Z</time></trkpt><trkpt lat="44.8560883" lon="9.5223767"><ele>288.6666666666667</ele><time>2026-04-18T13:34:41.66Z</time></trkpt><trkpt lat="44.856135" lon="9.5222833"><ele>291.0</ele><time>2026-04-18T13:34:43.66Z</time></trkpt><trkpt lat="44.85619" lon="9.5222117"><ele>291.0</ele><time>2026-04-18T13:34:45.66Z</time></trkpt><trkpt lat="44.8562433" lon="9.5221467"><ele>291.0</ele><time>2026-04-18T13:34:47.66Z</time></trkpt><trkpt lat="44.8563017" lon="9.5220817"><ele>291.0</ele><time>2026-04-18T13:34:49.661Z</time></trkpt><trkpt lat="44.8563683" lon="9.5220133"><ele>291.0</ele><time>2026-04-18T13:34:51.66Z</time></trkpt><trkpt lat="44.85644" lon="9.5219483"><ele>291.0</ele><time>2026-04-18T13:34:53.66Z</time></trkpt><trkpt lat="44.8565067" lon="9.5218717"><ele>291.0</ele><time>2026-04-18T13:34:55.66Z</time></trkpt><trkpt lat="44.8565617" lon="9.5217817"><ele>290.0</ele><time>2026-04-18T13:34:57.66Z</time></trkpt><trkpt lat="44.856595" lon="9.52167"><ele>289.0</ele><time>2026-04-18T13:34:59.66Z</time></trkpt><trkpt lat="44.856615" lon="9.521545"><ele>288.0</ele><time>2026-04-18T13:35:01.66Z</time></trkpt><trkpt lat="44.856605" lon="9.5213983"><ele>287.0</ele><time>2026-04-18T13:35:03.66Z</time></trkpt><trkpt lat="44.85658" lon="9.5212733"><ele>286.0</ele><time>2026-04-18T13:35:05.66Z</time></trkpt><trkpt lat="44.8565517" lon="9.5211417"><ele>285.6</ele><time>2026-04-18T13:35:07.66Z</time></trkpt><trkpt lat="44.856535" lon="9.5210083"><ele>285.20000000000005</ele><time>2026-04-18T13:35:09.66Z</time></trkpt><trkpt lat="44.8565367" lon="9.5208767"><ele>284.79999999999995</ele><time>2026-04-18T13:35:11.66Z</time></trkpt><trkpt lat="44.8565433" lon="9.5207533"><ele>284.4</ele><time>2026-04-18T13:35:13.66Z</time></trkpt><trkpt lat="44.8565433" lon="9.5206233"><ele>284.0</ele><time>2026-04-18T13:35:15.66Z</time></trkpt><trkpt lat="44.85654" lon="9.520505"><ele>284.6666666666667</ele><time>2026-04-18T13:35:17.66Z</time></trkpt><trkpt lat="44.8565217" lon="9.5203917"><ele>285.33333333333337</ele><time>2026-04-18T13:35:19.66Z</time></trkpt><trkpt lat="44.8565017" lon="9.52027"><ele>286.0</ele><time>2026-04-18T13:35:21.66Z</time></trkpt><trkpt lat="44.8564933" lon="9.5201567"><ele>286.6666666666667</ele><time>2026-04-18T13:35:23.66Z</time></trkpt><trkpt lat="44.8564967" lon="9.52004"><ele>287.3333333333333</ele><time>2026-04-18T13:35:25.66Z</time></trkpt><trkpt lat="44.8564967" lon="9.51992"><ele>288.0</ele><time>2026-04-18T13:35:27.66Z</time></trkpt><trkpt lat="44.8564983" lon="9.5197933"><ele>288.0</ele><time>2026-04-18T13:35:29.66Z</time></trkpt><trkpt lat="44.8564983" lon="9.5196767"><ele>288.0</ele><time>2026-04-18T13:35:31.66Z</time></trkpt><trkpt lat="44.8565083" lon="9.5195667"><ele>288.0</ele><time>2026-04-18T13:35:33.66Z</time></trkpt><trkpt lat="44.8565283" lon="9.5194533"><ele>288.0</ele><time>2026-04-18T13:35:35.66Z</time></trkpt><trkpt lat="44.8565517" lon="9.5193517"><ele>288.0</ele><time>2026-04-18T13:35:37.66Z</time></trkpt><trkpt lat="44.856575" lon="9.5192583"><ele>288.0</ele><time>2026-04-18T13:35:39.66Z</time></trkpt><trkpt lat="44.8565983" lon="9.5191467"><ele>288.0</ele><time>2026-04-18T13:35:41.66Z</time></trkpt><trkpt lat="44.856625" lon="9.5190417"><ele>288.0</ele><time>2026-04-18T13:35:43.66Z</time></trkpt><trkpt lat="44.8566483" lon="9.518925"><ele>288.0</ele><time>2026-04-18T13:35:45.66Z</time></trkpt><trkpt lat="44.85668" lon="9.5188083"><ele>288.0</ele><time>2026-04-18T13:35:47.66Z</time></trkpt><trkpt lat="44.8566883" lon="9.51869"><ele>288.0</ele><time>2026-04-18T13:35:49.66Z</time></trkpt><trkpt lat="44.856705" lon="9.51856"><ele>288.0</ele><time>2026-04-18T13:35:51.66Z</time></trkpt><trkpt lat="44.85672" lon="9.518445"><ele>288.0</ele><time>2026-04-18T13:35:53.66Z</time></trkpt><trkpt lat="44.85673" lon="9.5183117"><ele>288.0</ele><time>2026-04-18T13:35:55.66Z</time></trkpt><trkpt lat="44.856745" lon="9.5181833"><ele>288.0</ele><time>2026-04-18T13:35:57.66Z</time></trkpt><trkpt lat="44.856755" lon="9.5180567"><ele>288.0</ele><time>2026-04-18T13:35:59.66Z</time></trkpt><trkpt lat="44.856765" lon="9.517925"><ele>288.0</ele><time>2026-04-18T13:36:01.66Z</time></trkpt><trkpt lat="44.8567933" lon="9.5178"><ele>289.8</ele><time>2026-04-18T13:36:03.66Z</time></trkpt><trkpt lat="44.8568283" lon="9.5176833"><ele>291.6</ele><time>2026-04-18T13:36:05.66Z</time></trkpt><trkpt lat="44.8568583" lon="9.5175683"><ele>293.4</ele><time>2026-04-18T13:36:07.66Z</time></trkpt><trkpt lat="44.8568983" lon="9.5174617"><ele>295.2</ele><time>2026-04-18T13:36:09.66Z</time></trkpt><trkpt lat="44.8569433" lon="9.5173183"><ele>297.0</ele><time>2026-04-18T13:36:11.66Z</time></trkpt><trkpt lat="44.8569883" lon="9.5171733"><ele>297.0</ele><time>2026-04-18T13:36:13.66Z</time></trkpt><trkpt lat="44.8570167" lon="9.5170917"><ele>297.0</ele><time>2026-04-18T13:36:14.66Z</time></trkpt><trkpt lat="44.857045" lon="9.5170067"><ele>297.0</ele><time>2026-04-18T13:36:15.66Z</time></trkpt><trkpt lat="44.8570683" lon="9.5169167"><ele>297.0</ele><time>2026-04-18T13:36:16.66Z</time></trkpt><trkpt lat="44.8571" lon="9.5168317"><ele>297.0</ele><time>2026-04-18T13:36:17.66Z</time></trkpt><trkpt lat="44.85713" lon="9.5167467"><ele>297.0</ele><time>2026-04-18T13:36:18.66Z</time></trkpt><trkpt lat="44.8571583" lon="9.516655"><ele>297.0</ele><time>2026-04-18T13:36:19.66Z</time></trkpt><trkpt lat="44.8571967" lon="9.5165683"><ele>296.0</ele><time>2026-04-18T13:36:20.66Z</time></trkpt><trkpt lat="44.8572333" lon="9.5164833"><ele>295.0</ele><time>2026-04-18T13:36:21.66Z</time></trkpt><trkpt lat="44.8572667" lon="9.516395"><ele>294.0</ele><time>2026-04-18T13:36:22.66Z</time></trkpt><trkpt lat="44.8573083" lon="9.5163117"><ele>293.0</ele><time>2026-04-18T13:36:23.66Z</time></trkpt><trkpt lat="44.8573483" lon="9.51623"><ele>292.0</ele><time>2026-04-18T13:36:24.66Z</time></trkpt><trkpt lat="44.85739" lon="9.51615"><ele>291.0</ele><time>2026-04-18T13:36:25.66Z</time></trkpt><trkpt lat="44.8574683" lon="9.516015"><ele>290.0</ele><time>2026-04-18T13:36:27.66Z</time></trkpt><trkpt lat="44.85755" lon="9.515895"><ele>289.0</ele><time>2026-04-18T13:36:29.66Z</time></trkpt><trkpt lat="44.8576183" lon="9.515795"><ele>288.0</ele><time>2026-04-18T13:36:31.66Z</time></trkpt><trkpt lat="44.8576967" lon="9.5157017"><ele>287.0</ele><time>2026-04-18T13:36:33.66Z</time></trkpt><trkpt lat="44.8577817" lon="9.5156133"><ele>286.0</ele><time>2026-04-18T13:36:35.66Z</time></trkpt><trkpt lat="44.8578717" lon="9.5155333"><ele>287.0</ele><time>2026-04-18T13:36:37.66Z</time></trkpt><trkpt lat="44.8579483" lon="9.5154433"><ele>288.0</ele><time>2026-04-18T13:36:39.66Z</time></trkpt><trkpt lat="44.85802" lon="9.51535"><ele>289.0</ele><time>2026-04-18T13:36:41.66Z</time></trkpt><trkpt lat="44.8580767" lon="9.51525"><ele>290.0</ele><time>2026-04-18T13:36:43.66Z</time></trkpt><trkpt lat="44.858125" lon="9.5151333"><ele>291.0</ele><time>2026-04-18T13:36:45.66Z</time></trkpt><trkpt lat="44.8581533" lon="9.51501"><ele>291.0</ele><time>2026-04-18T13:36:47.66Z</time></trkpt><trkpt lat="44.858175" lon="9.5148867"><ele>291.0</ele><time>2026-04-18T13:36:49.66Z</time></trkpt><trkpt lat="44.8582033" lon="9.514755"><ele>291.0</ele><time>2026-04-18T13:36:51.66Z</time></trkpt><trkpt lat="44.8582383" lon="9.5146333"><ele>291.0</ele><time>2026-04-18T13:36:53.66Z</time></trkpt><trkpt lat="44.8582867" lon="9.5145017"><ele>291.0</ele><time>2026-04-18T13:36:55.66Z</time></trkpt><trkpt lat="44.8583383" lon="9.5143683"><ele>290.8</ele><time>2026-04-18T13:36:57.66Z</time></trkpt><trkpt lat="44.8583617" lon="9.514235"><ele>290.6</ele><time>2026-04-18T13:36:59.66Z</time></trkpt><trkpt lat="44.85834" lon="9.5141217"><ele>290.4</ele><time>2026-04-18T13:37:01.66Z</time></trkpt><trkpt lat="44.85826" lon="9.5140433"><ele>290.2</ele><time>2026-04-18T13:37:03.66Z</time></trkpt><trkpt lat="44.85818" lon="9.5139583"><ele>290.0</ele><time>2026-04-18T13:37:05.66Z</time></trkpt><trkpt lat="44.8581333" lon="9.513835"><ele>290.6666666666667</ele><time>2026-04-18T13:37:07.66Z</time></trkpt><trkpt lat="44.858145" lon="9.5137133"><ele>291.33333333333337</ele><time>2026-04-18T13:37:09.66Z</time></trkpt><trkpt lat="44.85819" lon="9.5136067"><ele>292.0</ele><time>2026-04-18T13:37:11.66Z</time></trkpt><trkpt lat="44.8582533" lon="9.5135217"><ele>292.6666666666667</ele><time>2026-04-18T13:37:13.66Z</time></trkpt><trkpt lat="44.8583167" lon="9.5134333"><ele>293.3333333333333</ele><time>2026-04-18T13:37:15.66Z</time></trkpt><trkpt lat="44.8583683" lon="9.51334"><ele>294.0</ele><time>2026-04-18T13:37:17.66Z</time></trkpt><trkpt lat="44.8584083" lon="9.5132233"><ele>294.0</ele><time>2026-04-18T13:37:19.66Z</time></trkpt><trkpt lat="44.8584217" lon="9.51312"><ele>294.0</ele><time>2026-04-18T13:37:21.66Z</time></trkpt><trkpt lat="44.858405" lon="9.51301"><ele>294.0</ele><time>2026-04-18T13:37:23.66Z</time></trkpt><trkpt lat="44.8583633" lon="9.512905"><ele>294.0</ele><time>2026-04-18T13:37:25.66Z</time></trkpt><trkpt lat="44.858325" lon="9.5127983"><ele>294.0</ele><time>2026-04-18T13:37:27.66Z</time></trkpt><trkpt lat="44.8582967" lon="9.5127"><ele>294.0</ele><time>2026-04-18T13:37:29.66Z</time></trkpt><trkpt lat="44.8582667" lon="9.5126033"><ele>294.6666666666667</ele><time>2026-04-18T13:37:31.66Z</time></trkpt><trkpt lat="44.8582417" lon="9.5125033"><ele>295.3333333333333</ele><time>2026-04-18T13:37:33.66Z</time></trkpt><trkpt lat="44.8582217" lon="9.5123867"><ele>296.0</ele><time>2026-04-18T13:37:35.66Z</time></trkpt><trkpt lat="44.8582167" lon="9.5122733"><ele>296.66666666666663</ele><time>2026-04-18T13:37:37.66Z</time></trkpt><trkpt lat="44.8582133" lon="9.5121633"><ele>297.3333333333333</ele><time>2026-04-18T13:37:39.66Z</time></trkpt><trkpt lat="44.858225" lon="9.5120517"><ele>298.0</ele><time>2026-04-18T13:37:41.66Z</time></trkpt><trkpt lat="44.8582333" lon="9.51194"><ele>298.8333333333333</ele><time>2026-04-18T13:37:43.66Z</time></trkpt><trkpt lat="44.8582433" lon="9.5118283"><ele>299.66666666666663</ele><time>2026-04-18T13:37:45.66Z</time></trkpt><trkpt lat="44.8582617" lon="9.5117183"><ele>300.5</ele><time>2026-04-18T13:37:47.66Z</time></trkpt><trkpt lat="44.8582733" lon="9.5116067"><ele>301.3333333333333</ele><time>2026-04-18T13:37:49.66Z</time></trkpt><trkpt lat="44.8582933" lon="9.51149"><ele>302.1666666666667</ele><time>2026-04-18T13:37:51.66Z</time></trkpt><trkpt lat="44.8583133" lon="9.511375"><ele>303.0</ele><time>2026-04-18T13:37:53.66Z</time></trkpt><trkpt lat="44.8583383" lon="9.51125"><ele>303.0</ele><time>2026-04-18T13:37:55.66Z</time></trkpt><trkpt lat="44.858365" lon="9.5111183"><ele>303.0</ele><time>2026-04-18T13:37:57.66Z</time></trkpt><trkpt lat="44.8583967" lon="9.5109833"><ele>303.0</ele><time>2026-04-18T13:37:59.66Z</time></trkpt><trkpt lat="44.8584267" lon="9.51085"><ele>303.0</ele><time>2026-04-18T13:38:01.66Z</time></trkpt><trkpt lat="44.85846" lon="9.5107117"><ele>303.0</ele><time>2026-04-18T13:38:03.66Z</time></trkpt><trkpt lat="44.8585017" lon="9.510595"><ele>304.0</ele><time>2026-04-18T13:38:05.66Z</time></trkpt><trkpt lat="44.8585517" lon="9.5104733"><ele>305.0</ele><time>2026-04-18T13:38:07.66Z</time></trkpt><trkpt lat="44.8586067" lon="9.51037"><ele>306.0</ele><time>2026-04-18T13:38:09.66Z</time></trkpt><trkpt lat="44.858675" lon="9.51028"><ele>307.0</ele><time>2026-04-18T13:38:11.66Z</time></trkpt><trkpt lat="44.8587533" lon="9.5102233"><ele>308.0</ele><time>2026-04-18T13:38:13.66Z</time></trkpt><trkpt lat="44.858825" lon="9.51016"><ele>308.0</ele><time>2026-04-18T13:38:15.66Z</time></trkpt><trkpt lat="44.8589" lon="9.5100817"><ele>308.0</ele><time>2026-04-18T13:38:17.66Z</time></trkpt><trkpt lat="44.8589633" lon="9.5099783"><ele>308.0</ele><time>2026-04-18T13:38:19.66Z</time></trkpt><trkpt lat="44.8590033" lon="9.5098583"><ele>308.0</ele><time>2026-04-18T13:38:21.661Z</time></trkpt><trkpt lat="44.8590233" lon="9.509735"><ele>308.0</ele><time>2026-04-18T13:38:23.66Z</time></trkpt><trkpt lat="44.8590283" lon="9.5096033"><ele>308.1666666666667</ele><time>2026-04-18T13:38:25.66Z</time></trkpt><trkpt lat="44.859025" lon="9.509465"><ele>308.33333333333337</ele><time>2026-04-18T13:38:27.66Z</time></trkpt><trkpt lat="44.8590183" lon="9.5093367"><ele>308.5</ele><time>2026-04-18T13:38:29.66Z</time></trkpt><trkpt lat="44.859015" lon="9.50922"><ele>308.6666666666667</ele><time>2026-04-18T13:38:31.66Z</time></trkpt><trkpt lat="44.8590383" lon="9.5091067"><ele>308.8333333333333</ele><time>2026-04-18T13:38:33.66Z</time></trkpt><trkpt lat="44.8590667" lon="9.5089967"><ele>309.0</ele><time>2026-04-18T13:38:35.66Z</time></trkpt><trkpt lat="44.859105" lon="9.508875"><ele>309.0</ele><time>2026-04-18T13:38:37.66Z</time></trkpt><trkpt lat="44.8591567" lon="9.50876"><ele>309.0</ele><time>2026-04-18T13:38:39.66Z</time></trkpt><trkpt lat="44.8592267" lon="9.508665"><ele>309.0</ele><time>2026-04-18T13:38:41.66Z</time></trkpt><trkpt lat="44.8592933" lon="9.5085667"><ele>309.0</ele><time>2026-04-18T13:38:43.66Z</time></trkpt><trkpt lat="44.8593567" lon="9.5084733"><ele>309.0</ele><time>2026-04-18T13:38:45.66Z</time></trkpt><trkpt lat="44.8594233" lon="9.5083783"><ele>310.2</ele><time>2026-04-18T13:38:47.66Z</time></trkpt><trkpt lat="44.85948" lon="9.508275"><ele>311.4</ele><time>2026-04-18T13:38:49.66Z</time></trkpt><trkpt lat="44.8595483" lon="9.5081967"><ele>312.6</ele><time>2026-04-18T13:38:51.66Z</time></trkpt><trkpt lat="44.8596333" lon="9.5081417"><ele>313.8</ele><time>2026-04-18T13:38:53.66Z</time></trkpt><trkpt lat="44.8597233" lon="9.50812"><ele>315.0</ele><time>2026-04-18T13:38:55.661Z</time></trkpt><trkpt lat="44.859815" lon="9.5081117"><ele>315.0</ele><time>2026-04-18T13:38:57.661Z</time></trkpt><trkpt lat="44.8599083" lon="9.508105"><ele>315.0</ele><time>2026-04-18T13:38:59.661Z</time></trkpt><trkpt lat="44.8599883" lon="9.5080933"><ele>315.0</ele><time>2026-04-18T13:39:01.661Z</time></trkpt><trkpt lat="44.8601133" lon="9.50802"><ele>315.0</ele><time>2026-04-18T13:39:04.661Z</time></trkpt><trkpt lat="44.8601833" lon="9.50794"><ele>315.0</ele><time>2026-04-18T13:39:06.661Z</time></trkpt><trkpt lat="44.860255" lon="9.5078517"><ele>316.0</ele><time>2026-04-18T13:39:08.661Z</time></trkpt><trkpt lat="44.8603317" lon="9.5077767"><ele>317.0</ele><time>2026-04-18T13:39:10.661Z</time></trkpt><trkpt lat="44.860405" lon="9.5077383"><ele>318.0</ele><time>2026-04-18T13:39:12.661Z</time></trkpt><trkpt lat="44.86049" lon="9.5077133"><ele>319.0</ele><time>2026-04-18T13:39:14.661Z</time></trkpt><trkpt lat="44.8605767" lon="9.50768"><ele>320.0</ele><time>2026-04-18T13:39:16.661Z</time></trkpt><trkpt lat="44.86066" lon="9.50763"><ele>321.0</ele><time>2026-04-18T13:39:18.661Z</time></trkpt><trkpt lat="44.8607317" lon="9.507555"><ele>321.0</ele><time>2026-04-18T13:39:20.661Z</time></trkpt><trkpt lat="44.8608067" lon="9.5074633"><ele>321.0</ele><time>2026-04-18T13:39:22.661Z</time></trkpt><trkpt lat="44.8608617" lon="9.50736"><ele>321.0</ele><time>2026-04-18T13:39:24.661Z</time></trkpt><trkpt lat="44.86092" lon="9.50726"><ele>321.0</ele><time>2026-04-18T13:39:26.661Z</time></trkpt><trkpt lat="44.860975" lon="9.5071683"><ele>321.0</ele><time>2026-04-18T13:39:28.661Z</time></trkpt><trkpt lat="44.861035" lon="9.507075"><ele>321.0</ele><time>2026-04-18T13:39:30.661Z</time></trkpt><trkpt lat="44.861105" lon="9.50699"><ele>321.0</ele><time>2026-04-18T13:39:32.661Z</time></trkpt><trkpt lat="44.8611867" lon="9.5069333"><ele>321.0</ele><time>2026-04-18T13:39:34.661Z</time></trkpt><trkpt lat="44.86127" lon="9.5069083"><ele>321.0</ele><time>2026-04-18T13:39:36.661Z</time></trkpt><trkpt lat="44.86135" lon="9.5069117"><ele>321.0</ele><time>2026-04-18T13:39:38.661Z</time></trkpt><trkpt lat="44.8614317" lon="9.5069433"><ele>321.0</ele><time>2026-04-18T13:39:40.661Z</time></trkpt><trkpt lat="44.86151" lon="9.5069783"><ele>321.0</ele><time>2026-04-18T13:39:42.661Z</time></trkpt><trkpt lat="44.8615867" lon="9.50701"><ele>321.0</ele><time>2026-04-18T13:39:44.661Z</time></trkpt><trkpt lat="44.8616767" lon="9.5070233"><ele>321.0</ele><time>2026-04-18T13:39:46.661Z</time></trkpt><trkpt lat="44.86177" lon="9.5070383"><ele>321.0</ele><time>2026-04-18T13:39:48.661Z</time></trkpt><trkpt lat="44.861875" lon="9.507055"><ele>321.0</ele><time>2026-04-18T13:39:50.661Z</time></trkpt><trkpt lat="44.8619667" lon="9.50708"><ele>322.5</ele><time>2026-04-18T13:39:52.661Z</time></trkpt><trkpt lat="44.8620533" lon="9.5070983"><ele>324.0</ele><time>2026-04-18T13:39:54.661Z</time></trkpt><trkpt lat="44.8621383" lon="9.5070933"><ele>325.5</ele><time>2026-04-18T13:39:56.661Z</time></trkpt><trkpt lat="44.86222" lon="9.50707"><ele>327.0</ele><time>2026-04-18T13:39:58.661Z</time></trkpt><trkpt lat="44.8622883" lon="9.507025"><ele>328.5</ele><time>2026-04-18T13:40:00.662Z</time></trkpt><trkpt lat="44.8623567" lon="9.5069767"><ele>330.0</ele><time>2026-04-18T13:40:02.661Z</time></trkpt><trkpt lat="44.8624167" lon="9.5069233"><ele>330.0</ele><time>2026-04-18T13:40:04.661Z</time></trkpt><trkpt lat="44.862475" lon="9.5068533"><ele>330.0</ele><time>2026-04-18T13:40:06.661Z</time></trkpt><trkpt lat="44.8625183" lon="9.5067617"><ele>330.0</ele><time>2026-04-18T13:40:08.661Z</time></trkpt><trkpt lat="44.8625533" lon="9.506665"><ele>330.0</ele><time>2026-04-18T13:40:10.661Z</time></trkpt><trkpt lat="44.862585" lon="9.50657"><ele>330.0</ele><time>2026-04-18T13:40:12.661Z</time></trkpt><trkpt lat="44.86261" lon="9.5064767"><ele>330.0</ele><time>2026-04-18T13:40:14.662Z</time></trkpt><trkpt lat="44.8626467" lon="9.5063783"><ele>331.6666666666667</ele><time>2026-04-18T13:40:16.661Z</time></trkpt><trkpt lat="44.86267" lon="9.5062733"><ele>333.3333333333333</ele><time>2026-04-18T13:40:18.661Z</time></trkpt><trkpt lat="44.8626967" lon="9.5061783"><ele>335.0</ele><time>2026-04-18T13:40:20.661Z</time></trkpt><trkpt lat="44.86271" lon="9.506065"><ele>336.66666666666663</ele><time>2026-04-18T13:40:22.661Z</time></trkpt><trkpt lat="44.862715" lon="9.505955"><ele>338.3333333333333</ele><time>2026-04-18T13:40:24.661Z</time></trkpt><trkpt lat="44.8627067" lon="9.5058483"><ele>340.0</ele><time>2026-04-18T13:40:26.661Z</time></trkpt><trkpt lat="44.862715" lon="9.5057383"><ele>340.0</ele><time>2026-04-18T13:40:28.661Z</time></trkpt><trkpt lat="44.862735" lon="9.5056367"><ele>340.0</ele><time>2026-04-18T13:40:30.661Z</time></trkpt><trkpt lat="44.8627833" lon="9.5055533"><ele>340.0</ele><time>2026-04-18T13:40:32.661Z</time></trkpt><trkpt lat="44.86285" lon="9.5054833"><ele>340.0</ele><time>2026-04-18T13:40:34.662Z</time></trkpt><trkpt lat="44.862925" lon="9.505445"><ele>340.0</ele><time>2026-04-18T13:40:36.661Z</time></trkpt><trkpt lat="44.8630033" lon="9.50541"><ele>340.0</ele><time>2026-04-18T13:40:38.661Z</time></trkpt><trkpt lat="44.8630783" lon="9.5053833"><ele>339.16666666666663</ele><time>2026-04-18T13:40:40.661Z</time></trkpt><trkpt lat="44.8631583" lon="9.5053717"><ele>338.3333333333333</ele><time>2026-04-18T13:40:42.661Z</time></trkpt><trkpt lat="44.86323" lon="9.505355"><ele>337.5</ele><time>2026-04-18T13:40:44.661Z</time></trkpt><trkpt lat="44.8633083" lon="9.5053567"><ele>336.6666666666667</ele><time>2026-04-18T13:40:46.661Z</time></trkpt><trkpt lat="44.8633883" lon="9.5053583"><ele>335.83333333333337</ele><time>2026-04-18T13:40:48.661Z</time></trkpt><trkpt lat="44.8634633" lon="9.5053783"><ele>335.0</ele><time>2026-04-18T13:40:50.661Z</time></trkpt><trkpt lat="44.8635517" lon="9.5053917"><ele>335.0</ele><time>2026-04-18T13:40:52.661Z</time></trkpt><trkpt lat="44.8636283" lon="9.5054033"><ele>335.0</ele><time>2026-04-18T13:40:54.661Z</time></trkpt><trkpt lat="44.86371" lon="9.5053967"><ele>335.0</ele><time>2026-04-18T13:40:56.661Z</time></trkpt><trkpt lat="44.86379" lon="9.5053817"><ele>335.0</ele><time>2026-04-18T13:40:58.661Z</time></trkpt><trkpt lat="44.86388" lon="9.50537"><ele>335.0</ele><time>2026-04-18T13:41:00.661Z</time></trkpt><trkpt lat="44.8639683" lon="9.5053617"><ele>335.0</ele><time>2026-04-18T13:41:02.661Z</time></trkpt><trkpt lat="44.8640467" lon="9.5053533"><ele>335.0</ele><time>2026-04-18T13:41:04.661Z</time></trkpt><trkpt lat="44.864125" lon="9.50535"><ele>335.0</ele><time>2026-04-18T13:41:06.661Z</time></trkpt><trkpt lat="44.8642117" lon="9.505355"><ele>335.0</ele><time>2026-04-18T13:41:08.661Z</time></trkpt><trkpt lat="44.864295" lon="9.505355"><ele>335.0</ele><time>2026-04-18T13:41:10.661Z</time></trkpt><trkpt lat="44.86437" lon="9.50533"><ele>335.0</ele><time>2026-04-18T13:41:12.661Z</time></trkpt><trkpt lat="44.8644383" lon="9.5052717"><ele>335.0</ele><time>2026-04-18T13:41:14.661Z</time></trkpt><trkpt lat="44.864495" lon="9.5051983"><ele>337.33333333333337</ele><time>2026-04-18T13:41:16.661Z</time></trkpt><trkpt lat="44.86454" lon="9.505095"><ele>339.6666666666667</ele><time>2026-04-18T13:41:18.661Z</time></trkpt><trkpt lat="44.8645783" lon="9.505"><ele>342.0</ele><time>2026-04-18T13:41:20.661Z</time></trkpt><trkpt lat="44.8646183" lon="9.5048933"><ele>344.3333333333333</ele><time>2026-04-18T13:41:22.661Z</time></trkpt><trkpt lat="44.86464" lon="9.5047767"><ele>346.66666666666663</ele><time>2026-04-18T13:41:24.661Z</time></trkpt><trkpt lat="44.8646183" lon="9.5046717"><ele>349.0</ele><time>2026-04-18T13:41:26.661Z</time></trkpt><trkpt lat="44.8645533" lon="9.504565"><ele>349.3333333333333</ele><time>2026-04-18T13:41:28.661Z</time></trkpt><trkpt lat="44.8644667" lon="9.5044683"><ele>349.66666666666663</ele><time>2026-04-18T13:41:30.661Z</time></trkpt><trkpt lat="44.8643617" lon="9.5043617"><ele>350.0</ele><time>2026-04-18T13:41:32.661Z</time></trkpt><trkpt lat="44.8643083" lon="9.5043033"><ele>350.3333333333333</ele><time>2026-04-18T13:41:33.661Z</time></trkpt><trkpt lat="44.8642583" lon="9.5042383"><ele>350.6666666666667</ele><time>2026-04-18T13:41:34.661Z</time></trkpt><trkpt lat="44.86421" lon="9.50417"><ele>351.0</ele><time>2026-04-18T13:41:35.661Z</time></trkpt><trkpt lat="44.8641633" lon="9.5040967"><ele>349.5</ele><time>2026-04-18T13:41:36.661Z</time></trkpt><trkpt lat="44.86413" lon="9.50402"><ele>348.0</ele><time>2026-04-18T13:41:37.661Z</time></trkpt><trkpt lat="44.8641" lon="9.5039367"><ele>346.5</ele><time>2026-04-18T13:41:38.661Z</time></trkpt><trkpt lat="44.8640617" lon="9.5037867"><ele>345.0</ele><time>2026-04-18T13:41:40.661Z</time></trkpt><trkpt lat="44.864055" lon="9.5036617"><ele>343.5</ele><time>2026-04-18T13:41:42.661Z</time></trkpt><trkpt lat="44.8640617" lon="9.50356"><ele>342.0</ele><time>2026-04-18T13:41:44.661Z</time></trkpt><trkpt lat="44.8640733" lon="9.5034483"><ele>342.0</ele><time>2026-04-18T13:41:46.661Z</time></trkpt><trkpt lat="44.8641233" lon="9.5033617"><ele>342.0</ele><time>2026-04-18T13:41:48.661Z</time></trkpt><trkpt lat="44.8641817" lon="9.5032833"><ele>342.0</ele><time>2026-04-18T13:41:50.661Z</time></trkpt><trkpt lat="44.8642383" lon="9.5032083"><ele>342.0</ele><time>2026-04-18T13:41:52.661Z</time></trkpt><trkpt lat="44.8642917" lon="9.5031383"><ele>342.0</ele><time>2026-04-18T13:41:54.661Z</time></trkpt><trkpt lat="44.8643467" lon="9.50306"><ele>342.0</ele><time>2026-04-18T13:41:56.661Z</time></trkpt><trkpt lat="44.86439" lon="9.5029683"><ele>344.6666666666667</ele><time>2026-04-18T13:41:58.661Z</time></trkpt><trkpt lat="44.8644267" lon="9.5028733"><ele>347.3333333333333</ele><time>2026-04-18T13:42:00.661Z</time></trkpt><trkpt lat="44.8644583" lon="9.5027833"><ele>350.0</ele><time>2026-04-18T13:42:02.661Z</time></trkpt><trkpt lat="44.8644967" lon="9.5026783"><ele>352.66666666666663</ele><time>2026-04-18T13:42:04.661Z</time></trkpt><trkpt lat="44.8645267" lon="9.5025867"><ele>355.3333333333333</ele><time>2026-04-18T13:42:06.661Z</time></trkpt><trkpt lat="44.8645483" lon="9.5024867"><ele>358.0</ele><time>2026-04-18T13:42:08.661Z</time></trkpt><trkpt lat="44.864565" lon="9.502375"><ele>358.0</ele><time>2026-04-18T13:42:10.661Z</time></trkpt><trkpt lat="44.8645567" lon="9.5022467"><ele>358.0</ele><time>2026-04-18T13:42:12.661Z</time></trkpt><trkpt lat="44.8645433" lon="9.5021217"><ele>358.0</ele><time>2026-04-18T13:42:14.661Z</time></trkpt><trkpt lat="44.8645317" lon="9.5019983"><ele>358.0</ele><time>2026-04-18T13:42:16.661Z</time></trkpt><trkpt lat="44.86452" lon="9.5018783"><ele>358.0</ele><time>2026-04-18T13:42:18.662Z</time></trkpt><trkpt lat="44.864525" lon="9.5017683"><ele>358.0</ele><time>2026-04-18T13:42:20.661Z</time></trkpt><trkpt lat="44.86454" lon="9.5016683"><ele>357.3333333333333</ele><time>2026-04-18T13:42:22.661Z</time></trkpt><trkpt lat="44.8645683" lon="9.5015683"><ele>356.66666666666663</ele><time>2026-04-18T13:42:24.661Z</time></trkpt><trkpt lat="44.8646083" lon="9.5014667"><ele>356.0</ele><time>2026-04-18T13:42:26.661Z</time></trkpt><trkpt lat="44.86467" lon="9.5013783"><ele>355.3333333333333</ele><time>2026-04-18T13:42:28.661Z</time></trkpt><trkpt lat="44.864735" lon="9.501305"><ele>354.6666666666667</ele><time>2026-04-18T13:42:30.661Z</time></trkpt><trkpt lat="44.8648067" lon="9.50124"><ele>354.0</ele><time>2026-04-18T13:42:32.661Z</time></trkpt><trkpt lat="44.8648767" lon="9.50119"><ele>353.3333333333333</ele><time>2026-04-18T13:42:34.662Z</time></trkpt><trkpt lat="44.8649567" lon="9.5011583"><ele>352.6666666666667</ele><time>2026-04-18T13:42:36.661Z</time></trkpt><trkpt lat="44.865035" lon="9.5011217"><ele>352.0</ele><time>2026-04-18T13:42:38.662Z</time></trkpt><trkpt lat="44.8651117" lon="9.5010767"><ele>351.33333333333337</ele><time>2026-04-18T13:42:40.661Z</time></trkpt><trkpt lat="44.86518" lon="9.50102"><ele>350.6666666666667</ele><time>2026-04-18T13:42:42.661Z</time></trkpt><trkpt lat="44.865235" lon="9.5009517"><ele>350.0</ele><time>2026-04-18T13:42:44.661Z</time></trkpt><trkpt lat="44.8653" lon="9.5008817"><ele>352.0</ele><time>2026-04-18T13:42:46.661Z</time></trkpt><trkpt lat="44.8653617" lon="9.50081"><ele>354.0</ele><time>2026-04-18T13:42:48.661Z</time></trkpt><trkpt lat="44.86542" lon="9.5007467"><ele>356.0</ele><time>2026-04-18T13:42:50.661Z</time></trkpt><trkpt lat="44.8654883" lon="9.50068"><ele>358.0</ele><time>2026-04-18T13:42:52.661Z</time></trkpt><trkpt lat="44.8655583" lon="9.500615"><ele>360.0</ele><time>2026-04-18T13:42:54.661Z</time></trkpt><trkpt lat="44.8656283" lon="9.5005567"><ele>362.0</ele><time>2026-04-18T13:42:56.661Z</time></trkpt><trkpt lat="44.8657067" lon="9.5005067"><ele>362.0</ele><time>2026-04-18T13:42:58.661Z</time></trkpt><trkpt lat="44.8657867" lon="9.5004617"><ele>362.0</ele><time>2026-04-18T13:43:00.661Z</time></trkpt><trkpt lat="44.8658667" lon="9.5004167"><ele>362.0</ele><time>2026-04-18T13:43:02.661Z</time></trkpt><trkpt lat="44.8659333" lon="9.5003533"><ele>362.0</ele><time>2026-04-18T13:43:04.661Z</time></trkpt><trkpt lat="44.86599" lon="9.5002717"><ele>362.0</ele><time>2026-04-18T13:43:06.661Z</time></trkpt><trkpt lat="44.8660333" lon="9.50017"><ele>362.0</ele><time>2026-04-18T13:43:08.661Z</time></trkpt><trkpt lat="44.8660367" lon="9.50007"><ele>362.1666666666667</ele><time>2026-04-18T13:43:10.661Z</time></trkpt><trkpt lat="44.86601" lon="9.4999583"><ele>362.33333333333337</ele><time>2026-04-18T13:43:12.661Z</time></trkpt><trkpt lat="44.8659667" lon="9.49986"><ele>362.5</ele><time>2026-04-18T13:43:14.661Z</time></trkpt><trkpt lat="44.8659317" lon="9.499765"><ele>362.6666666666667</ele><time>2026-04-18T13:43:16.661Z</time></trkpt><trkpt lat="44.8659017" lon="9.4996717"><ele>362.8333333333333</ele><time>2026-04-18T13:43:18.661Z</time></trkpt><trkpt lat="44.8658617" lon="9.4995717"><ele>363.0</ele><time>2026-04-18T13:43:20.661Z</time></trkpt><trkpt lat="44.8658333" lon="9.4994633"><ele>363.0</ele><time>2026-04-18T13:43:22.661Z</time></trkpt><trkpt lat="44.8658033" lon="9.499365"><ele>363.0</ele><time>2026-04-18T13:43:24.661Z</time></trkpt><trkpt lat="44.8657817" lon="9.4992567"><ele>363.0</ele><time>2026-04-18T13:43:26.661Z</time></trkpt><trkpt lat="44.86577" lon="9.4991483"><ele>363.0</ele><time>2026-04-18T13:43:28.661Z</time></trkpt><trkpt lat="44.86577" lon="9.4990383"><ele>363.0</ele><time>2026-04-18T13:43:30.661Z</time></trkpt><trkpt lat="44.865775" lon="9.4989267"><ele>363.0</ele><time>2026-04-18T13:43:32.661Z</time></trkpt><trkpt lat="44.86578" lon="9.4988133"><ele>363.6666666666667</ele><time>2026-04-18T13:43:34.661Z</time></trkpt><trkpt lat="44.8657867" lon="9.4987083"><ele>364.3333333333333</ele><time>2026-04-18T13:43:36.661Z</time></trkpt><trkpt lat="44.8657983" lon="9.4985983"><ele>365.0</ele><time>2026-04-18T13:43:38.661Z</time></trkpt><trkpt lat="44.8658067" lon="9.4984883"><ele>365.66666666666663</ele><time>2026-04-18T13:43:40.661Z</time></trkpt><trkpt lat="44.8658233" lon="9.4983783"><ele>366.3333333333333</ele><time>2026-04-18T13:43:42.661Z</time></trkpt><trkpt lat="44.8658333" lon="9.4982683"><ele>367.0</ele><time>2026-04-18T13:43:44.661Z</time></trkpt><trkpt lat="44.86586" lon="9.4981667"><ele>367.0</ele><time>2026-04-18T13:43:46.661Z</time></trkpt><trkpt lat="44.8658983" lon="9.4980833"><ele>367.0</ele><time>2026-04-18T13:43:48.662Z</time></trkpt><trkpt lat="44.8659583" lon="9.4980083"><ele>367.0</ele><time>2026-04-18T13:43:50.661Z</time></trkpt><trkpt lat="44.8660183" lon="9.4979367"><ele>367.0</ele><time>2026-04-18T13:43:52.661Z</time></trkpt><trkpt lat="44.8660833" lon="9.4978633"><ele>367.0</ele><time>2026-04-18T13:43:54.661Z</time></trkpt><trkpt lat="44.86615" lon="9.4977883"><ele>367.0</ele><time>2026-04-18T13:43:56.661Z</time></trkpt><trkpt lat="44.8662083" lon="9.4977133"><ele>368.3333333333333</ele><time>2026-04-18T13:43:58.661Z</time></trkpt><trkpt lat="44.8662667" lon="9.4976333"><ele>369.66666666666663</ele><time>2026-04-18T13:44:00.661Z</time></trkpt><trkpt lat="44.8663217" lon="9.497565"><ele>371.0</ele><time>2026-04-18T13:44:02.661Z</time></trkpt><trkpt lat="44.8663767" lon="9.4974917"><ele>372.3333333333333</ele><time>2026-04-18T13:44:04.661Z</time></trkpt><trkpt lat="44.8664317" lon="9.4974133"><ele>373.6666666666667</ele><time>2026-04-18T13:44:06.661Z</time></trkpt><trkpt lat="44.8664983" lon="9.4973533"><ele>375.0</ele><time>2026-04-18T13:44:08.661Z</time></trkpt><trkpt lat="44.86657" lon="9.4973017"><ele>375.0</ele><time>2026-04-18T13:44:10.661Z</time></trkpt><trkpt lat="44.8666467" lon="9.49727"><ele>375.0</ele><time>2026-04-18T13:44:12.661Z</time></trkpt><trkpt lat="44.866725" lon="9.497245"><ele>375.0</ele><time>2026-04-18T13:44:14.661Z</time></trkpt><trkpt lat="44.8668033" lon="9.4972267"><ele>375.0</ele><time>2026-04-18T13:44:16.661Z</time></trkpt><trkpt lat="44.86688" lon="9.4972"><ele>375.0</ele><time>2026-04-18T13:44:18.661Z</time></trkpt><trkpt lat="44.8669483" lon="9.49718"><ele>375.0</ele><time>2026-04-18T13:44:20.661Z</time></trkpt><trkpt lat="44.867035" lon="9.4971633"><ele>376.0</ele><time>2026-04-18T13:44:23.661Z</time></trkpt><trkpt lat="44.8671067" lon="9.4971417"><ele>377.0</ele><time>2026-04-18T13:44:25.661Z</time></trkpt><trkpt lat="44.8671783" lon="9.4971083"><ele>378.0</ele><time>2026-04-18T13:44:27.661Z</time></trkpt><trkpt lat="44.8672517" lon="9.497085"><ele>379.0</ele><time>2026-04-18T13:44:29.661Z</time></trkpt><trkpt lat="44.8673283" lon="9.497055"><ele>380.0</ele><time>2026-04-18T13:44:31.661Z</time></trkpt><trkpt lat="44.86741" lon="9.4970083"><ele>381.0</ele><time>2026-04-18T13:44:33.661Z</time></trkpt><trkpt lat="44.8674817" lon="9.4969533"><ele>381.0</ele><time>2026-04-18T13:44:35.661Z</time></trkpt><trkpt lat="44.8675533" lon="9.4968983"><ele>381.0</ele><time>2026-04-18T13:44:37.661Z</time></trkpt><trkpt lat="44.8676167" lon="9.4968383"><ele>381.0</ele><time>2026-04-18T13:44:39.661Z</time></trkpt><trkpt lat="44.8676767" lon="9.49677"><ele>381.0</ele><time>2026-04-18T13:44:41.661Z</time></trkpt><trkpt lat="44.8677417" lon="9.4967033"><ele>381.0</ele><time>2026-04-18T13:44:43.661Z</time></trkpt><trkpt lat="44.8678033" lon="9.4966433"><ele>381.0</ele><time>2026-04-18T13:44:45.661Z</time></trkpt><trkpt lat="44.8678767" lon="9.4965783"><ele>382.1666666666667</ele><time>2026-04-18T13:44:47.661Z</time></trkpt><trkpt lat="44.86795" lon="9.4965233"><ele>383.33333333333337</ele><time>2026-04-18T13:44:49.661Z</time></trkpt><trkpt lat="44.8680217" lon="9.496475"><ele>384.5</ele><time>2026-04-18T13:44:51.661Z</time></trkpt><trkpt lat="44.8680983" lon="9.496435"><ele>385.6666666666667</ele><time>2026-04-18T13:44:53.661Z</time></trkpt><trkpt lat="44.8681717" lon="9.4963983"><ele>386.83333333333337</ele><time>2026-04-18T13:44:55.661Z</time></trkpt><trkpt lat="44.86824" lon="9.49636"><ele>388.0</ele><time>2026-04-18T13:44:57.661Z</time></trkpt><trkpt lat="44.868305" lon="9.49632"><ele>388.6666666666667</ele><time>2026-04-18T13:44:59.661Z</time></trkpt><trkpt lat="44.8683617" lon="9.4962517"><ele>389.33333333333337</ele><time>2026-04-18T13:45:01.661Z</time></trkpt><trkpt lat="44.8684133" lon="9.4961667"><ele>390.0</ele><time>2026-04-18T13:45:03.661Z</time></trkpt><trkpt lat="44.8684467" lon="9.4960683"><ele>390.66666666666663</ele><time>2026-04-18T13:45:05.662Z</time></trkpt><trkpt lat="44.8684783" lon="9.495965"><ele>391.3333333333333</ele><time>2026-04-18T13:45:07.661Z</time></trkpt><trkpt lat="44.8685117" lon="9.495865"><ele>392.0</ele><time>2026-04-18T13:45:09.661Z</time></trkpt><trkpt lat="44.8685467" lon="9.4957733"><ele>391.99999999999994</ele><time>2026-04-18T13:45:11.661Z</time></trkpt><trkpt lat="44.8685817" lon="9.4956717"><ele>392.0</ele><time>2026-04-18T13:45:13.661Z</time></trkpt><trkpt lat="44.8686217" lon="9.4955717"><ele>392.0</ele><time>2026-04-18T13:45:15.661Z</time></trkpt><trkpt lat="44.8686867" lon="9.4954883"><ele>392.0</ele><time>2026-04-18T13:45:17.661Z</time></trkpt><trkpt lat="44.8687717" lon="9.4954233"><ele>391.99999999999994</ele><time>2026-04-18T13:45:19.661Z</time></trkpt><trkpt lat="44.86886" lon="9.4953833"><ele>392.0</ele><time>2026-04-18T13:45:21.661Z</time></trkpt><trkpt lat="44.868945" lon="9.4953733"><ele>391.0</ele><time>2026-04-18T13:45:23.661Z</time></trkpt><trkpt lat="44.8690233" lon="9.4953733"><ele>390.0</ele><time>2026-04-18T13:45:25.661Z</time></trkpt><trkpt lat="44.8691017" lon="9.49537"><ele>389.0</ele><time>2026-04-18T13:45:27.661Z</time></trkpt><trkpt lat="44.8691967" lon="9.49531"><ele>388.0</ele><time>2026-04-18T13:45:29.661Z</time></trkpt><trkpt lat="44.8692933" lon="9.495245"><ele>387.0</ele><time>2026-04-18T13:45:31.661Z</time></trkpt><trkpt lat="44.869365" lon="9.4951367"><ele>387.0</ele><time>2026-04-18T13:45:33.661Z</time></trkpt><trkpt lat="44.869415" lon="9.495025"><ele>387.0</ele><time>2026-04-18T13:45:35.661Z</time></trkpt><trkpt lat="44.8694333" lon="9.4949233"><ele>387.0</ele><time>2026-04-18T13:45:37.661Z</time></trkpt><trkpt lat="44.86941" lon="9.4948267"><ele>387.0</ele><time>2026-04-18T13:45:39.661Z</time></trkpt><trkpt lat="44.8693617" lon="9.494755"><ele>387.0</ele><time>2026-04-18T13:45:41.661Z</time></trkpt><trkpt lat="44.8693067" lon="9.4946883"><ele>387.0</ele><time>2026-04-18T13:45:43.661Z</time></trkpt><trkpt lat="44.8692533" lon="9.49462"><ele>387.0</ele><time>2026-04-18T13:45:45.661Z</time></trkpt><trkpt lat="44.8691983" lon="9.494545"><ele>387.0</ele><time>2026-04-18T13:45:47.661Z</time></trkpt><trkpt lat="44.8691567" lon="9.4944383"><ele>387.0</ele><time>2026-04-18T13:45:49.661Z</time></trkpt><trkpt lat="44.8691383" lon="9.4943217"><ele>387.0</ele><time>2026-04-18T13:45:51.661Z</time></trkpt><trkpt lat="44.8691383" lon="9.4942117"><ele>387.0</ele><time>2026-04-18T13:45:53.661Z</time></trkpt><trkpt lat="44.8691533" lon="9.494105"><ele>387.0</ele><time>2026-04-18T13:45:55.661Z</time></trkpt><trkpt lat="44.869155" lon="9.4939767"><ele>387.0</ele><time>2026-04-18T13:45:57.661Z</time></trkpt><trkpt lat="44.86912" lon="9.4938517"><ele>387.0</ele><time>2026-04-18T13:45:59.661Z</time></trkpt><trkpt lat="44.8690833" lon="9.4937333"><ele>387.0</ele><time>2026-04-18T13:46:01.661Z</time></trkpt><trkpt lat="44.8690383" lon="9.4936283"><ele>387.0</ele><time>2026-04-18T13:46:03.661Z</time></trkpt><trkpt lat="44.869005" lon="9.49351"><ele>387.0</ele><time>2026-04-18T13:46:05.662Z</time></trkpt><trkpt lat="44.8690167" lon="9.4933883"><ele>388.40000000000003</ele><time>2026-04-18T13:46:07.661Z</time></trkpt><trkpt lat="44.8690417" lon="9.4932583"><ele>389.8</ele><time>2026-04-18T13:46:09.661Z</time></trkpt><trkpt lat="44.869065" lon="9.4931283"><ele>391.2</ele><time>2026-04-18T13:46:11.661Z</time></trkpt><trkpt lat="44.86908" lon="9.4929917"><ele>392.6</ele><time>2026-04-18T13:46:13.661Z</time></trkpt><trkpt lat="44.8690883" lon="9.4928567"><ele>394.0</ele><time>2026-04-18T13:46:15.661Z</time></trkpt><trkpt lat="44.8690833" lon="9.492725"><ele>395.0</ele><time>2026-04-18T13:46:17.661Z</time></trkpt><trkpt lat="44.869075" lon="9.492595"><ele>396.0</ele><time>2026-04-18T13:46:19.661Z</time></trkpt><trkpt lat="44.8690833" lon="9.4924633"><ele>397.0</ele><time>2026-04-18T13:46:21.661Z</time></trkpt><trkpt lat="44.8691117" lon="9.4923283"><ele>398.0</ele><time>2026-04-18T13:46:23.661Z</time></trkpt><trkpt lat="44.8691383" lon="9.492205"><ele>399.0</ele><time>2026-04-18T13:46:25.661Z</time></trkpt><trkpt lat="44.869175" lon="9.492085"><ele>399.8333333333333</ele><time>2026-04-18T13:46:27.661Z</time></trkpt><trkpt lat="44.8692017" lon="9.4919667"><ele>400.66666666666663</ele><time>2026-04-18T13:46:29.661Z</time></trkpt><trkpt lat="44.8692267" lon="9.4918467"><ele>401.5</ele><time>2026-04-18T13:46:31.661Z</time></trkpt><trkpt lat="44.8692483" lon="9.4917367"><ele>402.3333333333333</ele><time>2026-04-18T13:46:33.661Z</time></trkpt><trkpt lat="44.8692617" lon="9.4916267"><ele>403.16666666666663</ele><time>2026-04-18T13:46:35.661Z</time></trkpt><trkpt lat="44.869275" lon="9.4915117"><ele>404.0</ele><time>2026-04-18T13:46:37.661Z</time></trkpt><trkpt lat="44.8692783" lon="9.4913917"><ele>404.66666666666663</ele><time>2026-04-18T13:46:39.661Z</time></trkpt><trkpt lat="44.8692767" lon="9.49128"><ele>405.3333333333333</ele><time>2026-04-18T13:46:41.661Z</time></trkpt><trkpt lat="44.8692717" lon="9.4911667"><ele>406.0</ele><time>2026-04-18T13:46:43.661Z</time></trkpt><trkpt lat="44.869265" lon="9.4910567"><ele>406.66666666666663</ele><time>2026-04-18T13:46:45.661Z</time></trkpt><trkpt lat="44.8692567" lon="9.4909433"><ele>407.3333333333333</ele><time>2026-04-18T13:46:47.661Z</time></trkpt><trkpt lat="44.86925" lon="9.4908317"><ele>408.0</ele><time>2026-04-18T13:46:49.661Z</time></trkpt><trkpt lat="44.869235" lon="9.4907333"><ele>408.0</ele><time>2026-04-18T13:46:51.661Z</time></trkpt><trkpt lat="44.8691967" lon="9.4906267"><ele>408.0</ele><time>2026-04-18T13:46:53.661Z</time></trkpt><trkpt lat="44.869145" lon="9.4905383"><ele>408.0</ele><time>2026-04-18T13:46:55.661Z</time></trkpt><trkpt lat="44.869075" lon="9.490455"><ele>408.0</ele><time>2026-04-18T13:46:57.661Z</time></trkpt><trkpt lat="44.8690033" lon="9.4903833"><ele>408.0</ele><time>2026-04-18T13:46:59.661Z</time></trkpt><trkpt lat="44.8689383" lon="9.490315"><ele>408.0</ele><time>2026-04-18T13:47:01.661Z</time></trkpt><trkpt lat="44.8688783" lon="9.4902433"><ele>409.1666666666667</ele><time>2026-04-18T13:47:03.661Z</time></trkpt><trkpt lat="44.8688217" lon="9.4901717"><ele>410.33333333333337</ele><time>2026-04-18T13:47:05.661Z</time></trkpt><trkpt lat="44.8687567" lon="9.49011"><ele>411.5</ele><time>2026-04-18T13:47:07.662Z</time></trkpt><trkpt lat="44.8686933" lon="9.4900483"><ele>412.6666666666667</ele><time>2026-04-18T13:47:09.661Z</time></trkpt><trkpt lat="44.8686267" lon="9.4899817"><ele>413.83333333333337</ele><time>2026-04-18T13:47:11.661Z</time></trkpt><trkpt lat="44.868565" lon="9.48991"><ele>415.0</ele><time>2026-04-18T13:47:13.661Z</time></trkpt><trkpt lat="44.8685217" lon="9.4898067"><ele>415.00000000000006</ele><time>2026-04-18T13:47:15.661Z</time></trkpt><trkpt lat="44.8684983" lon="9.4896983"><ele>415.0</ele><time>2026-04-18T13:47:17.662Z</time></trkpt><trkpt lat="44.8684767" lon="9.4895833"><ele>415.0</ele><time>2026-04-18T13:47:19.661Z</time></trkpt><trkpt lat="44.8684633" lon="9.4894817"><ele>415.0</ele><time>2026-04-18T13:47:21.661Z</time></trkpt><trkpt lat="44.8684667" lon="9.4893767"><ele>415.00000000000006</ele><time>2026-04-18T13:47:23.661Z</time></trkpt><trkpt lat="44.8684667" lon="9.48926"><ele>415.0</ele><time>2026-04-18T13:47:25.661Z</time></trkpt><trkpt lat="44.8684767" lon="9.4891517"><ele>415.6666666666667</ele><time>2026-04-18T13:47:27.661Z</time></trkpt><trkpt lat="44.8684767" lon="9.48904"><ele>416.33333333333337</ele><time>2026-04-18T13:47:29.661Z</time></trkpt><trkpt lat="44.86847" lon="9.4889233"><ele>417.0</ele><time>2026-04-18T13:47:31.661Z</time></trkpt><trkpt lat="44.8684583" lon="9.48881"><ele>417.66666666666663</ele><time>2026-04-18T13:47:33.661Z</time></trkpt><trkpt lat="44.86845" lon="9.488695"><ele>418.3333333333333</ele><time>2026-04-18T13:47:35.661Z</time></trkpt><trkpt lat="44.868445" lon="9.4885733"><ele>419.0</ele><time>2026-04-18T13:47:37.661Z</time></trkpt><trkpt lat="44.8684417" lon="9.4884617"><ele>419.8333333333333</ele><time>2026-04-18T13:47:39.661Z</time></trkpt><trkpt lat="44.8684433" lon="9.48835"><ele>420.66666666666663</ele><time>2026-04-18T13:47:41.661Z</time></trkpt><trkpt lat="44.8684467" lon="9.4882283"><ele>421.5</ele><time>2026-04-18T13:47:43.661Z</time></trkpt><trkpt lat="44.8684633" lon="9.4881183"><ele>422.33333333333337</ele><time>2026-04-18T13:47:45.661Z</time></trkpt><trkpt lat="44.8684867" lon="9.4880083"><ele>423.1666666666667</ele><time>2026-04-18T13:47:47.661Z</time></trkpt><trkpt lat="44.8685033" lon="9.4878917"><ele>424.0</ele><time>2026-04-18T13:47:49.661Z</time></trkpt><trkpt lat="44.8685233" lon="9.487785"><ele>424.6666666666667</ele><time>2026-04-18T13:47:51.661Z</time></trkpt><trkpt lat="44.8685417" lon="9.4876783"><ele>425.33333333333337</ele><time>2026-04-18T13:47:53.661Z</time></trkpt><trkpt lat="44.868565" lon="9.487575"><ele>426.0</ele><time>2026-04-18T13:47:55.661Z</time></trkpt><trkpt lat="44.86858" lon="9.4874717"><ele>426.66666666666663</ele><time>2026-04-18T13:47:57.661Z</time></trkpt><trkpt lat="44.8686017" lon="9.4873633"><ele>427.3333333333333</ele><time>2026-04-18T13:47:59.661Z</time></trkpt><trkpt lat="44.8686233" lon="9.4872633"><ele>428.0</ele><time>2026-04-18T13:48:01.661Z</time></trkpt><trkpt lat="44.8686467" lon="9.487165"><ele>428.66666666666663</ele><time>2026-04-18T13:48:03.662Z</time></trkpt><trkpt lat="44.86869" lon="9.4870817"><ele>429.3333333333333</ele><time>2026-04-18T13:48:05.661Z</time></trkpt><trkpt lat="44.868735" lon="9.486995"><ele>430.0</ele><time>2026-04-18T13:48:07.661Z</time></trkpt><trkpt lat="44.868785" lon="9.486915"><ele>430.66666666666663</ele><time>2026-04-18T13:48:09.661Z</time></trkpt><trkpt lat="44.8688433" lon="9.4868517"><ele>431.3333333333333</ele><time>2026-04-18T13:48:11.661Z</time></trkpt><trkpt lat="44.8689133" lon="9.4867883"><ele>432.0</ele><time>2026-04-18T13:48:13.662Z</time></trkpt><trkpt lat="44.86897" lon="9.4867183"><ele>432.0</ele><time>2026-04-18T13:48:15.661Z</time></trkpt><trkpt lat="44.8690283" lon="9.4866317"><ele>432.0</ele><time>2026-04-18T13:48:17.661Z</time></trkpt><trkpt lat="44.8690767" lon="9.4865367"><ele>432.0</ele><time>2026-04-18T13:48:19.661Z</time></trkpt><trkpt lat="44.8691233" lon="9.4864467"><ele>432.0</ele><time>2026-04-18T13:48:21.661Z</time></trkpt><trkpt lat="44.8691633" lon="9.486355"><ele>432.0</ele><time>2026-04-18T13:48:23.661Z</time></trkpt><trkpt lat="44.8692" lon="9.4862617"><ele>432.0</ele><time>2026-04-18T13:48:25.661Z</time></trkpt><trkpt lat="44.8692383" lon="9.48616"><ele>434.0</ele><time>2026-04-18T13:48:27.661Z</time></trkpt><trkpt lat="44.8692783" lon="9.4860767"><ele>436.0</ele><time>2026-04-18T13:48:29.661Z</time></trkpt><trkpt lat="44.86933" lon="9.486005"><ele>438.0</ele><time>2026-04-18T13:48:31.661Z</time></trkpt><trkpt lat="44.8693867" lon="9.4859333"><ele>440.0</ele><time>2026-04-18T13:48:33.661Z</time></trkpt><trkpt lat="44.8694433" lon="9.4858433"><ele>442.0</ele><time>2026-04-18T13:48:35.661Z</time></trkpt><trkpt lat="44.8694733" lon="9.4857417"><ele>444.0</ele><time>2026-04-18T13:48:37.661Z</time></trkpt><trkpt lat="44.86948" lon="9.4856233"><ele>444.0</ele><time>2026-04-18T13:48:39.661Z</time></trkpt><trkpt lat="44.8694767" lon="9.4854917"><ele>444.0</ele><time>2026-04-18T13:48:41.661Z</time></trkpt><trkpt lat="44.8694667" lon="9.4853567"><ele>444.0</ele><time>2026-04-18T13:48:43.661Z</time></trkpt><trkpt lat="44.8694567" lon="9.4852233"><ele>444.0</ele><time>2026-04-18T13:48:45.661Z</time></trkpt><trkpt lat="44.86946" lon="9.4850967"><ele>444.0</ele><time>2026-04-18T13:48:47.661Z</time></trkpt><trkpt lat="44.8694667" lon="9.4849617"><ele>444.0</ele><time>2026-04-18T13:48:49.661Z</time></trkpt><trkpt lat="44.8694383" lon="9.4848217"><ele>444.0</ele><time>2026-04-18T13:48:51.661Z</time></trkpt><trkpt lat="44.8693967" lon="9.484755"><ele>444.0</ele><time>2026-04-18T13:48:52.661Z</time></trkpt><trkpt lat="44.8693433" lon="9.4847"><ele>444.0</ele><time>2026-04-18T13:48:53.661Z</time></trkpt><trkpt lat="44.8692817" lon="9.484655"><ele>444.0</ele><time>2026-04-18T13:48:54.661Z</time></trkpt><trkpt lat="44.8692183" lon="9.4846133"><ele>444.0</ele><time>2026-04-18T13:48:55.661Z</time></trkpt><trkpt lat="44.8691583" lon="9.4845583"><ele>444.0</ele><time>2026-04-18T13:48:56.661Z</time></trkpt><trkpt lat="44.8691017" lon="9.4844933"><ele>442.7142857142857</ele><time>2026-04-18T13:48:57.661Z</time></trkpt><trkpt lat="44.8690467" lon="9.4844183"><ele>441.42857142857144</ele><time>2026-04-18T13:48:58.661Z</time></trkpt><trkpt lat="44.8689917" lon="9.4843433"><ele>440.14285714285717</ele><time>2026-04-18T13:48:59.661Z</time></trkpt><trkpt lat="44.8689333" lon="9.484275"><ele>438.8571428571429</ele><time>2026-04-18T13:49:00.661Z</time></trkpt><trkpt lat="44.8688783" lon="9.48421"><ele>437.57142857142856</ele><time>2026-04-18T13:49:01.661Z</time></trkpt><trkpt lat="44.8688267" lon="9.4841517"><ele>436.28571428571433</ele><time>2026-04-18T13:49:02.661Z</time></trkpt><trkpt lat="44.868775" lon="9.4840883"><ele>435.0</ele><time>2026-04-18T13:49:03.661Z</time></trkpt><trkpt lat="44.8687283" lon="9.4840167"><ele>435.0</ele><time>2026-04-18T13:49:04.661Z</time></trkpt><trkpt lat="44.8686783" lon="9.4839433"><ele>435.0</ele><time>2026-04-18T13:49:05.662Z</time></trkpt><trkpt lat="44.8686267" lon="9.4838717"><ele>435.0</ele><time>2026-04-18T13:49:06.661Z</time></trkpt><trkpt lat="44.86857" lon="9.4837967"><ele>435.0</ele><time>2026-04-18T13:49:07.661Z</time></trkpt><trkpt lat="44.86851" lon="9.4837167"><ele>435.0</ele><time>2026-04-18T13:49:08.661Z</time></trkpt><trkpt lat="44.8684483" lon="9.4836367"><ele>435.0</ele><time>2026-04-18T13:49:09.661Z</time></trkpt><trkpt lat="44.8683983" lon="9.48355"><ele>434.0</ele><time>2026-04-18T13:49:10.661Z</time></trkpt><trkpt lat="44.86835" lon="9.4834567"><ele>433.0</ele><time>2026-04-18T13:49:11.661Z</time></trkpt><trkpt lat="44.86831" lon="9.483355"><ele>432.0</ele><time>2026-04-18T13:49:12.661Z</time></trkpt><trkpt lat="44.8682667" lon="9.4832567"><ele>431.0</ele><time>2026-04-18T13:49:13.661Z</time></trkpt><trkpt lat="44.8682233" lon="9.4831633"><ele>430.0</ele><time>2026-04-18T13:49:14.661Z</time></trkpt><trkpt lat="44.8681733" lon="9.4830667"><ele>429.0</ele><time>2026-04-18T13:49:15.661Z</time></trkpt><trkpt lat="44.8681217" lon="9.4829783"><ele>429.8333333333333</ele><time>2026-04-18T13:49:16.661Z</time></trkpt><trkpt lat="44.8680717" lon="9.4828867"><ele>430.66666666666663</ele><time>2026-04-18T13:49:17.661Z</time></trkpt><trkpt lat="44.8680317" lon="9.4827917"><ele>431.5</ele><time>2026-04-18T13:49:18.661Z</time></trkpt><trkpt lat="44.8679833" lon="9.4826933"><ele>432.3333333333333</ele><time>2026-04-18T13:49:19.661Z</time></trkpt><trkpt lat="44.8679383" lon="9.4826017"><ele>433.16666666666663</ele><time>2026-04-18T13:49:20.661Z</time></trkpt><trkpt lat="44.867905" lon="9.482505"><ele>434.0</ele><time>2026-04-18T13:49:21.661Z</time></trkpt><trkpt lat="44.867875" lon="9.4824183"><ele>434.0</ele><time>2026-04-18T13:49:22.662Z</time></trkpt><trkpt lat="44.8678467" lon="9.4822817"><ele>434.0</ele><time>2026-04-18T13:49:24.661Z</time></trkpt><trkpt lat="44.867835" lon="9.4821633"><ele>434.0</ele><time>2026-04-18T13:49:26.661Z</time></trkpt><trkpt lat="44.8678317" lon="9.4820633"><ele>434.0</ele><time>2026-04-18T13:49:28.661Z</time></trkpt><trkpt lat="44.8678267" lon="9.4819733"><ele>434.0</ele><time>2026-04-18T13:49:30.661Z</time></trkpt><trkpt lat="44.8678017" lon="9.4818883"><ele>434.0</ele><time>2026-04-18T13:49:32.661Z</time></trkpt><trkpt lat="44.8677617" lon="9.4818183"><ele>434.0</ele><time>2026-04-18T13:49:34.661Z</time></trkpt><trkpt lat="44.8677167" lon="9.48175"><ele>434.3333333333333</ele><time>2026-04-18T13:49:36.661Z</time></trkpt><trkpt lat="44.86765" lon="9.4816583"><ele>434.66666666666663</ele><time>2026-04-18T13:49:39.661Z</time></trkpt><trkpt lat="44.867595" lon="9.4815917"><ele>435.0</ele><time>2026-04-18T13:49:41.661Z</time></trkpt><trkpt lat="44.8675333" lon="9.481525"><ele>435.33333333333337</ele><time>2026-04-18T13:49:43.661Z</time></trkpt><trkpt lat="44.8674767" lon="9.4814667"><ele>435.6666666666667</ele><time>2026-04-18T13:49:45.661Z</time></trkpt><trkpt lat="44.8674133" lon="9.4814133"><ele>436.0</ele><time>2026-04-18T13:49:47.661Z</time></trkpt><trkpt lat="44.8673517" lon="9.48135"><ele>436.00000000000006</ele><time>2026-04-18T13:49:49.662Z</time></trkpt><trkpt lat="44.8672917" lon="9.4812833"><ele>436.0</ele><time>2026-04-18T13:49:51.661Z</time></trkpt><trkpt lat="44.8672317" lon="9.4812217"><ele>436.0</ele><time>2026-04-18T13:49:53.661Z</time></trkpt><trkpt lat="44.867175" lon="9.481165"><ele>436.0</ele><time>2026-04-18T13:49:55.661Z</time></trkpt><trkpt lat="44.867125" lon="9.4810767"><ele>436.00000000000006</ele><time>2026-04-18T13:49:58.661Z</time></trkpt><trkpt lat="44.86713" lon="9.4809767"><ele>436.0</ele><time>2026-04-18T13:50:01.661Z</time></trkpt><trkpt lat="44.8670983" lon="9.4808667"><ele>437.33333333333337</ele><time>2026-04-18T13:50:05.662Z</time></trkpt><trkpt lat="44.867085" lon="9.48075"><ele>438.6666666666667</ele><time>2026-04-18T13:50:08.662Z</time></trkpt><trkpt lat="44.8670733" lon="9.4806433"><ele>440.0</ele><time>2026-04-18T13:50:11.661Z</time></trkpt><trkpt lat="44.8670583" lon="9.4805367"><ele>441.33333333333337</ele><time>2026-04-18T13:50:14.661Z</time></trkpt><trkpt lat="44.8669983" lon="9.4805867"><ele>442.6666666666667</ele><time>2026-04-18T13:50:30.662Z</time></trkpt><trkpt lat="44.8670317" lon="9.4807"><ele>444.0</ele><time>2026-04-18T13:53:28.662Z</time></trkpt><trkpt lat="44.8670583" lon="9.4808083"><ele>444.0</ele><time>2026-04-18T13:53:32.662Z</time></trkpt><trkpt lat="44.866995" lon="9.4807967"><ele>444.0</ele><time>2026-04-18T13:53:35.662Z</time></trkpt><trkpt lat="44.8669483" lon="9.4806767"><ele>444.0</ele><time>2026-04-18T13:53:37.662Z</time></trkpt><trkpt lat="44.8669017" lon="9.4805283"><ele>444.0</ele><time>2026-04-18T13:53:39.662Z</time></trkpt><trkpt lat="44.8668833" lon="9.4804417"><ele>444.0</ele><time>2026-04-18T13:53:40.662Z</time></trkpt><trkpt lat="44.8668683" lon="9.4803517"><ele>444.0</ele><time>2026-04-18T13:53:41.662Z</time></trkpt><trkpt lat="44.8668667" lon="9.4802517"><ele>444.3333333333333</ele><time>2026-04-18T13:53:42.662Z</time></trkpt><trkpt lat="44.8668633" lon="9.4801433"><ele>444.66666666666663</ele><time>2026-04-18T13:53:43.662Z</time></trkpt><trkpt lat="44.8668733" lon="9.48003"><ele>445.0</ele><time>2026-04-18T13:53:44.662Z</time></trkpt><trkpt lat="44.866885" lon="9.4799017"><ele>445.3333333333333</ele><time>2026-04-18T13:53:45.662Z</time></trkpt><trkpt lat="44.8668883" lon="9.4797683"><ele>445.66666666666663</ele><time>2026-04-18T13:53:46.662Z</time></trkpt><trkpt lat="44.8669" lon="9.479635"><ele>446.0</ele><time>2026-04-18T13:53:47.662Z</time></trkpt><trkpt lat="44.86691" lon="9.479495"><ele>445.0</ele><time>2026-04-18T13:53:48.662Z</time></trkpt><trkpt lat="44.866935" lon="9.479355"><ele>444.0</ele><time>2026-04-18T13:53:49.662Z</time></trkpt><trkpt lat="44.8669667" lon="9.4792167"><ele>443.0</ele><time>2026-04-18T13:53:50.662Z</time></trkpt><trkpt lat="44.8670033" lon="9.479075"><ele>442.0</ele><time>2026-04-18T13:53:51.662Z</time></trkpt><trkpt lat="44.8670417" lon="9.47894"><ele>441.0</ele><time>2026-04-18T13:53:52.662Z</time></trkpt><trkpt lat="44.867065" lon="9.47881"><ele>440.8333333333333</ele><time>2026-04-18T13:53:53.662Z</time></trkpt><trkpt lat="44.8670633" lon="9.4786817"><ele>440.66666666666663</ele><time>2026-04-18T13:53:54.662Z</time></trkpt><trkpt lat="44.86704" lon="9.4785583"><ele>440.5</ele><time>2026-04-18T13:53:55.662Z</time></trkpt><trkpt lat="44.8669933" lon="9.47845"><ele>440.3333333333333</ele><time>2026-04-18T13:53:56.662Z</time></trkpt><trkpt lat="44.86694" lon="9.4783567"><ele>440.16666666666663</ele><time>2026-04-18T13:53:57.662Z</time></trkpt><trkpt lat="44.8668867" lon="9.4782667"><ele>440.0</ele><time>2026-04-18T13:53:58.662Z</time></trkpt><trkpt lat="44.866835" lon="9.4781817"><ele>439.99999999999994</ele><time>2026-04-18T13:53:59.662Z</time></trkpt><trkpt lat="44.8667967" lon="9.4781"><ele>440.0</ele><time>2026-04-18T13:54:00.662Z</time></trkpt><trkpt lat="44.8667533" lon="9.4780233"><ele>440.0</ele><time>2026-04-18T13:54:01.662Z</time></trkpt><trkpt lat="44.8666783" lon="9.4778967"><ele>440.0</ele><time>2026-04-18T13:54:03.662Z</time></trkpt><trkpt lat="44.8666" lon="9.477815"><ele>439.99999999999994</ele><time>2026-04-18T13:54:05.662Z</time></trkpt><trkpt lat="44.8665333" lon="9.4777467"><ele>440.0</ele><time>2026-04-18T13:54:07.662Z</time></trkpt><trkpt lat="44.8664667" lon="9.4776883"><ele>439.3333333333333</ele><time>2026-04-18T13:54:09.662Z</time></trkpt><trkpt lat="44.866395" lon="9.47762"><ele>438.66666666666663</ele><time>2026-04-18T13:54:11.662Z</time></trkpt><trkpt lat="44.86632" lon="9.4775783"><ele>438.0</ele><time>2026-04-18T13:54:13.662Z</time></trkpt><trkpt lat="44.866235" lon="9.4775567"><ele>437.33333333333337</ele><time>2026-04-18T13:54:15.662Z</time></trkpt><trkpt lat="44.86615" lon="9.4775633"><ele>436.6666666666667</ele><time>2026-04-18T13:54:17.663Z</time></trkpt><trkpt lat="44.86607" lon="9.4775717"><ele>436.0</ele><time>2026-04-18T13:54:19.662Z</time></trkpt><trkpt lat="44.86599" lon="9.4775767"><ele>435.6666666666667</ele><time>2026-04-18T13:54:21.662Z</time></trkpt><trkpt lat="44.8659083" lon="9.47755"><ele>435.33333333333337</ele><time>2026-04-18T13:54:23.662Z</time></trkpt><trkpt lat="44.8658433" lon="9.4774933"><ele>435.0</ele><time>2026-04-18T13:54:25.662Z</time></trkpt><trkpt lat="44.8658" lon="9.4773983"><ele>434.66666666666663</ele><time>2026-04-18T13:54:27.662Z</time></trkpt><trkpt lat="44.86579" lon="9.4772867"><ele>434.3333333333333</ele><time>2026-04-18T13:54:29.662Z</time></trkpt><trkpt lat="44.865805" lon="9.4771617"><ele>434.0</ele><time>2026-04-18T13:54:31.662Z</time></trkpt><trkpt lat="44.86584" lon="9.477035"><ele>435.0</ele><time>2026-04-18T13:54:33.662Z</time></trkpt><trkpt lat="44.8658667" lon="9.4769"><ele>436.0</ele><time>2026-04-18T13:54:35.662Z</time></trkpt><trkpt lat="44.8658917" lon="9.47676"><ele>437.0</ele><time>2026-04-18T13:54:37.662Z</time></trkpt><trkpt lat="44.8658917" lon="9.476615"><ele>438.0</ele><time>2026-04-18T13:54:39.662Z</time></trkpt><trkpt lat="44.8658533" lon="9.4764667"><ele>439.0</ele><time>2026-04-18T13:54:41.662Z</time></trkpt><trkpt lat="44.8658233" lon="9.4763867"><ele>440.33333333333337</ele><time>2026-04-18T13:54:42.662Z</time></trkpt><trkpt lat="44.8657667" lon="9.4762367"><ele>441.6666666666667</ele><time>2026-04-18T13:54:44.662Z</time></trkpt><trkpt lat="44.86573" lon="9.4761633"><ele>443.0</ele><time>2026-04-18T13:54:45.662Z</time></trkpt><trkpt lat="44.86568" lon="9.47609"><ele>444.33333333333337</ele><time>2026-04-18T13:54:46.662Z</time></trkpt><trkpt lat="44.8656233" lon="9.476025"><ele>445.6666666666667</ele><time>2026-04-18T13:54:47.662Z</time></trkpt><trkpt lat="44.865565" lon="9.4759633"><ele>447.0</ele><time>2026-04-18T13:54:48.662Z</time></trkpt><trkpt lat="44.8655117" lon="9.4759"><ele>447.0</ele><time>2026-04-18T13:54:49.662Z</time></trkpt><trkpt lat="44.8654583" lon="9.47583"><ele>447.0</ele><time>2026-04-18T13:54:50.662Z</time></trkpt><trkpt lat="44.8653983" lon="9.4757633"><ele>447.0</ele><time>2026-04-18T13:54:51.663Z</time></trkpt><trkpt lat="44.865335" lon="9.4756967"><ele>447.0</ele><time>2026-04-18T13:54:52.662Z</time></trkpt><trkpt lat="44.8652617" lon="9.475645"><ele>447.0</ele><time>2026-04-18T13:54:53.662Z</time></trkpt><trkpt lat="44.8651833" lon="9.4755983"><ele>447.0</ele><time>2026-04-18T13:54:54.662Z</time></trkpt><trkpt lat="44.865105" lon="9.475545"><ele>446.20000000000005</ele><time>2026-04-18T13:54:55.662Z</time></trkpt><trkpt lat="44.8650233" lon="9.475495"><ele>445.40000000000003</ele><time>2026-04-18T13:54:56.662Z</time></trkpt><trkpt lat="44.8649333" lon="9.475445"><ele>444.59999999999997</ele><time>2026-04-18T13:54:57.662Z</time></trkpt><trkpt lat="44.8648433" lon="9.4753967"><ele>443.79999999999995</ele><time>2026-04-18T13:54:58.662Z</time></trkpt><trkpt lat="44.86475" lon="9.4753417"><ele>443.0</ele><time>2026-04-18T13:54:59.662Z</time></trkpt><trkpt lat="44.8646583" lon="9.4752783"><ele>443.0</ele><time>2026-04-18T13:55:00.662Z</time></trkpt><trkpt lat="44.8645633" lon="9.4752117"><ele>442.99999999999994</ele><time>2026-04-18T13:55:01.662Z</time></trkpt><trkpt lat="44.8644633" lon="9.47515"><ele>442.99999999999994</ele><time>2026-04-18T13:55:02.662Z</time></trkpt><trkpt lat="44.8643567" lon="9.4751133"><ele>443.0</ele><time>2026-04-18T13:55:03.662Z</time></trkpt><trkpt lat="44.86425" lon="9.4751117"><ele>443.0</ele><time>2026-04-18T13:55:04.662Z</time></trkpt><trkpt lat="44.8641483" lon="9.4751367"><ele>441.59999999999997</ele><time>2026-04-18T13:55:05.662Z</time></trkpt><trkpt lat="44.86405" lon="9.4751717"><ele>440.19999999999993</ele><time>2026-04-18T13:55:06.662Z</time></trkpt><trkpt lat="44.863955" lon="9.475245"><ele>438.8</ele><time>2026-04-18T13:55:07.662Z</time></trkpt><trkpt lat="44.8638683" lon="9.4753383"><ele>437.4</ele><time>2026-04-18T13:55:08.662Z</time></trkpt><trkpt lat="44.8637917" lon="9.47544"><ele>436.0</ele><time>2026-04-18T13:55:09.662Z</time></trkpt><trkpt lat="44.8637267" lon="9.4755517"><ele>433.4</ele><time>2026-04-18T13:55:10.662Z</time></trkpt><trkpt lat="44.8636633" lon="9.4756717"><ele>430.8</ele><time>2026-04-18T13:55:11.662Z</time></trkpt><trkpt lat="44.8636167" lon="9.4757983"><ele>428.2</ele><time>2026-04-18T13:55:12.662Z</time></trkpt><trkpt lat="44.8635717" lon="9.4759283"><ele>425.59999999999997</ele><time>2026-04-18T13:55:13.662Z</time></trkpt><trkpt lat="44.8635333" lon="9.4760533"><ele>423.0</ele><time>2026-04-18T13:55:14.662Z</time></trkpt><trkpt lat="44.8635017" lon="9.47616"><ele>423.6666666666667</ele><time>2026-04-18T13:55:15.662Z</time></trkpt><trkpt lat="44.8634667" lon="9.4762717"><ele>424.33333333333337</ele><time>2026-04-18T13:55:16.662Z</time></trkpt><trkpt lat="44.863435" lon="9.4763667"><ele>425.0</ele><time>2026-04-18T13:55:17.662Z</time></trkpt><trkpt lat="44.8634" lon="9.4764617"><ele>425.6666666666667</ele><time>2026-04-18T13:55:18.662Z</time></trkpt><trkpt lat="44.863365" lon="9.47654"><ele>426.33333333333337</ele><time>2026-04-18T13:55:19.662Z</time></trkpt><trkpt lat="44.8632933" lon="9.4766667"><ele>427.0</ele><time>2026-04-18T13:55:21.662Z</time></trkpt><trkpt lat="44.8632283" lon="9.4767567"><ele>427.0</ele><time>2026-04-18T13:55:23.662Z</time></trkpt><trkpt lat="44.8631567" lon="9.476845"><ele>427.00000000000006</ele><time>2026-04-18T13:55:25.662Z</time></trkpt><trkpt lat="44.8630717" lon="9.4769117"><ele>427.00000000000006</ele><time>2026-04-18T13:55:27.662Z</time></trkpt><trkpt lat="44.8629783" lon="9.4769217"><ele>427.0</ele><time>2026-04-18T13:55:29.662Z</time></trkpt><trkpt lat="44.8628667" lon="9.4768867"><ele>427.0</ele><time>2026-04-18T13:55:31.662Z</time></trkpt><trkpt lat="44.8627467" lon="9.4768617"><ele>427.00000000000006</ele><time>2026-04-18T13:55:33.662Z</time></trkpt><trkpt lat="44.8626167" lon="9.4768767"><ele>427.0</ele><time>2026-04-18T13:55:35.662Z</time></trkpt><trkpt lat="44.862545" lon="9.4768983"><ele>427.0</ele><time>2026-04-18T13:55:36.662Z</time></trkpt><trkpt lat="44.862475" lon="9.4769117"><ele>427.0</ele><time>2026-04-18T13:55:37.662Z</time></trkpt><trkpt lat="44.8624" lon="9.4769333"><ele>427.00000000000006</ele><time>2026-04-18T13:55:38.662Z</time></trkpt><trkpt lat="44.8623167" lon="9.4769567"><ele>427.0</ele><time>2026-04-18T13:55:39.662Z</time></trkpt><trkpt lat="44.8622383" lon="9.4769717"><ele>426.20000000000005</ele><time>2026-04-18T13:55:40.662Z</time></trkpt><trkpt lat="44.8621717" lon="9.4769933"><ele>425.40000000000003</ele><time>2026-04-18T13:55:41.663Z</time></trkpt><trkpt lat="44.862115" lon="9.47704"><ele>424.6</ele><time>2026-04-18T13:55:42.662Z</time></trkpt><trkpt lat="44.8620217" lon="9.47713"><ele>423.79999999999995</ele><time>2026-04-18T13:55:44.663Z</time></trkpt><trkpt lat="44.86194" lon="9.477225"><ele>423.0</ele><time>2026-04-18T13:55:46.662Z</time></trkpt><trkpt lat="44.8618583" lon="9.4773017"><ele>423.2</ele><time>2026-04-18T13:55:48.662Z</time></trkpt><trkpt lat="44.86176" lon="9.4773433"><ele>423.4</ele><time>2026-04-18T13:55:50.662Z</time></trkpt><trkpt lat="44.8616483" lon="9.47732"><ele>423.59999999999997</ele><time>2026-04-18T13:55:52.663Z</time></trkpt><trkpt lat="44.8615433" lon="9.477245"><ele>423.79999999999995</ele><time>2026-04-18T13:55:54.663Z</time></trkpt><trkpt lat="44.8614533" lon="9.477155"><ele>424.0</ele><time>2026-04-18T13:55:56.662Z</time></trkpt><trkpt lat="44.861355" lon="9.4770567"><ele>425.6</ele><time>2026-04-18T13:55:58.662Z</time></trkpt><trkpt lat="44.8612967" lon="9.4770133"><ele>427.2</ele><time>2026-04-18T13:55:59.662Z</time></trkpt><trkpt lat="44.86119" lon="9.47694"><ele>428.80000000000007</ele><time>2026-04-18T13:56:01.662Z</time></trkpt><trkpt lat="44.8610867" lon="9.4768833"><ele>430.40000000000003</ele><time>2026-04-18T13:56:03.662Z</time></trkpt><trkpt lat="44.8609883" lon="9.476835"><ele>432.0</ele><time>2026-04-18T13:56:05.662Z</time></trkpt><trkpt lat="44.860895" lon="9.476785"><ele>432.0</ele><time>2026-04-18T13:56:07.662Z</time></trkpt><trkpt lat="44.86081" lon="9.47674"><ele>432.00000000000006</ele><time>2026-04-18T13:56:09.663Z</time></trkpt><trkpt lat="44.8607183" lon="9.4766983"><ele>432.00000000000006</ele><time>2026-04-18T13:56:11.662Z</time></trkpt><trkpt lat="44.8606217" lon="9.4766633"><ele>432.0</ele><time>2026-04-18T13:56:13.662Z</time></trkpt><trkpt lat="44.8605283" lon="9.4766283"><ele>432.0</ele><time>2026-04-18T13:56:15.662Z</time></trkpt><trkpt lat="44.86044" lon="9.4766167"><ele>432.0</ele><time>2026-04-18T13:56:17.662Z</time></trkpt><trkpt lat="44.8603467" lon="9.4765983"><ele>432.00000000000006</ele><time>2026-04-18T13:56:19.662Z</time></trkpt><trkpt lat="44.860255" lon="9.4765633"><ele>432.00000000000006</ele><time>2026-04-18T13:56:21.662Z</time></trkpt><trkpt lat="44.8601733" lon="9.4765083"><ele>432.0</ele><time>2026-04-18T13:56:23.662Z</time></trkpt><trkpt lat="44.860105" lon="9.4764183"><ele>432.0</ele><time>2026-04-18T13:56:25.663Z</time></trkpt><trkpt lat="44.8600467" lon="9.4763167"><ele>433.40000000000003</ele><time>2026-04-18T13:56:27.662Z</time></trkpt><trkpt lat="44.8599733" lon="9.4762183"><ele>434.80000000000007</ele><time>2026-04-18T13:56:29.662Z</time></trkpt><trkpt lat="44.859905" lon="9.476125"><ele>436.2</ele><time>2026-04-18T13:56:31.662Z</time></trkpt><trkpt lat="44.8598283" lon="9.4760267"><ele>437.6</ele><time>2026-04-18T13:56:33.662Z</time></trkpt><trkpt lat="44.8597633" lon="9.4759217"><ele>439.0</ele><time>2026-04-18T13:56:35.662Z</time></trkpt><trkpt lat="44.8597017" lon="9.4758117"><ele>439.0</ele><time>2026-04-18T13:56:37.662Z</time></trkpt><trkpt lat="44.85963" lon="9.47572"><ele>439.0</ele><time>2026-04-18T13:56:39.662Z</time></trkpt><trkpt lat="44.8595417" lon="9.4756683"><ele>439.0</ele><time>2026-04-18T13:56:41.663Z</time></trkpt><trkpt lat="44.8594517" lon="9.47564"><ele>439.0</ele><time>2026-04-18T13:56:43.662Z</time></trkpt><trkpt lat="44.8593583" lon="9.475615"><ele>439.0</ele><time>2026-04-18T13:56:45.662Z</time></trkpt><trkpt lat="44.8592717" lon="9.4755633"><ele>440.4</ele><time>2026-04-18T13:56:47.662Z</time></trkpt><trkpt lat="44.8591867" lon="9.4754817"><ele>441.79999999999995</ele><time>2026-04-18T13:56:49.662Z</time></trkpt><trkpt lat="44.8591083" lon="9.4753917"><ele>443.20000000000005</ele><time>2026-04-18T13:56:51.662Z</time></trkpt><trkpt lat="44.8590383" lon="9.475295"><ele>444.6</ele><time>2026-04-18T13:56:53.662Z</time></trkpt><trkpt lat="44.8589683" lon="9.47521"><ele>446.0</ele><time>2026-04-18T13:56:55.662Z</time></trkpt><trkpt lat="44.8588983" lon="9.47512"><ele>445.99999999999994</ele><time>2026-04-18T13:56:57.662Z</time></trkpt><trkpt lat="44.8588267" lon="9.47503"><ele>446.0</ele><time>2026-04-18T13:56:59.662Z</time></trkpt><trkpt lat="44.85876" lon="9.4749483"><ele>446.0</ele><time>2026-04-18T13:57:01.662Z</time></trkpt><trkpt lat="44.8587017" lon="9.4748683"><ele>446.0</ele><time>2026-04-18T13:57:03.662Z</time></trkpt><trkpt lat="44.8586483" lon="9.474785"><ele>445.99999999999994</ele><time>2026-04-18T13:57:05.662Z</time></trkpt><trkpt lat="44.8585883" lon="9.4747167"><ele>446.0</ele><time>2026-04-18T13:57:07.662Z</time></trkpt><trkpt lat="44.8585283" lon="9.4746383"><ele>447.3333333333333</ele><time>2026-04-18T13:57:09.662Z</time></trkpt><trkpt lat="44.8584717" lon="9.474565"><ele>448.66666666666663</ele><time>2026-04-18T13:57:11.662Z</time></trkpt><trkpt lat="44.858435" lon="9.4744717"><ele>450.0</ele><time>2026-04-18T13:57:13.662Z</time></trkpt><trkpt lat="44.8583917" lon="9.47439"><ele>451.33333333333337</ele><time>2026-04-18T13:57:15.662Z</time></trkpt><trkpt lat="44.8583417" lon="9.474315"><ele>452.6666666666667</ele><time>2026-04-18T13:57:17.662Z</time></trkpt><trkpt lat="44.8582783" lon="9.47423"><ele>454.0</ele><time>2026-04-18T13:57:19.662Z</time></trkpt><trkpt lat="44.8582083" lon="9.4741717"><ele>454.00000000000006</ele><time>2026-04-18T13:57:21.662Z</time></trkpt><trkpt lat="44.8581333" lon="9.4741433"><ele>454.0</ele><time>2026-04-18T13:57:23.662Z</time></trkpt><trkpt lat="44.8580667" lon="9.47414"><ele>454.0</ele><time>2026-04-18T13:57:25.662Z</time></trkpt><trkpt lat="44.857975" lon="9.4741317"><ele>454.0</ele><time>2026-04-18T13:57:27.662Z</time></trkpt><trkpt lat="44.8578917" lon="9.4741083"><ele>454.00000000000006</ele><time>2026-04-18T13:57:29.662Z</time></trkpt><trkpt lat="44.8578217" lon="9.4740733"><ele>454.0</ele><time>2026-04-18T13:57:31.662Z</time></trkpt><trkpt lat="44.8577617" lon="9.4740183"><ele>454.0</ele><time>2026-04-18T13:57:33.663Z</time></trkpt><trkpt lat="44.8577033" lon="9.473965"><ele>454.00000000000006</ele><time>2026-04-18T13:57:35.662Z</time></trkpt><trkpt lat="44.8576483" lon="9.4739133"><ele>454.0</ele><time>2026-04-18T13:57:37.662Z</time></trkpt><trkpt lat="44.857585" lon="9.4738683"><ele>454.0</ele><time>2026-04-18T13:57:39.662Z</time></trkpt><trkpt lat="44.8575283" lon="9.4738067"><ele>454.00000000000006</ele><time>2026-04-18T13:57:41.662Z</time></trkpt><trkpt lat="44.8574767" lon="9.4737517"><ele>454.0</ele><time>2026-04-18T13:57:43.662Z</time></trkpt><trkpt lat="44.857425" lon="9.47369"><ele>454.0</ele><time>2026-04-18T13:57:45.662Z</time></trkpt><trkpt lat="44.857375" lon="9.4736317"><ele>455.7142857142857</ele><time>2026-04-18T13:57:47.662Z</time></trkpt><trkpt lat="44.8573183" lon="9.4735833"><ele>457.42857142857144</ele><time>2026-04-18T13:57:49.662Z</time></trkpt><trkpt lat="44.8572667" lon="9.473515"><ele>459.14285714285717</ele><time>2026-04-18T13:57:51.662Z</time></trkpt><trkpt lat="44.857225" lon="9.4734317"><ele>460.8571428571429</ele><time>2026-04-18T13:57:53.662Z</time></trkpt><trkpt lat="44.8571967" lon="9.4733383"><ele>462.57142857142856</ele><time>2026-04-18T13:57:55.662Z</time></trkpt><trkpt lat="44.8571733" lon="9.4732533"><ele>464.28571428571433</ele><time>2026-04-18T13:57:57.662Z</time></trkpt><trkpt lat="44.8571567" lon="9.4731667"><ele>466.0</ele><time>2026-04-18T13:57:59.662Z</time></trkpt><trkpt lat="44.85714" lon="9.4730783"><ele>466.0</ele><time>2026-04-18T13:58:01.662Z</time></trkpt><trkpt lat="44.85712" lon="9.4729917"><ele>466.0</ele><time>2026-04-18T13:58:03.662Z</time></trkpt><trkpt lat="44.8570583" lon="9.472885"><ele>466.0</ele><time>2026-04-18T13:58:06.662Z</time></trkpt><trkpt lat="44.8570017" lon="9.472835"><ele>466.0</ele><time>2026-04-18T13:58:08.662Z</time></trkpt><trkpt lat="44.8569433" lon="9.4727867"><ele>466.0</ele><time>2026-04-18T13:58:10.662Z</time></trkpt><trkpt lat="44.856885" lon="9.4727417"><ele>466.0</ele><time>2026-04-18T13:58:12.662Z</time></trkpt><trkpt lat="44.8568183" lon="9.4726833"><ele>466.0</ele><time>2026-04-18T13:58:14.662Z</time></trkpt><trkpt lat="44.8567567" lon="9.4726267"><ele>466.1666666666667</ele><time>2026-04-18T13:58:16.662Z</time></trkpt><trkpt lat="44.8566733" lon="9.472535"><ele>466.33333333333337</ele><time>2026-04-18T13:58:19.663Z</time></trkpt><trkpt lat="44.8566133" lon="9.4724767"><ele>466.5</ele><time>2026-04-18T13:58:21.662Z</time></trkpt><trkpt lat="44.856555" lon="9.4724167"><ele>466.66666666666663</ele><time>2026-04-18T13:58:23.662Z</time></trkpt><trkpt lat="44.8564983" lon="9.47235"><ele>466.8333333333333</ele><time>2026-04-18T13:58:25.662Z</time></trkpt><trkpt lat="44.8564383" lon="9.4722933"><ele>467.0</ele><time>2026-04-18T13:58:27.662Z</time></trkpt><trkpt lat="44.8563783" lon="9.4722383"><ele>466.99999999999994</ele><time>2026-04-18T13:58:29.662Z</time></trkpt><trkpt lat="44.8563183" lon="9.4721683"><ele>467.0</ele><time>2026-04-18T13:58:31.662Z</time></trkpt><trkpt lat="44.8562683" lon="9.4721083"><ele>466.99999999999994</ele><time>2026-04-18T13:58:33.662Z</time></trkpt><trkpt lat="44.8562117" lon="9.4720567"><ele>466.99999999999994</ele><time>2026-04-18T13:58:35.662Z</time></trkpt><trkpt lat="44.8561517" lon="9.4720083"><ele>467.0</ele><time>2026-04-18T13:58:37.663Z</time></trkpt><trkpt lat="44.8560783" lon="9.4719267"><ele>466.99999999999994</ele><time>2026-04-18T13:58:40.663Z</time></trkpt><trkpt lat="44.8560267" lon="9.47185"><ele>466.99999999999994</ele><time>2026-04-18T13:58:42.663Z</time></trkpt><trkpt lat="44.8559717" lon="9.4717567"><ele>468.49999999999994</ele><time>2026-04-18T13:58:45.664Z</time></trkpt><trkpt lat="44.8559517" lon="9.471665"><ele>470.0</ele><time>2026-04-18T13:58:47.663Z</time></trkpt><trkpt lat="44.8559317" lon="9.47154"><ele>471.5</ele><time>2026-04-18T13:58:50.663Z</time></trkpt><trkpt lat="44.855915" lon="9.4714517"><ele>473.0</ele><time>2026-04-18T13:58:52.663Z</time></trkpt><trkpt lat="44.8558933" lon="9.4713233"><ele>474.49999999999994</ele><time>2026-04-18T13:58:55.663Z</time></trkpt><trkpt lat="44.8558617" lon="9.471235"><ele>476.0</ele><time>2026-04-18T13:58:57.663Z</time></trkpt><trkpt lat="44.8558117" lon="9.471155"><ele>478.8333333333333</ele><time>2026-04-18T13:58:59.663Z</time></trkpt><trkpt lat="44.8557783" lon="9.471075"><ele>481.66666666666663</ele><time>2026-04-18T13:59:01.663Z</time></trkpt><trkpt lat="44.8557333" lon="9.470955"><ele>484.5</ele><time>2026-04-18T13:59:04.663Z</time></trkpt><trkpt lat="44.8556817" lon="9.4708567"><ele>487.33333333333337</ele><time>2026-04-18T13:59:07.663Z</time></trkpt><trkpt lat="44.8556367" lon="9.47079"><ele>490.1666666666667</ele><time>2026-04-18T13:59:09.663Z</time></trkpt><trkpt lat="44.8555883" lon="9.4707217"><ele>493.0</ele><time>2026-04-18T13:59:11.663Z</time></trkpt><trkpt lat="44.8555167" lon="9.4706533"><ele>493.00000000000006</ele><time>2026-04-18T13:59:14.663Z</time></trkpt><trkpt lat="44.85545" lon="9.4706033"><ele>493.0</ele><time>2026-04-18T13:59:17.663Z</time></trkpt><trkpt lat="44.8553817" lon="9.47055"><ele>493.0</ele><time>2026-04-18T13:59:20.663Z</time></trkpt><trkpt lat="44.8553267" lon="9.470485"><ele>493.0</ele><time>2026-04-18T13:59:22.663Z</time></trkpt><trkpt lat="44.855275" lon="9.47043"><ele>493.00000000000006</ele><time>2026-04-18T13:59:24.663Z</time></trkpt><trkpt lat="44.8552117" lon="9.470335"><ele>493.0</ele><time>2026-04-18T13:59:27.663Z</time></trkpt><trkpt lat="44.8551617" lon="9.4702517"><ele>494.50000000000006</ele><time>2026-04-18T13:59:30.663Z</time></trkpt><trkpt lat="44.85512" lon="9.470185"><ele>496.0</ele><time>2026-04-18T13:59:32.663Z</time></trkpt><trkpt lat="44.8550767" lon="9.47012"><ele>497.5</ele><time>2026-04-18T13:59:34.663Z</time></trkpt><trkpt lat="44.855015" lon="9.4700283"><ele>499.0</ele><time>2026-04-18T13:59:37.663Z</time></trkpt><trkpt lat="44.8549483" lon="9.4699533"><ele>500.50000000000006</ele><time>2026-04-18T13:59:40.663Z</time></trkpt><trkpt lat="44.854885" lon="9.46988"><ele>502.0</ele><time>2026-04-18T13:59:44.663Z</time></trkpt><trkpt lat="44.8548217" lon="9.469835"><ele>502.00000000000006</ele><time>2026-04-18T13:59:47.663Z</time></trkpt><trkpt lat="44.8547483" lon="9.4698"><ele>502.0</ele><time>2026-04-18T13:59:50.663Z</time></trkpt><trkpt lat="44.854665" lon="9.4697583"><ele>502.0</ele><time>2026-04-18T13:59:53.663Z</time></trkpt><trkpt lat="44.854585" lon="9.4697467"><ele>502.0</ele><time>2026-04-18T13:59:56.663Z</time></trkpt><trkpt lat="44.8545083" lon="9.4697933"><ele>502.00000000000006</ele><time>2026-04-18T13:59:59.663Z</time></trkpt><trkpt lat="44.8544683" lon="9.4699117"><ele>502.0</ele><time>2026-04-18T14:00:02.663Z</time></trkpt><trkpt lat="44.8544733" lon="9.4700367"><ele>501.99999999999994</ele><time>2026-04-18T14:00:05.663Z</time></trkpt><trkpt lat="44.8545167" lon="9.470115"><ele>502.0</ele><time>2026-04-18T14:00:08.663Z</time></trkpt><trkpt lat="44.8545767" lon="9.47016"><ele>501.99999999999994</ele><time>2026-04-18T14:00:11.663Z</time></trkpt><trkpt lat="44.8546317" lon="9.4702167"><ele>501.99999999999994</ele><time>2026-04-18T14:00:14.663Z</time></trkpt><trkpt lat="44.85468" lon="9.4702833"><ele>502.0</ele><time>2026-04-18T14:00:17.663Z</time></trkpt><trkpt lat="44.854735" lon="9.470385"><ele>501.99999999999994</ele><time>2026-04-18T14:00:20.663Z</time></trkpt><trkpt lat="44.8547567" lon="9.47047"><ele>501.99999999999994</ele><time>2026-04-18T14:00:22.663Z</time></trkpt><trkpt lat="44.8547817" lon="9.4705533"><ele>500.00000000000006</ele><time>2026-04-18T14:00:24.663Z</time></trkpt><trkpt lat="44.85479" lon="9.4706483"><ele>498.0</ele><time>2026-04-18T14:00:26.663Z</time></trkpt><trkpt lat="44.8548" lon="9.4707467"><ele>496.0</ele><time>2026-04-18T14:00:28.663Z</time></trkpt><trkpt lat="44.8547933" lon="9.47088"><ele>494.0</ele><time>2026-04-18T14:00:31.663Z</time></trkpt><trkpt lat="44.854775" lon="9.4710067"><ele>492.00000000000006</ele><time>2026-04-18T14:00:34.664Z</time></trkpt><trkpt lat="44.8547483" lon="9.471095"><ele>490.0</ele><time>2026-04-18T14:00:36.663Z</time></trkpt><trkpt lat="44.854735" lon="9.471195"><ele>490.42857142857144</ele><time>2026-04-18T14:00:38.663Z</time></trkpt><trkpt lat="44.85473" lon="9.4713017"><ele>490.8571428571429</ele><time>2026-04-18T14:00:40.663Z</time></trkpt><trkpt lat="44.854745" lon="9.4714033"><ele>491.2857142857143</ele><time>2026-04-18T14:00:42.664Z</time></trkpt><trkpt lat="44.85477" lon="9.471495"><ele>491.7142857142857</ele><time>2026-04-18T14:00:44.663Z</time></trkpt><trkpt lat="44.8547967" lon="9.471585"><ele>492.14285714285717</ele><time>2026-04-18T14:00:46.663Z</time></trkpt><trkpt lat="44.8548217" lon="9.47167"><ele>492.57142857142856</ele><time>2026-04-18T14:00:48.663Z</time></trkpt><trkpt lat="44.8548433" lon="9.4718"><ele>493.0</ele><time>2026-04-18T14:00:51.663Z</time></trkpt><trkpt lat="44.85485" lon="9.4719"><ele>493.00000000000006</ele><time>2026-04-18T14:00:53.663Z</time></trkpt><trkpt lat="44.8548467" lon="9.4720333"><ele>493.0</ele><time>2026-04-18T14:00:56.663Z</time></trkpt><trkpt lat="44.8548283" lon="9.4721267"><ele>493.0</ele><time>2026-04-18T14:00:58.663Z</time></trkpt><trkpt lat="44.8547933" lon="9.4722517"><ele>493.0</ele><time>2026-04-18T14:01:01.663Z</time></trkpt><trkpt lat="44.8547517" lon="9.4723667"><ele>493.00000000000006</ele><time>2026-04-18T14:01:04.663Z</time></trkpt><trkpt lat="44.8547" lon="9.472475"><ele>493.0</ele><time>2026-04-18T14:01:07.663Z</time></trkpt><trkpt lat="44.8546483" lon="9.4725883"><ele>493.1666666666667</ele><time>2026-04-18T14:01:10.663Z</time></trkpt><trkpt lat="44.8545967" lon="9.4726883"><ele>493.33333333333337</ele><time>2026-04-18T14:01:13.663Z</time></trkpt><trkpt lat="44.8545467" lon="9.4727817"><ele>493.5</ele><time>2026-04-18T14:01:16.663Z</time></trkpt><trkpt lat="44.8544967" lon="9.4728667"><ele>493.66666666666663</ele><time>2026-04-18T14:01:19.663Z</time></trkpt><trkpt lat="44.85444" lon="9.4729417"><ele>493.8333333333333</ele><time>2026-04-18T14:01:22.664Z</time></trkpt><trkpt lat="44.854375" lon="9.4730133"><ele>494.0</ele><time>2026-04-18T14:01:25.663Z</time></trkpt><trkpt lat="44.8543167" lon="9.4731"><ele>496.99999999999994</ele><time>2026-04-18T14:01:28.663Z</time></trkpt><trkpt lat="44.8542433" lon="9.473175"><ele>500.0</ele><time>2026-04-18T14:01:31.663Z</time></trkpt><trkpt lat="44.8541683" lon="9.473235"><ele>503.0</ele><time>2026-04-18T14:01:34.663Z</time></trkpt><trkpt lat="44.8540867" lon="9.473285"><ele>506.0</ele><time>2026-04-18T14:01:37.663Z</time></trkpt><trkpt lat="44.8540317" lon="9.47333"><ele>508.99999999999994</ele><time>2026-04-18T14:01:39.663Z</time></trkpt><trkpt lat="44.8539767" lon="9.4734233"><ele>512.0</ele><time>2026-04-18T14:01:42.663Z</time></trkpt><trkpt lat="44.8539483" lon="9.4735383"><ele>511.99999999999994</ele><time>2026-04-18T14:01:45.663Z</time></trkpt><trkpt lat="44.8539317" lon="9.4736617"><ele>512.0</ele><time>2026-04-18T14:01:48.663Z</time></trkpt><trkpt lat="44.8539083" lon="9.473775"><ele>512.0</ele><time>2026-04-18T14:01:51.663Z</time></trkpt><trkpt lat="44.8538917" lon="9.4738917"><ele>512.0</ele><time>2026-04-18T14:01:54.663Z</time></trkpt><trkpt lat="44.85388" lon="9.47401"><ele>511.99999999999994</ele><time>2026-04-18T14:01:57.663Z</time></trkpt><trkpt lat="44.8538683" lon="9.474135"><ele>512.0</ele><time>2026-04-18T14:02:00.664Z</time></trkpt><trkpt lat="44.853855" lon="9.4742533"><ele>511.66666666666663</ele><time>2026-04-18T14:02:03.663Z</time></trkpt><trkpt lat="44.853835" lon="9.47438"><ele>511.3333333333333</ele><time>2026-04-18T14:02:06.663Z</time></trkpt><trkpt lat="44.85382" lon="9.4744933"><ele>511.0</ele><time>2026-04-18T14:02:09.663Z</time></trkpt><trkpt lat="44.853795" lon="9.4746117"><ele>510.66666666666663</ele><time>2026-04-18T14:02:12.663Z</time></trkpt><trkpt lat="44.85377" lon="9.4747217"><ele>510.3333333333333</ele><time>2026-04-18T14:02:15.663Z</time></trkpt><trkpt lat="44.8537467" lon="9.474835"><ele>510.0</ele><time>2026-04-18T14:02:18.663Z</time></trkpt><trkpt lat="44.853735" lon="9.47495"><ele>510.0</ele><time>2026-04-18T14:02:21.663Z</time></trkpt><trkpt lat="44.853735" lon="9.4750667"><ele>510.0</ele><time>2026-04-18T14:02:24.663Z</time></trkpt><trkpt lat="44.85376" lon="9.47515"><ele>510.0</ele><time>2026-04-18T14:02:26.663Z</time></trkpt><trkpt lat="44.85379" lon="9.4752533"><ele>510.0</ele><time>2026-04-18T14:02:29.663Z</time></trkpt><trkpt lat="44.853825" lon="9.4753317"><ele>510.0</ele><time>2026-04-18T14:02:31.663Z</time></trkpt><trkpt lat="44.853875" lon="9.4754367"><ele>510.0</ele><time>2026-04-18T14:02:34.663Z</time></trkpt><trkpt lat="44.8538967" lon="9.4755517"><ele>511.1666666666667</ele><time>2026-04-18T14:02:37.663Z</time></trkpt><trkpt lat="44.8539183" lon="9.4756817"><ele>512.3333333333334</ele><time>2026-04-18T14:02:40.663Z</time></trkpt><trkpt lat="44.85392" lon="9.4757717"><ele>513.5</ele><time>2026-04-18T14:02:42.663Z</time></trkpt><trkpt lat="44.853915" lon="9.475905"><ele>514.6666666666667</ele><time>2026-04-18T14:02:45.664Z</time></trkpt><trkpt lat="44.8539183" lon="9.47603"><ele>515.8333333333334</ele><time>2026-04-18T14:02:48.663Z</time></trkpt><trkpt lat="44.8539" lon="9.4761533"><ele>517.0</ele><time>2026-04-18T14:02:51.663Z</time></trkpt><trkpt lat="44.85387" lon="9.4762567"><ele>516.6666666666667</ele><time>2026-04-18T14:02:54.663Z</time></trkpt><trkpt lat="44.8538333" lon="9.4763717"><ele>516.3333333333334</ele><time>2026-04-18T14:02:57.663Z</time></trkpt><trkpt lat="44.85381" lon="9.4764583"><ele>516.0</ele><time>2026-04-18T14:02:59.663Z</time></trkpt><trkpt lat="44.8537867" lon="9.4765533"><ele>515.6666666666666</ele><time>2026-04-18T14:03:01.663Z</time></trkpt><trkpt lat="44.8537617" lon="9.476645"><ele>515.3333333333333</ele><time>2026-04-18T14:03:03.663Z</time></trkpt><trkpt lat="44.8537383" lon="9.476735"><ele>515.0</ele><time>2026-04-18T14:03:05.663Z</time></trkpt><trkpt lat="44.8537117" lon="9.47686"><ele>515.0</ele><time>2026-04-18T14:03:08.663Z</time></trkpt><trkpt lat="44.8536783" lon="9.4769717"><ele>515.0</ele><time>2026-04-18T14:03:11.663Z</time></trkpt><trkpt lat="44.853645" lon="9.4770867"><ele>515.0</ele><time>2026-04-18T14:03:14.663Z</time></trkpt><trkpt lat="44.853605" lon="9.47718"><ele>515.0</ele><time>2026-04-18T14:03:17.663Z</time></trkpt><trkpt lat="44.8535633" lon="9.4772567"><ele>515.0</ele><time>2026-04-18T14:03:19.663Z</time></trkpt><trkpt lat="44.853515" lon="9.4773283"><ele>515.0</ele><time>2026-04-18T14:03:21.663Z</time></trkpt><trkpt lat="44.8534683" lon="9.4773917"><ele>516.8333333333333</ele><time>2026-04-18T14:03:23.663Z</time></trkpt><trkpt lat="44.853405" lon="9.47749"><ele>518.6666666666666</ele><time>2026-04-18T14:03:26.663Z</time></trkpt><trkpt lat="44.853345" lon="9.4775783"><ele>520.5</ele><time>2026-04-18T14:03:29.663Z</time></trkpt><trkpt lat="44.8532783" lon="9.47767"><ele>522.3333333333334</ele><time>2026-04-18T14:03:32.663Z</time></trkpt><trkpt lat="44.8532167" lon="9.4777617"><ele>524.1666666666667</ele><time>2026-04-18T14:03:35.663Z</time></trkpt><trkpt lat="44.853165" lon="9.4778583"><ele>526.0</ele><time>2026-04-18T14:03:38.663Z</time></trkpt><trkpt lat="44.8530983" lon="9.4779433"><ele>526.0</ele><time>2026-04-18T14:03:41.663Z</time></trkpt><trkpt lat="44.8530383" lon="9.4780333"><ele>526.0</ele><time>2026-04-18T14:03:44.663Z</time></trkpt><trkpt lat="44.852975" lon="9.4781233"><ele>526.0</ele><time>2026-04-18T14:03:47.663Z</time></trkpt><trkpt lat="44.8529283" lon="9.47819"><ele>526.0</ele><time>2026-04-18T14:03:49.663Z</time></trkpt><trkpt lat="44.8528767" lon="9.4782467"><ele>526.0</ele><time>2026-04-18T14:03:51.664Z</time></trkpt><trkpt lat="44.8527967" lon="9.4783067"><ele>526.0</ele><time>2026-04-18T14:03:54.663Z</time></trkpt><trkpt lat="44.852725" lon="9.4783617"><ele>526.0</ele><time>2026-04-18T14:03:57.663Z</time></trkpt><trkpt lat="44.8526633" lon="9.4784117"><ele>526.0</ele><time>2026-04-18T14:04:00.663Z</time></trkpt><trkpt lat="44.852585" lon="9.4784417"><ele>526.0</ele><time>2026-04-18T14:04:03.663Z</time></trkpt><trkpt lat="44.8525033" lon="9.4784783"><ele>526.0</ele><time>2026-04-18T14:04:06.663Z</time></trkpt><trkpt lat="44.852415" lon="9.4785217"><ele>526.0</ele><time>2026-04-18T14:04:09.663Z</time></trkpt><trkpt lat="44.85233" lon="9.4785533"><ele>526.0</ele><time>2026-04-18T14:04:12.664Z</time></trkpt><trkpt lat="44.8522533" lon="9.4785717"><ele>527.8333333333334</ele><time>2026-04-18T14:04:15.663Z</time></trkpt><trkpt lat="44.8521733" lon="9.47858"><ele>529.6666666666667</ele><time>2026-04-18T14:04:18.663Z</time></trkpt><trkpt lat="44.8520833" lon="9.4785767"><ele>531.5</ele><time>2026-04-18T14:04:21.663Z</time></trkpt><trkpt lat="44.85202" lon="9.4785783"><ele>533.3333333333334</ele><time>2026-04-18T14:04:23.663Z</time></trkpt><trkpt lat="44.8519317" lon="9.4785933"><ele>535.1666666666666</ele><time>2026-04-18T14:04:26.664Z</time></trkpt><trkpt lat="44.8518517" lon="9.4785933"><ele>537.0</ele><time>2026-04-18T14:04:29.664Z</time></trkpt><trkpt lat="44.8517683" lon="9.4786"><ele>538.3333333333334</ele><time>2026-04-18T14:04:32.664Z</time></trkpt><trkpt lat="44.8516833" lon="9.47861"><ele>539.6666666666666</ele><time>2026-04-18T14:04:35.664Z</time></trkpt><trkpt lat="44.8515983" lon="9.4786083"><ele>541.0</ele><time>2026-04-18T14:04:38.665Z</time></trkpt><trkpt lat="44.85152" lon="9.4785683"><ele>542.3333333333333</ele><time>2026-04-18T14:04:41.664Z</time></trkpt><trkpt lat="44.85144" lon="9.4785233"><ele>543.6666666666666</ele><time>2026-04-18T14:04:44.664Z</time></trkpt><trkpt lat="44.8513733" lon="9.4784483"><ele>545.0</ele><time>2026-04-18T14:04:47.664Z</time></trkpt><trkpt lat="44.8512983" lon="9.478395"><ele>545.0</ele><time>2026-04-18T14:04:50.664Z</time></trkpt><trkpt lat="44.8512267" lon="9.4783517"><ele>545.0</ele><time>2026-04-18T14:04:53.664Z</time></trkpt><trkpt lat="44.8511417" lon="9.4783367"><ele>545.0</ele><time>2026-04-18T14:04:56.664Z</time></trkpt><trkpt lat="44.8510583" lon="9.4783633"><ele>545.0</ele><time>2026-04-18T14:04:59.664Z</time></trkpt><trkpt lat="44.8509983" lon="9.478445"><ele>545.0</ele><time>2026-04-18T14:05:02.664Z</time></trkpt><trkpt lat="44.8509783" lon="9.4785533"><ele>545.0</ele><time>2026-04-18T14:05:05.664Z</time></trkpt><trkpt lat="44.8509583" lon="9.4786633"><ele>546.8333333333333</ele><time>2026-04-18T14:05:08.664Z</time></trkpt><trkpt lat="44.8509417" lon="9.4787833"><ele>548.6666666666666</ele><time>2026-04-18T14:05:11.664Z</time></trkpt><trkpt lat="44.8509267" lon="9.47887"><ele>550.5</ele><time>2026-04-18T14:05:13.664Z</time></trkpt><trkpt lat="44.8508967" lon="9.47898"><ele>552.3333333333334</ele><time>2026-04-18T14:05:16.664Z</time></trkpt><trkpt lat="44.8508733" lon="9.4790933"><ele>554.1666666666667</ele><time>2026-04-18T14:05:19.664Z</time></trkpt><trkpt lat="44.8508383" lon="9.4791933"><ele>556.0</ele><time>2026-04-18T14:05:22.664Z</time></trkpt><trkpt lat="44.850785" lon="9.479285"><ele>556.0</ele><time>2026-04-18T14:05:25.664Z</time></trkpt><trkpt lat="44.850725" lon="9.4793617"><ele>556.0</ele><time>2026-04-18T14:05:28.665Z</time></trkpt><trkpt lat="44.8506517" lon="9.47942"><ele>556.0</ele><time>2026-04-18T14:05:31.664Z</time></trkpt><trkpt lat="44.8505783" lon="9.4794867"><ele>556.0</ele><time>2026-04-18T14:05:34.664Z</time></trkpt><trkpt lat="44.8505033" lon="9.4795517"><ele>556.0</ele><time>2026-04-18T14:05:37.664Z</time></trkpt><trkpt lat="44.8504333" lon="9.479635"><ele>556.0</ele><time>2026-04-18T14:05:40.664Z</time></trkpt><trkpt lat="44.8503683" lon="9.4796967"><ele>556.5</ele><time>2026-04-18T14:05:43.664Z</time></trkpt><trkpt lat="44.850295" lon="9.4797567"><ele>557.0</ele><time>2026-04-18T14:05:46.664Z</time></trkpt><trkpt lat="44.8502283" lon="9.47983"><ele>557.5</ele><time>2026-04-18T14:05:49.664Z</time></trkpt><trkpt lat="44.8501617" lon="9.47989"><ele>558.0</ele><time>2026-04-18T14:05:52.664Z</time></trkpt><trkpt lat="44.8500917" lon="9.4799633"><ele>558.5</ele><time>2026-04-18T14:05:55.664Z</time></trkpt><trkpt lat="44.850025" lon="9.4800167"><ele>559.0</ele><time>2026-04-18T14:05:58.664Z</time></trkpt><trkpt lat="44.8499467" lon="9.48006"><ele>559.0</ele><time>2026-04-18T14:06:01.664Z</time></trkpt><trkpt lat="44.8498817" lon="9.4801283"><ele>559.0</ele><time>2026-04-18T14:06:04.664Z</time></trkpt><trkpt lat="44.8498217" lon="9.480205"><ele>559.0</ele><time>2026-04-18T14:06:06.664Z</time></trkpt><trkpt lat="44.84974" lon="9.4803433"><ele>559.0</ele><time>2026-04-18T14:06:08.664Z</time></trkpt><trkpt lat="44.8497067" lon="9.48042"><ele>559.0</ele><time>2026-04-18T14:06:09.664Z</time></trkpt><trkpt lat="44.84966" lon="9.4805417"><ele>556.8333333333334</ele><time>2026-04-18T14:06:11.664Z</time></trkpt><trkpt lat="44.84963" lon="9.48062"><ele>554.6666666666667</ele><time>2026-04-18T14:06:13.664Z</time></trkpt><trkpt lat="44.8495933" lon="9.4807233"><ele>552.5</ele><time>2026-04-18T14:06:16.664Z</time></trkpt><trkpt lat="44.8495167" lon="9.4807683"><ele>550.3333333333334</ele><time>2026-04-18T14:06:19.664Z</time></trkpt><trkpt lat="44.849425" lon="9.48078"><ele>548.1666666666666</ele><time>2026-04-18T14:06:22.664Z</time></trkpt><trkpt lat="44.8493583" lon="9.4807817"><ele>546.0</ele><time>2026-04-18T14:06:24.664Z</time></trkpt><trkpt lat="44.8492983" lon="9.4808117"><ele>546.8333333333334</ele><time>2026-04-18T14:06:26.665Z</time></trkpt><trkpt lat="44.8492217" lon="9.4808767"><ele>547.6666666666666</ele><time>2026-04-18T14:06:29.664Z</time></trkpt><trkpt lat="44.8491667" lon="9.4809833"><ele>548.5</ele><time>2026-04-18T14:06:32.664Z</time></trkpt><trkpt lat="44.84913" lon="9.4811"><ele>549.3333333333333</ele><time>2026-04-18T14:06:35.664Z</time></trkpt><trkpt lat="44.8490933" lon="9.4811767"><ele>550.1666666666666</ele><time>2026-04-18T14:06:37.664Z</time></trkpt><trkpt lat="44.8490267" lon="9.481265"><ele>551.0</ele><time>2026-04-18T14:06:39.664Z</time></trkpt><trkpt lat="44.84895" lon="9.48138"><ele>551.0</ele><time>2026-04-18T14:06:41.664Z</time></trkpt><trkpt lat="44.848885" lon="9.481495"><ele>551.0</ele><time>2026-04-18T14:06:43.664Z</time></trkpt><trkpt lat="44.84885" lon="9.481625"><ele>551.0</ele><time>2026-04-18T14:06:45.664Z</time></trkpt><trkpt lat="44.8488083" lon="9.4817967"><ele>551.0</ele><time>2026-04-18T14:06:47.664Z</time></trkpt><trkpt lat="44.8487967" lon="9.4818867"><ele>551.0</ele><time>2026-04-18T14:06:48.664Z</time></trkpt><trkpt lat="44.8487883" lon="9.4819783"><ele>549.0</ele><time>2026-04-18T14:06:49.664Z</time></trkpt><trkpt lat="44.84879" lon="9.482135"><ele>547.0</ele><time>2026-04-18T14:06:51.664Z</time></trkpt><trkpt lat="44.8487767" lon="9.4822917"><ele>545.0</ele><time>2026-04-18T14:06:53.664Z</time></trkpt><trkpt lat="44.8487433" lon="9.4824267"><ele>543.0</ele><time>2026-04-18T14:06:55.665Z</time></trkpt><trkpt lat="44.8487283" lon="9.4825617"><ele>541.0</ele><time>2026-04-18T14:06:57.664Z</time></trkpt><trkpt lat="44.8487167" lon="9.4826833"><ele>541.0</ele><time>2026-04-18T14:06:59.664Z</time></trkpt><trkpt lat="44.8486967" lon="9.4827767"><ele>541.0</ele><time>2026-04-18T14:07:01.664Z</time></trkpt><trkpt lat="44.8486767" lon="9.48291"><ele>541.0</ele><time>2026-04-18T14:07:04.664Z</time></trkpt><trkpt lat="44.8486617" lon="9.4830433"><ele>541.0</ele><time>2026-04-18T14:07:06.664Z</time></trkpt><trkpt lat="44.84864" lon="9.4831833"><ele>541.0</ele><time>2026-04-18T14:07:08.664Z</time></trkpt><trkpt lat="44.8486317" lon="9.4832983"><ele>541.0</ele><time>2026-04-18T14:07:10.664Z</time></trkpt><trkpt lat="44.848605" lon="9.483415"><ele>540.6666666666667</ele><time>2026-04-18T14:07:13.664Z</time></trkpt><trkpt lat="44.848595" lon="9.48355"><ele>540.3333333333334</ele><time>2026-04-18T14:07:16.664Z</time></trkpt><trkpt lat="44.8486117" lon="9.4836533"><ele>540.0</ele><time>2026-04-18T14:07:18.664Z</time></trkpt><trkpt lat="44.8486383" lon="9.4837417"><ele>539.6666666666666</ele><time>2026-04-18T14:07:20.664Z</time></trkpt><trkpt lat="44.8486617" lon="9.48383"><ele>539.3333333333333</ele><time>2026-04-18T14:07:22.664Z</time></trkpt><trkpt lat="44.8486883" lon="9.4839217"><ele>539.0</ele><time>2026-04-18T14:07:24.664Z</time></trkpt><trkpt lat="44.8486983" lon="9.4840533"><ele>539.0</ele><time>2026-04-18T14:07:26.664Z</time></trkpt><trkpt lat="44.8487017" lon="9.4841483"><ele>539.0</ele><time>2026-04-18T14:07:28.664Z</time></trkpt><trkpt lat="44.848725" lon="9.48427"><ele>539.0</ele><time>2026-04-18T14:07:30.664Z</time></trkpt><trkpt lat="44.8487683" lon="9.484415"><ele>539.0</ele><time>2026-04-18T14:07:32.664Z</time></trkpt><trkpt lat="44.8488267" lon="9.4845667"><ele>539.0</ele><time>2026-04-18T14:07:34.664Z</time></trkpt><trkpt lat="44.8488733" lon="9.484725"><ele>538.6666666666666</ele><time>2026-04-18T14:07:36.664Z</time></trkpt><trkpt lat="44.8488917" lon="9.4849067"><ele>538.3333333333333</ele><time>2026-04-18T14:07:38.664Z</time></trkpt><trkpt lat="44.84891" lon="9.485"><ele>538.0</ele><time>2026-04-18T14:07:39.664Z</time></trkpt><trkpt lat="44.8489333" lon="9.4850917"><ele>537.6666666666666</ele><time>2026-04-18T14:07:40.664Z</time></trkpt><trkpt lat="44.8489533" lon="9.48519"><ele>537.3333333333334</ele><time>2026-04-18T14:07:41.664Z</time></trkpt><trkpt lat="44.8489783" lon="9.4852967"><ele>537.0</ele><time>2026-04-18T14:07:42.664Z</time></trkpt><trkpt lat="44.84901" lon="9.4853967"><ele>537.0</ele><time>2026-04-18T14:07:43.664Z</time></trkpt><trkpt lat="44.8490483" lon="9.4854867"><ele>537.0</ele><time>2026-04-18T14:07:44.664Z</time></trkpt><trkpt lat="44.8490833" lon="9.4855667"><ele>537.0</ele><time>2026-04-18T14:07:45.664Z</time></trkpt><trkpt lat="44.8491033" lon="9.4857083"><ele>537.0</ele><time>2026-04-18T14:07:47.664Z</time></trkpt><trkpt lat="44.8491217" lon="9.4858317"><ele>537.0</ele><time>2026-04-18T14:07:49.664Z</time></trkpt><trkpt lat="44.8491917" lon="9.48595"><ele>537.0</ele><time>2026-04-18T14:07:51.664Z</time></trkpt><trkpt lat="44.84928" lon="9.4860733"><ele>535.6666666666666</ele><time>2026-04-18T14:07:53.664Z</time></trkpt><trkpt lat="44.84934" lon="9.4861967"><ele>534.3333333333334</ele><time>2026-04-18T14:07:55.664Z</time></trkpt><trkpt lat="44.84938" lon="9.486275"><ele>533.0</ele><time>2026-04-18T14:07:57.664Z</time></trkpt><trkpt lat="44.8494417" lon="9.4863583"><ele>531.6666666666667</ele><time>2026-04-18T14:08:00.664Z</time></trkpt><trkpt lat="44.84942" lon="9.4865"><ele>530.3333333333334</ele><time>2026-04-18T14:08:04.664Z</time></trkpt><trkpt lat="44.849345" lon="9.4865517"><ele>529.0</ele><time>2026-04-18T14:08:07.664Z</time></trkpt><trkpt lat="44.849255" lon="9.4865183"><ele>529.0</ele><time>2026-04-18T14:08:10.664Z</time></trkpt><trkpt lat="44.8491933" lon="9.4864867"><ele>529.0</ele><time>2026-04-18T14:08:12.664Z</time></trkpt><trkpt lat="44.8491267" lon="9.486455"><ele>529.0</ele><time>2026-04-18T14:08:14.664Z</time></trkpt><trkpt lat="44.8490633" lon="9.48641"><ele>529.0</ele><time>2026-04-18T14:08:16.664Z</time></trkpt><trkpt lat="44.848985" lon="9.4863767"><ele>529.0</ele><time>2026-04-18T14:08:18.664Z</time></trkpt><trkpt lat="44.8489117" lon="9.4863467"><ele>529.0</ele><time>2026-04-18T14:08:20.664Z</time></trkpt><trkpt lat="44.848835" lon="9.4863333"><ele>529.0</ele><time>2026-04-18T14:08:22.664Z</time></trkpt><trkpt lat="44.848745" lon="9.4863583"><ele>529.0</ele><time>2026-04-18T14:08:24.664Z</time></trkpt><trkpt lat="44.8486783" lon="9.486415"><ele>529.0</ele><time>2026-04-18T14:08:26.664Z</time></trkpt><trkpt lat="44.8486133" lon="9.4864883"><ele>529.0</ele><time>2026-04-18T14:08:28.664Z</time></trkpt><trkpt lat="44.8485417" lon="9.4865833"><ele>529.0</ele><time>2026-04-18T14:08:30.664Z</time></trkpt><trkpt lat="44.8484733" lon="9.486675"><ele>529.0</ele><time>2026-04-18T14:08:32.665Z</time></trkpt><trkpt lat="44.848405" lon="9.4867533"><ele>529.0</ele><time>2026-04-18T14:08:34.664Z</time></trkpt><trkpt lat="44.8483317" lon="9.4868383"><ele>526.8</ele><time>2026-04-18T14:08:36.664Z</time></trkpt><trkpt lat="44.84826" lon="9.486935"><ele>524.5999999999999</ele><time>2026-04-18T14:08:38.664Z</time></trkpt><trkpt lat="44.84819" lon="9.4870483"><ele>522.4</ele><time>2026-04-18T14:08:40.664Z</time></trkpt><trkpt lat="44.8481083" lon="9.4871517"><ele>520.1999999999999</ele><time>2026-04-18T14:08:42.664Z</time></trkpt><trkpt lat="44.8480367" lon="9.4872283"><ele>518.0</ele><time>2026-04-18T14:08:44.664Z</time></trkpt><trkpt lat="44.8479583" lon="9.4873083"><ele>517.3333333333333</ele><time>2026-04-18T14:08:46.664Z</time></trkpt><trkpt lat="44.8478917" lon="9.48739"><ele>516.6666666666666</ele><time>2026-04-18T14:08:48.664Z</time></trkpt><trkpt lat="44.8478383" lon="9.4874583"><ele>516.0</ele><time>2026-04-18T14:08:50.664Z</time></trkpt><trkpt lat="44.84779" lon="9.4875217"><ele>515.3333333333334</ele><time>2026-04-18T14:08:52.664Z</time></trkpt><trkpt lat="44.8477383" lon="9.48759"><ele>514.6666666666667</ele><time>2026-04-18T14:08:54.664Z</time></trkpt><trkpt lat="44.84768" lon="9.4876733"><ele>514.0</ele><time>2026-04-18T14:08:56.664Z</time></trkpt><trkpt lat="44.8476167" lon="9.48776"><ele>514.0</ele><time>2026-04-18T14:08:58.664Z</time></trkpt><trkpt lat="44.847555" lon="9.487845"><ele>514.0</ele><time>2026-04-18T14:09:00.664Z</time></trkpt><trkpt lat="44.84754" lon="9.4879583"><ele>514.0</ele><time>2026-04-18T14:09:02.664Z</time></trkpt><trkpt lat="44.84761" lon="9.4879717"><ele>514.0</ele><time>2026-04-18T14:09:07.664Z</time></trkpt><trkpt lat="44.8476583" lon="9.4878767"><ele>514.0</ele><time>2026-04-18T14:09:10.664Z</time></trkpt><trkpt lat="44.8476467" lon="9.487985"><ele>514.0</ele><time>2026-04-18T14:17:56.665Z</time></trkpt><trkpt lat="44.847595" lon="9.4880567"><ele>512.6666666666667</ele><time>2026-04-18T14:18:00.666Z</time></trkpt><trkpt lat="44.8476133" lon="9.4881517"><ele>511.33333333333337</ele><time>2026-04-18T14:18:03.665Z</time></trkpt><trkpt lat="44.847645" lon="9.48823"><ele>510.0</ele><time>2026-04-18T14:18:05.665Z</time></trkpt><trkpt lat="44.8476817" lon="9.4883333"><ele>508.66666666666663</ele><time>2026-04-18T14:18:07.665Z</time></trkpt><trkpt lat="44.8477033" lon="9.4884433"><ele>507.3333333333333</ele><time>2026-04-18T14:18:09.665Z</time></trkpt><trkpt lat="44.847715" lon="9.4885733"><ele>506.0</ele><time>2026-04-18T14:18:11.665Z</time></trkpt><trkpt lat="44.8477383" lon="9.4887117"><ele>503.16666666666663</ele><time>2026-04-18T14:18:13.665Z</time></trkpt><trkpt lat="44.8477667" lon="9.4888333"><ele>500.3333333333333</ele><time>2026-04-18T14:18:15.665Z</time></trkpt><trkpt lat="44.8477617" lon="9.488945"><ele>497.5</ele><time>2026-04-18T14:18:17.665Z</time></trkpt><trkpt lat="44.84773" lon="9.4890617"><ele>494.66666666666663</ele><time>2026-04-18T14:18:19.665Z</time></trkpt><trkpt lat="44.8477017" lon="9.4891767"><ele>491.8333333333333</ele><time>2026-04-18T14:18:22.665Z</time></trkpt><trkpt lat="44.8476783" lon="9.489285"><ele>489.0</ele><time>2026-04-18T14:18:25.665Z</time></trkpt><trkpt lat="44.8476617" lon="9.4893733"><ele>489.0</ele><time>2026-04-18T14:18:27.665Z</time></trkpt><trkpt lat="44.84766" lon="9.4895017"><ele>489.0</ele><time>2026-04-18T14:18:30.665Z</time></trkpt><trkpt lat="44.847665" lon="9.4896167"><ele>489.0</ele><time>2026-04-18T14:19:11.665Z</time></trkpt><trkpt lat="44.8476517" lon="9.4897217"><ele>489.0</ele><time>2026-04-18T14:19:14.665Z</time></trkpt><trkpt lat="44.8476317" lon="9.489845"><ele>489.0</ele><time>2026-04-18T14:19:17.665Z</time></trkpt><trkpt lat="44.8475983" lon="9.4899533"><ele>489.0</ele><time>2026-04-18T14:19:20.665Z</time></trkpt><trkpt lat="44.8475617" lon="9.49006"><ele>489.5</ele><time>2026-04-18T14:19:23.665Z</time></trkpt><trkpt lat="44.8475467" lon="9.4901667"><ele>490.0</ele><time>2026-04-18T14:19:26.665Z</time></trkpt><trkpt lat="44.84755" lon="9.4902817"><ele>490.5</ele><time>2026-04-18T14:19:29.665Z</time></trkpt><trkpt lat="44.8475683" lon="9.49038"><ele>491.0</ele><time>2026-04-18T14:19:32.665Z</time></trkpt><trkpt lat="44.8476383" lon="9.49046"><ele>491.5</ele><time>2026-04-18T14:19:35.665Z</time></trkpt><trkpt lat="44.8476883" lon="9.4905317"><ele>492.0</ele><time>2026-04-18T14:19:37.666Z</time></trkpt><trkpt lat="44.8476883" lon="9.4906267"><ele>492.0</ele><time>2026-04-18T14:19:39.666Z</time></trkpt><trkpt lat="44.8476317" lon="9.4907017"><ele>492.0</ele><time>2026-04-18T14:19:41.665Z</time></trkpt><trkpt lat="44.84757" lon="9.4907617"><ele>492.0</ele><time>2026-04-18T14:19:43.665Z</time></trkpt><trkpt lat="44.8475167" lon="9.4908217"><ele>492.0</ele><time>2026-04-18T14:19:45.666Z</time></trkpt><trkpt lat="44.84746" lon="9.4908817"><ele>492.0</ele><time>2026-04-18T14:19:47.665Z</time></trkpt><trkpt lat="44.8473733" lon="9.4909533"><ele>492.0</ele><time>2026-04-18T14:19:50.665Z</time></trkpt><trkpt lat="44.8473117" lon="9.4910267"><ele>493.57142857142867</ele><time>2026-04-18T14:19:52.665Z</time></trkpt><trkpt lat="44.8472583" lon="9.4911083"><ele>495.14285714285717</ele><time>2026-04-18T14:19:54.665Z</time></trkpt><trkpt lat="44.8472217" lon="9.4911833"><ele>496.7142857142858</ele><time>2026-04-18T14:19:56.665Z</time></trkpt><trkpt lat="44.8471967" lon="9.4912717"><ele>498.28571428571433</ele><time>2026-04-18T14:19:58.665Z</time></trkpt><trkpt lat="44.8471733" lon="9.4913717"><ele>499.8571428571429</ele><time>2026-04-18T14:20:00.665Z</time></trkpt><trkpt lat="44.8471633" lon="9.4914617"><ele>501.42857142857144</ele><time>2026-04-18T14:20:02.665Z</time></trkpt><trkpt lat="44.8471467" lon="9.4915567"><ele>503.0</ele><time>2026-04-18T14:20:04.665Z</time></trkpt><trkpt lat="44.8471217" lon="9.4916467"><ele>502.99999999999994</ele><time>2026-04-18T14:20:06.665Z</time></trkpt><trkpt lat="44.8470933" lon="9.4917667"><ele>503.0</ele><time>2026-04-18T14:20:09.665Z</time></trkpt><trkpt lat="44.8470617" lon="9.4918567"><ele>503.0</ele><time>2026-04-18T14:20:11.665Z</time></trkpt><trkpt lat="44.847035" lon="9.4919417"><ele>503.0</ele><time>2026-04-18T14:20:13.665Z</time></trkpt><trkpt lat="44.8470083" lon="9.4920633"><ele>502.99999999999994</ele><time>2026-04-18T14:20:16.665Z</time></trkpt><trkpt lat="44.8469833" lon="9.4921867"><ele>503.0</ele><time>2026-04-18T14:20:19.665Z</time></trkpt><trkpt lat="44.846955" lon="9.4922767"><ele>502.16666666666663</ele><time>2026-04-18T14:20:21.665Z</time></trkpt><trkpt lat="44.84691" lon="9.49239"><ele>501.3333333333333</ele><time>2026-04-18T14:20:24.665Z</time></trkpt><trkpt lat="44.84686" lon="9.492485"><ele>500.5</ele><time>2026-04-18T14:20:27.665Z</time></trkpt><trkpt lat="44.8468" lon="9.4925683"><ele>499.66666666666663</ele><time>2026-04-18T14:20:30.665Z</time></trkpt><trkpt lat="44.8467417" lon="9.4926517"><ele>498.8333333333333</ele><time>2026-04-18T14:20:33.665Z</time></trkpt><trkpt lat="44.8466933" lon="9.4927183"><ele>498.0</ele><time>2026-04-18T14:20:35.665Z</time></trkpt><trkpt lat="44.84664" lon="9.492775"><ele>500.0</ele><time>2026-04-18T14:20:37.665Z</time></trkpt><trkpt lat="44.8465717" lon="9.4928467"><ele>502.0</ele><time>2026-04-18T14:20:40.665Z</time></trkpt><trkpt lat="44.8464967" lon="9.49293"><ele>504.0</ele><time>2026-04-18T14:20:43.666Z</time></trkpt><trkpt lat="44.8464383" lon="9.492975"><ele>506.0</ele><time>2026-04-18T14:20:45.665Z</time></trkpt><trkpt lat="44.8463683" lon="9.4930183"><ele>508.0</ele><time>2026-04-18T14:20:47.665Z</time></trkpt><trkpt lat="44.846265" lon="9.49305"><ele>510.0</ele><time>2026-04-18T14:20:49.665Z</time></trkpt><trkpt lat="44.8462" lon="9.493065"><ele>510.0</ele><time>2026-04-18T14:20:50.665Z</time></trkpt><trkpt lat="44.8461267" lon="9.4930667"><ele>510.0</ele><time>2026-04-18T14:20:51.665Z</time></trkpt><trkpt lat="44.8460517" lon="9.49305"><ele>510.0</ele><time>2026-04-18T14:20:52.665Z</time></trkpt><trkpt lat="44.8459717" lon="9.4930167"><ele>510.0</ele><time>2026-04-18T14:20:53.665Z</time></trkpt><trkpt lat="44.8459" lon="9.4929583"><ele>510.0</ele><time>2026-04-18T14:20:54.665Z</time></trkpt><trkpt lat="44.8458383" lon="9.4928867"><ele>510.0</ele><time>2026-04-18T14:20:55.665Z</time></trkpt><trkpt lat="44.8457867" lon="9.49281"><ele>512.8</ele><time>2026-04-18T14:20:56.665Z</time></trkpt><trkpt lat="44.8457433" lon="9.4927233"><ele>515.6</ele><time>2026-04-18T14:20:57.665Z</time></trkpt><trkpt lat="44.8457033" lon="9.4926317"><ele>518.4</ele><time>2026-04-18T14:20:58.665Z</time></trkpt><trkpt lat="44.8456667" lon="9.492545"><ele>521.2</ele><time>2026-04-18T14:20:59.665Z</time></trkpt><trkpt lat="44.8456317" lon="9.4923783"><ele>524.0</ele><time>2026-04-18T14:21:01.665Z</time></trkpt><trkpt lat="44.8456217" lon="9.4922317"><ele>524.0</ele><time>2026-04-18T14:21:03.666Z</time></trkpt><trkpt lat="44.84561" lon="9.4921017"><ele>524.0</ele><time>2026-04-18T14:21:05.665Z</time></trkpt><trkpt lat="44.8456067" lon="9.491995"><ele>524.0</ele><time>2026-04-18T14:21:07.665Z</time></trkpt><trkpt lat="44.84557" lon="9.4918833"><ele>524.0</ele><time>2026-04-18T14:21:09.666Z</time></trkpt><trkpt lat="44.8455017" lon="9.4917883"><ele>524.0</ele><time>2026-04-18T14:21:11.665Z</time></trkpt><trkpt lat="44.8454433" lon="9.4917"><ele>524.0</ele><time>2026-04-18T14:21:13.665Z</time></trkpt><trkpt lat="44.8453783" lon="9.4916233"><ele>523.4285714285714</ele><time>2026-04-18T14:21:15.665Z</time></trkpt><trkpt lat="44.84531" lon="9.4915667"><ele>522.8571428571429</ele><time>2026-04-18T14:21:17.665Z</time></trkpt><trkpt lat="44.8452517" lon="9.4915083"><ele>522.2857142857143</ele><time>2026-04-18T14:21:19.665Z</time></trkpt><trkpt lat="44.84519" lon="9.4914617"><ele>521.7142857142858</ele><time>2026-04-18T14:21:21.666Z</time></trkpt><trkpt lat="44.8451133" lon="9.4914233"><ele>521.1428571428571</ele><time>2026-04-18T14:21:23.666Z</time></trkpt><trkpt lat="44.8450517" lon="9.4913783"><ele>520.5714285714287</ele><time>2026-04-18T14:21:25.665Z</time></trkpt><trkpt lat="44.8449883" lon="9.4913267"><ele>520.0</ele><time>2026-04-18T14:21:27.665Z</time></trkpt><trkpt lat="44.844905" lon="9.4912583"><ele>522.8333333333334</ele><time>2026-04-18T14:21:30.665Z</time></trkpt><trkpt lat="44.8448433" lon="9.4912033"><ele>525.6666666666667</ele><time>2026-04-18T14:21:32.665Z</time></trkpt><trkpt lat="44.844785" lon="9.4911317"><ele>528.5</ele><time>2026-04-18T14:21:34.665Z</time></trkpt><trkpt lat="44.844725" lon="9.491065"><ele>531.3333333333334</ele><time>2026-04-18T14:21:36.665Z</time></trkpt><trkpt lat="44.8446517" lon="9.490995"><ele>534.1666666666666</ele><time>2026-04-18T14:21:38.665Z</time></trkpt><trkpt lat="44.8445767" lon="9.4909317"><ele>537.0</ele><time>2026-04-18T14:21:40.665Z</time></trkpt><trkpt lat="44.8445067" lon="9.490895"><ele>537.0</ele><time>2026-04-18T14:21:42.665Z</time></trkpt><trkpt lat="44.844425" lon="9.4908833"><ele>537.0</ele><time>2026-04-18T14:21:44.665Z</time></trkpt><trkpt lat="44.84435" lon="9.4908883"><ele>537.0</ele><time>2026-04-18T14:21:46.665Z</time></trkpt><trkpt lat="44.8442767" lon="9.4909017"><ele>537.0</ele><time>2026-04-18T14:21:48.665Z</time></trkpt><trkpt lat="44.8441983" lon="9.4909317"><ele>537.0</ele><time>2026-04-18T14:21:50.665Z</time></trkpt><trkpt lat="44.8441283" lon="9.4909433"><ele>537.0</ele><time>2026-04-18T14:21:52.666Z</time></trkpt><trkpt lat="44.8440583" lon="9.4909517"><ele>536.0</ele><time>2026-04-18T14:21:54.665Z</time></trkpt><trkpt lat="44.8439867" lon="9.4909717"><ele>535.0</ele><time>2026-04-18T14:21:56.665Z</time></trkpt><trkpt lat="44.84392" lon="9.49097"><ele>534.0</ele><time>2026-04-18T14:21:58.665Z</time></trkpt><trkpt lat="44.8438233" lon="9.49096"><ele>533.0</ele><time>2026-04-18T14:22:01.665Z</time></trkpt><trkpt lat="44.8437533" lon="9.49096"><ele>532.0</ele><time>2026-04-18T14:22:03.665Z</time></trkpt><trkpt lat="44.843675" lon="9.4909567"><ele>531.0</ele><time>2026-04-18T14:22:05.665Z</time></trkpt><trkpt lat="44.84359" lon="9.4909667"><ele>531.0</ele><time>2026-04-18T14:22:07.665Z</time></trkpt><trkpt lat="44.8435083" lon="9.4909883"><ele>531.0</ele><time>2026-04-18T14:22:09.665Z</time></trkpt><trkpt lat="44.8434367" lon="9.4909967"><ele>531.0</ele><time>2026-04-18T14:22:11.665Z</time></trkpt><trkpt lat="44.8433717" lon="9.4910033"><ele>531.0</ele><time>2026-04-18T14:22:13.665Z</time></trkpt><trkpt lat="44.8432967" lon="9.4910017"><ele>531.0</ele><time>2026-04-18T14:22:15.665Z</time></trkpt><trkpt lat="44.84321" lon="9.491"><ele>531.0</ele><time>2026-04-18T14:22:17.665Z</time></trkpt><trkpt lat="44.84311" lon="9.4909867"><ele>530.6</ele><time>2026-04-18T14:22:19.665Z</time></trkpt><trkpt lat="44.8430067" lon="9.49097"><ele>530.2</ele><time>2026-04-18T14:22:21.665Z</time></trkpt><trkpt lat="44.8428967" lon="9.490995"><ele>529.8</ele><time>2026-04-18T14:22:23.665Z</time></trkpt><trkpt lat="44.8428017" lon="9.4911233"><ele>529.4</ele><time>2026-04-18T14:22:25.665Z</time></trkpt><trkpt lat="44.8427633" lon="9.4912233"><ele>529.0</ele><time>2026-04-18T14:22:26.665Z</time></trkpt><trkpt lat="44.8427333" lon="9.4913517"><ele>526.2</ele><time>2026-04-18T14:22:27.665Z</time></trkpt><trkpt lat="44.8427183" lon="9.4914833"><ele>523.4</ele><time>2026-04-18T14:22:28.665Z</time></trkpt><trkpt lat="44.842715" lon="9.491625"><ele>520.6</ele><time>2026-04-18T14:22:29.666Z</time></trkpt><trkpt lat="44.84272" lon="9.491765"><ele>517.8</ele><time>2026-04-18T14:22:30.665Z</time></trkpt><trkpt lat="44.8427183" lon="9.4918917"><ele>515.0</ele><time>2026-04-18T14:22:31.665Z</time></trkpt><trkpt lat="44.8426983" lon="9.4920083"><ele>513.8</ele><time>2026-04-18T14:22:32.665Z</time></trkpt><trkpt lat="44.8426583" lon="9.492125"><ele>512.6</ele><time>2026-04-18T14:22:33.665Z</time></trkpt><trkpt lat="44.8426033" lon="9.4922333"><ele>511.4</ele><time>2026-04-18T14:22:34.665Z</time></trkpt><trkpt lat="44.8425333" lon="9.49233"><ele>510.2</ele><time>2026-04-18T14:22:35.665Z</time></trkpt><trkpt lat="44.8424633" lon="9.49242"><ele>509.0</ele><time>2026-04-18T14:22:36.665Z</time></trkpt><trkpt lat="44.842395" lon="9.4925133"><ele>508.99999999999994</ele><time>2026-04-18T14:22:37.665Z</time></trkpt><trkpt lat="44.8423333" lon="9.4926033"><ele>509.0</ele><time>2026-04-18T14:22:38.665Z</time></trkpt><trkpt lat="44.8422633" lon="9.4926917"><ele>509.0</ele><time>2026-04-18T14:22:39.665Z</time></trkpt><trkpt lat="44.8422067" lon="9.4927733"><ele>509.0</ele><time>2026-04-18T14:22:40.665Z</time></trkpt><trkpt lat="44.8421483" lon="9.4928583"><ele>508.99999999999994</ele><time>2026-04-18T14:22:41.665Z</time></trkpt><trkpt lat="44.8420983" lon="9.4929383"><ele>509.0</ele><time>2026-04-18T14:22:42.665Z</time></trkpt><trkpt lat="44.8420567" lon="9.4930167"><ele>508.0</ele><time>2026-04-18T14:22:43.665Z</time></trkpt><trkpt lat="44.84202" lon="9.4930933"><ele>507.0</ele><time>2026-04-18T14:22:44.665Z</time></trkpt><trkpt lat="44.8419567" lon="9.4932433"><ele>506.0</ele><time>2026-04-18T14:22:46.665Z</time></trkpt><trkpt lat="44.8418983" lon="9.4933867"><ele>505.0</ele><time>2026-04-18T14:22:48.665Z</time></trkpt><trkpt lat="44.84185" lon="9.493535"><ele>504.0</ele><time>2026-04-18T14:22:50.665Z</time></trkpt><trkpt lat="44.841815" lon="9.49365"><ele>503.8333333333333</ele><time>2026-04-18T14:22:52.665Z</time></trkpt><trkpt lat="44.8417467" lon="9.4936767"><ele>503.66666666666663</ele><time>2026-04-18T14:22:54.665Z</time></trkpt><trkpt lat="44.8416717" lon="9.493585"><ele>503.5</ele><time>2026-04-18T14:22:56.665Z</time></trkpt><trkpt lat="44.8416283" lon="9.4935067"><ele>503.3333333333333</ele><time>2026-04-18T14:22:57.665Z</time></trkpt><trkpt lat="44.8415767" lon="9.4934267"><ele>503.16666666666663</ele><time>2026-04-18T14:22:58.666Z</time></trkpt><trkpt lat="44.8415167" lon="9.4933483"><ele>503.0</ele><time>2026-04-18T14:22:59.665Z</time></trkpt><trkpt lat="44.8414483" lon="9.4932883"><ele>502.99999999999994</ele><time>2026-04-18T14:23:00.665Z</time></trkpt><trkpt lat="44.8413717" lon="9.4932367"><ele>503.0</ele><time>2026-04-18T14:23:01.665Z</time></trkpt><trkpt lat="44.8412967" lon="9.4931983"><ele>503.0</ele><time>2026-04-18T14:23:02.665Z</time></trkpt><trkpt lat="44.841225" lon="9.4931667"><ele>503.0</ele><time>2026-04-18T14:23:03.665Z</time></trkpt><trkpt lat="44.8411517" lon="9.4931383"><ele>502.99999999999994</ele><time>2026-04-18T14:23:04.665Z</time></trkpt><trkpt lat="44.8410867" lon="9.493105"><ele>503.0</ele><time>2026-04-18T14:23:05.665Z</time></trkpt><trkpt lat="44.841025" lon="9.493075"><ele>503.0</ele><time>2026-04-18T14:23:06.665Z</time></trkpt><trkpt lat="44.84097" lon="9.4930283"><ele>503.00000000000006</ele><time>2026-04-18T14:23:07.665Z</time></trkpt><trkpt lat="44.840925" lon="9.4929533"><ele>503.0</ele><time>2026-04-18T14:23:08.665Z</time></trkpt><trkpt lat="44.8408967" lon="9.4928617"><ele>503.0</ele><time>2026-04-18T14:23:09.665Z</time></trkpt><trkpt lat="44.84089" lon="9.4927617"><ele>503.00000000000006</ele><time>2026-04-18T14:23:10.666Z</time></trkpt><trkpt lat="44.8409133" lon="9.4926483"><ele>503.0</ele><time>2026-04-18T14:23:11.665Z</time></trkpt><trkpt lat="44.84097" lon="9.4925567"><ele>503.0</ele><time>2026-04-18T14:23:12.665Z</time></trkpt><trkpt lat="44.8410483" lon="9.492475"><ele>502.0</ele><time>2026-04-18T14:23:13.665Z</time></trkpt><trkpt lat="44.841115" lon="9.49236"><ele>500.99999999999994</ele><time>2026-04-18T14:23:14.665Z</time></trkpt><trkpt lat="44.84116" lon="9.4922433"><ele>499.99999999999994</ele><time>2026-04-18T14:23:15.665Z</time></trkpt><trkpt lat="44.8412" lon="9.4921267"><ele>499.0</ele><time>2026-04-18T14:23:16.665Z</time></trkpt><trkpt lat="44.841235" lon="9.492015"><ele>498.0</ele><time>2026-04-18T14:23:17.665Z</time></trkpt><trkpt lat="44.8412617" lon="9.4919017"><ele>497.0</ele><time>2026-04-18T14:23:18.665Z</time></trkpt><trkpt lat="44.841265" lon="9.4917817"><ele>496.0</ele><time>2026-04-18T14:23:19.665Z</time></trkpt><trkpt lat="44.84126" lon="9.491665"><ele>495.0</ele><time>2026-04-18T14:23:20.665Z</time></trkpt><trkpt lat="44.8412517" lon="9.491565"><ele>494.0</ele><time>2026-04-18T14:23:21.665Z</time></trkpt><trkpt lat="44.8412467" lon="9.49147"><ele>493.0</ele><time>2026-04-18T14:23:22.665Z</time></trkpt><trkpt lat="44.8412533" lon="9.4912983"><ele>492.0</ele><time>2026-04-18T14:23:24.666Z</time></trkpt><trkpt lat="44.8412267" lon="9.4911617"><ele>492.0</ele><time>2026-04-18T14:23:26.665Z</time></trkpt><trkpt lat="44.84114" lon="9.4911283"><ele>492.00000000000006</ele><time>2026-04-18T14:23:28.666Z</time></trkpt><trkpt lat="44.8410617" lon="9.4912267"><ele>492.00000000000006</ele><time>2026-04-18T14:23:30.665Z</time></trkpt><trkpt lat="44.8410317" lon="9.491305"><ele>492.0</ele><time>2026-04-18T14:23:31.665Z</time></trkpt><trkpt lat="44.84098" lon="9.491435"><ele>492.0</ele><time>2026-04-18T14:23:33.665Z</time></trkpt><trkpt lat="44.8408783" lon="9.4914567"><ele>487.6</ele><time>2026-04-18T14:23:35.665Z</time></trkpt><trkpt lat="44.8407783" lon="9.4914217"><ele>483.20000000000005</ele><time>2026-04-18T14:23:37.665Z</time></trkpt><trkpt lat="44.8406667" lon="9.4913683"><ele>478.8</ele><time>2026-04-18T14:23:39.666Z</time></trkpt><trkpt lat="44.8405567" lon="9.4913133"><ele>474.4</ele><time>2026-04-18T14:23:41.665Z</time></trkpt><trkpt lat="44.8404967" lon="9.4912717"><ele>470.0</ele><time>2026-04-18T14:23:42.665Z</time></trkpt><trkpt lat="44.8404467" lon="9.49121"><ele>469.2</ele><time>2026-04-18T14:23:43.665Z</time></trkpt><trkpt lat="44.84038" lon="9.4910633"><ele>468.4</ele><time>2026-04-18T14:23:45.665Z</time></trkpt><trkpt lat="44.8402833" lon="9.490965"><ele>467.6</ele><time>2026-04-18T14:23:47.665Z</time></trkpt><trkpt lat="44.8401817" lon="9.4908917"><ele>466.8</ele><time>2026-04-18T14:23:49.665Z</time></trkpt><trkpt lat="44.8401033" lon="9.4908333"><ele>466.0</ele><time>2026-04-18T14:23:51.665Z</time></trkpt><trkpt lat="44.8400067" lon="9.4907733"><ele>462.6666666666667</ele><time>2026-04-18T14:23:53.665Z</time></trkpt><trkpt lat="44.8399467" lon="9.4907417"><ele>459.33333333333337</ele><time>2026-04-18T14:23:54.665Z</time></trkpt><trkpt lat="44.8398833" lon="9.4907183"><ele>456.0</ele><time>2026-04-18T14:23:55.665Z</time></trkpt><trkpt lat="44.8397717" lon="9.4906683"><ele>452.66666666666663</ele><time>2026-04-18T14:23:57.665Z</time></trkpt><trkpt lat="44.8396583" lon="9.49061"><ele>449.3333333333333</ele><time>2026-04-18T14:23:59.665Z</time></trkpt><trkpt lat="44.8395967" lon="9.49058"><ele>446.0</ele><time>2026-04-18T14:24:00.665Z</time></trkpt><trkpt lat="44.8394833" lon="9.4905283"><ele>445.99999999999994</ele><time>2026-04-18T14:24:02.665Z</time></trkpt><trkpt lat="44.8394217" lon="9.49049"><ele>446.0</ele><time>2026-04-18T14:24:03.665Z</time></trkpt><trkpt lat="44.8393533" lon="9.490445"><ele>446.0</ele><time>2026-04-18T14:24:04.665Z</time></trkpt><trkpt lat="44.8392867" lon="9.4903983"><ele>446.0</ele><time>2026-04-18T14:24:05.665Z</time></trkpt><trkpt lat="44.8392317" lon="9.4903417"><ele>445.99999999999994</ele><time>2026-04-18T14:24:06.665Z</time></trkpt><trkpt lat="44.839185" lon="9.490275"><ele>446.0</ele><time>2026-04-18T14:24:07.665Z</time></trkpt><trkpt lat="44.839115" lon="9.490155"><ele>442.8</ele><time>2026-04-18T14:24:09.665Z</time></trkpt><trkpt lat="44.8390517" lon="9.4900483"><ele>439.6</ele><time>2026-04-18T14:24:11.665Z</time></trkpt><trkpt lat="44.8389583" lon="9.49"><ele>436.4</ele><time>2026-04-18T14:24:13.665Z</time></trkpt><trkpt lat="44.83887" lon="9.49"><ele>433.2</ele><time>2026-04-18T14:24:15.665Z</time></trkpt><trkpt lat="44.8388" lon="9.490075"><ele>430.0</ele><time>2026-04-18T14:24:17.665Z</time></trkpt><trkpt lat="44.8387383" lon="9.49018"><ele>430.00000000000006</ele><time>2026-04-18T14:24:19.665Z</time></trkpt><trkpt lat="44.83869" lon="9.4902583"><ele>430.0</ele><time>2026-04-18T14:24:22.665Z</time></trkpt><trkpt lat="44.838635" lon="9.4901967"><ele>430.0</ele><time>2026-04-18T14:24:27.665Z</time></trkpt><trkpt lat="44.8386617" lon="9.49008"><ele>430.0</ele><time>2026-04-18T14:24:30.665Z</time></trkpt><trkpt lat="44.8387017" lon="9.4899533"><ele>430.00000000000006</ele><time>2026-04-18T14:24:33.665Z</time></trkpt><trkpt lat="44.8387233" lon="9.489845"><ele>430.0</ele><time>2026-04-18T14:24:35.665Z</time></trkpt><trkpt lat="44.838745" lon="9.4897417"><ele>430.00000000000006</ele><time>2026-04-18T14:24:37.665Z</time></trkpt><trkpt lat="44.8387683" lon="9.4896483"><ele>430.0</ele><time>2026-04-18T14:24:39.665Z</time></trkpt><trkpt lat="44.8388083" lon="9.48953"><ele>430.0</ele><time>2026-04-18T14:24:42.665Z</time></trkpt><trkpt lat="44.8388467" lon="9.4894117"><ele>430.0</ele><time>2026-04-18T14:24:45.665Z</time></trkpt><trkpt lat="44.838865" lon="9.489325"><ele>430.00000000000006</ele><time>2026-04-18T14:24:47.665Z</time></trkpt><trkpt lat="44.8388917" lon="9.4892283"><ele>430.0</ele><time>2026-04-18T14:24:49.666Z</time></trkpt><trkpt lat="44.8389133" lon="9.4891367"><ele>430.57142857142856</ele><time>2026-04-18T14:24:51.665Z</time></trkpt><trkpt lat="44.83895" lon="9.489015"><ele>431.14285714285717</ele><time>2026-04-18T14:24:54.665Z</time></trkpt><trkpt lat="44.8389767" lon="9.4889267"><ele>431.7142857142857</ele><time>2026-04-18T14:24:56.666Z</time></trkpt><trkpt lat="44.8389883" lon="9.4888317"><ele>432.2857142857143</ele><time>2026-04-18T14:24:58.665Z</time></trkpt><trkpt lat="44.8389983" lon="9.4887383"><ele>432.8571428571429</ele><time>2026-04-18T14:25:00.665Z</time></trkpt><trkpt lat="44.8389833" lon="9.4886467"><ele>433.42857142857144</ele><time>2026-04-18T14:25:02.665Z</time></trkpt><trkpt lat="44.838945" lon="9.4885733"><ele>434.0</ele><time>2026-04-18T14:25:04.665Z</time></trkpt><trkpt lat="44.8388817" lon="9.48854"><ele>435.0</ele><time>2026-04-18T14:25:06.665Z</time></trkpt><trkpt lat="44.8388117" lon="9.4885333"><ele>436.0</ele><time>2026-04-18T14:25:08.665Z</time></trkpt><trkpt lat="44.8387467" lon="9.4885233"><ele>437.0</ele><time>2026-04-18T14:25:10.665Z</time></trkpt><trkpt lat="44.8386817" lon="9.488505"><ele>438.0</ele><time>2026-04-18T14:25:12.665Z</time></trkpt><trkpt lat="44.8386233" lon="9.48846"><ele>439.0</ele><time>2026-04-18T14:25:14.665Z</time></trkpt><trkpt lat="44.8385617" lon="9.4883833"><ele>440.0</ele><time>2026-04-18T14:25:17.665Z</time></trkpt><trkpt lat="44.8385167" lon="9.4883167"><ele>441.0</ele><time>2026-04-18T14:25:19.665Z</time></trkpt><trkpt lat="44.838475" lon="9.4882433"><ele>440.5</ele><time>2026-04-18T14:25:21.665Z</time></trkpt><trkpt lat="44.8384217" lon="9.488175"><ele>440.0</ele><time>2026-04-18T14:25:23.665Z</time></trkpt><trkpt lat="44.8383667" lon="9.4881267"><ele>439.5</ele><time>2026-04-18T14:25:25.665Z</time></trkpt><trkpt lat="44.8382783" lon="9.488115"><ele>439.0</ele><time>2026-04-18T14:25:28.665Z</time></trkpt><trkpt lat="44.8381917" lon="9.48811"><ele>438.5</ele><time>2026-04-18T14:25:31.665Z</time></trkpt><trkpt lat="44.83811" lon="9.4880883"><ele>438.0</ele><time>2026-04-18T14:25:34.665Z</time></trkpt><trkpt lat="44.8380217" lon="9.48806"><ele>438.0</ele><time>2026-04-18T14:25:37.665Z</time></trkpt><trkpt lat="44.8379383" lon="9.4880417"><ele>438.0</ele><time>2026-04-18T14:25:40.665Z</time></trkpt><trkpt lat="44.83787" lon="9.4880467"><ele>438.0</ele><time>2026-04-18T14:25:42.665Z</time></trkpt><trkpt lat="44.8378067" lon="9.4880617"><ele>438.0</ele><time>2026-04-18T14:25:44.665Z</time></trkpt><trkpt lat="44.8377117" lon="9.4880733"><ele>438.0</ele><time>2026-04-18T14:25:47.666Z</time></trkpt><trkpt lat="44.8376233" lon="9.4880717"><ele>438.0</ele><time>2026-04-18T14:25:50.665Z</time></trkpt><trkpt lat="44.8375433" lon="9.4880217"><ele>438.1666666666667</ele><time>2026-04-18T14:25:53.665Z</time></trkpt><trkpt lat="44.837475" lon="9.4879467"><ele>438.33333333333337</ele><time>2026-04-18T14:25:56.665Z</time></trkpt><trkpt lat="44.8374217" lon="9.4878633"><ele>438.5</ele><time>2026-04-18T14:25:59.665Z</time></trkpt><trkpt lat="44.8373817" lon="9.4877933"><ele>438.6666666666667</ele><time>2026-04-18T14:26:01.665Z</time></trkpt><trkpt lat="44.8373417" lon="9.4876867"><ele>438.83333333333337</ele><time>2026-04-18T14:26:04.665Z</time></trkpt><trkpt lat="44.8372933" lon="9.487585"><ele>439.0</ele><time>2026-04-18T14:26:07.665Z</time></trkpt><trkpt lat="44.837235" lon="9.4874917"><ele>441.1666666666667</ele><time>2026-04-18T14:26:10.666Z</time></trkpt><trkpt lat="44.8371717" lon="9.4874333"><ele>443.33333333333337</ele><time>2026-04-18T14:26:13.665Z</time></trkpt><trkpt lat="44.8371033" lon="9.487395"><ele>445.5</ele><time>2026-04-18T14:26:16.665Z</time></trkpt><trkpt lat="44.83702" lon="9.4873717"><ele>447.66666666666663</ele><time>2026-04-18T14:26:19.666Z</time></trkpt><trkpt lat="44.836945" lon="9.4873283"><ele>449.8333333333333</ele><time>2026-04-18T14:26:22.665Z</time></trkpt><trkpt lat="44.836875" lon="9.4873117"><ele>452.0</ele><time>2026-04-18T14:26:25.665Z</time></trkpt><trkpt lat="44.8367883" lon="9.487305"><ele>452.49999999999994</ele><time>2026-04-18T14:26:28.665Z</time></trkpt><trkpt lat="44.8367183" lon="9.4872417"><ele>453.0</ele><time>2026-04-18T14:26:31.665Z</time></trkpt><trkpt lat="44.8367317" lon="9.4871217"><ele>453.5</ele><time>2026-04-18T14:26:34.665Z</time></trkpt><trkpt lat="44.836775" lon="9.4870467"><ele>454.0</ele><time>2026-04-18T14:26:37.665Z</time></trkpt><trkpt lat="44.8368317" lon="9.486965"><ele>454.49999999999994</ele><time>2026-04-18T14:26:40.665Z</time></trkpt><trkpt lat="44.8368983" lon="9.4868917"><ele>455.0</ele><time>2026-04-18T14:26:43.666Z</time></trkpt><trkpt lat="44.8369533" lon="9.4868067"><ele>456.8333333333333</ele><time>2026-04-18T14:26:46.665Z</time></trkpt><trkpt lat="44.8370067" lon="9.4867167"><ele>458.66666666666663</ele><time>2026-04-18T14:26:49.665Z</time></trkpt><trkpt lat="44.8370767" lon="9.4866683"><ele>460.5</ele><time>2026-04-18T14:26:52.666Z</time></trkpt><trkpt lat="44.8371567" lon="9.48665"><ele>462.33333333333337</ele><time>2026-04-18T14:26:55.665Z</time></trkpt><trkpt lat="44.83724" lon="9.4866267"><ele>464.1666666666667</ele><time>2026-04-18T14:26:58.665Z</time></trkpt><trkpt lat="44.8373233" lon="9.48662"><ele>466.0</ele><time>2026-04-18T14:27:01.665Z</time></trkpt><trkpt lat="44.8374033" lon="9.4865667"><ele>466.00000000000006</ele><time>2026-04-18T14:27:04.665Z</time></trkpt><trkpt lat="44.83746" lon="9.4865267"><ele>466.0</ele><time>2026-04-18T14:27:06.665Z</time></trkpt><trkpt lat="44.837535" lon="9.4864583"><ele>466.0</ele><time>2026-04-18T14:27:09.665Z</time></trkpt><trkpt lat="44.8376033" lon="9.4863733"><ele>466.0</ele><time>2026-04-18T14:27:12.665Z</time></trkpt><trkpt lat="44.8376667" lon="9.48629"><ele>466.00000000000006</ele><time>2026-04-18T14:27:15.665Z</time></trkpt><trkpt lat="44.8377233" lon="9.4861983"><ele>466.0</ele><time>2026-04-18T14:27:18.665Z</time></trkpt><trkpt lat="44.8377833" lon="9.4861133"><ele>467.83333333333337</ele><time>2026-04-18T14:27:21.665Z</time></trkpt><trkpt lat="44.8378417" lon="9.4860267"><ele>469.6666666666667</ele><time>2026-04-18T14:27:24.665Z</time></trkpt><trkpt lat="44.8379" lon="9.4859417"><ele>471.5</ele><time>2026-04-18T14:27:27.665Z</time></trkpt><trkpt lat="44.8379483" lon="9.4858517"><ele>473.33333333333337</ele><time>2026-04-18T14:27:30.665Z</time></trkpt><trkpt lat="44.8379917" lon="9.485755"><ele>475.1666666666667</ele><time>2026-04-18T14:27:33.665Z</time></trkpt><trkpt lat="44.8380317" lon="9.4856383"><ele>477.0</ele><time>2026-04-18T14:27:36.665Z</time></trkpt><trkpt lat="44.8380667" lon="9.4855317"><ele>478.8333333333333</ele><time>2026-04-18T14:27:39.665Z</time></trkpt><trkpt lat="44.8380833" lon="9.4854183"><ele>480.66666666666663</ele><time>2026-04-18T14:27:42.665Z</time></trkpt><trkpt lat="44.838095" lon="9.4852983"><ele>482.5</ele><time>2026-04-18T14:27:45.665Z</time></trkpt><trkpt lat="44.8380967" lon="9.48518"><ele>484.3333333333333</ele><time>2026-04-18T14:27:48.665Z</time></trkpt><trkpt lat="44.8380933" lon="9.4850683"><ele>486.16666666666663</ele><time>2026-04-18T14:27:51.665Z</time></trkpt><trkpt lat="44.838095" lon="9.484955"><ele>488.0</ele><time>2026-04-18T14:27:54.665Z</time></trkpt><trkpt lat="44.8381017" lon="9.4848217"><ele>487.99999999999994</ele><time>2026-04-18T14:27:57.665Z</time></trkpt><trkpt lat="44.83815" lon="9.48473"><ele>488.0</ele><time>2026-04-18T14:28:00.665Z</time></trkpt><trkpt lat="44.838225" lon="9.4847033"><ele>488.0</ele><time>2026-04-18T14:28:03.665Z</time></trkpt><trkpt lat="44.8382983" lon="9.4846683"><ele>488.0</ele><time>2026-04-18T14:28:06.665Z</time></trkpt><trkpt lat="44.8383683" lon="9.4845933"><ele>487.99999999999994</ele><time>2026-04-18T14:28:09.665Z</time></trkpt><trkpt lat="44.8383717" lon="9.4844833"><ele>488.0</ele><time>2026-04-18T14:28:12.665Z</time></trkpt><trkpt lat="44.8383217" lon="9.4843917"><ele>490.16666666666663</ele><time>2026-04-18T14:28:15.665Z</time></trkpt><trkpt lat="44.8382717" lon="9.4843017"><ele>492.3333333333333</ele><time>2026-04-18T14:28:18.665Z</time></trkpt><trkpt lat="44.8381983" lon="9.48424"><ele>494.5</ele><time>2026-04-18T14:28:21.666Z</time></trkpt><trkpt lat="44.8381167" lon="9.484245"><ele>496.66666666666663</ele><time>2026-04-18T14:28:24.665Z</time></trkpt><trkpt lat="44.83804" lon="9.4842933"><ele>498.8333333333333</ele><time>2026-04-18T14:28:27.665Z</time></trkpt><trkpt lat="44.8379783" lon="9.48433"><ele>501.0</ele><time>2026-04-18T14:28:29.665Z</time></trkpt><trkpt lat="44.83792" lon="9.48437"><ele>501.0</ele><time>2026-04-18T14:28:31.665Z</time></trkpt><trkpt lat="44.83786" lon="9.4843983"><ele>501.0</ele><time>2026-04-18T14:28:33.665Z</time></trkpt><trkpt lat="44.8377783" lon="9.4844183"><ele>501.0</ele><time>2026-04-18T14:28:36.665Z</time></trkpt><trkpt lat="44.8376967" lon="9.4844483"><ele>501.0</ele><time>2026-04-18T14:28:39.665Z</time></trkpt><trkpt lat="44.837605" lon="9.48447"><ele>501.0</ele><time>2026-04-18T14:28:42.665Z</time></trkpt><trkpt lat="44.8375233" lon="9.484525"><ele>501.0</ele><time>2026-04-18T14:28:45.665Z</time></trkpt><trkpt lat="44.83747" lon="9.484575"><ele>500.0</ele><time>2026-04-18T14:28:47.665Z</time></trkpt><trkpt lat="44.8373967" lon="9.48463"><ele>499.0</ele><time>2026-04-18T14:28:50.665Z</time></trkpt><trkpt lat="44.8373133" lon="9.4846467"><ele>498.0</ele><time>2026-04-18T14:28:53.665Z</time></trkpt><trkpt lat="44.8372317" lon="9.484615"><ele>497.0</ele><time>2026-04-18T14:28:56.665Z</time></trkpt><trkpt lat="44.8371733" lon="9.484575"><ele>496.0</ele><time>2026-04-18T14:28:58.665Z</time></trkpt><trkpt lat="44.837095" lon="9.4845383"><ele>495.0</ele><time>2026-04-18T14:29:01.665Z</time></trkpt><trkpt lat="44.8370067" lon="9.4845067"><ele>497.1666666666667</ele><time>2026-04-18T14:29:04.665Z</time></trkpt><trkpt lat="44.8369217" lon="9.4844883"><ele>499.33333333333337</ele><time>2026-04-18T14:29:07.665Z</time></trkpt><trkpt lat="44.8368383" lon="9.48446"><ele>501.5</ele><time>2026-04-18T14:29:10.665Z</time></trkpt><trkpt lat="44.83676" lon="9.4844333"><ele>503.6666666666667</ele><time>2026-04-18T14:29:13.665Z</time></trkpt><trkpt lat="44.836685" lon="9.4844017"><ele>505.83333333333337</ele><time>2026-04-18T14:29:16.665Z</time></trkpt><trkpt lat="44.8366133" lon="9.4843533"><ele>508.0</ele><time>2026-04-18T14:29:19.665Z</time></trkpt><trkpt lat="44.83654" lon="9.4842883"><ele>509.50000000000006</ele><time>2026-04-18T14:29:22.665Z</time></trkpt><trkpt lat="44.836475" lon="9.484205"><ele>511.0</ele><time>2026-04-18T14:29:25.665Z</time></trkpt><trkpt lat="44.8364267" lon="9.4841017"><ele>512.5</ele><time>2026-04-18T14:29:28.665Z</time></trkpt><trkpt lat="44.8363883" lon="9.484"><ele>514.0</ele><time>2026-04-18T14:29:31.665Z</time></trkpt><trkpt lat="44.8363517" lon="9.48392"><ele>515.5</ele><time>2026-04-18T14:29:34.665Z</time></trkpt><trkpt lat="44.836315" lon="9.4838467"><ele>517.0</ele><time>2026-04-18T14:29:36.665Z</time></trkpt><trkpt lat="44.836265" lon="9.483745"><ele>518.5</ele><time>2026-04-18T14:29:39.665Z</time></trkpt><trkpt lat="44.836225" lon="9.4836383"><ele>520.0</ele><time>2026-04-18T14:29:42.665Z</time></trkpt><trkpt lat="44.8362067" lon="9.483545"><ele>521.5</ele><time>2026-04-18T14:29:44.665Z</time></trkpt><trkpt lat="44.8361833" lon="9.4834517"><ele>523.0</ele><time>2026-04-18T14:29:46.665Z</time></trkpt><trkpt lat="44.8361683" lon="9.4833217"><ele>524.5</ele><time>2026-04-18T14:29:49.665Z</time></trkpt><trkpt lat="44.83617" lon="9.4832067"><ele>526.0</ele><time>2026-04-18T14:29:52.665Z</time></trkpt><trkpt lat="44.8361833" lon="9.4830917"><ele>526.0</ele><time>2026-04-18T14:29:55.665Z</time></trkpt><trkpt lat="44.83621" lon="9.4829667"><ele>526.0</ele><time>2026-04-18T14:29:58.665Z</time></trkpt><trkpt lat="44.8362467" lon="9.48285"><ele>526.0</ele><time>2026-04-18T14:30:01.665Z</time></trkpt><trkpt lat="44.836275" lon="9.4827633"><ele>526.0</ele><time>2026-04-18T14:30:03.665Z</time></trkpt><trkpt lat="44.8363017" lon="9.48268"><ele>526.0</ele><time>2026-04-18T14:30:05.665Z</time></trkpt><trkpt lat="44.8363283" lon="9.4825617"><ele>526.0</ele><time>2026-04-18T14:30:08.665Z</time></trkpt><trkpt lat="44.8363067" lon="9.482435"><ele>527.0</ele><time>2026-04-18T14:30:11.665Z</time></trkpt><trkpt lat="44.83627" lon="9.4823417"><ele>528.0</ele><time>2026-04-18T14:30:13.665Z</time></trkpt><trkpt lat="44.8362267" lon="9.48225"><ele>529.0</ele><time>2026-04-18T14:30:15.665Z</time></trkpt><trkpt lat="44.8361783" lon="9.4821367"><ele>530.0</ele><time>2026-04-18T14:30:17.665Z</time></trkpt><trkpt lat="44.83612" lon="9.482015"><ele>531.0</ele><time>2026-04-18T14:30:19.665Z</time></trkpt><trkpt lat="44.836055" lon="9.4818617"><ele>530.8571428571429</ele><time>2026-04-18T14:30:21.665Z</time></trkpt><trkpt lat="44.8360133" lon="9.4817883"><ele>530.7142857142858</ele><time>2026-04-18T14:30:22.665Z</time></trkpt><trkpt lat="44.8359617" lon="9.481715"><ele>530.5714285714286</ele><time>2026-04-18T14:30:23.665Z</time></trkpt><trkpt lat="44.8359083" lon="9.48165"><ele>530.4285714285714</ele><time>2026-04-18T14:30:24.665Z</time></trkpt><trkpt lat="44.8358483" lon="9.4816067"><ele>530.2857142857142</ele><time>2026-04-18T14:30:25.665Z</time></trkpt><trkpt lat="44.8357733" lon="9.4815817"><ele>530.1428571428571</ele><time>2026-04-18T14:30:26.665Z</time></trkpt><trkpt lat="44.8357" lon="9.481555"><ele>530.0</ele><time>2026-04-18T14:30:27.665Z</time></trkpt><trkpt lat="44.8356317" lon="9.481545"><ele>530.0</ele><time>2026-04-18T14:30:28.665Z</time></trkpt><trkpt lat="44.8355667" lon="9.481535"><ele>530.0</ele><time>2026-04-18T14:30:29.665Z</time></trkpt><trkpt lat="44.8354483" lon="9.4815067"><ele>530.0</ele><time>2026-04-18T14:30:31.665Z</time></trkpt><trkpt lat="44.835345" lon="9.48147"><ele>530.0</ele><time>2026-04-18T14:30:33.665Z</time></trkpt><trkpt lat="44.8352567" lon="9.48144"><ele>530.0</ele><time>2026-04-18T14:30:35.666Z</time></trkpt><trkpt lat="44.8351917" lon="9.481435"><ele>530.0</ele><time>2026-04-18T14:30:37.665Z</time></trkpt><trkpt lat="44.8351017" lon="9.4814433"><ele>529.1428571428571</ele><time>2026-04-18T14:30:40.665Z</time></trkpt><trkpt lat="44.8350383" lon="9.4814583"><ele>528.2857142857142</ele><time>2026-04-18T14:30:42.665Z</time></trkpt><trkpt lat="44.834975" lon="9.48147"><ele>527.4285714285714</ele><time>2026-04-18T14:30:44.665Z</time></trkpt><trkpt lat="44.8349117" lon="9.4814683"><ele>526.5714285714286</ele><time>2026-04-18T14:30:46.665Z</time></trkpt><trkpt lat="44.8348467" lon="9.4814617"><ele>525.7142857142858</ele><time>2026-04-18T14:30:48.665Z</time></trkpt><trkpt lat="44.8347833" lon="9.4814383"><ele>524.8571428571429</ele><time>2026-04-18T14:30:50.665Z</time></trkpt><trkpt lat="44.83471" lon="9.4814"><ele>524.0</ele><time>2026-04-18T14:30:52.665Z</time></trkpt><trkpt lat="44.8346167" lon="9.481335"><ele>524.3333333333333</ele><time>2026-04-18T14:30:54.665Z</time></trkpt><trkpt lat="44.8345217" lon="9.4812567"><ele>524.6666666666666</ele><time>2026-04-18T14:30:56.665Z</time></trkpt><trkpt lat="44.83447" lon="9.4812033"><ele>525.0</ele><time>2026-04-18T14:30:57.665Z</time></trkpt><trkpt lat="44.8344183" lon="9.48114"><ele>525.3333333333334</ele><time>2026-04-18T14:30:58.665Z</time></trkpt><trkpt lat="44.8343683" lon="9.4810717"><ele>525.6666666666667</ele><time>2026-04-18T14:30:59.665Z</time></trkpt><trkpt lat="44.834325" lon="9.4809917"><ele>526.0</ele><time>2026-04-18T14:31:00.665Z</time></trkpt><trkpt lat="44.8342883" lon="9.4809033"><ele>526.0</ele><time>2026-04-18T14:31:01.665Z</time></trkpt><trkpt lat="44.8342617" lon="9.48081"><ele>526.0</ele><time>2026-04-18T14:31:02.665Z</time></trkpt><trkpt lat="44.8342417" lon="9.480715"><ele>526.0</ele><time>2026-04-18T14:31:03.665Z</time></trkpt><trkpt lat="44.8342183" lon="9.48062"><ele>526.0</ele><time>2026-04-18T14:31:04.665Z</time></trkpt><trkpt lat="44.834195" lon="9.480525"><ele>526.0</ele><time>2026-04-18T14:31:05.665Z</time></trkpt><trkpt lat="44.834165" lon="9.4804417"><ele>526.0</ele><time>2026-04-18T14:31:06.665Z</time></trkpt><trkpt lat="44.83412" lon="9.480315"><ele>528.7142857142857</ele><time>2026-04-18T14:31:08.665Z</time></trkpt><trkpt lat="44.834085" lon="9.4802267"><ele>531.4285714285713</ele><time>2026-04-18T14:31:10.665Z</time></trkpt><trkpt lat="44.8340517" lon="9.48015"><ele>534.1428571428571</ele><time>2026-04-18T14:31:12.665Z</time></trkpt><trkpt lat="44.8340117" lon="9.4800767"><ele>536.8571428571429</ele><time>2026-04-18T14:31:14.665Z</time></trkpt><trkpt lat="44.8339867" lon="9.479995"><ele>539.5714285714287</ele><time>2026-04-18T14:31:16.665Z</time></trkpt><trkpt lat="44.83395" lon="9.4799133"><ele>542.2857142857143</ele><time>2026-04-18T14:31:18.665Z</time></trkpt><trkpt lat="44.8339183" lon="9.479835"><ele>545.0</ele><time>2026-04-18T14:31:20.665Z</time></trkpt><trkpt lat="44.8338817" lon="9.479755"><ele>545.0</ele><time>2026-04-18T14:31:22.666Z</time></trkpt><trkpt lat="44.8338233" lon="9.4796533"><ele>545.0</ele><time>2026-04-18T14:31:25.665Z</time></trkpt><trkpt lat="44.8337767" lon="9.4795933"><ele>545.0</ele><time>2026-04-18T14:31:27.665Z</time></trkpt><trkpt lat="44.8337167" lon="9.4795067"><ele>545.0</ele><time>2026-04-18T14:31:30.666Z</time></trkpt><trkpt lat="44.8336633" lon="9.4794017"><ele>545.0</ele><time>2026-04-18T14:31:33.665Z</time></trkpt><trkpt lat="44.8336383" lon="9.4793083"><ele>545.0</ele><time>2026-04-18T14:31:35.666Z</time></trkpt><trkpt lat="44.8336233" lon="9.4791833"><ele>549.2</ele><time>2026-04-18T14:31:38.665Z</time></trkpt><trkpt lat="44.8336083" lon="9.4790567"><ele>553.4</ele><time>2026-04-18T14:31:41.665Z</time></trkpt><trkpt lat="44.8336133" lon="9.4789383"><ele>557.6</ele><time>2026-04-18T14:31:44.665Z</time></trkpt><trkpt lat="44.8336067" lon="9.4788067"><ele>561.8</ele><time>2026-04-18T14:31:47.665Z</time></trkpt><trkpt lat="44.833585" lon="9.47868"><ele>566.0</ele><time>2026-04-18T14:31:50.665Z</time></trkpt><trkpt lat="44.8335633" lon="9.4785533"><ele>567.0</ele><time>2026-04-18T14:31:53.665Z</time></trkpt><trkpt lat="44.8335417" lon="9.4784633"><ele>568.0</ele><time>2026-04-18T14:31:55.665Z</time></trkpt><trkpt lat="44.83352" lon="9.4783783"><ele>569.0</ele><time>2026-04-18T14:31:57.665Z</time></trkpt><trkpt lat="44.8335233" lon="9.4782517"><ele>570.0</ele><time>2026-04-18T14:32:00.665Z</time></trkpt><trkpt lat="44.8335617" lon="9.4781367"><ele>571.0</ele><time>2026-04-18T14:32:03.666Z</time></trkpt><trkpt lat="44.833605" lon="9.47803"><ele>572.0</ele><time>2026-04-18T14:32:06.665Z</time></trkpt><trkpt lat="44.8336333" lon="9.4779117"><ele>572.1428571428571</ele><time>2026-04-18T14:32:09.665Z</time></trkpt><trkpt lat="44.8336517" lon="9.47782"><ele>572.2857142857142</ele><time>2026-04-18T14:32:11.665Z</time></trkpt><trkpt lat="44.83367" lon="9.4777233"><ele>572.4285714285714</ele><time>2026-04-18T14:32:13.666Z</time></trkpt><trkpt lat="44.8336783" lon="9.4776333"><ele>572.5714285714286</ele><time>2026-04-18T14:32:15.665Z</time></trkpt><trkpt lat="44.8336817" lon="9.4775433"><ele>572.7142857142858</ele><time>2026-04-18T14:32:17.665Z</time></trkpt><trkpt lat="44.8336917" lon="9.477425"><ele>572.8571428571429</ele><time>2026-04-18T14:32:20.665Z</time></trkpt><trkpt lat="44.8337233" lon="9.4773083"><ele>573.0</ele><time>2026-04-18T14:32:23.665Z</time></trkpt><trkpt lat="44.83374" lon="9.4771867"><ele>572.6</ele><time>2026-04-18T14:32:26.665Z</time></trkpt><trkpt lat="44.833735" lon="9.4770533"><ele>572.1999999999999</ele><time>2026-04-18T14:32:29.665Z</time></trkpt><trkpt lat="44.833725" lon="9.4769267"><ele>571.8</ele><time>2026-04-18T14:32:32.665Z</time></trkpt><trkpt lat="44.8337167" lon="9.4768033"><ele>571.4</ele><time>2026-04-18T14:32:35.665Z</time></trkpt><trkpt lat="44.833725" lon="9.4766783"><ele>571.0</ele><time>2026-04-18T14:32:38.665Z</time></trkpt><trkpt lat="44.8337467" lon="9.47655"><ele>571.0</ele><time>2026-04-18T14:32:41.665Z</time></trkpt><trkpt lat="44.833775" lon="9.4764317"><ele>571.0</ele><time>2026-04-18T14:32:44.665Z</time></trkpt><trkpt lat="44.8338" lon="9.47631"><ele>571.0</ele><time>2026-04-18T14:32:47.665Z</time></trkpt><trkpt lat="44.83383" lon="9.4761967"><ele>571.0</ele><time>2026-04-18T14:32:50.665Z</time></trkpt><trkpt lat="44.8338383" lon="9.4760783"><ele>571.0</ele><time>2026-04-18T14:32:53.665Z</time></trkpt><trkpt lat="44.833825" lon="9.475955"><ele>571.0</ele><time>2026-04-18T14:32:56.665Z</time></trkpt><trkpt lat="44.833815" lon="9.475865"><ele>570.6666666666667</ele><time>2026-04-18T14:32:58.666Z</time></trkpt><trkpt lat="44.83381" lon="9.4757383"><ele>570.3333333333334</ele><time>2026-04-18T14:33:01.665Z</time></trkpt><trkpt lat="44.8338" lon="9.4756133"><ele>570.0</ele><time>2026-04-18T14:33:04.665Z</time></trkpt><trkpt lat="44.8337733" lon="9.4754933"><ele>569.6666666666666</ele><time>2026-04-18T14:33:07.665Z</time></trkpt><trkpt lat="44.8337517" lon="9.4753767"><ele>569.3333333333333</ele><time>2026-04-18T14:33:10.665Z</time></trkpt><trkpt lat="44.833745" lon="9.4752517"><ele>569.0</ele><time>2026-04-18T14:33:13.665Z</time></trkpt><trkpt lat="44.833765" lon="9.4751667"><ele>568.8333333333333</ele><time>2026-04-18T14:33:15.665Z</time></trkpt><trkpt lat="44.83382" lon="9.4750717"><ele>568.6666666666666</ele><time>2026-04-18T14:33:18.665Z</time></trkpt><trkpt lat="44.8338983" lon="9.4750167"><ele>568.5</ele><time>2026-04-18T14:33:21.665Z</time></trkpt><trkpt lat="44.83398" lon="9.4750067"><ele>568.3333333333334</ele><time>2026-04-18T14:33:24.665Z</time></trkpt><trkpt lat="44.83407" lon="9.474985"><ele>568.1666666666667</ele><time>2026-04-18T14:33:27.665Z</time></trkpt><trkpt lat="44.8341317" lon="9.474965"><ele>568.0</ele><time>2026-04-18T14:33:29.665Z</time></trkpt><trkpt lat="44.834215" lon="9.4749067"><ele>568.0</ele><time>2026-04-18T14:33:32.665Z</time></trkpt><trkpt lat="44.83429" lon="9.47484"><ele>568.0</ele><time>2026-04-18T14:33:35.666Z</time></trkpt><trkpt lat="44.8343533" lon="9.4747917"><ele>568.0</ele><time>2026-04-18T14:33:38.665Z</time></trkpt><trkpt lat="44.834405" lon="9.4747383"><ele>568.0</ele><time>2026-04-18T14:33:40.665Z</time></trkpt><trkpt lat="44.83448" lon="9.4746633"><ele>568.0</ele><time>2026-04-18T14:33:43.665Z</time></trkpt><trkpt lat="44.8345383" lon="9.4746083"><ele>568.0</ele><time>2026-04-18T14:33:46.665Z</time></trkpt><trkpt lat="44.8346067" lon="9.4745333"><ele>569.0</ele><time>2026-04-18T14:33:49.665Z</time></trkpt><trkpt lat="44.83466" lon="9.4744817"><ele>570.0</ele><time>2026-04-18T14:33:51.665Z</time></trkpt><trkpt lat="44.8347383" lon="9.4744167"><ele>571.0</ele><time>2026-04-18T14:33:54.665Z</time></trkpt><trkpt lat="44.8347917" lon="9.4743617"><ele>572.0</ele><time>2026-04-18T14:33:56.665Z</time></trkpt><trkpt lat="44.8348433" lon="9.4743067"><ele>573.0</ele><time>2026-04-18T14:33:58.665Z</time></trkpt><trkpt lat="44.8348883" lon="9.4742417"><ele>574.0</ele><time>2026-04-18T14:34:00.665Z</time></trkpt><trkpt lat="44.8349317" lon="9.4741733"><ele>575.0</ele><time>2026-04-18T14:34:02.665Z</time></trkpt><trkpt lat="44.834995" lon="9.4740717"><ele>575.0</ele><time>2026-04-18T14:34:05.665Z</time></trkpt><trkpt lat="44.835035" lon="9.4739967"><ele>575.0</ele><time>2026-04-18T14:34:07.665Z</time></trkpt><trkpt lat="44.8350717" lon="9.47392"><ele>575.0</ele><time>2026-04-18T14:34:09.665Z</time></trkpt><trkpt lat="44.8351183" lon="9.473805"><ele>575.0</ele><time>2026-04-18T14:34:12.665Z</time></trkpt><trkpt lat="44.8351467" lon="9.473715"><ele>575.0</ele><time>2026-04-18T14:34:14.665Z</time></trkpt><trkpt lat="44.8351833" lon="9.4736367"><ele>575.0</ele><time>2026-04-18T14:34:16.665Z</time></trkpt><trkpt lat="44.8352167" lon="9.4735217"><ele>577.5</ele><time>2026-04-18T14:34:19.665Z</time></trkpt><trkpt lat="44.8352317" lon="9.4734283"><ele>580.0</ele><time>2026-04-18T14:34:21.665Z</time></trkpt><trkpt lat="44.8352417" lon="9.4733233"><ele>582.5</ele><time>2026-04-18T14:34:23.665Z</time></trkpt><trkpt lat="44.835235" lon="9.4732167"><ele>585.0</ele><time>2026-04-18T14:34:25.665Z</time></trkpt><trkpt lat="44.83524" lon="9.473125"><ele>587.5</ele><time>2026-04-18T14:34:27.665Z</time></trkpt><trkpt lat="44.8353133" lon="9.4730817"><ele>590.0</ele><time>2026-04-18T14:34:30.665Z</time></trkpt><trkpt lat="44.835345" lon="9.4732117"><ele>590.0000000000001</ele><time>2026-04-18T14:34:33.665Z</time></trkpt><trkpt lat="44.835355" lon="9.47331"><ele>590.0</ele><time>2026-04-18T14:34:35.665Z</time></trkpt><trkpt lat="44.835365" lon="9.4734033"><ele>590.0</ele><time>2026-04-18T14:34:37.665Z</time></trkpt><trkpt lat="44.8353683" lon="9.4734983"><ele>590.0</ele><time>2026-04-18T14:34:39.665Z</time></trkpt><trkpt lat="44.835375" lon="9.4736"><ele>590.0</ele><time>2026-04-18T14:34:41.665Z</time></trkpt><trkpt lat="44.8353833" lon="9.4736883"><ele>590.0000000000001</ele><time>2026-04-18T14:34:43.665Z</time></trkpt><trkpt lat="44.8353983" lon="9.4738083"><ele>590.0</ele><time>2026-04-18T14:34:46.665Z</time></trkpt><trkpt lat="44.8354267" lon="9.4739183"><ele>590.3333333333333</ele><time>2026-04-18T14:34:49.665Z</time></trkpt><trkpt lat="44.8354617" lon="9.4740367"><ele>590.6666666666666</ele><time>2026-04-18T14:34:52.665Z</time></trkpt><trkpt lat="44.8354983" lon="9.4741567"><ele>591.0</ele><time>2026-04-18T14:34:55.665Z</time></trkpt><trkpt lat="44.835525" lon="9.4742733"><ele>591.3333333333334</ele><time>2026-04-18T14:34:58.665Z</time></trkpt><trkpt lat="44.83553" lon="9.4743633"><ele>591.6666666666667</ele><time>2026-04-18T14:35:00.665Z</time></trkpt><trkpt lat="44.8355267" lon="9.4744683"><ele>592.0</ele><time>2026-04-18T14:35:03.665Z</time></trkpt><trkpt lat="44.8355167" lon="9.4745933"><ele>592.8333333333334</ele><time>2026-04-18T14:35:06.665Z</time></trkpt><trkpt lat="44.8354983" lon="9.4746833"><ele>593.6666666666667</ele><time>2026-04-18T14:35:08.665Z</time></trkpt><trkpt lat="44.8354567" lon="9.4748067"><ele>594.5</ele><time>2026-04-18T14:35:11.665Z</time></trkpt><trkpt lat="44.835425" lon="9.4749233"><ele>595.3333333333334</ele><time>2026-04-18T14:35:14.665Z</time></trkpt><trkpt lat="44.8353933" lon="9.475045"><ele>596.1666666666666</ele><time>2026-04-18T14:35:17.666Z</time></trkpt><trkpt lat="44.8353767" lon="9.4751733"><ele>597.0</ele><time>2026-04-18T14:35:20.665Z</time></trkpt><trkpt lat="44.8353783" lon="9.4753083"><ele>597.0</ele><time>2026-04-18T14:35:23.665Z</time></trkpt><trkpt lat="44.835405" lon="9.47543"><ele>597.0</ele><time>2026-04-18T14:35:26.665Z</time></trkpt><trkpt lat="44.8354367" lon="9.4755333"><ele>597.0</ele><time>2026-04-18T14:35:29.665Z</time></trkpt><trkpt lat="44.8355067" lon="9.47561"><ele>597.0</ele><time>2026-04-18T14:35:32.665Z</time></trkpt><trkpt lat="44.8355933" lon="9.4755783"><ele>597.0</ele><time>2026-04-18T14:35:35.665Z</time></trkpt><trkpt lat="44.8356433" lon="9.475475"><ele>597.0</ele><time>2026-04-18T14:35:38.665Z</time></trkpt><trkpt lat="44.8356867" lon="9.4753667"><ele>597.0</ele><time>2026-04-18T14:35:41.665Z</time></trkpt><trkpt lat="44.8357233" lon="9.4752933"><ele>597.0</ele><time>2026-04-18T14:35:43.665Z</time></trkpt><trkpt lat="44.8357783" lon="9.47519"><ele>597.0</ele><time>2026-04-18T14:35:46.665Z</time></trkpt><trkpt lat="44.8358383" lon="9.4750967"><ele>597.0</ele><time>2026-04-18T14:35:49.665Z</time></trkpt><trkpt lat="44.8359117" lon="9.4750267"><ele>597.0</ele><time>2026-04-18T14:35:52.665Z</time></trkpt><trkpt lat="44.8359883" lon="9.4749567"><ele>597.0</ele><time>2026-04-18T14:35:55.665Z</time></trkpt><trkpt lat="44.8360683" lon="9.47491"><ele>600.0000000000001</ele><time>2026-04-18T14:35:58.665Z</time></trkpt><trkpt lat="44.8361383" lon="9.4748733"><ele>603.0</ele><time>2026-04-18T14:36:01.665Z</time></trkpt><trkpt lat="44.8362117" lon="9.4748633"><ele>606.0</ele><time>2026-04-18T14:36:04.665Z</time></trkpt><trkpt lat="44.8362767" lon="9.4748533"><ele>609.0</ele><time>2026-04-18T14:36:07.665Z</time></trkpt><trkpt lat="44.8363417" lon="9.4748367"><ele>612.0</ele><time>2026-04-18T14:36:10.665Z</time></trkpt><trkpt lat="44.8364233" lon="9.4748167"><ele>615.0000000000001</ele><time>2026-04-18T14:36:13.665Z</time></trkpt><trkpt lat="44.8364983" lon="9.4747767"><ele>618.0</ele><time>2026-04-18T14:36:16.665Z</time></trkpt><trkpt lat="44.8365783" lon="9.4747383"><ele>618.0</ele><time>2026-04-18T14:36:19.665Z</time></trkpt><trkpt lat="44.83665" lon="9.4746933"><ele>618.0</ele><time>2026-04-18T14:36:22.665Z</time></trkpt><trkpt lat="44.8367233" lon="9.4746433"><ele>618.0</ele><time>2026-04-18T14:36:25.665Z</time></trkpt><trkpt lat="44.8367883" lon="9.4746133"><ele>618.0</ele><time>2026-04-18T14:36:28.665Z</time></trkpt><trkpt lat="44.8368583" lon="9.47458"><ele>618.0</ele><time>2026-04-18T14:36:31.665Z</time></trkpt><trkpt lat="44.8369267" lon="9.4745333"><ele>618.0</ele><time>2026-04-18T14:36:34.665Z</time></trkpt><trkpt lat="44.8369967" lon="9.4744933"><ele>618.2857142857143</ele><time>2026-04-18T14:36:37.665Z</time></trkpt><trkpt lat="44.83706" lon="9.4744333"><ele>618.5714285714286</ele><time>2026-04-18T14:36:40.665Z</time></trkpt><trkpt lat="44.8371133" lon="9.4743717"><ele>618.8571428571429</ele><time>2026-04-18T14:36:43.665Z</time></trkpt><trkpt lat="44.837165" lon="9.4743167"><ele>619.1428571428571</ele><time>2026-04-18T14:36:46.665Z</time></trkpt><trkpt lat="44.83722" lon="9.4742483"><ele>619.4285714285714</ele><time>2026-04-18T14:36:49.665Z</time></trkpt><trkpt lat="44.8372717" lon="9.4741817"><ele>619.7142857142858</ele><time>2026-04-18T14:36:52.665Z</time></trkpt><trkpt lat="44.83733" lon="9.4741"><ele>620.0</ele><time>2026-04-18T14:36:55.665Z</time></trkpt><trkpt lat="44.837375" lon="9.4740167"><ele>620.0</ele><time>2026-04-18T14:36:58.665Z</time></trkpt><trkpt lat="44.8374283" lon="9.4739383"><ele>620.0</ele><time>2026-04-18T14:37:01.665Z</time></trkpt><trkpt lat="44.8374867" lon="9.4738683"><ele>620.0</ele><time>2026-04-18T14:37:04.665Z</time></trkpt><trkpt lat="44.8375417" lon="9.4738017"><ele>620.0</ele><time>2026-04-18T14:37:07.665Z</time></trkpt><trkpt lat="44.8375967" lon="9.4737283"><ele>620.0</ele><time>2026-04-18T14:37:10.665Z</time></trkpt><trkpt lat="44.83766" lon="9.4736683"><ele>620.0</ele><time>2026-04-18T14:37:13.665Z</time></trkpt><trkpt lat="44.83773" lon="9.4736133"><ele>621.4285714285714</ele><time>2026-04-18T14:37:16.665Z</time></trkpt><trkpt lat="44.8377967" lon="9.47356"><ele>622.8571428571429</ele><time>2026-04-18T14:37:19.665Z</time></trkpt><trkpt lat="44.837855" lon="9.47352"><ele>624.2857142857142</ele><time>2026-04-18T14:37:22.665Z</time></trkpt><trkpt lat="44.8379217" lon="9.4734733"><ele>625.7142857142858</ele><time>2026-04-18T14:37:25.665Z</time></trkpt><trkpt lat="44.8379767" lon="9.4734133"><ele>627.1428571428571</ele><time>2026-04-18T14:37:28.665Z</time></trkpt><trkpt lat="44.8380267" lon="9.47333"><ele>628.5714285714286</ele><time>2026-04-18T14:37:31.665Z</time></trkpt><trkpt lat="44.8380583" lon="9.47323"><ele>630.0</ele><time>2026-04-18T14:37:34.665Z</time></trkpt><trkpt lat="44.8380783" lon="9.473135"><ele>630.0</ele><time>2026-04-18T14:37:37.665Z</time></trkpt><trkpt lat="44.8380967" lon="9.473045"><ele>630.0</ele><time>2026-04-18T14:37:40.665Z</time></trkpt><trkpt lat="44.8381067" lon="9.4729383"><ele>630.0</ele><time>2026-04-18T14:37:43.665Z</time></trkpt><trkpt lat="44.8381083" lon="9.4728217"><ele>630.0</ele><time>2026-04-18T14:37:46.665Z</time></trkpt><trkpt lat="44.8381217" lon="9.4727033"><ele>630.0</ele><time>2026-04-18T14:37:50.666Z</time></trkpt><trkpt lat="44.83812" lon="9.4726"><ele>630.0</ele><time>2026-04-18T14:37:53.665Z</time></trkpt><trkpt lat="44.8381267" lon="9.4724883"><ele>629.8333333333334</ele><time>2026-04-18T14:37:56.665Z</time></trkpt><trkpt lat="44.8381417" lon="9.4723817"><ele>629.6666666666666</ele><time>2026-04-18T14:37:59.665Z</time></trkpt><trkpt lat="44.8381717" lon="9.47228"><ele>629.5</ele><time>2026-04-18T14:38:02.665Z</time></trkpt><trkpt lat="44.8382" lon="9.4721883"><ele>629.3333333333333</ele><time>2026-04-18T14:38:05.665Z</time></trkpt><trkpt lat="44.83823" lon="9.4720917"><ele>629.1666666666666</ele><time>2026-04-18T14:38:08.665Z</time></trkpt><trkpt lat="44.8382667" lon="9.4720017"><ele>629.0</ele><time>2026-04-18T14:38:11.665Z</time></trkpt><trkpt lat="44.8383117" lon="9.47191"><ele>629.0</ele><time>2026-04-18T14:38:14.665Z</time></trkpt><trkpt lat="44.838355" lon="9.4718167"><ele>629.0</ele><time>2026-04-18T14:38:17.665Z</time></trkpt><trkpt lat="44.8384083" lon="9.4717333"><ele>629.0</ele><time>2026-04-18T14:38:20.665Z</time></trkpt><trkpt lat="44.83844" lon="9.47164"><ele>629.0</ele><time>2026-04-18T14:38:23.665Z</time></trkpt><trkpt lat="44.8384817" lon="9.471565"><ele>629.0</ele><time>2026-04-18T14:38:26.665Z</time></trkpt><trkpt lat="44.8385217" lon="9.4714833"><ele>629.0</ele><time>2026-04-18T14:38:29.665Z</time></trkpt><trkpt lat="44.83856" lon="9.4713933"><ele>629.0</ele><time>2026-04-18T14:38:32.665Z</time></trkpt><trkpt lat="44.8385933" lon="9.4712933"><ele>631.3333333333333</ele><time>2026-04-18T14:38:35.665Z</time></trkpt><trkpt lat="44.83862" lon="9.47118"><ele>633.6666666666666</ele><time>2026-04-18T14:38:38.665Z</time></trkpt><trkpt lat="44.8386133" lon="9.4710633"><ele>636.0</ele><time>2026-04-18T14:38:41.666Z</time></trkpt><trkpt lat="44.8385817" lon="9.47097"><ele>638.3333333333334</ele><time>2026-04-18T14:38:44.665Z</time></trkpt><trkpt lat="44.8385467" lon="9.47087"><ele>640.6666666666667</ele><time>2026-04-18T14:38:47.665Z</time></trkpt><trkpt lat="44.8385183" lon="9.4707717"><ele>643.0</ele><time>2026-04-18T14:38:50.665Z</time></trkpt><trkpt lat="44.8384967" lon="9.4706833"><ele>643.0</ele><time>2026-04-18T14:38:53.665Z</time></trkpt><trkpt lat="44.838485" lon="9.470575"><ele>643.0</ele><time>2026-04-18T14:38:56.665Z</time></trkpt><trkpt lat="44.8384833" lon="9.4704833"><ele>643.0</ele><time>2026-04-18T14:38:59.665Z</time></trkpt><trkpt lat="44.8384983" lon="9.4703783"><ele>643.0</ele><time>2026-04-18T14:39:02.665Z</time></trkpt><trkpt lat="44.838525" lon="9.4702767"><ele>643.0</ele><time>2026-04-18T14:39:05.665Z</time></trkpt><trkpt lat="44.8385533" lon="9.470175"><ele>643.0</ele><time>2026-04-18T14:39:08.665Z</time></trkpt><trkpt lat="44.8385933" lon="9.4700883"><ele>643.0</ele><time>2026-04-18T14:39:11.665Z</time></trkpt><trkpt lat="44.838665" lon="9.4700533"><ele>641.5</ele><time>2026-04-18T14:39:14.665Z</time></trkpt><trkpt lat="44.8387283" lon="9.4701"><ele>640.0</ele><time>2026-04-18T14:39:17.665Z</time></trkpt><trkpt lat="44.8387833" lon="9.4701717"><ele>638.5</ele><time>2026-04-18T14:39:20.665Z</time></trkpt><trkpt lat="44.8388367" lon="9.4702383"><ele>637.0</ele><time>2026-04-18T14:39:23.665Z</time></trkpt><trkpt lat="44.8388967" lon="9.4703067"><ele>635.5</ele><time>2026-04-18T14:39:26.665Z</time></trkpt><trkpt lat="44.83897" lon="9.4703433"><ele>634.0</ele><time>2026-04-18T14:39:29.666Z</time></trkpt><trkpt lat="44.8390533" lon="9.4703617"><ele>634.0</ele><time>2026-04-18T14:39:32.665Z</time></trkpt><trkpt lat="44.8391333" lon="9.4703717"><ele>634.0</ele><time>2026-04-18T14:39:35.665Z</time></trkpt><trkpt lat="44.8392083" lon="9.470365"><ele>634.0</ele><time>2026-04-18T14:39:38.665Z</time></trkpt><trkpt lat="44.8392817" lon="9.470385"><ele>634.0</ele><time>2026-04-18T14:39:41.665Z</time></trkpt><trkpt lat="44.8393517" lon="9.4704117"><ele>634.0</ele><time>2026-04-18T14:39:44.665Z</time></trkpt><trkpt lat="44.839415" lon="9.4704667"><ele>634.0</ele><time>2026-04-18T14:39:47.665Z</time></trkpt><trkpt lat="44.83947" lon="9.4705367"><ele>636.6666666666667</ele><time>2026-04-18T14:39:50.665Z</time></trkpt><trkpt lat="44.83951" lon="9.4706267"><ele>639.3333333333334</ele><time>2026-04-18T14:39:53.665Z</time></trkpt><trkpt lat="44.8395467" lon="9.47072"><ele>642.0</ele><time>2026-04-18T14:39:56.665Z</time></trkpt><trkpt lat="44.83958" lon="9.4708283"><ele>644.6666666666666</ele><time>2026-04-18T14:39:59.665Z</time></trkpt><trkpt lat="44.8396" lon="9.4709367"><ele>647.3333333333333</ele><time>2026-04-18T14:40:02.665Z</time></trkpt><trkpt lat="44.8396083" lon="9.471045"><ele>650.0</ele><time>2026-04-18T14:40:05.665Z</time></trkpt><trkpt lat="44.8396367" lon="9.4711733"><ele>650.0</ele><time>2026-04-18T14:40:08.665Z</time></trkpt><trkpt lat="44.8396867" lon="9.47123"><ele>650.0</ele><time>2026-04-18T14:40:10.665Z</time></trkpt><trkpt lat="44.83975" lon="9.471215"><ele>650.0</ele><time>2026-04-18T14:40:12.665Z</time></trkpt><trkpt lat="44.8398033" lon="9.4711617"><ele>650.0</ele><time>2026-04-18T14:40:14.665Z</time></trkpt><trkpt lat="44.8398533" lon="9.4711067"><ele>650.0</ele><time>2026-04-18T14:40:16.665Z</time></trkpt><trkpt lat="44.8399167" lon="9.471015"><ele>650.0</ele><time>2026-04-18T14:40:19.665Z</time></trkpt><trkpt lat="44.8399683" lon="9.4709567"><ele>650.0</ele><time>2026-04-18T14:40:21.665Z</time></trkpt><trkpt lat="44.840025" lon="9.4708983"><ele>650.0</ele><time>2026-04-18T14:40:23.665Z</time></trkpt><trkpt lat="44.840085" lon="9.4708283"><ele>650.0</ele><time>2026-04-18T14:40:25.665Z</time></trkpt><trkpt lat="44.8401483" lon="9.4707483"><ele>650.0</ele><time>2026-04-18T14:40:27.665Z</time></trkpt><trkpt lat="44.8402183" lon="9.4706683"><ele>650.0</ele><time>2026-04-18T14:40:29.665Z</time></trkpt><trkpt lat="44.84031" lon="9.470575"><ele>650.0</ele><time>2026-04-18T14:40:31.665Z</time></trkpt><trkpt lat="44.84042" lon="9.47048"><ele>649.0</ele><time>2026-04-18T14:40:33.665Z</time></trkpt><trkpt lat="44.8404767" lon="9.470425"><ele>648.0</ele><time>2026-04-18T14:40:34.665Z</time></trkpt><trkpt lat="44.8405383" lon="9.4703733"><ele>647.0</ele><time>2026-04-18T14:40:35.665Z</time></trkpt><trkpt lat="44.8406033" lon="9.4703267"><ele>646.0</ele><time>2026-04-18T14:40:36.665Z</time></trkpt><trkpt lat="44.8407217" lon="9.47028"><ele>645.0</ele><time>2026-04-18T14:40:38.665Z</time></trkpt><trkpt lat="44.8408217" lon="9.470265"><ele>644.0</ele><time>2026-04-18T14:40:40.665Z</time></trkpt><trkpt lat="44.8409033" lon="9.4702733"><ele>644.1428571428571</ele><time>2026-04-18T14:40:42.665Z</time></trkpt><trkpt lat="44.8409717" lon="9.4702833"><ele>644.2857142857142</ele><time>2026-04-18T14:40:44.665Z</time></trkpt><trkpt lat="44.84104" lon="9.4703133"><ele>644.4285714285714</ele><time>2026-04-18T14:40:46.666Z</time></trkpt><trkpt lat="44.841105" lon="9.4703533"><ele>644.5714285714286</ele><time>2026-04-18T14:40:48.665Z</time></trkpt><trkpt lat="44.841175" lon="9.47039"><ele>644.7142857142857</ele><time>2026-04-18T14:40:50.665Z</time></trkpt><trkpt lat="44.8412467" lon="9.4704017"><ele>644.8571428571429</ele><time>2026-04-18T14:40:52.665Z</time></trkpt><trkpt lat="44.8413133" lon="9.47041"><ele>645.0</ele><time>2026-04-18T14:40:54.666Z</time></trkpt><trkpt lat="44.8413883" lon="9.4704133"><ele>645.0</ele><time>2026-04-18T14:40:56.666Z</time></trkpt><trkpt lat="44.8414617" lon="9.4704183"><ele>645.0</ele><time>2026-04-18T14:40:58.665Z</time></trkpt><trkpt lat="44.841535" lon="9.4704017"><ele>645.0</ele><time>2026-04-18T14:41:00.665Z</time></trkpt><trkpt lat="44.8416167" lon="9.4703867"><ele>645.0</ele><time>2026-04-18T14:41:02.665Z</time></trkpt><trkpt lat="44.8416933" lon="9.47038"><ele>645.0</ele><time>2026-04-18T14:41:04.665Z</time></trkpt><trkpt lat="44.8417733" lon="9.4703733"><ele>645.0</ele><time>2026-04-18T14:41:06.665Z</time></trkpt><trkpt lat="44.841855" lon="9.4703683"><ele>645.6</ele><time>2026-04-18T14:41:08.665Z</time></trkpt><trkpt lat="44.8419433" lon="9.4703767"><ele>646.2</ele><time>2026-04-18T14:41:10.665Z</time></trkpt><trkpt lat="44.8420317" lon="9.4703983"><ele>646.8</ele><time>2026-04-18T14:41:12.665Z</time></trkpt><trkpt lat="44.8421167" lon="9.4704333"><ele>647.4</ele><time>2026-04-18T14:41:14.665Z</time></trkpt><trkpt lat="44.8422083" lon="9.47047"><ele>648.0</ele><time>2026-04-18T14:41:16.665Z</time></trkpt><trkpt lat="44.8423033" lon="9.4705033"><ele>648.0</ele><time>2026-04-18T14:41:18.665Z</time></trkpt><trkpt lat="44.8424017" lon="9.4704983"><ele>648.0</ele><time>2026-04-18T14:41:20.665Z</time></trkpt><trkpt lat="44.8425017" lon="9.470465"><ele>648.0</ele><time>2026-04-18T14:41:22.665Z</time></trkpt><trkpt lat="44.8425917" lon="9.4704167"><ele>648.0</ele><time>2026-04-18T14:41:24.665Z</time></trkpt><trkpt lat="44.8426817" lon="9.4703683"><ele>648.0</ele><time>2026-04-18T14:41:26.665Z</time></trkpt><trkpt lat="44.8427617" lon="9.4703133"><ele>649.8</ele><time>2026-04-18T14:41:28.665Z</time></trkpt><trkpt lat="44.8428417" lon="9.4702433"><ele>651.5999999999999</ele><time>2026-04-18T14:41:30.665Z</time></trkpt><trkpt lat="44.84292" lon="9.470165"><ele>653.4000000000001</ele><time>2026-04-18T14:41:32.665Z</time></trkpt><trkpt lat="44.8430033" lon="9.4700967"><ele>655.2</ele><time>2026-04-18T14:41:34.665Z</time></trkpt><trkpt lat="44.843105" lon="9.4700283"><ele>657.0</ele><time>2026-04-18T14:41:36.665Z</time></trkpt><trkpt lat="44.8432117" lon="9.4699717"><ele>657.0</ele><time>2026-04-18T14:41:38.665Z</time></trkpt><trkpt lat="44.8432933" lon="9.4699267"><ele>657.0</ele><time>2026-04-18T14:41:40.665Z</time></trkpt><trkpt lat="44.8433717" lon="9.4698817"><ele>657.0</ele><time>2026-04-18T14:41:42.665Z</time></trkpt><trkpt lat="44.843455" lon="9.4698167"><ele>657.0</ele><time>2026-04-18T14:41:44.665Z</time></trkpt><trkpt lat="44.8435483" lon="9.4697683"><ele>657.0</ele><time>2026-04-18T14:41:46.665Z</time></trkpt><trkpt lat="44.8436383" lon="9.4697317"><ele>658.0</ele><time>2026-04-18T14:41:48.665Z</time></trkpt><trkpt lat="44.8437233" lon="9.4696917"><ele>659.0</ele><time>2026-04-18T14:41:50.665Z</time></trkpt><trkpt lat="44.8438033" lon="9.4696267"><ele>660.0</ele><time>2026-04-18T14:41:52.665Z</time></trkpt><trkpt lat="44.84387" lon="9.469515"><ele>661.0</ele><time>2026-04-18T14:41:54.665Z</time></trkpt><trkpt lat="44.8439217" lon="9.4693817"><ele>662.0</ele><time>2026-04-18T14:41:56.665Z</time></trkpt><trkpt lat="44.843965" lon="9.4692483"><ele>662.0</ele><time>2026-04-18T14:41:58.665Z</time></trkpt><trkpt lat="44.84401" lon="9.46911"><ele>662.0</ele><time>2026-04-18T14:42:00.665Z</time></trkpt><trkpt lat="44.84406" lon="9.468995"><ele>662.0</ele><time>2026-04-18T14:42:02.665Z</time></trkpt><trkpt lat="44.8441217" lon="9.4688917"><ele>662.0</ele><time>2026-04-18T14:42:04.665Z</time></trkpt><trkpt lat="44.844195" lon="9.4688083"><ele>662.0</ele><time>2026-04-18T14:42:06.665Z</time></trkpt><trkpt lat="44.84427" lon="9.46871"><ele>661.6</ele><time>2026-04-18T14:42:08.665Z</time></trkpt><trkpt lat="44.8443383" lon="9.468625"><ele>661.2</ele><time>2026-04-18T14:42:10.665Z</time></trkpt><trkpt lat="44.84442" lon="9.4685467"><ele>660.8</ele><time>2026-04-18T14:42:12.665Z</time></trkpt><trkpt lat="44.8445017" lon="9.4684933"><ele>660.4</ele><time>2026-04-18T14:42:14.665Z</time></trkpt><trkpt lat="44.8446033" lon="9.4684567"><ele>660.0</ele><time>2026-04-18T14:42:16.665Z</time></trkpt><trkpt lat="44.8447067" lon="9.4684183"><ele>660.0</ele><time>2026-04-18T14:42:18.665Z</time></trkpt><trkpt lat="44.844805" lon="9.4683717"><ele>660.0</ele><time>2026-04-18T14:42:20.665Z</time></trkpt><trkpt lat="44.8448983" lon="9.4683133"><ele>660.0</ele><time>2026-04-18T14:42:22.665Z</time></trkpt><trkpt lat="44.844985" lon="9.4682567"><ele>660.0</ele><time>2026-04-18T14:42:24.665Z</time></trkpt><trkpt lat="44.845075" lon="9.4682017"><ele>660.0</ele><time>2026-04-18T14:42:26.665Z</time></trkpt><trkpt lat="44.8451817" lon="9.4681433"><ele>660.1428571428572</ele><time>2026-04-18T14:42:28.665Z</time></trkpt><trkpt lat="44.845245" lon="9.4681183"><ele>660.2857142857143</ele><time>2026-04-18T14:42:29.665Z</time></trkpt><trkpt lat="44.8453083" lon="9.4681033"><ele>660.4285714285714</ele><time>2026-04-18T14:42:30.665Z</time></trkpt><trkpt lat="44.8453767" lon="9.46808"><ele>660.5714285714287</ele><time>2026-04-18T14:42:31.665Z</time></trkpt><trkpt lat="44.8454483" lon="9.4680517"><ele>660.7142857142858</ele><time>2026-04-18T14:42:32.665Z</time></trkpt><trkpt lat="44.84551" lon="9.46801"><ele>660.8571428571429</ele><time>2026-04-18T14:42:33.665Z</time></trkpt><trkpt lat="44.8455617" lon="9.467935"><ele>661.0</ele><time>2026-04-18T14:42:34.665Z</time></trkpt><trkpt lat="44.8456017" lon="9.467845"><ele>661.0</ele><time>2026-04-18T14:42:35.665Z</time></trkpt><trkpt lat="44.8456267" lon="9.4677517"><ele>661.0</ele><time>2026-04-18T14:42:36.665Z</time></trkpt><trkpt lat="44.84565" lon="9.4676467"><ele>661.0</ele><time>2026-04-18T14:42:37.666Z</time></trkpt><trkpt lat="44.8456717" lon="9.46755"><ele>661.0</ele><time>2026-04-18T14:42:38.665Z</time></trkpt><trkpt lat="44.8456917" lon="9.4674617"><ele>661.0</ele><time>2026-04-18T14:42:39.665Z</time></trkpt><trkpt lat="44.8457333" lon="9.4673083"><ele>661.0</ele><time>2026-04-18T14:42:41.665Z</time></trkpt><trkpt lat="44.8457667" lon="9.4671933"><ele>660.0</ele><time>2026-04-18T14:42:43.665Z</time></trkpt><trkpt lat="44.8458017" lon="9.467075"><ele>659.0</ele><time>2026-04-18T14:42:45.665Z</time></trkpt><trkpt lat="44.84585" lon="9.4669533"><ele>658.0</ele><time>2026-04-18T14:42:47.665Z</time></trkpt><trkpt lat="44.845895" lon="9.4668317"><ele>657.0</ele><time>2026-04-18T14:42:49.665Z</time></trkpt><trkpt lat="44.84594" lon="9.46672"><ele>656.0</ele><time>2026-04-18T14:42:51.666Z</time></trkpt><trkpt lat="44.8459933" lon="9.4666167"><ele>657.0</ele><time>2026-04-18T14:42:53.665Z</time></trkpt><trkpt lat="44.8460717" lon="9.4665267"><ele>658.0</ele><time>2026-04-18T14:42:55.665Z</time></trkpt><trkpt lat="44.8461583" lon="9.4664483"><ele>659.0</ele><time>2026-04-18T14:42:57.665Z</time></trkpt><trkpt lat="44.846245" lon="9.46636"><ele>660.0</ele><time>2026-04-18T14:42:59.665Z</time></trkpt><trkpt lat="44.846315" lon="9.466255"><ele>661.0</ele><time>2026-04-18T14:43:01.665Z</time></trkpt><trkpt lat="44.846365" lon="9.4661517"><ele>661.0</ele><time>2026-04-18T14:43:03.665Z</time></trkpt><trkpt lat="44.8464083" lon="9.4660367"><ele>661.0</ele><time>2026-04-18T14:43:05.665Z</time></trkpt><trkpt lat="44.8464633" lon="9.465925"><ele>661.0</ele><time>2026-04-18T14:43:07.665Z</time></trkpt><trkpt lat="44.8465283" lon="9.4658533"><ele>661.0</ele><time>2026-04-18T14:43:09.665Z</time></trkpt><trkpt lat="44.84662" lon="9.46581"><ele>661.0</ele><time>2026-04-18T14:43:11.665Z</time></trkpt><trkpt lat="44.8467133" lon="9.4657567"><ele>661.5999999999999</ele><time>2026-04-18T14:43:13.665Z</time></trkpt><trkpt lat="44.846805" lon="9.46571"><ele>662.2</ele><time>2026-04-18T14:43:15.665Z</time></trkpt><trkpt lat="44.8468883" lon="9.4656383"><ele>662.8</ele><time>2026-04-18T14:43:17.665Z</time></trkpt><trkpt lat="44.8469667" lon="9.4655633"><ele>663.4000000000001</ele><time>2026-04-18T14:43:19.665Z</time></trkpt><trkpt lat="44.847045" lon="9.4654917"><ele>664.0</ele><time>2026-04-18T14:43:21.665Z</time></trkpt><trkpt lat="44.84712" lon="9.4654167"><ele>664.0</ele><time>2026-04-18T14:43:23.665Z</time></trkpt><trkpt lat="44.8471883" lon="9.4653433"><ele>664.0</ele><time>2026-04-18T14:43:25.665Z</time></trkpt><trkpt lat="44.847255" lon="9.4652633"><ele>664.0</ele><time>2026-04-18T14:43:27.665Z</time></trkpt><trkpt lat="44.8473167" lon="9.4651783"><ele>664.0</ele><time>2026-04-18T14:43:29.665Z</time></trkpt><trkpt lat="44.8473717" lon="9.4650933"><ele>664.0</ele><time>2026-04-18T14:43:31.665Z</time></trkpt><trkpt lat="44.8474217" lon="9.46501"><ele>664.0</ele><time>2026-04-18T14:43:33.665Z</time></trkpt><trkpt lat="44.8474817" lon="9.4649467"><ele>664.0</ele><time>2026-04-18T14:43:35.665Z</time></trkpt><trkpt lat="44.84756" lon="9.4650017"><ele>664.0</ele><time>2026-04-18T14:43:38.665Z</time></trkpt><trkpt lat="44.8475433" lon="9.4651033"><ele>664.0</ele><time>2026-04-18T14:43:40.665Z</time></trkpt><trkpt lat="44.8475183" lon="9.4652017"><ele>664.0</ele><time>2026-04-18T14:43:42.665Z</time></trkpt><trkpt lat="44.8474983" lon="9.4652917"><ele>664.0</ele><time>2026-04-18T14:43:44.666Z</time></trkpt><trkpt lat="44.847475" lon="9.465385"><ele>664.0</ele><time>2026-04-18T14:43:46.666Z</time></trkpt><trkpt lat="44.8474583" lon="9.46548"><ele>664.0</ele><time>2026-04-18T14:43:48.665Z</time></trkpt><trkpt lat="44.8474433" lon="9.46557"><ele>664.7142857142857</ele><time>2026-04-18T14:43:50.665Z</time></trkpt><trkpt lat="44.847425" lon="9.4656667"><ele>665.4285714285714</ele><time>2026-04-18T14:43:52.665Z</time></trkpt><trkpt lat="44.84742" lon="9.4657633"><ele>666.1428571428571</ele><time>2026-04-18T14:43:54.665Z</time></trkpt><trkpt lat="44.8474167" lon="9.4658633"><ele>666.8571428571429</ele><time>2026-04-18T14:43:56.665Z</time></trkpt><trkpt lat="44.8474167" lon="9.465955"><ele>667.5714285714286</ele><time>2026-04-18T14:43:58.665Z</time></trkpt><trkpt lat="44.847415" lon="9.4660517"><ele>668.2857142857143</ele><time>2026-04-18T14:44:00.666Z</time></trkpt><trkpt lat="44.8474167" lon="9.4661467"><ele>669.0</ele><time>2026-04-18T14:44:02.665Z</time></trkpt><trkpt lat="44.8474167" lon="9.4662417"><ele>669.6666666666666</ele><time>2026-04-18T14:44:04.665Z</time></trkpt><trkpt lat="44.8474133" lon="9.4663383"><ele>670.3333333333334</ele><time>2026-04-18T14:44:06.665Z</time></trkpt><trkpt lat="44.8474067" lon="9.4664367"><ele>671.0</ele><time>2026-04-18T14:44:08.665Z</time></trkpt><trkpt lat="44.8474017" lon="9.46654"><ele>671.6666666666667</ele><time>2026-04-18T14:44:10.665Z</time></trkpt><trkpt lat="44.847395" lon="9.4666433"><ele>672.3333333333334</ele><time>2026-04-18T14:44:12.665Z</time></trkpt><trkpt lat="44.8473717" lon="9.4667483"><ele>673.0</ele><time>2026-04-18T14:44:14.665Z</time></trkpt><trkpt lat="44.8473317" lon="9.4668567"><ele>673.0</ele><time>2026-04-18T14:44:16.665Z</time></trkpt><trkpt lat="44.8472867" lon="9.4669783"><ele>673.0</ele><time>2026-04-18T14:44:18.665Z</time></trkpt><trkpt lat="44.847255" lon="9.4671133"><ele>673.0</ele><time>2026-04-18T14:44:20.665Z</time></trkpt><trkpt lat="44.8472467" lon="9.4672567"><ele>673.0</ele><time>2026-04-18T14:44:22.665Z</time></trkpt><trkpt lat="44.847255" lon="9.4674"><ele>673.0</ele><time>2026-04-18T14:44:24.666Z</time></trkpt><trkpt lat="44.8472767" lon="9.4675383"><ele>672.8</ele><time>2026-04-18T14:44:26.665Z</time></trkpt><trkpt lat="44.847295" lon="9.4676533"><ele>672.5999999999999</ele><time>2026-04-18T14:44:28.665Z</time></trkpt><trkpt lat="44.8473117" lon="9.4677717"><ele>672.4000000000001</ele><time>2026-04-18T14:44:30.665Z</time></trkpt><trkpt lat="44.8473333" lon="9.4679083"><ele>672.2</ele><time>2026-04-18T14:44:32.665Z</time></trkpt><trkpt lat="44.84736" lon="9.4680383"><ele>672.0</ele><time>2026-04-18T14:44:34.665Z</time></trkpt><trkpt lat="44.84739" lon="9.468175"><ele>672.4000000000001</ele><time>2026-04-18T14:44:36.665Z</time></trkpt><trkpt lat="44.8474233" lon="9.4683067"><ele>672.8000000000001</ele><time>2026-04-18T14:44:38.665Z</time></trkpt><trkpt lat="44.847455" lon="9.4684417"><ele>673.2</ele><time>2026-04-18T14:44:40.666Z</time></trkpt><trkpt lat="44.8474883" lon="9.4685783"><ele>673.6</ele><time>2026-04-18T14:44:42.665Z</time></trkpt><trkpt lat="44.847515" lon="9.4687067"><ele>674.0</ele><time>2026-04-18T14:44:44.665Z</time></trkpt><trkpt lat="44.847545" lon="9.4688367"><ele>675.6</ele><time>2026-04-18T14:44:46.665Z</time></trkpt><trkpt lat="44.8475817" lon="9.4689733"><ele>677.2</ele><time>2026-04-18T14:44:48.665Z</time></trkpt><trkpt lat="44.8476333" lon="9.4691017"><ele>678.8000000000001</ele><time>2026-04-18T14:44:50.665Z</time></trkpt><trkpt lat="44.8476767" lon="9.469235"><ele>680.4000000000001</ele><time>2026-04-18T14:44:52.665Z</time></trkpt><trkpt lat="44.847725" lon="9.4693583"><ele>682.0</ele><time>2026-04-18T14:44:54.665Z</time></trkpt><trkpt lat="44.84777" lon="9.4694883"><ele>679.8</ele><time>2026-04-18T14:44:56.665Z</time></trkpt><trkpt lat="44.8478133" lon="9.4696217"><ele>677.6</ele><time>2026-04-18T14:44:58.665Z</time></trkpt><trkpt lat="44.8478583" lon="9.4697567"><ele>675.4</ele><time>2026-04-18T14:45:00.665Z</time></trkpt><trkpt lat="44.847905" lon="9.4698917"><ele>673.1999999999999</ele><time>2026-04-18T14:45:02.665Z</time></trkpt><trkpt lat="44.8479717" lon="9.4700167"><ele>671.0</ele><time>2026-04-18T14:45:04.666Z</time></trkpt><trkpt lat="44.8480467" lon="9.4701217"><ele>671.0</ele><time>2026-04-18T14:45:06.665Z</time></trkpt><trkpt lat="44.8481283" lon="9.4702183"><ele>671.0</ele><time>2026-04-18T14:45:08.665Z</time></trkpt><trkpt lat="44.8482117" lon="9.470305"><ele>671.0</ele><time>2026-04-18T14:45:10.665Z</time></trkpt><trkpt lat="44.8483033" lon="9.4703967"><ele>671.0</ele><time>2026-04-18T14:45:12.665Z</time></trkpt><trkpt lat="44.8483683" lon="9.470505"><ele>671.0</ele><time>2026-04-18T14:45:14.665Z</time></trkpt><trkpt lat="44.8484283" lon="9.4706267"><ele>669.5999999999999</ele><time>2026-04-18T14:45:16.665Z</time></trkpt><trkpt lat="44.848495" lon="9.4707383"><ele>668.2</ele><time>2026-04-18T14:45:18.665Z</time></trkpt><trkpt lat="44.8485533" lon="9.4708483"><ele>666.8</ele><time>2026-04-18T14:45:20.665Z</time></trkpt><trkpt lat="44.8486033" lon="9.470965"><ele>665.4000000000001</ele><time>2026-04-18T14:45:22.665Z</time></trkpt><trkpt lat="44.8486367" lon="9.4711067"><ele>664.0</ele><time>2026-04-18T14:45:24.665Z</time></trkpt><trkpt lat="44.84864" lon="9.4712683"><ele>664.1666666666667</ele><time>2026-04-18T14:45:26.665Z</time></trkpt><trkpt lat="44.8486317" lon="9.471435"><ele>664.3333333333334</ele><time>2026-04-18T14:45:28.665Z</time></trkpt><trkpt lat="44.8486283" lon="9.4715267"><ele>664.5</ele><time>2026-04-18T14:45:29.665Z</time></trkpt><trkpt lat="44.848625" lon="9.4716183"><ele>664.6666666666666</ele><time>2026-04-18T14:45:30.665Z</time></trkpt><trkpt lat="44.8486133" lon="9.471715"><ele>664.8333333333333</ele><time>2026-04-18T14:45:31.665Z</time></trkpt><trkpt lat="44.8486083" lon="9.4718183"><ele>665.0</ele><time>2026-04-18T14:45:32.665Z</time></trkpt><trkpt lat="44.84861" lon="9.4719233"><ele>665.0</ele><time>2026-04-18T14:45:33.665Z</time></trkpt><trkpt lat="44.8486" lon="9.4720317"><ele>665.0</ele><time>2026-04-18T14:45:34.665Z</time></trkpt><trkpt lat="44.8485967" lon="9.4721417"><ele>665.0</ele><time>2026-04-18T14:45:35.665Z</time></trkpt><trkpt lat="44.8486033" lon="9.472255"><ele>665.0</ele><time>2026-04-18T14:45:36.665Z</time></trkpt><trkpt lat="44.8486167" lon="9.4723717"><ele>665.0</ele><time>2026-04-18T14:45:37.665Z</time></trkpt><trkpt lat="44.848635" lon="9.4724933"><ele>665.0</ele><time>2026-04-18T14:45:38.665Z</time></trkpt><trkpt lat="44.84865" lon="9.472605"><ele>664.5</ele><time>2026-04-18T14:45:39.665Z</time></trkpt><trkpt lat="44.84867" lon="9.4727167"><ele>664.0</ele><time>2026-04-18T14:45:40.665Z</time></trkpt><trkpt lat="44.848695" lon="9.4728267"><ele>663.5</ele><time>2026-04-18T14:45:41.665Z</time></trkpt><trkpt lat="44.8487167" lon="9.4729367"><ele>663.0</ele><time>2026-04-18T14:45:42.665Z</time></trkpt><trkpt lat="44.848735" lon="9.4730417"><ele>662.5</ele><time>2026-04-18T14:45:43.665Z</time></trkpt><trkpt lat="44.8487983" lon="9.47314"><ele>662.0</ele><time>2026-04-18T14:45:44.665Z</time></trkpt><trkpt lat="44.8488633" lon="9.4732167"><ele>661.4000000000001</ele><time>2026-04-18T14:45:45.665Z</time></trkpt><trkpt lat="44.848945" lon="9.473275"><ele>660.8000000000001</ele><time>2026-04-18T14:45:46.665Z</time></trkpt><trkpt lat="44.8490467" lon="9.47331"><ele>660.2</ele><time>2026-04-18T14:45:47.665Z</time></trkpt><trkpt lat="44.849145" lon="9.4733417"><ele>659.6</ele><time>2026-04-18T14:45:48.666Z</time></trkpt><trkpt lat="44.8492367" lon="9.4733717"><ele>659.0</ele><time>2026-04-18T14:45:49.665Z</time></trkpt><trkpt lat="44.84933" lon="9.4733933"><ele>655.8000000000001</ele><time>2026-04-18T14:45:50.665Z</time></trkpt><trkpt lat="44.84942" lon="9.4734233"><ele>652.6</ele><time>2026-04-18T14:45:51.665Z</time></trkpt><trkpt lat="44.8495067" lon="9.4734667"><ele>649.4</ele><time>2026-04-18T14:45:52.665Z</time></trkpt><trkpt lat="44.8495883" lon="9.47353"><ele>646.2</ele><time>2026-04-18T14:45:53.665Z</time></trkpt><trkpt lat="44.8496517" lon="9.4736217"><ele>643.0</ele><time>2026-04-18T14:45:54.665Z</time></trkpt><trkpt lat="44.8496867" lon="9.4737267"><ele>643.4285714285714</ele><time>2026-04-18T14:45:55.665Z</time></trkpt><trkpt lat="44.8497" lon="9.4738333"><ele>643.8571428571429</ele><time>2026-04-18T14:45:56.665Z</time></trkpt><trkpt lat="44.8496917" lon="9.4739417"><ele>644.2857142857143</ele><time>2026-04-18T14:45:57.665Z</time></trkpt><trkpt lat="44.8496733" lon="9.4740467"><ele>644.7142857142858</ele><time>2026-04-18T14:45:58.665Z</time></trkpt><trkpt lat="44.8496767" lon="9.4741433"><ele>645.1428571428571</ele><time>2026-04-18T14:45:59.665Z</time></trkpt><trkpt lat="44.8497033" lon="9.4742317"><ele>645.5714285714287</ele><time>2026-04-18T14:46:00.665Z</time></trkpt><trkpt lat="44.8497567" lon="9.474295"><ele>646.0</ele><time>2026-04-18T14:46:01.665Z</time></trkpt><trkpt lat="44.849835" lon="9.474285"><ele>646.0</ele><time>2026-04-18T14:46:02.665Z</time></trkpt><trkpt lat="44.8499067" lon="9.4742217"><ele>646.0</ele><time>2026-04-18T14:46:03.665Z</time></trkpt><trkpt lat="44.849965" lon="9.47413"><ele>646.0</ele><time>2026-04-18T14:46:04.665Z</time></trkpt><trkpt lat="44.8500067" lon="9.4740483"><ele>646.0</ele><time>2026-04-18T14:46:05.665Z</time></trkpt><trkpt lat="44.85006" lon="9.4739917"><ele>646.0</ele><time>2026-04-18T14:46:06.665Z</time></trkpt><trkpt lat="44.8501233" lon="9.473965"><ele>646.0</ele><time>2026-04-18T14:46:07.665Z</time></trkpt><trkpt lat="44.850195" lon="9.474005"><ele>646.0</ele><time>2026-04-18T14:46:08.665Z</time></trkpt><trkpt lat="44.850235" lon="9.4741083"><ele>646.0</ele><time>2026-04-18T14:46:09.665Z</time></trkpt><trkpt lat="44.8502517" lon="9.47421"><ele>646.0</ele><time>2026-04-18T14:46:10.665Z</time></trkpt><trkpt lat="44.8502167" lon="9.4743017"><ele>646.0</ele><time>2026-04-18T14:46:11.665Z</time></trkpt><trkpt lat="44.850155" lon="9.4743783"><ele>646.0</ele><time>2026-04-18T14:46:12.665Z</time></trkpt><trkpt lat="44.850075" lon="9.474435"><ele>646.0</ele><time>2026-04-18T14:46:13.665Z</time></trkpt><trkpt lat="44.8499933" lon="9.4744867"><ele>646.0</ele><time>2026-04-18T14:46:14.665Z</time></trkpt><trkpt lat="44.8499017" lon="9.4745433"><ele>646.0</ele><time>2026-04-18T14:46:15.665Z</time></trkpt><trkpt lat="44.84982" lon="9.4746067"><ele>646.0</ele><time>2026-04-18T14:46:16.665Z</time></trkpt><trkpt lat="44.84974" lon="9.474685"><ele>646.0</ele><time>2026-04-18T14:46:17.665Z</time></trkpt><trkpt lat="44.8496567" lon="9.47475"><ele>646.0</ele><time>2026-04-18T14:46:18.665Z</time></trkpt><trkpt lat="44.849565" lon="9.47481"><ele>644.4</ele><time>2026-04-18T14:46:19.665Z</time></trkpt><trkpt lat="44.84947" lon="9.47486"><ele>642.8</ele><time>2026-04-18T14:46:20.665Z</time></trkpt><trkpt lat="44.8493683" lon="9.4748883"><ele>641.1999999999999</ele><time>2026-04-18T14:46:21.665Z</time></trkpt><trkpt lat="44.84926" lon="9.47489"><ele>639.5999999999999</ele><time>2026-04-18T14:46:22.665Z</time></trkpt><trkpt lat="44.8491517" lon="9.474905"><ele>638.0</ele><time>2026-04-18T14:46:23.665Z</time></trkpt><trkpt lat="44.84904" lon="9.47496"><ele>638.0</ele><time>2026-04-18T14:46:24.665Z</time></trkpt><trkpt lat="44.8489317" lon="9.4750383"><ele>638.0</ele><time>2026-04-18T14:46:25.665Z</time></trkpt><trkpt lat="44.84883" lon="9.47513"><ele>638.0</ele><time>2026-04-18T14:46:26.665Z</time></trkpt><trkpt lat="44.8487333" lon="9.475235"><ele>638.0</ele><time>2026-04-18T14:46:27.665Z</time></trkpt><trkpt lat="44.8486383" lon="9.4753217"><ele>638.0</ele><time>2026-04-18T14:46:28.665Z</time></trkpt><trkpt lat="44.8485417" lon="9.475405"><ele>638.0</ele><time>2026-04-18T14:46:29.665Z</time></trkpt><trkpt lat="44.8484567" lon="9.4754983"><ele>638.0</ele><time>2026-04-18T14:46:30.665Z</time></trkpt><trkpt lat="44.8483817" lon="9.4756217"><ele>638.0</ele><time>2026-04-18T14:46:31.665Z</time></trkpt><trkpt lat="44.848315" lon="9.4757533"><ele>635.5</ele><time>2026-04-18T14:46:32.665Z</time></trkpt><trkpt lat="44.84825" lon="9.475885"><ele>633.0</ele><time>2026-04-18T14:46:33.665Z</time></trkpt><trkpt lat="44.8481833" lon="9.4760167"><ele>630.5</ele><time>2026-04-18T14:46:34.665Z</time></trkpt><trkpt lat="44.8481317" lon="9.4761517"><ele>628.0</ele><time>2026-04-18T14:46:35.665Z</time></trkpt><trkpt lat="44.848085" lon="9.4763033"><ele>625.5</ele><time>2026-04-18T14:46:36.665Z</time></trkpt><trkpt lat="44.84805" lon="9.4764733"><ele>623.0</ele><time>2026-04-18T14:46:37.665Z</time></trkpt><trkpt lat="44.8480183" lon="9.4766517"><ele>620.5</ele><time>2026-04-18T14:46:38.665Z</time></trkpt><trkpt lat="44.84799" lon="9.4768283"><ele>618.0</ele><time>2026-04-18T14:46:39.665Z</time></trkpt><trkpt lat="44.847955" lon="9.4769867"><ele>616.6</ele><time>2026-04-18T14:46:40.665Z</time></trkpt><trkpt lat="44.847925" lon="9.4771383"><ele>615.1999999999999</ele><time>2026-04-18T14:46:41.665Z</time></trkpt><trkpt lat="44.847905" lon="9.4772833"><ele>613.8</ele><time>2026-04-18T14:46:42.665Z</time></trkpt><trkpt lat="44.8478933" lon="9.4774267"><ele>612.4</ele><time>2026-04-18T14:46:43.665Z</time></trkpt><trkpt lat="44.8478917" lon="9.477565"><ele>611.0</ele><time>2026-04-18T14:46:44.665Z</time></trkpt><trkpt lat="44.84791" lon="9.4777117"><ele>611.0</ele><time>2026-04-18T14:46:45.665Z</time></trkpt><trkpt lat="44.8479467" lon="9.47787"><ele>611.0</ele><time>2026-04-18T14:46:46.665Z</time></trkpt><trkpt lat="44.8479783" lon="9.4780333"><ele>611.0</ele><time>2026-04-18T14:46:47.665Z</time></trkpt><trkpt lat="44.8480067" lon="9.4781933"><ele>611.0</ele><time>2026-04-18T14:46:48.665Z</time></trkpt><trkpt lat="44.848035" lon="9.47836"><ele>610.25</ele><time>2026-04-18T14:46:49.665Z</time></trkpt><trkpt lat="44.8480633" lon="9.4785233"><ele>609.5</ele><time>2026-04-18T14:46:50.665Z</time></trkpt><trkpt lat="44.84809" lon="9.47869"><ele>608.75</ele><time>2026-04-18T14:46:51.665Z</time></trkpt><trkpt lat="44.8481217" lon="9.4788567"><ele>608.0</ele><time>2026-04-18T14:46:52.665Z</time></trkpt><trkpt lat="44.8481483" lon="9.479025"><ele>607.4</ele><time>2026-04-18T14:46:53.665Z</time></trkpt><trkpt lat="44.84818" lon="9.4791867"><ele>606.8</ele><time>2026-04-18T14:46:54.666Z</time></trkpt><trkpt lat="44.8482017" lon="9.4793283"><ele>606.2</ele><time>2026-04-18T14:46:55.665Z</time></trkpt><trkpt lat="44.8482033" lon="9.4794367"><ele>605.6</ele><time>2026-04-18T14:46:56.665Z</time></trkpt><trkpt lat="44.8481867" lon="9.4795967"><ele>605.0</ele><time>2026-04-18T14:46:58.665Z</time></trkpt><trkpt lat="44.8481967" lon="9.4797067"><ele>603.5</ele><time>2026-04-18T14:47:00.665Z</time></trkpt><trkpt lat="44.8481883" lon="9.479795"><ele>602.0</ele><time>2026-04-18T14:47:02.665Z</time></trkpt><trkpt lat="44.8481174" lon="9.4797776"><ele>600.5</ele><time>2026-04-18T14:51:14.673Z</time></trkpt><trkpt lat="44.8480504" lon="9.4797989"><ele>599.0</ele><time>2026-04-18T14:51:17.696Z</time></trkpt><trkpt lat="44.8479795" lon="9.4799393"><ele>597.5</ele><time>2026-04-18T14:51:19.665Z</time></trkpt><trkpt lat="44.8479389" lon="9.4800203"><ele>596.0</ele><time>2026-04-18T14:51:20.665Z</time></trkpt><trkpt lat="44.8479077" lon="9.4801068"><ele>596.0</ele><time>2026-04-18T14:51:21.665Z</time></trkpt><trkpt lat="44.8479246" lon="9.4802807"><ele>596.0</ele><time>2026-04-18T14:51:23.665Z</time></trkpt><trkpt lat="44.8479823" lon="9.4803481"><ele>596.0</ele><time>2026-04-18T14:51:24.665Z</time></trkpt><trkpt lat="44.8480683" lon="9.4803683"><ele>596.0</ele><time>2026-04-18T14:51:25.665Z</time></trkpt><trkpt lat="44.8481533" lon="9.480345"><ele>596.0</ele><time>2026-04-18T14:51:26.665Z</time></trkpt><trkpt lat="44.8482333" lon="9.4803083"><ele>596.0</ele><time>2026-04-18T14:51:27.665Z</time></trkpt><trkpt lat="44.84831" lon="9.4802533"><ele>596.0</ele><time>2026-04-18T14:51:28.665Z</time></trkpt><trkpt lat="44.848385" lon="9.48018"><ele>596.0</ele><time>2026-04-18T14:51:29.665Z</time></trkpt><trkpt lat="44.8484617" lon="9.4800967"><ele>596.0</ele><time>2026-04-18T14:51:30.665Z</time></trkpt><trkpt lat="44.8485367" lon="9.4800217"><ele>596.0</ele><time>2026-04-18T14:51:31.665Z</time></trkpt><trkpt lat="44.8486117" lon="9.4799383"><ele>594.4</ele><time>2026-04-18T14:51:32.665Z</time></trkpt><trkpt lat="44.8486867" lon="9.4798467"><ele>592.8</ele><time>2026-04-18T14:51:33.665Z</time></trkpt><trkpt lat="44.8487617" lon="9.4797483"><ele>591.1999999999999</ele><time>2026-04-18T14:51:34.665Z</time></trkpt><trkpt lat="44.8488317" lon="9.4796483"><ele>589.6</ele><time>2026-04-18T14:51:35.665Z</time></trkpt><trkpt lat="44.8489017" lon="9.4795367"><ele>588.0</ele><time>2026-04-18T14:51:36.665Z</time></trkpt><trkpt lat="44.848965" lon="9.4794217"><ele>588.0</ele><time>2026-04-18T14:51:37.665Z</time></trkpt><trkpt lat="44.8490417" lon="9.47931"><ele>588.0</ele><time>2026-04-18T14:51:38.665Z</time></trkpt><trkpt lat="44.8491117" lon="9.4791983"><ele>588.0</ele><time>2026-04-18T14:51:39.665Z</time></trkpt><trkpt lat="44.8491817" lon="9.4790783"><ele>588.0</ele><time>2026-04-18T14:51:40.665Z</time></trkpt><trkpt lat="44.8492617" lon="9.4789567"><ele>588.0</ele><time>2026-04-18T14:51:41.665Z</time></trkpt><trkpt lat="44.84933" lon="9.4788333"><ele>585.1999999999999</ele><time>2026-04-18T14:51:42.665Z</time></trkpt><trkpt lat="44.8493883" lon="9.4787067"><ele>582.4</ele><time>2026-04-18T14:51:43.665Z</time></trkpt><trkpt lat="44.8494367" lon="9.478565"><ele>579.5999999999999</ele><time>2026-04-18T14:51:44.665Z</time></trkpt><trkpt lat="44.8494783" lon="9.4784283"><ele>576.8</ele><time>2026-04-18T14:51:45.666Z</time></trkpt><trkpt lat="44.8495133" lon="9.4783067"><ele>574.0</ele><time>2026-04-18T14:51:46.665Z</time></trkpt><trkpt lat="44.84955" lon="9.4781967"><ele>574.0</ele><time>2026-04-18T14:51:47.665Z</time></trkpt><trkpt lat="44.8495917" lon="9.478115"><ele>574.0</ele><time>2026-04-18T14:51:48.665Z</time></trkpt><trkpt lat="44.8496467" lon="9.4780383"><ele>574.0</ele><time>2026-04-18T14:51:49.665Z</time></trkpt><trkpt lat="44.8497283" lon="9.4780383"><ele>574.0</ele><time>2026-04-18T14:51:50.665Z</time></trkpt><trkpt lat="44.8497933" lon="9.47805"><ele>574.0</ele><time>2026-04-18T14:51:51.665Z</time></trkpt><trkpt lat="44.8498483" lon="9.4781133"><ele>574.0</ele><time>2026-04-18T14:51:52.665Z</time></trkpt><trkpt lat="44.8498883" lon="9.4782083"><ele>574.0</ele><time>2026-04-18T14:51:53.665Z</time></trkpt><trkpt lat="44.8499183" lon="9.4783183"><ele>574.0</ele><time>2026-04-18T14:51:54.665Z</time></trkpt><trkpt lat="44.8499417" lon="9.47844"><ele>574.0</ele><time>2026-04-18T14:51:55.665Z</time></trkpt><trkpt lat="44.849965" lon="9.4785733"><ele>574.0</ele><time>2026-04-18T14:51:56.666Z</time></trkpt><trkpt lat="44.849995" lon="9.478705"><ele>574.0</ele><time>2026-04-18T14:51:57.665Z</time></trkpt><trkpt lat="44.8500083" lon="9.478835"><ele>574.0</ele><time>2026-04-18T14:51:58.665Z</time></trkpt><trkpt lat="44.8500217" lon="9.47896"><ele>573.6666666666667</ele><time>2026-04-18T14:51:59.666Z</time></trkpt><trkpt lat="44.8500217" lon="9.479085"><ele>573.3333333333334</ele><time>2026-04-18T14:52:00.665Z</time></trkpt><trkpt lat="44.8500017" lon="9.4792033"><ele>573.0</ele><time>2026-04-18T14:52:01.665Z</time></trkpt><trkpt lat="44.84997" lon="9.4793067"><ele>572.6666666666666</ele><time>2026-04-18T14:52:02.665Z</time></trkpt><trkpt lat="44.849925" lon="9.4794033"><ele>572.3333333333333</ele><time>2026-04-18T14:52:03.665Z</time></trkpt><trkpt lat="44.8498817" lon="9.4794883"><ele>572.0</ele><time>2026-04-18T14:52:04.665Z</time></trkpt><trkpt lat="44.8498367" lon="9.4795767"><ele>569.4</ele><time>2026-04-18T14:52:05.665Z</time></trkpt><trkpt lat="44.849805" lon="9.4796617"><ele>566.8000000000001</ele><time>2026-04-18T14:52:06.665Z</time></trkpt><trkpt lat="44.8497767" lon="9.47983"><ele>564.2</ele><time>2026-04-18T14:52:08.665Z</time></trkpt><trkpt lat="44.849815" lon="9.47999"><ele>561.6</ele><time>2026-04-18T14:52:10.666Z</time></trkpt><trkpt lat="44.8499283" lon="9.4800467"><ele>559.0</ele><time>2026-04-18T14:52:12.665Z</time></trkpt><trkpt lat="44.850005" lon="9.480035"><ele>559.0</ele><time>2026-04-18T14:52:13.665Z</time></trkpt><trkpt lat="44.8500717" lon="9.4800067"><ele>559.0</ele><time>2026-04-18T14:52:14.665Z</time></trkpt><trkpt lat="44.8501417" lon="9.4799633"><ele>559.0</ele><time>2026-04-18T14:52:15.665Z</time></trkpt><trkpt lat="44.8502117" lon="9.4799083"><ele>559.0</ele><time>2026-04-18T14:52:16.665Z</time></trkpt><trkpt lat="44.8502733" lon="9.4798517"><ele>559.0</ele><time>2026-04-18T14:52:17.665Z</time></trkpt><trkpt lat="44.8503317" lon="9.4797867"><ele>559.0</ele><time>2026-04-18T14:52:18.665Z</time></trkpt><trkpt lat="44.85039" lon="9.4797117"><ele>558.4</ele><time>2026-04-18T14:52:19.665Z</time></trkpt><trkpt lat="44.8504633" lon="9.4796383"><ele>557.8</ele><time>2026-04-18T14:52:20.665Z</time></trkpt><trkpt lat="44.850535" lon="9.47957"><ele>557.2</ele><time>2026-04-18T14:52:21.665Z</time></trkpt><trkpt lat="44.8506083" lon="9.479495"><ele>556.6</ele><time>2026-04-18T14:52:22.665Z</time></trkpt><trkpt lat="44.8506817" lon="9.47942"><ele>556.0</ele><time>2026-04-18T14:52:23.665Z</time></trkpt><trkpt lat="44.8507583" lon="9.4793383"><ele>556.0</ele><time>2026-04-18T14:52:24.665Z</time></trkpt><trkpt lat="44.8508233" lon="9.47924"><ele>556.0</ele><time>2026-04-18T14:52:25.665Z</time></trkpt><trkpt lat="44.8508883" lon="9.4791283"><ele>556.0</ele><time>2026-04-18T14:52:26.665Z</time></trkpt><trkpt lat="44.8509317" lon="9.479005"><ele>556.0</ele><time>2026-04-18T14:52:27.665Z</time></trkpt><trkpt lat="44.8509583" lon="9.478875"><ele>556.0</ele><time>2026-04-18T14:52:28.665Z</time></trkpt><trkpt lat="44.8509717" lon="9.4787433"><ele>554.1666666666667</ele><time>2026-04-18T14:52:29.665Z</time></trkpt><trkpt lat="44.8509817" lon="9.4786283"><ele>552.3333333333334</ele><time>2026-04-18T14:52:30.665Z</time></trkpt><trkpt lat="44.8510017" lon="9.4785267"><ele>550.5</ele><time>2026-04-18T14:52:31.665Z</time></trkpt><trkpt lat="44.8510533" lon="9.4784517"><ele>548.6666666666666</ele><time>2026-04-18T14:52:32.665Z</time></trkpt><trkpt lat="44.85112" lon="9.4783883"><ele>546.8333333333333</ele><time>2026-04-18T14:52:33.665Z</time></trkpt><trkpt lat="44.8512217" lon="9.47839"><ele>545.0</ele><time>2026-04-18T14:52:34.665Z</time></trkpt><trkpt lat="44.85131" lon="9.4784367"><ele>545.0</ele><time>2026-04-18T14:52:35.665Z</time></trkpt><trkpt lat="44.85139" lon="9.4785017"><ele>545.0</ele><time>2026-04-18T14:52:36.665Z</time></trkpt><trkpt lat="44.851465" lon="9.4785633"><ele>545.0</ele><time>2026-04-18T14:52:37.665Z</time></trkpt><trkpt lat="44.8515533" lon="9.478605"><ele>545.0</ele><time>2026-04-18T14:52:38.666Z</time></trkpt><trkpt lat="44.8516467" lon="9.4786233"><ele>545.0</ele><time>2026-04-18T14:52:39.665Z</time></trkpt><trkpt lat="44.851745" lon="9.4786217"><ele>543.4</ele><time>2026-04-18T14:52:40.665Z</time></trkpt><trkpt lat="44.851845" lon="9.4786133"><ele>541.8</ele><time>2026-04-18T14:52:41.665Z</time></trkpt><trkpt lat="44.8519483" lon="9.4786083"><ele>540.2</ele><time>2026-04-18T14:52:42.665Z</time></trkpt><trkpt lat="44.8520567" lon="9.4786083"><ele>538.6</ele><time>2026-04-18T14:52:43.665Z</time></trkpt><trkpt lat="44.8521633" lon="9.4786033"><ele>537.0</ele><time>2026-04-18T14:52:44.665Z</time></trkpt><trkpt lat="44.85227" lon="9.4785867"><ele>537.0</ele><time>2026-04-18T14:52:45.665Z</time></trkpt><trkpt lat="44.8523733" lon="9.47856"><ele>537.0</ele><time>2026-04-18T14:52:46.665Z</time></trkpt><trkpt lat="44.8524733" lon="9.478515"><ele>537.0</ele><time>2026-04-18T14:52:47.665Z</time></trkpt><trkpt lat="44.8525767" lon="9.4784733"><ele>537.0</ele><time>2026-04-18T14:52:48.666Z</time></trkpt><trkpt lat="44.85268" lon="9.4784233"><ele>537.0</ele><time>2026-04-18T14:52:49.665Z</time></trkpt><trkpt lat="44.85278" lon="9.478355"><ele>536.4</ele><time>2026-04-18T14:52:50.665Z</time></trkpt><trkpt lat="44.85287" lon="9.4782817"><ele>535.8000000000001</ele><time>2026-04-18T14:52:51.665Z</time></trkpt><trkpt lat="44.8529483" lon="9.478205"><ele>535.2</ele><time>2026-04-18T14:52:52.665Z</time></trkpt><trkpt lat="44.85302" lon="9.4781183"><ele>534.6</ele><time>2026-04-18T14:52:53.665Z</time></trkpt><trkpt lat="44.853085" lon="9.4780183"><ele>534.0</ele><time>2026-04-18T14:52:54.665Z</time></trkpt><trkpt lat="44.8531417" lon="9.4779183"><ele>534.0</ele><time>2026-04-18T14:52:55.665Z</time></trkpt><trkpt lat="44.8532033" lon="9.4778233"><ele>534.0</ele><time>2026-04-18T14:52:56.665Z</time></trkpt><trkpt lat="44.8532667" lon="9.477725"><ele>534.0</ele><time>2026-04-18T14:52:57.665Z</time></trkpt><trkpt lat="44.8533333" lon="9.4776233"><ele>534.0</ele><time>2026-04-18T14:52:58.665Z</time></trkpt><trkpt lat="44.8534033" lon="9.4775183"><ele>534.0</ele><time>2026-04-18T14:52:59.665Z</time></trkpt><trkpt lat="44.8534733" lon="9.477415"><ele>530.2</ele><time>2026-04-18T14:53:00.665Z</time></trkpt><trkpt lat="44.8535483" lon="9.477315"><ele>526.4</ele><time>2026-04-18T14:53:01.665Z</time></trkpt><trkpt lat="44.8536217" lon="9.4772117"><ele>522.6</ele><time>2026-04-18T14:53:02.665Z</time></trkpt><trkpt lat="44.8536767" lon="9.477095"><ele>518.8</ele><time>2026-04-18T14:53:03.665Z</time></trkpt><trkpt lat="44.8537117" lon="9.4769633"><ele>515.0</ele><time>2026-04-18T14:53:04.665Z</time></trkpt><trkpt lat="44.8537417" lon="9.47682"><ele>515.0</ele><time>2026-04-18T14:53:05.665Z</time></trkpt><trkpt lat="44.853775" lon="9.476685"><ele>515.0</ele><time>2026-04-18T14:53:06.666Z</time></trkpt><trkpt lat="44.853805" lon="9.4765567"><ele>515.0</ele><time>2026-04-18T14:53:07.665Z</time></trkpt><trkpt lat="44.8538417" lon="9.4764383"><ele>515.0</ele><time>2026-04-18T14:53:08.665Z</time></trkpt><trkpt lat="44.853875" lon="9.4763233"><ele>515.0</ele><time>2026-04-18T14:53:09.665Z</time></trkpt><trkpt lat="44.8539033" lon="9.4762133"><ele>515.3333333333333</ele><time>2026-04-18T14:53:10.665Z</time></trkpt><trkpt lat="44.8539283" lon="9.4761"><ele>515.6666666666666</ele><time>2026-04-18T14:53:11.665Z</time></trkpt><trkpt lat="44.8539367" lon="9.4759883"><ele>516.0</ele><time>2026-04-18T14:53:12.665Z</time></trkpt><trkpt lat="44.8539367" lon="9.4758633"><ele>516.3333333333334</ele><time>2026-04-18T14:53:13.665Z</time></trkpt><trkpt lat="44.8539267" lon="9.47574"><ele>516.6666666666667</ele><time>2026-04-18T14:53:14.665Z</time></trkpt><trkpt lat="44.85391" lon="9.47562"><ele>517.0</ele><time>2026-04-18T14:53:15.665Z</time></trkpt><trkpt lat="44.853895" lon="9.4755217"><ele>515.8333333333334</ele><time>2026-04-18T14:53:16.665Z</time></trkpt><trkpt lat="44.8538683" lon="9.4754217"><ele>514.6666666666667</ele><time>2026-04-18T14:53:17.665Z</time></trkpt><trkpt lat="44.8538333" lon="9.4753267"><ele>513.5</ele><time>2026-04-18T14:53:18.665Z</time></trkpt><trkpt lat="44.853785" lon="9.4752233"><ele>512.3333333333334</ele><time>2026-04-18T14:53:19.665Z</time></trkpt><trkpt lat="44.85375" lon="9.475115"><ele>511.1666666666667</ele><time>2026-04-18T14:53:20.665Z</time></trkpt><trkpt lat="44.8537267" lon="9.4749933"><ele>510.0</ele><time>2026-04-18T14:53:21.665Z</time></trkpt><trkpt lat="44.853725" lon="9.4748717"><ele>510.0</ele><time>2026-04-18T14:53:22.665Z</time></trkpt><trkpt lat="44.8537417" lon="9.4747517"><ele>510.0</ele><time>2026-04-18T14:53:23.665Z</time></trkpt><trkpt lat="44.8537667" lon="9.4746333"><ele>510.0</ele><time>2026-04-18T14:53:24.666Z</time></trkpt><trkpt lat="44.8538033" lon="9.4745217"><ele>510.0</ele><time>2026-04-18T14:53:25.665Z</time></trkpt><trkpt lat="44.8538333" lon="9.4743983"><ele>510.0</ele><time>2026-04-18T14:53:26.665Z</time></trkpt><trkpt lat="44.85385" lon="9.4742633"><ele>510.3333333333333</ele><time>2026-04-18T14:53:27.665Z</time></trkpt><trkpt lat="44.8538683" lon="9.4741367"><ele>510.66666666666663</ele><time>2026-04-18T14:53:28.665Z</time></trkpt><trkpt lat="44.8538867" lon="9.4740117"><ele>511.0</ele><time>2026-04-18T14:53:29.665Z</time></trkpt><trkpt lat="44.8539067" lon="9.47389"><ele>511.3333333333333</ele><time>2026-04-18T14:53:30.665Z</time></trkpt><trkpt lat="44.8539283" lon="9.4737633"><ele>511.66666666666663</ele><time>2026-04-18T14:53:31.665Z</time></trkpt><trkpt lat="44.8539517" lon="9.4736467"><ele>512.0</ele><time>2026-04-18T14:53:32.665Z</time></trkpt><trkpt lat="44.8539783" lon="9.473545"><ele>512.0</ele><time>2026-04-18T14:53:33.666Z</time></trkpt><trkpt lat="44.8540217" lon="9.4734483"><ele>512.0</ele><time>2026-04-18T14:53:34.665Z</time></trkpt><trkpt lat="44.8540983" lon="9.473375"><ele>512.0</ele><time>2026-04-18T14:53:35.665Z</time></trkpt><trkpt lat="44.8541783" lon="9.4733333"><ele>512.0</ele><time>2026-04-18T14:53:36.665Z</time></trkpt><trkpt lat="44.85426" lon="9.4732533"><ele>512.0</ele><time>2026-04-18T14:53:37.665Z</time></trkpt><trkpt lat="44.8543417" lon="9.4731717"><ele>508.40000000000003</ele><time>2026-04-18T14:53:38.665Z</time></trkpt><trkpt lat="44.85442" lon="9.47308"><ele>504.80000000000007</ele><time>2026-04-18T14:53:39.666Z</time></trkpt><trkpt lat="44.854495" lon="9.4729783"><ele>501.2</ele><time>2026-04-18T14:53:40.665Z</time></trkpt><trkpt lat="44.8545617" lon="9.47287"><ele>497.6</ele><time>2026-04-18T14:53:41.665Z</time></trkpt><trkpt lat="44.8546283" lon="9.472765"><ele>494.0</ele><time>2026-04-18T14:53:42.665Z</time></trkpt><trkpt lat="44.8546983" lon="9.4726417"><ele>494.0</ele><time>2026-04-18T14:53:43.665Z</time></trkpt><trkpt lat="44.85476" lon="9.47251"><ele>494.0</ele><time>2026-04-18T14:53:44.665Z</time></trkpt><trkpt lat="44.854805" lon="9.4723917"><ele>494.0</ele><time>2026-04-18T14:53:45.665Z</time></trkpt><trkpt lat="44.8548467" lon="9.472265"><ele>494.0</ele><time>2026-04-18T14:53:46.665Z</time></trkpt><trkpt lat="44.8548733" lon="9.4721383"><ele>494.0</ele><time>2026-04-18T14:53:47.665Z</time></trkpt><trkpt lat="44.8548783" lon="9.4720033"><ele>493.79999999999995</ele><time>2026-04-18T14:53:48.665Z</time></trkpt><trkpt lat="44.854875" lon="9.4718683"><ele>493.59999999999997</ele><time>2026-04-18T14:53:49.665Z</time></trkpt><trkpt lat="44.85485" lon="9.4717333"><ele>493.4</ele><time>2026-04-18T14:53:50.666Z</time></trkpt><trkpt lat="44.8548183" lon="9.4715867"><ele>493.2</ele><time>2026-04-18T14:53:51.665Z</time></trkpt><trkpt lat="44.8547783" lon="9.4714533"><ele>493.0</ele><time>2026-04-18T14:53:52.665Z</time></trkpt><trkpt lat="44.854745" lon="9.471325"><ele>492.4</ele><time>2026-04-18T14:53:53.665Z</time></trkpt><trkpt lat="44.8547383" lon="9.4711983"><ele>491.79999999999995</ele><time>2026-04-18T14:53:54.665Z</time></trkpt><trkpt lat="44.8547533" lon="9.47107"><ele>491.2</ele><time>2026-04-18T14:53:55.665Z</time></trkpt><trkpt lat="44.8547783" lon="9.470945"><ele>490.6</ele><time>2026-04-18T14:53:56.665Z</time></trkpt><trkpt lat="44.8548" lon="9.4708283"><ele>490.0</ele><time>2026-04-18T14:53:57.665Z</time></trkpt><trkpt lat="44.8547883" lon="9.4706317"><ele>490.0</ele><time>2026-04-18T14:53:59.665Z</time></trkpt><trkpt lat="44.8547617" lon="9.4705233"><ele>490.0</ele><time>2026-04-18T14:54:00.665Z</time></trkpt><trkpt lat="44.8547217" lon="9.4704117"><ele>490.0</ele><time>2026-04-18T14:54:01.665Z</time></trkpt><trkpt lat="44.8546617" lon="9.470295"><ele>490.0</ele><time>2026-04-18T14:54:02.665Z</time></trkpt><trkpt lat="44.854595" lon="9.4702017"><ele>490.0</ele><time>2026-04-18T14:54:03.665Z</time></trkpt><trkpt lat="44.8545383" lon="9.4701033"><ele>491.7142857142857</ele><time>2026-04-18T14:54:04.665Z</time></trkpt><trkpt lat="44.854495" lon="9.4700133"><ele>493.42857142857144</ele><time>2026-04-18T14:54:05.665Z</time></trkpt><trkpt lat="44.8544767" lon="9.4699217"><ele>495.1428571428571</ele><time>2026-04-18T14:54:06.665Z</time></trkpt><trkpt lat="44.8545017" lon="9.4698217"><ele>496.85714285714283</ele><time>2026-04-18T14:54:07.665Z</time></trkpt><trkpt lat="44.8545517" lon="9.469765"><ele>498.57142857142856</ele><time>2026-04-18T14:54:08.665Z</time></trkpt><trkpt lat="44.85462" lon="9.46976"><ele>500.2857142857142</ele><time>2026-04-18T14:54:09.665Z</time></trkpt><trkpt lat="44.8546917" lon="9.4697817"><ele>501.99999999999994</ele><time>2026-04-18T14:54:10.665Z</time></trkpt><trkpt lat="44.854765" lon="9.4698183"><ele>502.00000000000006</ele><time>2026-04-18T14:54:11.665Z</time></trkpt><trkpt lat="44.854835" lon="9.4698633"><ele>502.0</ele><time>2026-04-18T14:54:12.665Z</time></trkpt><trkpt lat="44.85491" lon="9.469915"><ele>502.0</ele><time>2026-04-18T14:54:13.665Z</time></trkpt><trkpt lat="44.8549717" lon="9.4699867"><ele>502.0</ele><time>2026-04-18T14:54:14.665Z</time></trkpt><trkpt lat="44.8550383" lon="9.4700667"><ele>502.00000000000006</ele><time>2026-04-18T14:54:15.665Z</time></trkpt><trkpt lat="44.8551067" lon="9.4701617"><ele>502.0</ele><time>2026-04-18T14:54:16.665Z</time></trkpt><trkpt lat="44.8551783" lon="9.4702467"><ele>500.20000000000005</ele><time>2026-04-18T14:54:17.665Z</time></trkpt><trkpt lat="44.8552567" lon="9.4703283"><ele>498.40000000000003</ele><time>2026-04-18T14:54:18.665Z</time></trkpt><trkpt lat="44.8553383" lon="9.4704117"><ele>496.59999999999997</ele><time>2026-04-18T14:54:19.665Z</time></trkpt><trkpt lat="44.855425" lon="9.4704917"><ele>494.79999999999995</ele><time>2026-04-18T14:54:20.665Z</time></trkpt><trkpt lat="44.8555183" lon="9.470585"><ele>493.0</ele><time>2026-04-18T14:54:21.665Z</time></trkpt><trkpt lat="44.8555983" lon="9.4706983"><ele>493.0</ele><time>2026-04-18T14:54:22.665Z</time></trkpt><trkpt lat="44.8556667" lon="9.47082"><ele>493.0</ele><time>2026-04-18T14:54:23.665Z</time></trkpt><trkpt lat="44.8557317" lon="9.4709567"><ele>493.0</ele><time>2026-04-18T14:54:24.665Z</time></trkpt><trkpt lat="44.8557867" lon="9.47109"><ele>493.0</ele><time>2026-04-18T14:54:25.665Z</time></trkpt><trkpt lat="44.8558333" lon="9.4712383"><ele>491.59999999999997</ele><time>2026-04-18T14:54:26.665Z</time></trkpt><trkpt lat="44.8558767" lon="9.471385"><ele>490.19999999999993</ele><time>2026-04-18T14:54:27.665Z</time></trkpt><trkpt lat="44.8559067" lon="9.47153"><ele>488.8</ele><time>2026-04-18T14:54:28.665Z</time></trkpt><trkpt lat="44.855945" lon="9.47167"><ele>487.4</ele><time>2026-04-18T14:54:29.665Z</time></trkpt><trkpt lat="44.85599" lon="9.4717933"><ele>486.0</ele><time>2026-04-18T14:54:30.665Z</time></trkpt><trkpt lat="44.8560633" lon="9.4719067"><ele>486.0</ele><time>2026-04-18T14:54:31.665Z</time></trkpt><trkpt lat="44.8561517" lon="9.4720033"><ele>486.0</ele><time>2026-04-18T14:54:32.665Z</time></trkpt><trkpt lat="44.85624" lon="9.4720933"><ele>486.0</ele><time>2026-04-18T14:54:33.665Z</time></trkpt><trkpt lat="44.8563217" lon="9.4721967"><ele>486.0</ele><time>2026-04-18T14:54:34.665Z</time></trkpt><trkpt lat="44.8564017" lon="9.4722983"><ele>486.0</ele><time>2026-04-18T14:54:35.665Z</time></trkpt><trkpt lat="44.8564917" lon="9.4723933"><ele>484.6</ele><time>2026-04-18T14:54:36.665Z</time></trkpt><trkpt lat="44.856585" lon="9.47249"><ele>483.20000000000005</ele><time>2026-04-18T14:54:37.666Z</time></trkpt><trkpt lat="44.85668" lon="9.4725767"><ele>481.79999999999995</ele><time>2026-04-18T14:54:38.665Z</time></trkpt><trkpt lat="44.85677" lon="9.47265"><ele>480.4</ele><time>2026-04-18T14:54:39.665Z</time></trkpt><trkpt lat="44.856855" lon="9.4727183"><ele>479.0</ele><time>2026-04-18T14:54:40.665Z</time></trkpt><trkpt lat="44.85693" lon="9.4727817"><ele>478.99999999999994</ele><time>2026-04-18T14:54:41.665Z</time></trkpt><trkpt lat="44.8569983" lon="9.4728517"><ele>479.0</ele><time>2026-04-18T14:54:42.665Z</time></trkpt><trkpt lat="44.8570567" lon="9.4729367"><ele>479.0</ele><time>2026-04-18T14:54:43.665Z</time></trkpt><trkpt lat="44.8570967" lon="9.473045"><ele>479.0</ele><time>2026-04-18T14:54:44.665Z</time></trkpt><trkpt lat="44.8571233" lon="9.4731533"><ele>478.99999999999994</ele><time>2026-04-18T14:54:45.665Z</time></trkpt><trkpt lat="44.8571467" lon="9.4732483"><ele>479.0</ele><time>2026-04-18T14:54:46.665Z</time></trkpt><trkpt lat="44.8571817" lon="9.4733417"><ele>476.4</ele><time>2026-04-18T14:54:47.665Z</time></trkpt><trkpt lat="44.85723" lon="9.4734467"><ele>473.79999999999995</ele><time>2026-04-18T14:54:48.665Z</time></trkpt><trkpt lat="44.8572983" lon="9.4735583"><ele>471.20000000000005</ele><time>2026-04-18T14:54:49.665Z</time></trkpt><trkpt lat="44.8573717" lon="9.4736583"><ele>468.6</ele><time>2026-04-18T14:54:50.665Z</time></trkpt><trkpt lat="44.8574467" lon="9.4737467"><ele>466.0</ele><time>2026-04-18T14:54:51.665Z</time></trkpt><trkpt lat="44.8575317" lon="9.47384"><ele>463.6</ele><time>2026-04-18T14:54:52.665Z</time></trkpt><trkpt lat="44.8576167" lon="9.4739283"><ele>461.20000000000005</ele><time>2026-04-18T14:54:53.665Z</time></trkpt><trkpt lat="44.8577017" lon="9.474005"><ele>458.79999999999995</ele><time>2026-04-18T14:54:54.665Z</time></trkpt><trkpt lat="44.8577833" lon="9.4740733"><ele>456.4</ele><time>2026-04-18T14:54:55.665Z</time></trkpt><trkpt lat="44.85786" lon="9.4741167"><ele>454.0</ele><time>2026-04-18T14:54:56.666Z</time></trkpt><trkpt lat="44.8579483" lon="9.4741517"><ele>454.0</ele><time>2026-04-18T14:54:57.665Z</time></trkpt><trkpt lat="44.8580433" lon="9.4741567"><ele>454.0</ele><time>2026-04-18T14:54:58.665Z</time></trkpt><trkpt lat="44.8581367" lon="9.4741633"><ele>454.0</ele><time>2026-04-18T14:54:59.665Z</time></trkpt><trkpt lat="44.8582117" lon="9.4742067"><ele>454.0</ele><time>2026-04-18T14:55:00.665Z</time></trkpt><trkpt lat="44.858285" lon="9.4742817"><ele>454.0</ele><time>2026-04-18T14:55:01.665Z</time></trkpt><trkpt lat="44.8583383" lon="9.4743883"><ele>454.0</ele><time>2026-04-18T14:55:02.665Z</time></trkpt><trkpt lat="44.8584" lon="9.474505"><ele>454.0</ele><time>2026-04-18T14:55:03.665Z</time></trkpt><trkpt lat="44.8584633" lon="9.47461"><ele>454.0</ele><time>2026-04-18T14:55:04.665Z</time></trkpt><trkpt lat="44.85854" lon="9.474715"><ele>454.0</ele><time>2026-04-18T14:55:05.665Z</time></trkpt><trkpt lat="44.85862" lon="9.4748167"><ele>454.0</ele><time>2026-04-18T14:55:06.665Z</time></trkpt><trkpt lat="44.858695" lon="9.474915"><ele>452.4</ele><time>2026-04-18T14:55:07.665Z</time></trkpt><trkpt lat="44.8587683" lon="9.47501"><ele>450.79999999999995</ele><time>2026-04-18T14:55:08.666Z</time></trkpt><trkpt lat="44.8588433" lon="9.475095"><ele>449.20000000000005</ele><time>2026-04-18T14:55:09.665Z</time></trkpt><trkpt lat="44.858915" lon="9.4751783"><ele>447.6</ele><time>2026-04-18T14:55:10.665Z</time></trkpt><trkpt lat="44.8589833" lon="9.4752667"><ele>446.0</ele><time>2026-04-18T14:55:11.665Z</time></trkpt><trkpt lat="44.8590533" lon="9.475355"><ele>444.8333333333333</ele><time>2026-04-18T14:55:12.665Z</time></trkpt><trkpt lat="44.8591167" lon="9.4754483"><ele>443.66666666666663</ele><time>2026-04-18T14:55:13.665Z</time></trkpt><trkpt lat="44.859185" lon="9.475535"><ele>442.5</ele><time>2026-04-18T14:55:14.665Z</time></trkpt><trkpt lat="44.8592583" lon="9.4756"><ele>441.33333333333337</ele><time>2026-04-18T14:55:15.665Z</time></trkpt><trkpt lat="44.8593417" lon="9.47564"><ele>440.1666666666667</ele><time>2026-04-18T14:55:16.665Z</time></trkpt><trkpt lat="44.8594317" lon="9.47566"><ele>439.0</ele><time>2026-04-18T14:55:17.665Z</time></trkpt><trkpt lat="44.8595167" lon="9.4756783"><ele>439.00000000000006</ele><time>2026-04-18T14:55:18.665Z</time></trkpt><trkpt lat="44.8595967" lon="9.47572"><ele>439.0</ele><time>2026-04-18T14:55:19.665Z</time></trkpt><trkpt lat="44.8596683" lon="9.4757933"><ele>439.0</ele><time>2026-04-18T14:55:20.665Z</time></trkpt><trkpt lat="44.8597267" lon="9.4758783"><ele>439.0</ele><time>2026-04-18T14:55:21.665Z</time></trkpt><trkpt lat="44.8597767" lon="9.4759667"><ele>439.00000000000006</ele><time>2026-04-18T14:55:22.665Z</time></trkpt><trkpt lat="44.85983" lon="9.4760517"><ele>439.0</ele><time>2026-04-18T14:55:23.665Z</time></trkpt><trkpt lat="44.8598817" lon="9.4761283"><ele>439.00000000000006</ele><time>2026-04-18T14:55:24.665Z</time></trkpt><trkpt lat="44.85994" lon="9.4762033"><ele>439.0</ele><time>2026-04-18T14:55:25.665Z</time></trkpt><trkpt lat="44.859995" lon="9.4762767"><ele>439.0</ele><time>2026-04-18T14:55:26.665Z</time></trkpt><trkpt lat="44.8600517" lon="9.4763517"><ele>439.0</ele><time>2026-04-18T14:55:27.665Z</time></trkpt><trkpt lat="44.86011" lon="9.4764267"><ele>439.00000000000006</ele><time>2026-04-18T14:55:28.665Z</time></trkpt><trkpt lat="44.8601633" lon="9.4765067"><ele>439.0</ele><time>2026-04-18T14:55:29.665Z</time></trkpt><trkpt lat="44.8602233" lon="9.476565"><ele>437.83333333333337</ele><time>2026-04-18T14:55:30.665Z</time></trkpt><trkpt lat="44.8602933" lon="9.4766033"><ele>436.6666666666667</ele><time>2026-04-18T14:55:31.665Z</time></trkpt><trkpt lat="44.8603717" lon="9.47663"><ele>435.5</ele><time>2026-04-18T14:55:32.665Z</time></trkpt><trkpt lat="44.8604617" lon="9.4766517"><ele>434.33333333333337</ele><time>2026-04-18T14:55:33.665Z</time></trkpt><trkpt lat="44.860545" lon="9.47667"><ele>433.1666666666667</ele><time>2026-04-18T14:55:34.665Z</time></trkpt><trkpt lat="44.8606367" lon="9.476695"><ele>432.0</ele><time>2026-04-18T14:55:35.665Z</time></trkpt><trkpt lat="44.8607283" lon="9.4767317"><ele>432.0</ele><time>2026-04-18T14:55:36.665Z</time></trkpt><trkpt lat="44.8608183" lon="9.4767733"><ele>432.00000000000006</ele><time>2026-04-18T14:55:37.665Z</time></trkpt><trkpt lat="44.8609083" lon="9.476815"><ele>432.00000000000006</ele><time>2026-04-18T14:55:38.665Z</time></trkpt><trkpt lat="44.8609983" lon="9.4768633"><ele>432.0</ele><time>2026-04-18T14:55:39.665Z</time></trkpt><trkpt lat="44.8610867" lon="9.4769083"><ele>432.0</ele><time>2026-04-18T14:55:40.665Z</time></trkpt><trkpt lat="44.8611783" lon="9.4769617"><ele>433.20000000000005</ele><time>2026-04-18T14:55:41.665Z</time></trkpt><trkpt lat="44.8612717" lon="9.477015"><ele>434.40000000000003</ele><time>2026-04-18T14:55:42.665Z</time></trkpt><trkpt lat="44.8613583" lon="9.47708"><ele>435.59999999999997</ele><time>2026-04-18T14:55:43.665Z</time></trkpt><trkpt lat="44.86144" lon="9.4771583"><ele>436.79999999999995</ele><time>2026-04-18T14:55:44.665Z</time></trkpt><trkpt lat="44.8615083" lon="9.4772283"><ele>438.0</ele><time>2026-04-18T14:55:45.665Z</time></trkpt><trkpt lat="44.8615667" lon="9.477285"><ele>435.6666666666667</ele><time>2026-04-18T14:55:46.665Z</time></trkpt><trkpt lat="44.8616333" lon="9.4773317"><ele>433.33333333333337</ele><time>2026-04-18T14:55:47.665Z</time></trkpt><trkpt lat="44.8617517" lon="9.47737"><ele>431.0</ele><time>2026-04-18T14:55:49.665Z</time></trkpt><trkpt lat="44.86182" lon="9.477345"><ele>428.6666666666667</ele><time>2026-04-18T14:55:50.665Z</time></trkpt><trkpt lat="44.8618767" lon="9.4773"><ele>426.33333333333337</ele><time>2026-04-18T14:55:51.665Z</time></trkpt><trkpt lat="44.8619283" lon="9.477245"><ele>424.0</ele><time>2026-04-18T14:55:52.665Z</time></trkpt><trkpt lat="44.861985" lon="9.4771883"><ele>423.83333333333337</ele><time>2026-04-18T14:55:53.665Z</time></trkpt><trkpt lat="44.8620417" lon="9.4771267"><ele>423.6666666666667</ele><time>2026-04-18T14:55:54.665Z</time></trkpt><trkpt lat="44.8621083" lon="9.4770733"><ele>423.5</ele><time>2026-04-18T14:55:55.665Z</time></trkpt><trkpt lat="44.8621817" lon="9.4770317"><ele>423.33333333333337</ele><time>2026-04-18T14:55:56.666Z</time></trkpt><trkpt lat="44.8622633" lon="9.4770067"><ele>423.1666666666667</ele><time>2026-04-18T14:55:57.665Z</time></trkpt><trkpt lat="44.8623483" lon="9.47699"><ele>423.0</ele><time>2026-04-18T14:55:58.665Z</time></trkpt><trkpt lat="44.8624367" lon="9.47697"><ele>423.79999999999995</ele><time>2026-04-18T14:55:59.665Z</time></trkpt><trkpt lat="44.86251" lon="9.476945"><ele>424.6</ele><time>2026-04-18T14:56:00.666Z</time></trkpt><trkpt lat="44.86258" lon="9.4769183"><ele>425.40000000000003</ele><time>2026-04-18T14:56:01.665Z</time></trkpt><trkpt lat="44.8627017" lon="9.4768783"><ele>426.20000000000005</ele><time>2026-04-18T14:56:03.665Z</time></trkpt><trkpt lat="44.862805" lon="9.4768833"><ele>427.0</ele><time>2026-04-18T14:56:05.665Z</time></trkpt><trkpt lat="44.8629017" lon="9.47693"><ele>427.0</ele><time>2026-04-18T14:56:07.666Z</time></trkpt><trkpt lat="44.86301" lon="9.47696"><ele>427.00000000000006</ele><time>2026-04-18T14:56:09.665Z</time></trkpt><trkpt lat="44.8631033" lon="9.4769267"><ele>427.00000000000006</ele><time>2026-04-18T14:56:11.666Z</time></trkpt><trkpt lat="44.8631967" lon="9.4768333"><ele>427.0</ele><time>2026-04-18T14:56:13.665Z</time></trkpt><trkpt lat="44.8632467" lon="9.476775"><ele>427.0</ele><time>2026-04-18T14:56:14.665Z</time></trkpt><trkpt lat="44.8632983" lon="9.4767133"><ele>427.00000000000006</ele><time>2026-04-18T14:56:15.665Z</time></trkpt><trkpt lat="44.8633483" lon="9.4766367"><ele>427.0</ele><time>2026-04-18T14:56:16.665Z</time></trkpt><trkpt lat="44.863395" lon="9.47655"><ele>427.0</ele><time>2026-04-18T14:56:17.665Z</time></trkpt><trkpt lat="44.8634367" lon="9.4764617"><ele>427.0</ele><time>2026-04-18T14:56:18.665Z</time></trkpt><trkpt lat="44.86347" lon="9.4763617"><ele>427.00000000000006</ele><time>2026-04-18T14:56:19.665Z</time></trkpt><trkpt lat="44.8635" lon="9.476255"><ele>427.0</ele><time>2026-04-18T14:56:20.665Z</time></trkpt><trkpt lat="44.86353" lon="9.476145"><ele>426.33333333333337</ele><time>2026-04-18T14:56:21.665Z</time></trkpt><trkpt lat="44.8635583" lon="9.47604"><ele>425.6666666666667</ele><time>2026-04-18T14:56:22.666Z</time></trkpt><trkpt lat="44.8635917" lon="9.4759367"><ele>425.0</ele><time>2026-04-18T14:56:23.665Z</time></trkpt><trkpt lat="44.8636267" lon="9.475835"><ele>424.33333333333337</ele><time>2026-04-18T14:56:24.665Z</time></trkpt><trkpt lat="44.8636667" lon="9.4757417"><ele>423.6666666666667</ele><time>2026-04-18T14:56:25.666Z</time></trkpt><trkpt lat="44.8637083" lon="9.47565"><ele>423.0</ele><time>2026-04-18T14:56:26.665Z</time></trkpt><trkpt lat="44.8637517" lon="9.4755667"><ele>423.0</ele><time>2026-04-18T14:56:27.665Z</time></trkpt><trkpt lat="44.8637983" lon="9.475495"><ele>423.0</ele><time>2026-04-18T14:56:28.665Z</time></trkpt><trkpt lat="44.8638433" lon="9.4754267"><ele>423.0</ele><time>2026-04-18T14:56:29.665Z</time></trkpt><trkpt lat="44.8639283" lon="9.4753117"><ele>423.0</ele><time>2026-04-18T14:56:31.665Z</time></trkpt><trkpt lat="44.8640167" lon="9.475235"><ele>423.0</ele><time>2026-04-18T14:56:33.665Z</time></trkpt><trkpt lat="44.8641217" lon="9.4751783"><ele>426.25</ele><time>2026-04-18T14:56:35.665Z</time></trkpt><trkpt lat="44.86423" lon="9.4751467"><ele>429.5</ele><time>2026-04-18T14:56:37.665Z</time></trkpt><trkpt lat="44.864345" lon="9.475135"><ele>432.75</ele><time>2026-04-18T14:56:39.665Z</time></trkpt><trkpt lat="44.8644583" lon="9.47516"><ele>436.0</ele><time>2026-04-18T14:56:41.665Z</time></trkpt><trkpt lat="44.8645583" lon="9.475235"><ele>437.4</ele><time>2026-04-18T14:56:43.666Z</time></trkpt><trkpt lat="44.8646483" lon="9.4753133"><ele>438.8</ele><time>2026-04-18T14:56:45.665Z</time></trkpt><trkpt lat="44.86475" lon="9.4753633"><ele>440.19999999999993</ele><time>2026-04-18T14:56:47.666Z</time></trkpt><trkpt lat="44.8648367" lon="9.4754083"><ele>441.59999999999997</ele><time>2026-04-18T14:56:49.665Z</time></trkpt><trkpt lat="44.8649233" lon="9.4754583"><ele>443.0</ele><time>2026-04-18T14:56:51.665Z</time></trkpt><trkpt lat="44.8650233" lon="9.4755"><ele>443.79999999999995</ele><time>2026-04-18T14:56:53.665Z</time></trkpt><trkpt lat="44.86512" lon="9.4755483"><ele>444.59999999999997</ele><time>2026-04-18T14:56:55.665Z</time></trkpt><trkpt lat="44.86521" lon="9.4755983"><ele>445.40000000000003</ele><time>2026-04-18T14:56:57.665Z</time></trkpt><trkpt lat="44.8653033" lon="9.4756633"><ele>446.20000000000005</ele><time>2026-04-18T14:56:59.665Z</time></trkpt><trkpt lat="44.8653833" lon="9.4757567"><ele>447.0</ele><time>2026-04-18T14:57:01.665Z</time></trkpt><trkpt lat="44.86545" lon="9.4758633"><ele>447.0</ele><time>2026-04-18T14:57:03.665Z</time></trkpt><trkpt lat="44.8655267" lon="9.475955"><ele>447.00000000000006</ele><time>2026-04-18T14:57:05.665Z</time></trkpt><trkpt lat="44.8656067" lon="9.4760383"><ele>447.00000000000006</ele><time>2026-04-18T14:57:07.665Z</time></trkpt><trkpt lat="44.8656983" lon="9.4761233"><ele>447.0</ele><time>2026-04-18T14:57:09.665Z</time></trkpt><trkpt lat="44.8657517" lon="9.4762433"><ele>447.0</ele><time>2026-04-18T14:57:11.665Z</time></trkpt><trkpt lat="44.865795" lon="9.4763633"><ele>445.40000000000003</ele><time>2026-04-18T14:57:13.665Z</time></trkpt><trkpt lat="44.865835" lon="9.4764917"><ele>443.80000000000007</ele><time>2026-04-18T14:57:15.665Z</time></trkpt><trkpt lat="44.8658633" lon="9.4766233"><ele>442.2</ele><time>2026-04-18T14:57:17.665Z</time></trkpt><trkpt lat="44.8658633" lon="9.476775"><ele>440.6</ele><time>2026-04-18T14:57:19.665Z</time></trkpt><trkpt lat="44.865845" lon="9.476915"><ele>439.0</ele><time>2026-04-18T14:57:21.665Z</time></trkpt><trkpt lat="44.86582" lon="9.47704"><ele>438.4</ele><time>2026-04-18T14:57:23.665Z</time></trkpt><trkpt lat="44.86579" lon="9.4771883"><ele>437.79999999999995</ele><time>2026-04-18T14:57:25.666Z</time></trkpt><trkpt lat="44.865775" lon="9.4773383"><ele>437.20000000000005</ele><time>2026-04-18T14:57:27.666Z</time></trkpt><trkpt lat="44.865815" lon="9.47748"><ele>436.6</ele><time>2026-04-18T14:57:29.666Z</time></trkpt><trkpt lat="44.8659033" lon="9.4775667"><ele>436.0</ele><time>2026-04-18T14:57:31.666Z</time></trkpt><trkpt lat="44.8660367" lon="9.4775733"><ele>436.0</ele><time>2026-04-18T14:57:33.666Z</time></trkpt><trkpt lat="44.8661183" lon="9.4775667"><ele>436.0</ele><time>2026-04-18T14:57:34.666Z</time></trkpt><trkpt lat="44.86621" lon="9.4775783"><ele>436.0</ele><time>2026-04-18T14:57:35.666Z</time></trkpt><trkpt lat="44.8663017" lon="9.4776067"><ele>436.0</ele><time>2026-04-18T14:57:36.666Z</time></trkpt><trkpt lat="44.8663883" lon="9.4776567"><ele>436.0</ele><time>2026-04-18T14:57:37.666Z</time></trkpt><trkpt lat="44.8664717" lon="9.4777233"><ele>436.0</ele><time>2026-04-18T14:57:38.667Z</time></trkpt><trkpt lat="44.8665483" lon="9.4777983"><ele>436.0</ele><time>2026-04-18T14:57:39.666Z</time></trkpt><trkpt lat="44.8666317" lon="9.4778833"><ele>436.0</ele><time>2026-04-18T14:57:40.666Z</time></trkpt><trkpt lat="44.8667067" lon="9.477985"><ele>436.0</ele><time>2026-04-18T14:57:41.666Z</time></trkpt><trkpt lat="44.8667733" lon="9.4780883"><ele>436.0</ele><time>2026-04-18T14:57:42.666Z</time></trkpt><trkpt lat="44.8668383" lon="9.4782033"><ele>436.8</ele><time>2026-04-18T14:57:43.666Z</time></trkpt><trkpt lat="44.8668983" lon="9.4783183"><ele>437.6</ele><time>2026-04-18T14:57:44.666Z</time></trkpt><trkpt lat="44.8669583" lon="9.4784217"><ele>438.4</ele><time>2026-04-18T14:57:45.666Z</time></trkpt><trkpt lat="44.86701" lon="9.47853"><ele>439.2</ele><time>2026-04-18T14:57:46.667Z</time></trkpt><trkpt lat="44.867045" lon="9.4786583"><ele>440.0</ele><time>2026-04-18T14:57:47.666Z</time></trkpt><trkpt lat="44.86706" lon="9.47878"><ele>440.16666666666663</ele><time>2026-04-18T14:57:48.666Z</time></trkpt><trkpt lat="44.8670583" lon="9.4788933"><ele>440.3333333333333</ele><time>2026-04-18T14:57:49.666Z</time></trkpt><trkpt lat="44.867035" lon="9.4789917"><ele>440.5</ele><time>2026-04-18T14:57:50.666Z</time></trkpt><trkpt lat="44.8670067" lon="9.479075"><ele>440.66666666666663</ele><time>2026-04-18T14:57:51.666Z</time></trkpt><trkpt lat="44.8669567" lon="9.479215"><ele>440.8333333333333</ele><time>2026-04-18T14:57:53.666Z</time></trkpt><trkpt lat="44.86691" lon="9.4793633"><ele>441.0</ele><time>2026-04-18T14:57:55.666Z</time></trkpt><trkpt lat="44.866885" lon="9.4795133"><ele>442.0</ele><time>2026-04-18T14:57:57.666Z</time></trkpt><trkpt lat="44.8668717" lon="9.47966"><ele>443.0</ele><time>2026-04-18T14:57:59.666Z</time></trkpt><trkpt lat="44.8668617" lon="9.479805"><ele>444.0</ele><time>2026-04-18T14:58:01.666Z</time></trkpt><trkpt lat="44.8668533" lon="9.47995"><ele>445.0</ele><time>2026-04-18T14:58:03.666Z</time></trkpt><trkpt lat="44.8668433" lon="9.4800783"><ele>446.0</ele><time>2026-04-18T14:58:05.666Z</time></trkpt><trkpt lat="44.8668483" lon="9.4802017"><ele>445.99999999999994</ele><time>2026-04-18T14:58:07.667Z</time></trkpt><trkpt lat="44.8668467" lon="9.48031"><ele>446.0</ele><time>2026-04-18T14:58:09.666Z</time></trkpt><trkpt lat="44.8668617" lon="9.4804267"><ele>446.0</ele><time>2026-04-18T14:58:11.666Z</time></trkpt><trkpt lat="44.8668867" lon="9.4805383"><ele>446.0</ele><time>2026-04-18T14:58:13.666Z</time></trkpt><trkpt lat="44.866915" lon="9.4806467"><ele>445.99999999999994</ele><time>2026-04-18T14:58:15.666Z</time></trkpt><trkpt lat="44.86695" lon="9.4807383"><ele>446.0</ele><time>2026-04-18T14:58:17.666Z</time></trkpt><trkpt lat="44.866985" lon="9.4808333"><ele>445.66666666666663</ele><time>2026-04-18T14:58:19.666Z</time></trkpt><trkpt lat="44.8670233" lon="9.4809183"><ele>445.3333333333333</ele><time>2026-04-18T14:58:21.666Z</time></trkpt><trkpt lat="44.8670567" lon="9.4809983"><ele>445.0</ele><time>2026-04-18T14:58:23.666Z</time></trkpt><trkpt lat="44.867105" lon="9.48109"><ele>444.66666666666663</ele><time>2026-04-18T14:58:26.666Z</time></trkpt><trkpt lat="44.8671533" lon="9.4811517"><ele>444.3333333333333</ele><time>2026-04-18T14:58:28.666Z</time></trkpt><trkpt lat="44.8672217" lon="9.4812217"><ele>444.0</ele><time>2026-04-18T14:58:30.666Z</time></trkpt><trkpt lat="44.8673067" lon="9.4813283"><ele>443.8333333333333</ele><time>2026-04-18T14:58:32.666Z</time></trkpt><trkpt lat="44.86736" lon="9.481385"><ele>443.66666666666663</ele><time>2026-04-18T14:58:33.666Z</time></trkpt><trkpt lat="44.8674233" lon="9.481445"><ele>443.5</ele><time>2026-04-18T14:58:34.666Z</time></trkpt><trkpt lat="44.8674883" lon="9.4815067"><ele>443.3333333333333</ele><time>2026-04-18T14:58:35.666Z</time></trkpt><trkpt lat="44.8675567" lon="9.48158"><ele>443.16666666666663</ele><time>2026-04-18T14:58:36.666Z</time></trkpt><trkpt lat="44.8676283" lon="9.4816667"><ele>443.0</ele><time>2026-04-18T14:58:37.666Z</time></trkpt><trkpt lat="44.8677017" lon="9.4817517"><ele>443.0</ele><time>2026-04-18T14:58:38.666Z</time></trkpt><trkpt lat="44.86777" lon="9.48185"><ele>442.99999999999994</ele><time>2026-04-18T14:58:39.666Z</time></trkpt><trkpt lat="44.8678167" lon="9.48197"><ele>442.99999999999994</ele><time>2026-04-18T14:58:40.666Z</time></trkpt><trkpt lat="44.867835" lon="9.48212"><ele>443.0</ele><time>2026-04-18T14:58:41.666Z</time></trkpt><trkpt lat="44.8678467" lon="9.4822767"><ele>443.0</ele><time>2026-04-18T14:58:42.666Z</time></trkpt><trkpt lat="44.8678817" lon="9.482445"><ele>440.75</ele><time>2026-04-18T14:58:43.666Z</time></trkpt><trkpt lat="44.8679317" lon="9.482605"><ele>438.5</ele><time>2026-04-18T14:58:44.666Z</time></trkpt><trkpt lat="44.8679967" lon="9.482745"><ele>436.25</ele><time>2026-04-18T14:58:45.666Z</time></trkpt><trkpt lat="44.8680667" lon="9.4828833"><ele>434.0</ele><time>2026-04-18T14:58:46.666Z</time></trkpt><trkpt lat="44.868135" lon="9.4830117"><ele>433.0</ele><time>2026-04-18T14:58:47.666Z</time></trkpt><trkpt lat="44.8681967" lon="9.4831383"><ele>432.0</ele><time>2026-04-18T14:58:48.666Z</time></trkpt><trkpt lat="44.86825" lon="9.48326"><ele>431.0</ele><time>2026-04-18T14:58:49.666Z</time></trkpt><trkpt lat="44.8682983" lon="9.4833767"><ele>430.0</ele><time>2026-04-18T14:58:50.666Z</time></trkpt><trkpt lat="44.868345" lon="9.4834817"><ele>429.0</ele><time>2026-04-18T14:58:51.666Z</time></trkpt><trkpt lat="44.86839" lon="9.483585"><ele>429.0</ele><time>2026-04-18T14:58:52.666Z</time></trkpt><trkpt lat="44.8684367" lon="9.4836733"><ele>429.0</ele><time>2026-04-18T14:58:53.666Z</time></trkpt><trkpt lat="44.8684867" lon="9.4837517"><ele>429.0</ele><time>2026-04-18T14:58:54.666Z</time></trkpt><trkpt lat="44.8685417" lon="9.483815"><ele>429.0</ele><time>2026-04-18T14:58:55.666Z</time></trkpt><trkpt lat="44.86859" lon="9.483875"><ele>429.0</ele><time>2026-04-18T14:58:56.667Z</time></trkpt><trkpt lat="44.868675" lon="9.4839733"><ele>429.0</ele><time>2026-04-18T14:58:58.666Z</time></trkpt><trkpt lat="44.86875" lon="9.4840617"><ele>430.0</ele><time>2026-04-18T14:59:00.666Z</time></trkpt><trkpt lat="44.86882" lon="9.484145"><ele>431.0</ele><time>2026-04-18T14:59:02.666Z</time></trkpt><trkpt lat="44.868885" lon="9.4842233"><ele>432.0</ele><time>2026-04-18T14:59:04.666Z</time></trkpt><trkpt lat="44.8689517" lon="9.4843033"><ele>433.0</ele><time>2026-04-18T14:59:06.666Z</time></trkpt><trkpt lat="44.86903" lon="9.4843767"><ele>434.0</ele><time>2026-04-18T14:59:08.666Z</time></trkpt><trkpt lat="44.8690883" lon="9.4844667"><ele>435.0</ele><time>2026-04-18T14:59:10.666Z</time></trkpt><trkpt lat="44.8691467" lon="9.48456"><ele>435.0</ele><time>2026-04-18T14:59:12.666Z</time></trkpt><trkpt lat="44.86921" lon="9.4846133"><ele>430.0</ele><time>2026-04-18T14:59:14.666Z</time></trkpt><trkpt lat="44.8692883" lon="9.484655"><ele>444.0</ele><time>2026-04-18T14:59:16.666Z</time></trkpt><trkpt lat="44.8693517" lon="9.4847017"><ele>444.0</ele><time>2026-04-18T14:59:18.666Z</time></trkpt><trkpt lat="44.8694117" lon="9.4847617"><ele>444.0</ele><time>2026-04-18T14:59:20.666Z</time></trkpt><trkpt lat="44.869475" lon="9.4847983"><ele>444.0</ele><time>2026-04-18T14:59:22.666Z</time></trkpt></trkseg></trk></gpx>